<?xml version="1.0" encoding="UTF-8" standalone="no" ?>
<gpx xmlns="http://www.topografix.com/GPX/1/1" xmlns:xsi="http://www.w3.org/2001/XMLSchema-instance" xsi:schemaLocation="http://www.topografix.com/GPX/1/1 http://www.topografix.com/GPX/1/1/gpx.xsd" version="1.1" creator="VisuGPX - https://www.visugpx.com">
  <metadata>
    <name>randodespointes70KM</name>
    <desc><![CDATA[Total: 70.1km]]></desc>
  </metadata>
  <trk>
    <name><![CDATA[RDP 2026-70KM]]></name>
    <desc><![CDATA[Total: 70.1km]]></desc>
    <extensions>
      <line xmlns="http://www.topografix.com/GPX/gpx_style/0/2">
        <color>0000FF</color>
        <width>4</width>
      </line>
    </extensions>
    <trkseg>
      <trkpt lat="48.00745" lon="-4.11578">
        <ele>6.14</ele>
        <time>2026-05-02T16:14:21.000Z</time>
      </trkpt>
      <trkpt lat="48.00721" lon="-4.11592">
        <ele>6.1</ele>
        <time>2026-05-02T16:14:25.350Z</time>
      </trkpt>
      <trkpt lat="48.0071" lon="-4.11595">
        <ele>6.07</ele>
        <time>2026-05-02T16:14:27.218Z</time>
      </trkpt>
      <trkpt lat="48.00697" lon="-4.11599">
        <ele>6.06</ele>
        <time>2026-05-02T16:14:29.476Z</time>
      </trkpt>
      <trkpt lat="48.00682" lon="-4.11605">
        <ele>6.09</ele>
        <time>2026-05-02T16:14:32.186Z</time>
      </trkpt>
      <trkpt lat="48.00656" lon="-4.11625">
        <ele>6.15</ele>
        <time>2026-05-02T16:14:37.296Z</time>
      </trkpt>
      <trkpt lat="48.00648" lon="-4.11631">
        <ele>6.25</ele>
        <time>2026-05-02T16:14:39.008Z</time>
      </trkpt>
      <trkpt lat="48.00643" lon="-4.11635">
        <ele>6.37</ele>
        <time>2026-05-02T16:14:40.214Z</time>
      </trkpt>
      <trkpt lat="48.00633" lon="-4.11646">
        <ele>6.52</ele>
        <time>2026-05-02T16:14:42.611Z</time>
      </trkpt>
      <trkpt lat="48.00618" lon="-4.11646">
        <ele>6.67</ele>
        <time>2026-05-02T16:14:45.447Z</time>
      </trkpt>
      <trkpt lat="48.00613" lon="-4.11648">
        <ele>6.84</ele>
        <time>2026-05-02T16:14:46.701Z</time>
      </trkpt>
      <trkpt lat="48.00588" lon="-4.11665">
        <ele>7.05</ele>
        <time>2026-05-02T16:14:51.772Z</time>
      </trkpt>
      <trkpt lat="48.00562" lon="-4.11683">
        <ele>7.3</ele>
        <time>2026-05-02T16:14:57.119Z</time>
      </trkpt>
      <trkpt lat="48.00536" lon="-4.117">
        <ele>7.64</ele>
        <time>2026-05-02T16:15:02.593Z</time>
      </trkpt>
      <trkpt lat="48.0051" lon="-4.11709">
        <ele>7.95</ele>
        <time>2026-05-02T16:15:07.722Z</time>
      </trkpt>
      <trkpt lat="48.00485" lon="-4.11719">
        <ele>8.25</ele>
        <time>2026-05-02T16:15:12.694Z</time>
      </trkpt>
      <trkpt lat="48.00478" lon="-4.11721">
        <ele>8.49</ele>
        <time>2026-05-02T16:15:14.438Z</time>
      </trkpt>
      <trkpt lat="48.0047" lon="-4.1173">
        <ele>8.72</ele>
        <time>2026-05-02T16:15:16.609Z</time>
      </trkpt>
      <trkpt lat="48.00459" lon="-4.11758">
        <ele>9.05</ele>
        <time>2026-05-02T16:15:20.941Z</time>
      </trkpt>
      <trkpt lat="48.00459" lon="-4.11758">
        <ele>9.2</ele>
        <time>2026-05-02T16:15:20.941Z</time>
      </trkpt>
      <trkpt lat="48.00459" lon="-4.11758">
        <ele>9.05</ele>
        <time>2026-05-02T16:15:20.941Z</time>
      </trkpt>
      <trkpt lat="48.00441" lon="-4.11743">
        <ele>9.2</ele>
        <time>2026-05-02T16:15:24.732Z</time>
      </trkpt>
      <trkpt lat="48.00422" lon="-4.11728">
        <ele>9.06</ele>
        <time>2026-05-02T16:15:28.197Z</time>
      </trkpt>
      <trkpt lat="48.0042" lon="-4.11734">
        <ele>8.92</ele>
        <time>2026-05-02T16:15:28.785Z</time>
      </trkpt>
      <trkpt lat="48.00414" lon="-4.11728">
        <ele>8.7</ele>
        <time>2026-05-02T16:15:29.736Z</time>
      </trkpt>
      <trkpt lat="48.00403" lon="-4.11708">
        <ele>8.33</ele>
        <time>2026-05-02T16:15:32.192Z</time>
      </trkpt>
      <trkpt lat="48.00392" lon="-4.11689">
        <ele>8.03</ele>
        <time>2026-05-02T16:15:34.647Z</time>
      </trkpt>
      <trkpt lat="48.00377" lon="-4.11652">
        <ele>7.7</ele>
        <time>2026-05-02T16:15:39.115Z</time>
      </trkpt>
      <trkpt lat="48.00362" lon="-4.11616">
        <ele>7.28</ele>
        <time>2026-05-02T16:15:43.366Z</time>
      </trkpt>
      <trkpt lat="48.0036" lon="-4.11614">
        <ele>6.92</ele>
        <time>2026-05-02T16:15:43.614Z</time>
      </trkpt>
      <trkpt lat="48.00358" lon="-4.1161">
        <ele>6.57</ele>
        <time>2026-05-02T16:15:43.957Z</time>
      </trkpt>
      <trkpt lat="48.00352" lon="-4.11597">
        <ele>6.21</ele>
        <time>2026-05-02T16:15:45.312Z</time>
      </trkpt>
      <trkpt lat="48.00345" lon="-4.11582">
        <ele>5.81</ele>
        <time>2026-05-02T16:15:46.898Z</time>
      </trkpt>
      <trkpt lat="48.00343" lon="-4.11573">
        <ele>5.47</ele>
        <time>2026-05-02T16:15:47.606Z</time>
      </trkpt>
      <trkpt lat="48.00343" lon="-4.11571">
        <ele>5.18</ele>
        <time>2026-05-02T16:15:47.744Z</time>
      </trkpt>
      <trkpt lat="48.00343" lon="-4.11571">
        <ele>4.94</ele>
        <time>2026-05-02T16:15:47.744Z</time>
      </trkpt>
      <trkpt lat="48.0033" lon="-4.11539">
        <ele>4.7</ele>
        <time>2026-05-02T16:15:51.673Z</time>
      </trkpt>
      <trkpt lat="48.00317" lon="-4.11508">
        <ele>4.56</ele>
        <time>2026-05-02T16:15:55.649Z</time>
      </trkpt>
      <trkpt lat="48.00304" lon="-4.11477">
        <ele>4.54</ele>
        <time>2026-05-02T16:15:59.811Z</time>
      </trkpt>
      <trkpt lat="48.003" lon="-4.1147">
        <ele>4.46</ele>
        <time>2026-05-02T16:16:00.749Z</time>
      </trkpt>
      <trkpt lat="48.00284" lon="-4.11457">
        <ele>4.4</ele>
        <time>2026-05-02T16:16:03.774Z</time>
      </trkpt>
      <trkpt lat="48.00268" lon="-4.11444">
        <ele>4.38</ele>
        <time>2026-05-02T16:16:06.862Z</time>
      </trkpt>
      <trkpt lat="48.00244" lon="-4.11423">
        <ele>4.39</ele>
        <time>2026-05-02T16:16:11.644Z</time>
      </trkpt>
      <trkpt lat="48.00244" lon="-4.11423">
        <ele>4.41</ele>
        <time>2026-05-02T16:16:11.644Z</time>
      </trkpt>
      <trkpt lat="48.00234" lon="-4.11417">
        <ele>4.44</ele>
        <time>2026-05-02T16:16:13.540Z</time>
      </trkpt>
      <trkpt lat="48.00225" lon="-4.11417">
        <ele>4.5</ele>
        <time>2026-05-02T16:16:15.186Z</time>
      </trkpt>
      <trkpt lat="48.00221" lon="-4.11406">
        <ele>4.58</ele>
        <time>2026-05-02T16:16:16.762Z</time>
      </trkpt>
      <trkpt lat="48.00223" lon="-4.11393">
        <ele>4.68</ele>
        <time>2026-05-02T16:16:18.470Z</time>
      </trkpt>
      <trkpt lat="48.00223" lon="-4.11391">
        <ele>4.77</ele>
        <time>2026-05-02T16:16:18.972Z</time>
      </trkpt>
      <trkpt lat="48.00223" lon="-4.11371">
        <ele>4.86</ele>
        <time>2026-05-02T16:16:21.420Z</time>
      </trkpt>
      <trkpt lat="48.00217" lon="-4.11342">
        <ele>4.95</ele>
        <time>2026-05-02T16:16:25.052Z</time>
      </trkpt>
      <trkpt lat="48.00212" lon="-4.11314">
        <ele>5.03</ele>
        <time>2026-05-02T16:16:28.509Z</time>
      </trkpt>
      <trkpt lat="48.00212" lon="-4.11306">
        <ele>5.11</ele>
        <time>2026-05-02T16:16:29.574Z</time>
      </trkpt>
      <trkpt lat="48.00212" lon="-4.11306">
        <ele>5.2</ele>
        <time>2026-05-02T16:16:29.574Z</time>
      </trkpt>
      <trkpt lat="48.0021" lon="-4.11271">
        <ele>5.26</ele>
        <time>2026-05-02T16:16:33.701Z</time>
      </trkpt>
      <trkpt lat="48.00206" lon="-4.11232">
        <ele>5.33</ele>
        <time>2026-05-02T16:16:38.341Z</time>
      </trkpt>
      <trkpt lat="48.00193" lon="-4.11196">
        <ele>5.37</ele>
        <time>2026-05-02T16:16:43.097Z</time>
      </trkpt>
      <trkpt lat="48.00176" lon="-4.11168">
        <ele>5.46</ele>
        <time>2026-05-02T16:16:47.582Z</time>
      </trkpt>
      <trkpt lat="48.0016" lon="-4.11145">
        <ele>5.59</ele>
        <time>2026-05-02T16:16:51.608Z</time>
      </trkpt>
      <trkpt lat="48.00143" lon="-4.11123">
        <ele>5.76</ele>
        <time>2026-05-02T16:16:55.756Z</time>
      </trkpt>
      <trkpt lat="48.00135" lon="-4.1111">
        <ele>5.93</ele>
        <time>2026-05-02T16:16:58.093Z</time>
      </trkpt>
      <trkpt lat="48.00128" lon="-4.11099">
        <ele>6.13</ele>
        <time>2026-05-02T16:17:00.218Z</time>
      </trkpt>
      <trkpt lat="48.00124" lon="-4.11093">
        <ele>6.28</ele>
        <time>2026-05-02T16:17:01.495Z</time>
      </trkpt>
      <trkpt lat="48.0012" lon="-4.1109">
        <ele>6.42</ele>
        <time>2026-05-02T16:17:02.561Z</time>
      </trkpt>
      <trkpt lat="48.00118" lon="-4.11084">
        <ele>6.54</ele>
        <time>2026-05-02T16:17:03.575Z</time>
      </trkpt>
      <trkpt lat="48.00109" lon="-4.11071">
        <ele>6.66</ele>
        <time>2026-05-02T16:17:05.931Z</time>
      </trkpt>
      <trkpt lat="48.0009" lon="-4.11041">
        <ele>6.76</ele>
        <time>2026-05-02T16:17:10.835Z</time>
      </trkpt>
      <trkpt lat="48.00077" lon="-4.11024">
        <ele>6.86</ele>
        <time>2026-05-02T16:17:13.965Z</time>
      </trkpt>
      <trkpt lat="48.00064" lon="-4.11007">
        <ele>6.98</ele>
        <time>2026-05-02T16:17:17.132Z</time>
      </trkpt>
      <trkpt lat="48.00064" lon="-4.11007">
        <ele>7.09</ele>
        <time>2026-05-02T16:17:17.132Z</time>
      </trkpt>
      <trkpt lat="48.00049" lon="-4.10996">
        <ele>7.25</ele>
        <time>2026-05-02T16:17:20.277Z</time>
      </trkpt>
      <trkpt lat="48.00049" lon="-4.10996">
        <ele>7.36</ele>
        <time>2026-05-02T16:17:20.277Z</time>
      </trkpt>
      <trkpt lat="48.00034" lon="-4.10984">
        <ele>7.51</ele>
        <time>2026-05-02T16:17:23.455Z</time>
      </trkpt>
      <trkpt lat="48.00019" lon="-4.10972">
        <ele>7.65</ele>
        <time>2026-05-02T16:17:26.614Z</time>
      </trkpt>
      <trkpt lat="48.00013" lon="-4.10968">
        <ele>7.85</ele>
        <time>2026-05-02T16:17:28.163Z</time>
      </trkpt>
      <trkpt lat="47.99989" lon="-4.1095">
        <ele>7.91</ele>
        <time>2026-05-02T16:17:32.864Z</time>
      </trkpt>
      <trkpt lat="47.99965" lon="-4.10932">
        <ele>8.04</ele>
        <time>2026-05-02T16:17:37.685Z</time>
      </trkpt>
      <trkpt lat="47.99942" lon="-4.10914">
        <ele>8.1</ele>
        <time>2026-05-02T16:17:42.233Z</time>
      </trkpt>
      <trkpt lat="47.99925" lon="-4.10902">
        <ele>8.18</ele>
        <time>2026-05-02T16:17:45.590Z</time>
      </trkpt>
      <trkpt lat="47.99922" lon="-4.10899">
        <ele>8.32</ele>
        <time>2026-05-02T16:17:46.529Z</time>
      </trkpt>
      <trkpt lat="47.99922" lon="-4.10899">
        <ele>8.46</ele>
        <time>2026-05-02T16:17:46.529Z</time>
      </trkpt>
      <trkpt lat="47.99895" lon="-4.10878">
        <ele>8.64</ele>
        <time>2026-05-02T16:17:52.052Z</time>
      </trkpt>
      <trkpt lat="47.99868" lon="-4.10857">
        <ele>8.91</ele>
        <time>2026-05-02T16:17:57.740Z</time>
      </trkpt>
      <trkpt lat="47.99847" lon="-4.10841">
        <ele>9.23</ele>
        <time>2026-05-02T16:18:02.362Z</time>
      </trkpt>
      <trkpt lat="47.99823" lon="-4.10853">
        <ele>9.4</ele>
        <time>2026-05-02T16:18:06.991Z</time>
      </trkpt>
      <trkpt lat="47.99799" lon="-4.10864">
        <ele>9.55</ele>
        <time>2026-05-02T16:18:11.549Z</time>
      </trkpt>
      <trkpt lat="47.99775" lon="-4.10875">
        <ele>9.75</ele>
        <time>2026-05-02T16:18:16.198Z</time>
      </trkpt>
      <trkpt lat="47.99751" lon="-4.10887">
        <ele>10.03</ele>
        <time>2026-05-02T16:18:21.034Z</time>
      </trkpt>
      <trkpt lat="47.99747" lon="-4.10912">
        <ele>10.34</ele>
        <time>2026-05-02T16:18:24.569Z</time>
      </trkpt>
      <trkpt lat="47.99744" lon="-4.10944">
        <ele>10.69</ele>
        <time>2026-05-02T16:18:28.926Z</time>
      </trkpt>
      <trkpt lat="47.99725" lon="-4.10928">
        <ele>10.96</ele>
        <time>2026-05-02T16:18:33.150Z</time>
      </trkpt>
      <trkpt lat="47.99706" lon="-4.10912">
        <ele>11.22</ele>
        <time>2026-05-02T16:18:37.354Z</time>
      </trkpt>
      <trkpt lat="47.99686" lon="-4.10895">
        <ele>11.54</ele>
        <time>2026-05-02T16:18:41.882Z</time>
      </trkpt>
      <trkpt lat="47.99666" lon="-4.10878">
        <ele>11.83</ele>
        <time>2026-05-02T16:18:46.349Z</time>
      </trkpt>
      <trkpt lat="47.99646" lon="-4.10861">
        <ele>12.14</ele>
        <time>2026-05-02T16:18:50.856Z</time>
      </trkpt>
      <trkpt lat="47.99641" lon="-4.10889">
        <ele>12.54</ele>
        <time>2026-05-02T16:18:54.954Z</time>
      </trkpt>
      <trkpt lat="47.99636" lon="-4.10928">
        <ele>12.94</ele>
        <time>2026-05-02T16:19:00.245Z</time>
      </trkpt>
      <trkpt lat="47.99631" lon="-4.10968">
        <ele>13.28</ele>
        <time>2026-05-02T16:19:05.525Z</time>
      </trkpt>
      <trkpt lat="47.99624" lon="-4.10981">
        <ele>13.59</ele>
        <time>2026-05-02T16:19:08.079Z</time>
      </trkpt>
      <trkpt lat="47.99603" lon="-4.11013">
        <ele>13.82</ele>
        <time>2026-05-02T16:19:13.617Z</time>
      </trkpt>
      <trkpt lat="47.99581" lon="-4.11045">
        <ele>14.07</ele>
        <time>2026-05-02T16:19:19.313Z</time>
      </trkpt>
      <trkpt lat="47.99581" lon="-4.11045">
        <ele>14.33</ele>
        <time>2026-05-02T16:19:19.313Z</time>
      </trkpt>
      <trkpt lat="47.99558" lon="-4.11075">
        <ele>14.63</ele>
        <time>2026-05-02T16:19:25.073Z</time>
      </trkpt>
      <trkpt lat="47.99558" lon="-4.11075">
        <ele>14.87</ele>
        <time>2026-05-02T16:19:25.073Z</time>
      </trkpt>
      <trkpt lat="47.99549" lon="-4.11075">
        <ele>15.09</ele>
        <time>2026-05-02T16:19:27.057Z</time>
      </trkpt>
      <trkpt lat="47.9953" lon="-4.11067">
        <ele>15.28</ele>
        <time>2026-05-02T16:19:30.774Z</time>
      </trkpt>
      <trkpt lat="47.99521" lon="-4.11065">
        <ele>15.46</ele>
        <time>2026-05-02T16:19:32.679Z</time>
      </trkpt>
      <trkpt lat="47.99521" lon="-4.11065">
        <ele>15.62</ele>
        <time>2026-05-02T16:19:32.679Z</time>
      </trkpt>
      <trkpt lat="47.99504" lon="-4.1108">
        <ele>15.79</ele>
        <time>2026-05-02T16:19:36.359Z</time>
      </trkpt>
      <trkpt lat="47.99487" lon="-4.11095">
        <ele>15.93</ele>
        <time>2026-05-02T16:19:39.983Z</time>
      </trkpt>
      <trkpt lat="47.99463" lon="-4.11112">
        <ele>16.08</ele>
        <time>2026-05-02T16:19:44.790Z</time>
      </trkpt>
      <trkpt lat="47.99448" lon="-4.11123">
        <ele>16.2</ele>
        <time>2026-05-02T16:19:47.861Z</time>
      </trkpt>
      <trkpt lat="47.99433" lon="-4.11131">
        <ele>16.29</ele>
        <time>2026-05-02T16:19:50.743Z</time>
      </trkpt>
      <trkpt lat="47.99407" lon="-4.1114">
        <ele>16.36</ele>
        <time>2026-05-02T16:19:55.432Z</time>
      </trkpt>
      <trkpt lat="47.99378" lon="-4.11148">
        <ele>16.4</ele>
        <time>2026-05-02T16:20:00.551Z</time>
      </trkpt>
      <trkpt lat="47.99353" lon="-4.11155">
        <ele>16.35</ele>
        <time>2026-05-02T16:20:04.829Z</time>
      </trkpt>
      <trkpt lat="47.99328" lon="-4.11163">
        <ele>16.13</ele>
        <time>2026-05-02T16:20:08.875Z</time>
      </trkpt>
      <trkpt lat="47.99302" lon="-4.1117">
        <ele>15.79</ele>
        <time>2026-05-02T16:20:12.901Z</time>
      </trkpt>
      <trkpt lat="47.99302" lon="-4.1117">
        <ele>15.56</ele>
        <time>2026-05-02T16:20:12.901Z</time>
      </trkpt>
      <trkpt lat="47.99285" lon="-4.11185">
        <ele>15.23</ele>
        <time>2026-05-02T16:20:15.811Z</time>
      </trkpt>
      <trkpt lat="47.9927" lon="-4.11203">
        <ele>14.94</ele>
        <time>2026-05-02T16:20:18.687Z</time>
      </trkpt>
      <trkpt lat="47.99255" lon="-4.11221">
        <ele>14.57</ele>
        <time>2026-05-02T16:20:21.463Z</time>
      </trkpt>
      <trkpt lat="47.99255" lon="-4.11221">
        <ele>14.22</ele>
        <time>2026-05-02T16:20:21.463Z</time>
      </trkpt>
      <trkpt lat="47.99241" lon="-4.1124">
        <ele>13.78</ele>
        <time>2026-05-02T16:20:24.103Z</time>
      </trkpt>
      <trkpt lat="47.99227" lon="-4.11258">
        <ele>13.36</ele>
        <time>2026-05-02T16:20:26.691Z</time>
      </trkpt>
      <trkpt lat="47.99211" lon="-4.11292">
        <ele>12.93</ele>
        <time>2026-05-02T16:20:30.836Z</time>
      </trkpt>
      <trkpt lat="47.99195" lon="-4.11326">
        <ele>12.5</ele>
        <time>2026-05-02T16:20:34.980Z</time>
      </trkpt>
      <trkpt lat="47.99178" lon="-4.11359">
        <ele>12.07</ele>
        <time>2026-05-02T16:20:39.134Z</time>
      </trkpt>
      <trkpt lat="47.99165" lon="-4.1138">
        <ele>11.72</ele>
        <time>2026-05-02T16:20:41.919Z</time>
      </trkpt>
      <trkpt lat="47.99152" lon="-4.11402">
        <ele>11.34</ele>
        <time>2026-05-02T16:20:44.750Z</time>
      </trkpt>
      <trkpt lat="47.99152" lon="-4.11402">
        <ele>10.95</ele>
        <time>2026-05-02T16:20:44.750Z</time>
      </trkpt>
      <trkpt lat="47.99137" lon="-4.11437">
        <ele>10.49</ele>
        <time>2026-05-02T16:20:48.857Z</time>
      </trkpt>
      <trkpt lat="47.99122" lon="-4.11472">
        <ele>10.05</ele>
        <time>2026-05-02T16:20:52.988Z</time>
      </trkpt>
      <trkpt lat="47.99118" lon="-4.11479">
        <ele>9.68</ele>
        <time>2026-05-02T16:20:53.648Z</time>
      </trkpt>
      <trkpt lat="47.99118" lon="-4.11487">
        <ele>9.35</ele>
        <time>2026-05-02T16:20:54.216Z</time>
      </trkpt>
      <trkpt lat="47.99118" lon="-4.11487">
        <ele>9.04</ele>
        <time>2026-05-02T16:20:54.216Z</time>
      </trkpt>
      <trkpt lat="47.9912" lon="-4.11507">
        <ele>8.77</ele>
        <time>2026-05-02T16:20:56.157Z</time>
      </trkpt>
      <trkpt lat="47.99122" lon="-4.11531">
        <ele>8.55</ele>
        <time>2026-05-02T16:20:58.608Z</time>
      </trkpt>
      <trkpt lat="47.99124" lon="-4.11556">
        <ele>8.35</ele>
        <time>2026-05-02T16:21:01.198Z</time>
      </trkpt>
      <trkpt lat="47.99127" lon="-4.11584">
        <ele>8.16</ele>
        <time>2026-05-02T16:21:04.163Z</time>
      </trkpt>
      <trkpt lat="47.99131" lon="-4.11612">
        <ele>7.97</ele>
        <time>2026-05-02T16:21:07.160Z</time>
      </trkpt>
      <trkpt lat="47.99135" lon="-4.11648">
        <ele>7.78</ele>
        <time>2026-05-02T16:21:11.054Z</time>
      </trkpt>
      <trkpt lat="47.99139" lon="-4.11676">
        <ele>7.65</ele>
        <time>2026-05-02T16:21:14.136Z</time>
      </trkpt>
      <trkpt lat="47.99141" lon="-4.11689">
        <ele>7.58</ele>
        <time>2026-05-02T16:21:15.558Z</time>
      </trkpt>
      <trkpt lat="47.99144" lon="-4.11704">
        <ele>7.54</ele>
        <time>2026-05-02T16:21:17.290Z</time>
      </trkpt>
      <trkpt lat="47.99146" lon="-4.11708">
        <ele>7.53</ele>
        <time>2026-05-02T16:21:17.847Z</time>
      </trkpt>
      <trkpt lat="47.99146" lon="-4.11719">
        <ele>7.56</ele>
        <time>2026-05-02T16:21:19.159Z</time>
      </trkpt>
      <trkpt lat="47.99139" lon="-4.11726">
        <ele>7.6</ele>
        <time>2026-05-02T16:21:20.670Z</time>
      </trkpt>
      <trkpt lat="47.99133" lon="-4.11723">
        <ele>7.64</ele>
        <time>2026-05-02T16:21:21.823Z</time>
      </trkpt>
      <trkpt lat="47.99124" lon="-4.1173">
        <ele>7.73</ele>
        <time>2026-05-02T16:21:23.719Z</time>
      </trkpt>
      <trkpt lat="47.99109" lon="-4.11732">
        <ele>7.81</ele>
        <time>2026-05-02T16:21:26.435Z</time>
      </trkpt>
      <trkpt lat="47.99092" lon="-4.11739">
        <ele>7.94</ele>
        <time>2026-05-02T16:21:29.682Z</time>
      </trkpt>
      <trkpt lat="47.99075" lon="-4.11747">
        <ele>8.09</ele>
        <time>2026-05-02T16:21:32.997Z</time>
      </trkpt>
      <trkpt lat="47.9906" lon="-4.11758">
        <ele>8.34</ele>
        <time>2026-05-02T16:21:36.322Z</time>
      </trkpt>
      <trkpt lat="47.9904" lon="-4.11786">
        <ele>8.65</ele>
        <time>2026-05-02T16:21:41.572Z</time>
      </trkpt>
      <trkpt lat="47.9902" lon="-4.11814">
        <ele>8.95</ele>
        <time>2026-05-02T16:21:46.803Z</time>
      </trkpt>
      <trkpt lat="47.99" lon="-4.11841">
        <ele>9.27</ele>
        <time>2026-05-02T16:21:51.996Z</time>
      </trkpt>
      <trkpt lat="47.99" lon="-4.11841">
        <ele>9.62</ele>
        <time>2026-05-02T16:21:51.996Z</time>
      </trkpt>
      <trkpt lat="47.99" lon="-4.11841">
        <ele>9.27</ele>
        <time>2026-05-02T16:21:51.996Z</time>
      </trkpt>
      <trkpt lat="47.98978" lon="-4.11869">
        <ele>10.39</ele>
        <time>2026-05-02T16:21:59.511Z</time>
      </trkpt>
      <trkpt lat="47.98957" lon="-4.11884">
        <ele>10.82</ele>
        <time>2026-05-02T16:22:04.317Z</time>
      </trkpt>
      <trkpt lat="47.9894" lon="-4.11899">
        <ele>11.31</ele>
        <time>2026-05-02T16:22:08.685Z</time>
      </trkpt>
      <trkpt lat="47.98913" lon="-4.11918">
        <ele>11.89</ele>
        <time>2026-05-02T16:22:14.911Z</time>
      </trkpt>
      <trkpt lat="47.98886" lon="-4.11936">
        <ele>12.45</ele>
        <time>2026-05-02T16:22:21.046Z</time>
      </trkpt>
      <trkpt lat="47.98857" lon="-4.11947">
        <ele>12.87</ele>
        <time>2026-05-02T16:22:26.942Z</time>
      </trkpt>
      <trkpt lat="47.98829" lon="-4.11957">
        <ele>13.29</ele>
        <time>2026-05-02T16:22:32.647Z</time>
      </trkpt>
      <trkpt lat="47.988" lon="-4.11968">
        <ele>13.66</ele>
        <time>2026-05-02T16:22:38.441Z</time>
      </trkpt>
      <trkpt lat="47.98782" lon="-4.11974">
        <ele>14.04</ele>
        <time>2026-05-02T16:22:42.337Z</time>
      </trkpt>
      <trkpt lat="47.98764" lon="-4.11981">
        <ele>14.41</ele>
        <time>2026-05-02T16:22:46.237Z</time>
      </trkpt>
      <trkpt lat="47.98751" lon="-4.11985">
        <ele>14.8</ele>
        <time>2026-05-02T16:22:49.328Z</time>
      </trkpt>
      <trkpt lat="47.98751" lon="-4.11985">
        <ele>15.11</ele>
        <time>2026-05-02T16:22:49.328Z</time>
      </trkpt>
      <trkpt lat="47.98722" lon="-4.11995">
        <ele>15.51</ele>
        <time>2026-05-02T16:22:55.156Z</time>
      </trkpt>
      <trkpt lat="47.98694" lon="-4.12004">
        <ele>15.85</ele>
        <time>2026-05-02T16:23:00.675Z</time>
      </trkpt>
      <trkpt lat="47.98666" lon="-4.12014">
        <ele>16.03</ele>
        <time>2026-05-02T16:23:05.916Z</time>
      </trkpt>
      <trkpt lat="47.98642" lon="-4.12021">
        <ele>16.12</ele>
        <time>2026-05-02T16:23:10.257Z</time>
      </trkpt>
      <trkpt lat="47.98618" lon="-4.12029">
        <ele>16.14</ele>
        <time>2026-05-02T16:23:14.503Z</time>
      </trkpt>
      <trkpt lat="47.98594" lon="-4.12037">
        <ele>16.16</ele>
        <time>2026-05-02T16:23:18.750Z</time>
      </trkpt>
      <trkpt lat="47.98571" lon="-4.12045">
        <ele>16.21</ele>
        <time>2026-05-02T16:23:22.879Z</time>
      </trkpt>
      <trkpt lat="47.98545" lon="-4.12058">
        <ele>16.17</ele>
        <time>2026-05-02T16:23:27.512Z</time>
      </trkpt>
      <trkpt lat="47.98528" lon="-4.1206">
        <ele>16.09</ele>
        <time>2026-05-02T16:23:30.308Z</time>
      </trkpt>
      <trkpt lat="47.98511" lon="-4.12062">
        <ele>15.97</ele>
        <time>2026-05-02T16:23:33.045Z</time>
      </trkpt>
      <trkpt lat="47.98481" lon="-4.1207">
        <ele>15.85</ele>
        <time>2026-05-02T16:23:38.077Z</time>
      </trkpt>
      <trkpt lat="47.9845" lon="-4.12077">
        <ele>15.73</ele>
        <time>2026-05-02T16:23:43.260Z</time>
      </trkpt>
      <trkpt lat="47.9845" lon="-4.12077">
        <ele>15.47</ele>
        <time>2026-05-02T16:23:43.260Z</time>
      </trkpt>
      <trkpt lat="47.98423" lon="-4.12077">
        <ele>15.24</ele>
        <time>2026-05-02T16:23:47.536Z</time>
      </trkpt>
      <trkpt lat="47.98393" lon="-4.12069">
        <ele>14.92</ele>
        <time>2026-05-02T16:23:52.277Z</time>
      </trkpt>
      <trkpt lat="47.98367" lon="-4.12061">
        <ele>14.49</ele>
        <time>2026-05-02T16:23:56.207Z</time>
      </trkpt>
      <trkpt lat="47.98341" lon="-4.12053">
        <ele>13.94</ele>
        <time>2026-05-02T16:23:59.991Z</time>
      </trkpt>
      <trkpt lat="47.98315" lon="-4.12045">
        <ele>13.37</ele>
        <time>2026-05-02T16:24:03.751Z</time>
      </trkpt>
      <trkpt lat="47.98292" lon="-4.12047">
        <ele>12.83</ele>
        <time>2026-05-02T16:24:06.962Z</time>
      </trkpt>
      <trkpt lat="47.98276" lon="-4.12053">
        <ele>12.26</ele>
        <time>2026-05-02T16:24:09.069Z</time>
      </trkpt>
      <trkpt lat="47.9826" lon="-4.12058">
        <ele>11.67</ele>
        <time>2026-05-02T16:24:11.134Z</time>
      </trkpt>
      <trkpt lat="47.9823" lon="-4.1207">
        <ele>11.02</ele>
        <time>2026-05-02T16:24:15.552Z</time>
      </trkpt>
      <trkpt lat="47.98201" lon="-4.12082">
        <ele>10.31</ele>
        <time>2026-05-02T16:24:19.741Z</time>
      </trkpt>
      <trkpt lat="47.9818" lon="-4.1209">
        <ele>9.65</ele>
        <time>2026-05-02T16:24:22.598Z</time>
      </trkpt>
      <trkpt lat="47.98159" lon="-4.12099">
        <ele>9.03</ele>
        <time>2026-05-02T16:24:25.525Z</time>
      </trkpt>
      <trkpt lat="47.98159" lon="-4.12099">
        <ele>8.44</ele>
        <time>2026-05-02T16:24:25.525Z</time>
      </trkpt>
      <trkpt lat="47.98133" lon="-4.1211">
        <ele>7.88</ele>
        <time>2026-05-02T16:24:29.377Z</time>
      </trkpt>
      <trkpt lat="47.98109" lon="-4.12118">
        <ele>7.32</ele>
        <time>2026-05-02T16:24:32.823Z</time>
      </trkpt>
      <trkpt lat="47.98109" lon="-4.12118">
        <ele>6.79</ele>
        <time>2026-05-02T16:24:32.823Z</time>
      </trkpt>
      <trkpt lat="47.98086" lon="-4.12129">
        <ele>6.27</ele>
        <time>2026-05-02T16:24:36.242Z</time>
      </trkpt>
      <trkpt lat="47.98062" lon="-4.1214">
        <ele>5.77</ele>
        <time>2026-05-02T16:24:39.844Z</time>
      </trkpt>
      <trkpt lat="47.9806" lon="-4.12142">
        <ele>5.34</ele>
        <time>2026-05-02T16:24:40.091Z</time>
      </trkpt>
      <trkpt lat="47.98056" lon="-4.12144">
        <ele>4.94</ele>
        <time>2026-05-02T16:24:40.525Z</time>
      </trkpt>
      <trkpt lat="47.98045" lon="-4.12153">
        <ele>4.59</ele>
        <time>2026-05-02T16:24:42.211Z</time>
      </trkpt>
      <trkpt lat="47.9803" lon="-4.1217">
        <ele>4.33</ele>
        <time>2026-05-02T16:24:45.057Z</time>
      </trkpt>
      <trkpt lat="47.98013" lon="-4.12204">
        <ele>4.12</ele>
        <time>2026-05-02T16:24:49.601Z</time>
      </trkpt>
      <trkpt lat="47.98011" lon="-4.12225">
        <ele>3.91</ele>
        <time>2026-05-02T16:24:51.729Z</time>
      </trkpt>
      <trkpt lat="47.98008" lon="-4.12241">
        <ele>3.74</ele>
        <time>2026-05-02T16:24:53.389Z</time>
      </trkpt>
      <trkpt lat="47.97996" lon="-4.12264">
        <ele>3.57</ele>
        <time>2026-05-02T16:24:56.475Z</time>
      </trkpt>
      <trkpt lat="47.97985" lon="-4.12273">
        <ele>3.48</ele>
        <time>2026-05-02T16:24:58.485Z</time>
      </trkpt>
      <trkpt lat="47.97972" lon="-4.12273">
        <ele>3.46</ele>
        <time>2026-05-02T16:25:00.681Z</time>
      </trkpt>
      <trkpt lat="47.97961" lon="-4.12266">
        <ele>3.53</ele>
        <time>2026-05-02T16:25:02.849Z</time>
      </trkpt>
      <trkpt lat="47.97961" lon="-4.12266">
        <ele>3.66</ele>
        <time>2026-05-02T16:25:02.849Z</time>
      </trkpt>
      <trkpt lat="47.97955" lon="-4.12258">
        <ele>3.87</ele>
        <time>2026-05-02T16:25:04.654Z</time>
      </trkpt>
      <trkpt lat="47.97946" lon="-4.12238">
        <ele>4.17</ele>
        <time>2026-05-02T16:25:07.989Z</time>
      </trkpt>
      <trkpt lat="47.97946" lon="-4.12217">
        <ele>4.54</ele>
        <time>2026-05-02T16:25:11.152Z</time>
      </trkpt>
      <trkpt lat="47.97951" lon="-4.12195">
        <ele>4.95</ele>
        <time>2026-05-02T16:25:14.654Z</time>
      </trkpt>
      <trkpt lat="47.97942" lon="-4.12163">
        <ele>5.44</ele>
        <time>2026-05-02T16:25:19.588Z</time>
      </trkpt>
      <trkpt lat="47.97933" lon="-4.12155">
        <ele>5.98</ele>
        <time>2026-05-02T16:25:22.782Z</time>
      </trkpt>
      <trkpt lat="47.97923" lon="-4.1215">
        <ele>6.59</ele>
        <time>2026-05-02T16:25:26.271Z</time>
      </trkpt>
      <trkpt lat="47.97914" lon="-4.1215">
        <ele>7.26</ele>
        <time>2026-05-02T16:25:29.994Z</time>
      </trkpt>
      <trkpt lat="47.97901" lon="-4.12153">
        <ele>8</ele>
        <time>2026-05-02T16:25:34.256Z</time>
      </trkpt>
      <trkpt lat="47.97895" lon="-4.12153">
        <ele>8.79</ele>
        <time>2026-05-02T16:25:38.655Z</time>
      </trkpt>
      <trkpt lat="47.97882" lon="-4.12157">
        <ele>9.67</ele>
        <time>2026-05-02T16:25:43.570Z</time>
      </trkpt>
      <trkpt lat="47.97882" lon="-4.12157">
        <ele>10.54</ele>
        <time>2026-05-02T16:25:43.570Z</time>
      </trkpt>
      <trkpt lat="47.9786" lon="-4.1217">
        <ele>11.6</ele>
        <time>2026-05-02T16:25:50.195Z</time>
      </trkpt>
      <trkpt lat="47.97848" lon="-4.1218">
        <ele>12.65</ele>
        <time>2026-05-02T16:25:56.033Z</time>
      </trkpt>
      <trkpt lat="47.97841" lon="-4.12189">
        <ele>13.69</ele>
        <time>2026-05-02T16:26:02.138Z</time>
      </trkpt>
      <trkpt lat="47.97832" lon="-4.122">
        <ele>14.77</ele>
        <time>2026-05-02T16:26:08.297Z</time>
      </trkpt>
      <trkpt lat="47.97817" lon="-4.12221">
        <ele>15.89</ele>
        <time>2026-05-02T16:26:14.806Z</time>
      </trkpt>
      <trkpt lat="47.97804" lon="-4.12255">
        <ele>17.06</ele>
        <time>2026-05-02T16:26:22.130Z</time>
      </trkpt>
      <trkpt lat="47.97791" lon="-4.12289">
        <ele>18.28</ele>
        <time>2026-05-02T16:26:29.630Z</time>
      </trkpt>
      <trkpt lat="47.97778" lon="-4.12323">
        <ele>19.52</ele>
        <time>2026-05-02T16:26:37.202Z</time>
      </trkpt>
      <trkpt lat="47.9777" lon="-4.12341">
        <ele>20.67</ele>
        <time>2026-05-02T16:26:43.613Z</time>
      </trkpt>
      <trkpt lat="47.97754" lon="-4.12374">
        <ele>21.89</ele>
        <time>2026-05-02T16:26:51.243Z</time>
      </trkpt>
      <trkpt lat="47.97738" lon="-4.12406">
        <ele>23.07</ele>
        <time>2026-05-02T16:26:58.667Z</time>
      </trkpt>
      <trkpt lat="47.97729" lon="-4.12425">
        <ele>24.23</ele>
        <time>2026-05-02T16:27:05.112Z</time>
      </trkpt>
      <trkpt lat="47.97717" lon="-4.12453">
        <ele>25.47</ele>
        <time>2026-05-02T16:27:12.274Z</time>
      </trkpt>
      <trkpt lat="47.97704" lon="-4.12481">
        <ele>26.72</ele>
        <time>2026-05-02T16:27:19.526Z</time>
      </trkpt>
      <trkpt lat="47.97704" lon="-4.12481">
        <ele>27.82</ele>
        <time>2026-05-02T16:27:19.526Z</time>
      </trkpt>
      <trkpt lat="47.97688" lon="-4.12512">
        <ele>28.95</ele>
        <time>2026-05-02T16:27:26.712Z</time>
      </trkpt>
      <trkpt lat="47.97672" lon="-4.12544">
        <ele>30.05</ele>
        <time>2026-05-02T16:27:33.868Z</time>
      </trkpt>
      <trkpt lat="47.97657" lon="-4.12575">
        <ele>31.19</ele>
        <time>2026-05-02T16:27:41.013Z</time>
      </trkpt>
      <trkpt lat="47.97644" lon="-4.12592">
        <ele>32.27</ele>
        <time>2026-05-02T16:27:47.094Z</time>
      </trkpt>
      <trkpt lat="47.97633" lon="-4.12616">
        <ele>33.32</ele>
        <time>2026-05-02T16:27:53.215Z</time>
      </trkpt>
      <trkpt lat="47.97617" lon="-4.12649">
        <ele>34.33</ele>
        <time>2026-05-02T16:28:00.162Z</time>
      </trkpt>
      <trkpt lat="47.97601" lon="-4.12682">
        <ele>35.29</ele>
        <time>2026-05-02T16:28:06.960Z</time>
      </trkpt>
      <trkpt lat="47.97586" lon="-4.12715">
        <ele>36.34</ele>
        <time>2026-05-02T16:28:13.951Z</time>
      </trkpt>
      <trkpt lat="47.97586" lon="-4.12715">
        <ele>37.35</ele>
        <time>2026-05-02T16:28:13.951Z</time>
      </trkpt>
      <trkpt lat="47.97573" lon="-4.12741">
        <ele>38.4</ele>
        <time>2026-05-02T16:28:20.308Z</time>
      </trkpt>
      <trkpt lat="47.9756" lon="-4.12768">
        <ele>39.41</ele>
        <time>2026-05-02T16:28:26.586Z</time>
      </trkpt>
      <trkpt lat="47.97547" lon="-4.12794">
        <ele>40.42</ele>
        <time>2026-05-02T16:28:32.798Z</time>
      </trkpt>
      <trkpt lat="47.97541" lon="-4.12807">
        <ele>41.45</ele>
        <time>2026-05-02T16:28:38.727Z</time>
      </trkpt>
      <trkpt lat="47.97534" lon="-4.1282">
        <ele>42.51</ele>
        <time>2026-05-02T16:28:44.797Z</time>
      </trkpt>
      <trkpt lat="47.97515" lon="-4.12854">
        <ele>43.64</ele>
        <time>2026-05-02T16:28:52.447Z</time>
      </trkpt>
      <trkpt lat="47.97497" lon="-4.12889">
        <ele>44.79</ele>
        <time>2026-05-02T16:29:00.146Z</time>
      </trkpt>
      <trkpt lat="47.97478" lon="-4.12923">
        <ele>45.94</ele>
        <time>2026-05-02T16:29:07.858Z</time>
      </trkpt>
      <trkpt lat="47.97459" lon="-4.12957">
        <ele>47.02</ele>
        <time>2026-05-02T16:29:15.356Z</time>
      </trkpt>
      <trkpt lat="47.9744" lon="-4.12992">
        <ele>48.05</ele>
        <time>2026-05-02T16:29:22.781Z</time>
      </trkpt>
      <trkpt lat="47.97421" lon="-4.13027">
        <ele>49.07</ele>
        <time>2026-05-02T16:29:30.178Z</time>
      </trkpt>
      <trkpt lat="47.97403" lon="-4.13062">
        <ele>50.13</ele>
        <time>2026-05-02T16:29:37.601Z</time>
      </trkpt>
      <trkpt lat="47.97384" lon="-4.13097">
        <ele>51.25</ele>
        <time>2026-05-02T16:29:45.293Z</time>
      </trkpt>
      <trkpt lat="47.97366" lon="-4.13132">
        <ele>52.31</ele>
        <time>2026-05-02T16:29:52.716Z</time>
      </trkpt>
      <trkpt lat="47.97348" lon="-4.13167">
        <ele>53.33</ele>
        <time>2026-05-02T16:30:00.021Z</time>
      </trkpt>
      <trkpt lat="47.97335" lon="-4.13192">
        <ele>54.33</ele>
        <time>2026-05-02T16:30:06.134Z</time>
      </trkpt>
      <trkpt lat="47.97322" lon="-4.13217">
        <ele>55.27</ele>
        <time>2026-05-02T16:30:12.035Z</time>
      </trkpt>
      <trkpt lat="47.97322" lon="-4.13217">
        <ele>56.1</ele>
        <time>2026-05-02T16:30:12.035Z</time>
      </trkpt>
      <trkpt lat="47.97318" lon="-4.13225">
        <ele>56.91</ele>
        <time>2026-05-02T16:30:16.748Z</time>
      </trkpt>
      <trkpt lat="47.97305" lon="-4.13253">
        <ele>57.68</ele>
        <time>2026-05-02T16:30:22.337Z</time>
      </trkpt>
      <trkpt lat="47.97292" lon="-4.13281">
        <ele>58.43</ele>
        <time>2026-05-02T16:30:27.870Z</time>
      </trkpt>
      <trkpt lat="47.97279" lon="-4.13309">
        <ele>59.17</ele>
        <time>2026-05-02T16:30:33.374Z</time>
      </trkpt>
      <trkpt lat="47.97279" lon="-4.13309">
        <ele>59.77</ele>
        <time>2026-05-02T16:30:33.374Z</time>
      </trkpt>
      <trkpt lat="47.97279" lon="-4.13309">
        <ele>59.17</ele>
        <time>2026-05-02T16:30:33.374Z</time>
      </trkpt>
      <trkpt lat="47.9727" lon="-4.13333">
        <ele>60.86</ele>
        <time>2026-05-02T16:30:42.989Z</time>
      </trkpt>
      <trkpt lat="47.97262" lon="-4.13356">
        <ele>61.32</ele>
        <time>2026-05-02T16:30:46.902Z</time>
      </trkpt>
      <trkpt lat="47.97247" lon="-4.13397">
        <ele>61.71</ele>
        <time>2026-05-02T16:30:52.966Z</time>
      </trkpt>
      <trkpt lat="47.97235" lon="-4.13435">
        <ele>62.01</ele>
        <time>2026-05-02T16:30:58.319Z</time>
      </trkpt>
      <trkpt lat="47.97223" lon="-4.13474">
        <ele>62.27</ele>
        <time>2026-05-02T16:31:03.699Z</time>
      </trkpt>
      <trkpt lat="47.97211" lon="-4.13512">
        <ele>62.48</ele>
        <time>2026-05-02T16:31:08.883Z</time>
      </trkpt>
      <trkpt lat="47.97199" lon="-4.1355">
        <ele>62.72</ele>
        <time>2026-05-02T16:31:14.122Z</time>
      </trkpt>
      <trkpt lat="47.97187" lon="-4.13588">
        <ele>62.91</ele>
        <time>2026-05-02T16:31:19.268Z</time>
      </trkpt>
      <trkpt lat="47.97174" lon="-4.13624">
        <ele>63.05</ele>
        <time>2026-05-02T16:31:24.198Z</time>
      </trkpt>
      <trkpt lat="47.97161" lon="-4.13659">
        <ele>63.18</ele>
        <time>2026-05-02T16:31:29.010Z</time>
      </trkpt>
      <trkpt lat="47.97161" lon="-4.13659">
        <ele>63.25</ele>
        <time>2026-05-02T16:31:29.010Z</time>
      </trkpt>
      <trkpt lat="47.97149" lon="-4.13689">
        <ele>63.33</ele>
        <time>2026-05-02T16:31:33.153Z</time>
      </trkpt>
      <trkpt lat="47.97137" lon="-4.13719">
        <ele>63.44</ele>
        <time>2026-05-02T16:31:37.348Z</time>
      </trkpt>
      <trkpt lat="47.97124" lon="-4.13749">
        <ele>63.47</ele>
        <time>2026-05-02T16:31:41.497Z</time>
      </trkpt>
      <trkpt lat="47.97109" lon="-4.1378">
        <ele>63.42</ele>
        <time>2026-05-02T16:31:45.805Z</time>
      </trkpt>
      <trkpt lat="47.97094" lon="-4.13811">
        <ele>63.33</ele>
        <time>2026-05-02T16:31:50.050Z</time>
      </trkpt>
      <trkpt lat="47.97079" lon="-4.13841">
        <ele>63.22</ele>
        <time>2026-05-02T16:31:54.172Z</time>
      </trkpt>
      <trkpt lat="47.97079" lon="-4.13841">
        <ele>63.06</ele>
        <time>2026-05-02T16:31:54.172Z</time>
      </trkpt>
      <trkpt lat="47.97068" lon="-4.13867">
        <ele>62.87</ele>
        <time>2026-05-02T16:31:57.412Z</time>
      </trkpt>
      <trkpt lat="47.97056" lon="-4.13893">
        <ele>62.6</ele>
        <time>2026-05-02T16:32:00.637Z</time>
      </trkpt>
      <trkpt lat="47.97045" lon="-4.13925">
        <ele>62.34</ele>
        <time>2026-05-02T16:32:04.374Z</time>
      </trkpt>
      <trkpt lat="47.97034" lon="-4.13957">
        <ele>62.09</ele>
        <time>2026-05-02T16:32:08.125Z</time>
      </trkpt>
      <trkpt lat="47.97027" lon="-4.13988">
        <ele>61.79</ele>
        <time>2026-05-02T16:32:11.439Z</time>
      </trkpt>
      <trkpt lat="47.9702" lon="-4.14019">
        <ele>61.47</ele>
        <time>2026-05-02T16:32:14.726Z</time>
      </trkpt>
      <trkpt lat="47.97013" lon="-4.14049">
        <ele>61.08</ele>
        <time>2026-05-02T16:32:17.819Z</time>
      </trkpt>
      <trkpt lat="47.97011" lon="-4.14084">
        <ele>60.68</ele>
        <time>2026-05-02T16:32:21.277Z</time>
      </trkpt>
      <trkpt lat="47.97019" lon="-4.14103">
        <ele>60.3</ele>
        <time>2026-05-02T16:32:23.340Z</time>
      </trkpt>
      <trkpt lat="47.97028" lon="-4.14109">
        <ele>59.91</ele>
        <time>2026-05-02T16:32:24.553Z</time>
      </trkpt>
      <trkpt lat="47.97032" lon="-4.14129">
        <ele>59.53</ele>
        <time>2026-05-02T16:32:26.443Z</time>
      </trkpt>
      <trkpt lat="47.97028" lon="-4.14144">
        <ele>59.14</ele>
        <time>2026-05-02T16:32:27.809Z</time>
      </trkpt>
      <trkpt lat="47.97015" lon="-4.1415">
        <ele>58.73</ele>
        <time>2026-05-02T16:32:29.607Z</time>
      </trkpt>
      <trkpt lat="47.96991" lon="-4.14174">
        <ele>58.35</ele>
        <time>2026-05-02T16:32:33.997Z</time>
      </trkpt>
      <trkpt lat="47.96976" lon="-4.14204">
        <ele>58.03</ele>
        <time>2026-05-02T16:32:37.820Z</time>
      </trkpt>
      <trkpt lat="47.96966" lon="-4.14233">
        <ele>57.65</ele>
        <time>2026-05-02T16:32:41.021Z</time>
      </trkpt>
      <trkpt lat="47.96956" lon="-4.14261">
        <ele>57.29</ele>
        <time>2026-05-02T16:32:44.146Z</time>
      </trkpt>
      <trkpt lat="47.96946" lon="-4.1429">
        <ele>56.93</ele>
        <time>2026-05-02T16:32:47.372Z</time>
      </trkpt>
      <trkpt lat="47.96946" lon="-4.1429">
        <ele>56.67</ele>
        <time>2026-05-02T16:32:47.372Z</time>
      </trkpt>
      <trkpt lat="47.96936" lon="-4.14316">
        <ele>56.42</ele>
        <time>2026-05-02T16:32:50.442Z</time>
      </trkpt>
      <trkpt lat="47.96925" lon="-4.14341">
        <ele>56.23</ele>
        <time>2026-05-02T16:32:53.587Z</time>
      </trkpt>
      <trkpt lat="47.96906" lon="-4.14376">
        <ele>56.09</ele>
        <time>2026-05-02T16:32:58.536Z</time>
      </trkpt>
      <trkpt lat="47.96906" lon="-4.14377">
        <ele>56.01</ele>
        <time>2026-05-02T16:32:58.605Z</time>
      </trkpt>
      <trkpt lat="47.96899" lon="-4.14388">
        <ele>55.95</ele>
        <time>2026-05-02T16:33:00.253Z</time>
      </trkpt>
      <trkpt lat="47.96884" lon="-4.14412">
        <ele>55.89</ele>
        <time>2026-05-02T16:33:03.924Z</time>
      </trkpt>
      <trkpt lat="47.96869" lon="-4.14436">
        <ele>55.93</ele>
        <time>2026-05-02T16:33:07.756Z</time>
      </trkpt>
      <trkpt lat="47.96848" lon="-4.14462">
        <ele>56.1</ele>
        <time>2026-05-02T16:33:12.721Z</time>
      </trkpt>
      <trkpt lat="47.96828" lon="-4.14489">
        <ele>56.33</ele>
        <time>2026-05-02T16:33:17.743Z</time>
      </trkpt>
      <trkpt lat="47.96807" lon="-4.14515">
        <ele>56.72</ele>
        <time>2026-05-02T16:33:23.132Z</time>
      </trkpt>
      <trkpt lat="47.96798" lon="-4.14528">
        <ele>57.14</ele>
        <time>2026-05-02T16:33:26.192Z</time>
      </trkpt>
      <trkpt lat="47.96798" lon="-4.14536">
        <ele>57.55</ele>
        <time>2026-05-02T16:33:28.472Z</time>
      </trkpt>
      <trkpt lat="47.96796" lon="-4.14547">
        <ele>58.02</ele>
        <time>2026-05-02T16:33:31.125Z</time>
      </trkpt>
      <trkpt lat="47.96785" lon="-4.14554">
        <ele>58.6</ele>
        <time>2026-05-02T16:33:34.632Z</time>
      </trkpt>
      <trkpt lat="47.96777" lon="-4.14551">
        <ele>59.22</ele>
        <time>2026-05-02T16:33:38.078Z</time>
      </trkpt>
      <trkpt lat="47.96772" lon="-4.14541">
        <ele>59.84</ele>
        <time>2026-05-02T16:33:41.523Z</time>
      </trkpt>
      <trkpt lat="47.96772" lon="-4.14526">
        <ele>60.45</ele>
        <time>2026-05-02T16:33:44.976Z</time>
      </trkpt>
      <trkpt lat="47.96766" lon="-4.14494">
        <ele>61.11</ele>
        <time>2026-05-02T16:33:50.175Z</time>
      </trkpt>
      <trkpt lat="47.96754" lon="-4.14474">
        <ele>61.83</ele>
        <time>2026-05-02T16:33:54.924Z</time>
      </trkpt>
      <trkpt lat="47.96742" lon="-4.14455">
        <ele>62.67</ele>
        <time>2026-05-02T16:34:00.022Z</time>
      </trkpt>
      <trkpt lat="47.96723" lon="-4.14436">
        <ele>63.56</ele>
        <time>2026-05-02T16:34:05.980Z</time>
      </trkpt>
      <trkpt lat="47.967" lon="-4.14423">
        <ele>64.47</ele>
        <time>2026-05-02T16:34:12.242Z</time>
      </trkpt>
      <trkpt lat="47.96682" lon="-4.14421">
        <ele>65.31</ele>
        <time>2026-05-02T16:34:17.406Z</time>
      </trkpt>
      <trkpt lat="47.96665" lon="-4.14418">
        <ele>66.11</ele>
        <time>2026-05-02T16:34:22.316Z</time>
      </trkpt>
      <trkpt lat="47.96646" lon="-4.14422">
        <ele>66.88</ele>
        <time>2026-05-02T16:34:27.389Z</time>
      </trkpt>
      <trkpt lat="47.96627" lon="-4.14425">
        <ele>67.71</ele>
        <time>2026-05-02T16:34:32.649Z</time>
      </trkpt>
      <trkpt lat="47.96598" lon="-4.14443">
        <ele>68.59</ele>
        <time>2026-05-02T16:34:39.852Z</time>
      </trkpt>
      <trkpt lat="47.96569" lon="-4.14462">
        <ele>69.48</ele>
        <time>2026-05-02T16:34:47.122Z</time>
      </trkpt>
      <trkpt lat="47.96541" lon="-4.14481">
        <ele>70.34</ele>
        <time>2026-05-02T16:34:54.172Z</time>
      </trkpt>
      <trkpt lat="47.96519" lon="-4.14489">
        <ele>71.18</ele>
        <time>2026-05-02T16:34:59.943Z</time>
      </trkpt>
      <trkpt lat="47.96498" lon="-4.14498">
        <ele>72</ele>
        <time>2026-05-02T16:35:05.542Z</time>
      </trkpt>
      <trkpt lat="47.96476" lon="-4.14506">
        <ele>72.81</ele>
        <time>2026-05-02T16:35:11.223Z</time>
      </trkpt>
      <trkpt lat="47.96468" lon="-4.14517">
        <ele>73.6</ele>
        <time>2026-05-02T16:35:15.613Z</time>
      </trkpt>
      <trkpt lat="47.96463" lon="-4.14528">
        <ele>74.38</ele>
        <time>2026-05-02T16:35:20.014Z</time>
      </trkpt>
      <trkpt lat="47.96457" lon="-4.14532">
        <ele>75.14</ele>
        <time>2026-05-02T16:35:24.471Z</time>
      </trkpt>
      <trkpt lat="47.96453" lon="-4.14571">
        <ele>75.93</ele>
        <time>2026-05-02T16:35:30.662Z</time>
      </trkpt>
      <trkpt lat="47.96448" lon="-4.14609">
        <ele>76.73</ele>
        <time>2026-05-02T16:35:36.805Z</time>
      </trkpt>
      <trkpt lat="47.96443" lon="-4.14634">
        <ele>77.47</ele>
        <time>2026-05-02T16:35:41.551Z</time>
      </trkpt>
      <trkpt lat="47.96438" lon="-4.14659">
        <ele>78.2</ele>
        <time>2026-05-02T16:35:46.264Z</time>
      </trkpt>
      <trkpt lat="47.96433" lon="-4.14669">
        <ele>78.85</ele>
        <time>2026-05-02T16:35:49.882Z</time>
      </trkpt>
      <trkpt lat="47.96424" lon="-4.14691">
        <ele>79.51</ele>
        <time>2026-05-02T16:35:54.342Z</time>
      </trkpt>
      <trkpt lat="47.96414" lon="-4.14712">
        <ele>80.15</ele>
        <time>2026-05-02T16:35:58.740Z</time>
      </trkpt>
      <trkpt lat="47.96395" lon="-4.14744">
        <ele>80.74</ele>
        <time>2026-05-02T16:36:04.790Z</time>
      </trkpt>
      <trkpt lat="47.96376" lon="-4.14775">
        <ele>81.22</ele>
        <time>2026-05-02T16:36:10.514Z</time>
      </trkpt>
      <trkpt lat="47.96357" lon="-4.14806">
        <ele>81.61</ele>
        <time>2026-05-02T16:36:16.048Z</time>
      </trkpt>
      <trkpt lat="47.96338" lon="-4.14837">
        <ele>81.92</ele>
        <time>2026-05-02T16:36:21.423Z</time>
      </trkpt>
      <trkpt lat="47.96319" lon="-4.14868">
        <ele>82.16</ele>
        <time>2026-05-02T16:36:26.664Z</time>
      </trkpt>
      <trkpt lat="47.963" lon="-4.14899">
        <ele>82.23</ele>
        <time>2026-05-02T16:36:31.602Z</time>
      </trkpt>
      <trkpt lat="47.96292" lon="-4.14916">
        <ele>82.29</ele>
        <time>2026-05-02T16:36:34.087Z</time>
      </trkpt>
      <trkpt lat="47.96273" lon="-4.14953">
        <ele>82.29</ele>
        <time>2026-05-02T16:36:39.437Z</time>
      </trkpt>
      <trkpt lat="47.96254" lon="-4.14989">
        <ele>82.27</ele>
        <time>2026-05-02T16:36:44.664Z</time>
      </trkpt>
      <trkpt lat="47.96235" lon="-4.15026">
        <ele>82.22</ele>
        <time>2026-05-02T16:36:49.933Z</time>
      </trkpt>
      <trkpt lat="47.96216" lon="-4.15062">
        <ele>82.11</ele>
        <time>2026-05-02T16:36:55.018Z</time>
      </trkpt>
      <trkpt lat="47.96197" lon="-4.15099">
        <ele>81.91</ele>
        <time>2026-05-02T16:37:00.058Z</time>
      </trkpt>
      <trkpt lat="47.96182" lon="-4.15127">
        <ele>81.79</ele>
        <time>2026-05-02T16:37:03.985Z</time>
      </trkpt>
      <trkpt lat="47.96166" lon="-4.15156">
        <ele>81.78</ele>
        <time>2026-05-02T16:37:08.280Z</time>
      </trkpt>
      <trkpt lat="47.9615" lon="-4.15184">
        <ele>81.72</ele>
        <time>2026-05-02T16:37:12.407Z</time>
      </trkpt>
      <trkpt lat="47.96133" lon="-4.15218">
        <ele>81.56</ele>
        <time>2026-05-02T16:37:17.027Z</time>
      </trkpt>
      <trkpt lat="47.96116" lon="-4.15252">
        <ele>81.4</ele>
        <time>2026-05-02T16:37:21.646Z</time>
      </trkpt>
      <trkpt lat="47.96099" lon="-4.15285">
        <ele>81.25</ele>
        <time>2026-05-02T16:37:26.189Z</time>
      </trkpt>
      <trkpt lat="47.96083" lon="-4.15317">
        <ele>81.03</ele>
        <time>2026-05-02T16:37:30.435Z</time>
      </trkpt>
      <trkpt lat="47.96068" lon="-4.15349">
        <ele>80.87</ele>
        <time>2026-05-02T16:37:34.669Z</time>
      </trkpt>
      <trkpt lat="47.96052" lon="-4.1538">
        <ele>80.66</ele>
        <time>2026-05-02T16:37:38.838Z</time>
      </trkpt>
      <trkpt lat="47.96036" lon="-4.15412">
        <ele>80.44</ele>
        <time>2026-05-02T16:37:43.085Z</time>
      </trkpt>
      <trkpt lat="47.96023" lon="-4.15444">
        <ele>80.22</ele>
        <time>2026-05-02T16:37:47.044Z</time>
      </trkpt>
      <trkpt lat="47.96009" lon="-4.15476">
        <ele>80.02</ele>
        <time>2026-05-02T16:37:51.124Z</time>
      </trkpt>
      <trkpt lat="47.95996" lon="-4.15509">
        <ele>79.87</ele>
        <time>2026-05-02T16:37:55.284Z</time>
      </trkpt>
      <trkpt lat="47.95981" lon="-4.15543">
        <ele>79.83</ele>
        <time>2026-05-02T16:37:59.891Z</time>
      </trkpt>
      <trkpt lat="47.95967" lon="-4.15577">
        <ele>79.74</ele>
        <time>2026-05-02T16:38:04.328Z</time>
      </trkpt>
      <trkpt lat="47.95953" lon="-4.15612">
        <ele>79.5</ele>
        <time>2026-05-02T16:38:08.641Z</time>
      </trkpt>
      <trkpt lat="47.95938" lon="-4.15646">
        <ele>79.3</ele>
        <time>2026-05-02T16:38:13.005Z</time>
      </trkpt>
      <trkpt lat="47.95924" lon="-4.1568">
        <ele>79.16</ele>
        <time>2026-05-02T16:38:17.366Z</time>
      </trkpt>
      <trkpt lat="47.9591" lon="-4.15715">
        <ele>79.06</ele>
        <time>2026-05-02T16:38:21.886Z</time>
      </trkpt>
      <trkpt lat="47.959" lon="-4.15745">
        <ele>78.96</ele>
        <time>2026-05-02T16:38:25.574Z</time>
      </trkpt>
      <trkpt lat="47.9589" lon="-4.15776">
        <ele>78.95</ele>
        <time>2026-05-02T16:38:29.506Z</time>
      </trkpt>
      <trkpt lat="47.9588" lon="-4.15807">
        <ele>78.99</ele>
        <time>2026-05-02T16:38:33.520Z</time>
      </trkpt>
      <trkpt lat="47.9588" lon="-4.15807">
        <ele>79</ele>
        <time>2026-05-02T16:38:33.520Z</time>
      </trkpt>
      <trkpt lat="47.95868" lon="-4.15843">
        <ele>79.06</ele>
        <time>2026-05-02T16:38:38.234Z</time>
      </trkpt>
      <trkpt lat="47.95857" lon="-4.15878">
        <ele>79.14</ele>
        <time>2026-05-02T16:38:42.804Z</time>
      </trkpt>
      <trkpt lat="47.95846" lon="-4.15914">
        <ele>79.21</ele>
        <time>2026-05-02T16:38:47.461Z</time>
      </trkpt>
      <trkpt lat="47.95836" lon="-4.15933">
        <ele>79.3</ele>
        <time>2026-05-02T16:38:50.387Z</time>
      </trkpt>
      <trkpt lat="47.95826" lon="-4.15953">
        <ele>79.41</ele>
        <time>2026-05-02T16:38:53.440Z</time>
      </trkpt>
      <trkpt lat="47.95814" lon="-4.15974">
        <ele>79.53</ele>
        <time>2026-05-02T16:38:56.814Z</time>
      </trkpt>
      <trkpt lat="47.958" lon="-4.15998">
        <ele>79.67</ele>
        <time>2026-05-02T16:39:00.707Z</time>
      </trkpt>
      <trkpt lat="47.95796" lon="-4.16017">
        <ele>79.86</ele>
        <time>2026-05-02T16:39:03.340Z</time>
      </trkpt>
      <trkpt lat="47.95796" lon="-4.16032">
        <ele>80.09</ele>
        <time>2026-05-02T16:39:05.516Z</time>
      </trkpt>
      <trkpt lat="47.95807" lon="-4.1606">
        <ele>80.35</ele>
        <time>2026-05-02T16:39:09.709Z</time>
      </trkpt>
      <trkpt lat="47.95827" lon="-4.16084">
        <ele>80.59</ele>
        <time>2026-05-02T16:39:14.527Z</time>
      </trkpt>
      <trkpt lat="47.95847" lon="-4.16108">
        <ele>80.8</ele>
        <time>2026-05-02T16:39:19.289Z</time>
      </trkpt>
      <trkpt lat="47.95866" lon="-4.16132">
        <ele>81.01</ele>
        <time>2026-05-02T16:39:23.920Z</time>
      </trkpt>
      <trkpt lat="47.95886" lon="-4.16157">
        <ele>81.25</ele>
        <time>2026-05-02T16:39:28.811Z</time>
      </trkpt>
      <trkpt lat="47.95912" lon="-4.1618">
        <ele>81.54</ele>
        <time>2026-05-02T16:39:34.500Z</time>
      </trkpt>
      <trkpt lat="47.959" lon="-4.16218">
        <ele>81.75</ele>
        <time>2026-05-02T16:39:39.684Z</time>
      </trkpt>
      <trkpt lat="47.95888" lon="-4.16257">
        <ele>81.91</ele>
        <time>2026-05-02T16:39:44.882Z</time>
      </trkpt>
      <trkpt lat="47.95875" lon="-4.16295">
        <ele>82.05</ele>
        <time>2026-05-02T16:39:50.015Z</time>
      </trkpt>
      <trkpt lat="47.95863" lon="-4.16334">
        <ele>82.14</ele>
        <time>2026-05-02T16:39:55.091Z</time>
      </trkpt>
      <trkpt lat="47.95851" lon="-4.16372">
        <ele>82.24</ele>
        <time>2026-05-02T16:40:00.079Z</time>
      </trkpt>
      <trkpt lat="47.95839" lon="-4.1641">
        <ele>82.32</ele>
        <time>2026-05-02T16:40:05.033Z</time>
      </trkpt>
      <trkpt lat="47.95825" lon="-4.16441">
        <ele>82.35</ele>
        <time>2026-05-02T16:40:09.373Z</time>
      </trkpt>
      <trkpt lat="47.95811" lon="-4.16472">
        <ele>82.32</ele>
        <time>2026-05-02T16:40:13.615Z</time>
      </trkpt>
      <trkpt lat="47.95798" lon="-4.16493">
        <ele>82.26</ele>
        <time>2026-05-02T16:40:16.801Z</time>
      </trkpt>
      <trkpt lat="47.95778" lon="-4.16523">
        <ele>82.09</ele>
        <time>2026-05-02T16:40:21.394Z</time>
      </trkpt>
      <trkpt lat="47.95757" lon="-4.16553">
        <ele>81.88</ele>
        <time>2026-05-02T16:40:26.051Z</time>
      </trkpt>
      <trkpt lat="47.95736" lon="-4.16582">
        <ele>81.71</ele>
        <time>2026-05-02T16:40:30.688Z</time>
      </trkpt>
      <trkpt lat="47.95716" lon="-4.16612">
        <ele>81.55</ele>
        <time>2026-05-02T16:40:35.296Z</time>
      </trkpt>
      <trkpt lat="47.9571" lon="-4.1662">
        <ele>81.33</ele>
        <time>2026-05-02T16:40:36.382Z</time>
      </trkpt>
      <trkpt lat="47.9569" lon="-4.16648">
        <ele>81.04</ele>
        <time>2026-05-02T16:40:40.645Z</time>
      </trkpt>
      <trkpt lat="47.9567" lon="-4.16676">
        <ele>80.73</ele>
        <time>2026-05-02T16:40:44.880Z</time>
      </trkpt>
      <trkpt lat="47.9565" lon="-4.16704">
        <ele>80.43</ele>
        <time>2026-05-02T16:40:49.129Z</time>
      </trkpt>
      <trkpt lat="47.95631" lon="-4.16723">
        <ele>80.1</ele>
        <time>2026-05-02T16:40:52.566Z</time>
      </trkpt>
      <trkpt lat="47.95612" lon="-4.16742">
        <ele>79.69</ele>
        <time>2026-05-02T16:40:55.902Z</time>
      </trkpt>
      <trkpt lat="47.95592" lon="-4.16762">
        <ele>79.24</ele>
        <time>2026-05-02T16:40:59.391Z</time>
      </trkpt>
      <trkpt lat="47.95574" lon="-4.16777">
        <ele>78.8</ele>
        <time>2026-05-02T16:41:02.314Z</time>
      </trkpt>
      <trkpt lat="47.95555" lon="-4.16793">
        <ele>78.36</ele>
        <time>2026-05-02T16:41:05.437Z</time>
      </trkpt>
      <trkpt lat="47.95537" lon="-4.16809">
        <ele>77.93</ele>
        <time>2026-05-02T16:41:08.428Z</time>
      </trkpt>
      <trkpt lat="47.95522" lon="-4.16826">
        <ele>77.49</ele>
        <time>2026-05-02T16:41:11.054Z</time>
      </trkpt>
      <trkpt lat="47.95521" lon="-4.16837">
        <ele>77.08</ele>
        <time>2026-05-02T16:41:11.876Z</time>
      </trkpt>
      <trkpt lat="47.95521" lon="-4.16841">
        <ele>76.67</ele>
        <time>2026-05-02T16:41:12.151Z</time>
      </trkpt>
      <trkpt lat="47.95517" lon="-4.1685">
        <ele>76.27</ele>
        <time>2026-05-02T16:41:12.950Z</time>
      </trkpt>
      <trkpt lat="47.95506" lon="-4.1685">
        <ele>75.87</ele>
        <time>2026-05-02T16:41:14.336Z</time>
      </trkpt>
      <trkpt lat="47.955" lon="-4.16845">
        <ele>75.48</ele>
        <time>2026-05-02T16:41:15.088Z</time>
      </trkpt>
      <trkpt lat="47.955" lon="-4.16843">
        <ele>75.09</ele>
        <time>2026-05-02T16:41:15.226Z</time>
      </trkpt>
      <trkpt lat="47.95481" lon="-4.16845">
        <ele>74.72</ele>
        <time>2026-05-02T16:41:17.970Z</time>
      </trkpt>
      <trkpt lat="47.95453" lon="-4.16861">
        <ele>74.4</ele>
        <time>2026-05-02T16:41:22.627Z</time>
      </trkpt>
      <trkpt lat="47.95425" lon="-4.16878">
        <ele>74.05</ele>
        <time>2026-05-02T16:41:27.285Z</time>
      </trkpt>
      <trkpt lat="47.95402" lon="-4.16892">
        <ele>73.65</ele>
        <time>2026-05-02T16:41:30.966Z</time>
      </trkpt>
      <trkpt lat="47.95379" lon="-4.16906">
        <ele>73.21</ele>
        <time>2026-05-02T16:41:34.596Z</time>
      </trkpt>
      <trkpt lat="47.95356" lon="-4.1692">
        <ele>72.8</ele>
        <time>2026-05-02T16:41:38.264Z</time>
      </trkpt>
      <trkpt lat="47.95335" lon="-4.16935">
        <ele>72.43</ele>
        <time>2026-05-02T16:41:41.719Z</time>
      </trkpt>
      <trkpt lat="47.95313" lon="-4.16949">
        <ele>72.1</ele>
        <time>2026-05-02T16:41:45.334Z</time>
      </trkpt>
      <trkpt lat="47.95292" lon="-4.16963">
        <ele>71.76</ele>
        <time>2026-05-02T16:41:48.780Z</time>
      </trkpt>
      <trkpt lat="47.95268" lon="-4.1698">
        <ele>71.47</ele>
        <time>2026-05-02T16:41:52.898Z</time>
      </trkpt>
      <trkpt lat="47.95243" lon="-4.16996">
        <ele>71.15</ele>
        <time>2026-05-02T16:41:57.083Z</time>
      </trkpt>
      <trkpt lat="47.95219" lon="-4.17013">
        <ele>70.83</ele>
        <time>2026-05-02T16:42:01.160Z</time>
      </trkpt>
      <trkpt lat="47.95197" lon="-4.17028">
        <ele>70.62</ele>
        <time>2026-05-02T16:42:04.984Z</time>
      </trkpt>
      <trkpt lat="47.95175" lon="-4.17044">
        <ele>70.49</ele>
        <time>2026-05-02T16:42:08.974Z</time>
      </trkpt>
      <trkpt lat="47.95153" lon="-4.17059">
        <ele>70.39</ele>
        <time>2026-05-02T16:42:12.961Z</time>
      </trkpt>
      <trkpt lat="47.95131" lon="-4.17075">
        <ele>70.32</ele>
        <time>2026-05-02T16:42:17.042Z</time>
      </trkpt>
      <trkpt lat="47.9511" lon="-4.17087">
        <ele>70.26</ele>
        <time>2026-05-02T16:42:20.799Z</time>
      </trkpt>
      <trkpt lat="47.95089" lon="-4.17099">
        <ele>70.23</ele>
        <time>2026-05-02T16:42:24.604Z</time>
      </trkpt>
      <trkpt lat="47.95069" lon="-4.17111">
        <ele>70.27</ele>
        <time>2026-05-02T16:42:28.363Z</time>
      </trkpt>
      <trkpt lat="47.95049" lon="-4.1712">
        <ele>70.33</ele>
        <time>2026-05-02T16:42:32.042Z</time>
      </trkpt>
      <trkpt lat="47.9503" lon="-4.17129">
        <ele>70.4</ele>
        <time>2026-05-02T16:42:35.575Z</time>
      </trkpt>
      <trkpt lat="47.95007" lon="-4.17136">
        <ele>70.48</ele>
        <time>2026-05-02T16:42:39.731Z</time>
      </trkpt>
      <trkpt lat="47.94983" lon="-4.17144">
        <ele>70.6</ele>
        <time>2026-05-02T16:42:44.148Z</time>
      </trkpt>
      <trkpt lat="47.94957" lon="-4.17144">
        <ele>70.67</ele>
        <time>2026-05-02T16:42:48.720Z</time>
      </trkpt>
      <trkpt lat="47.94929" lon="-4.17148">
        <ele>70.68</ele>
        <time>2026-05-02T16:42:53.556Z</time>
      </trkpt>
      <trkpt lat="47.94901" lon="-4.17152">
        <ele>70.67</ele>
        <time>2026-05-02T16:42:58.359Z</time>
      </trkpt>
      <trkpt lat="47.94873" lon="-4.17156">
        <ele>70.78</ele>
        <time>2026-05-02T16:43:03.363Z</time>
      </trkpt>
      <trkpt lat="47.94845" lon="-4.1716">
        <ele>70.88</ele>
        <time>2026-05-02T16:43:08.351Z</time>
      </trkpt>
      <trkpt lat="47.94817" lon="-4.17164">
        <ele>70.96</ele>
        <time>2026-05-02T16:43:13.304Z</time>
      </trkpt>
      <trkpt lat="47.94787" lon="-4.17169">
        <ele>71</ele>
        <time>2026-05-02T16:43:18.542Z</time>
      </trkpt>
      <trkpt lat="47.94757" lon="-4.17173">
        <ele>71.05</ele>
        <time>2026-05-02T16:43:23.785Z</time>
      </trkpt>
      <trkpt lat="47.94727" lon="-4.17177">
        <ele>71.01</ele>
        <time>2026-05-02T16:43:28.882Z</time>
      </trkpt>
      <trkpt lat="47.94697" lon="-4.17182">
        <ele>70.89</ele>
        <time>2026-05-02T16:43:33.864Z</time>
      </trkpt>
      <trkpt lat="47.94667" lon="-4.17186">
        <ele>70.72</ele>
        <time>2026-05-02T16:43:38.760Z</time>
      </trkpt>
      <trkpt lat="47.94637" lon="-4.17191">
        <ele>70.53</ele>
        <time>2026-05-02T16:43:43.638Z</time>
      </trkpt>
      <trkpt lat="47.94606" lon="-4.17191">
        <ele>70.35</ele>
        <time>2026-05-02T16:43:48.670Z</time>
      </trkpt>
      <trkpt lat="47.94575" lon="-4.17191">
        <ele>70.13</ele>
        <time>2026-05-02T16:43:53.643Z</time>
      </trkpt>
      <trkpt lat="47.94545" lon="-4.17189">
        <ele>69.88</ele>
        <time>2026-05-02T16:43:58.407Z</time>
      </trkpt>
      <trkpt lat="47.94515" lon="-4.17186">
        <ele>69.55</ele>
        <time>2026-05-02T16:44:03.065Z</time>
      </trkpt>
      <trkpt lat="47.94492" lon="-4.17184">
        <ele>69.12</ele>
        <time>2026-05-02T16:44:06.405Z</time>
      </trkpt>
      <trkpt lat="47.94468" lon="-4.17182">
        <ele>68.75</ele>
        <time>2026-05-02T16:44:09.989Z</time>
      </trkpt>
      <trkpt lat="47.94444" lon="-4.1718">
        <ele>68.35</ele>
        <time>2026-05-02T16:44:13.534Z</time>
      </trkpt>
      <trkpt lat="47.94415" lon="-4.1718">
        <ele>67.95</ele>
        <time>2026-05-02T16:44:17.918Z</time>
      </trkpt>
      <trkpt lat="47.94385" lon="-4.17179">
        <ele>67.52</ele>
        <time>2026-05-02T16:44:22.433Z</time>
      </trkpt>
      <trkpt lat="47.94356" lon="-4.17178">
        <ele>67.03</ele>
        <time>2026-05-02T16:44:26.702Z</time>
      </trkpt>
      <trkpt lat="47.94326" lon="-4.17178">
        <ele>66.57</ele>
        <time>2026-05-02T16:44:31.177Z</time>
      </trkpt>
      <trkpt lat="47.94295" lon="-4.17179">
        <ele>66.07</ele>
        <time>2026-05-02T16:44:35.770Z</time>
      </trkpt>
      <trkpt lat="47.94264" lon="-4.17181">
        <ele>65.62</ele>
        <time>2026-05-02T16:44:40.432Z</time>
      </trkpt>
      <trkpt lat="47.94233" lon="-4.17182">
        <ele>65.14</ele>
        <time>2026-05-02T16:44:45.051Z</time>
      </trkpt>
      <trkpt lat="47.94202" lon="-4.17184">
        <ele>64.73</ele>
        <time>2026-05-02T16:44:49.765Z</time>
      </trkpt>
      <trkpt lat="47.94171" lon="-4.17185">
        <ele>64.4</ele>
        <time>2026-05-02T16:44:54.583Z</time>
      </trkpt>
      <trkpt lat="47.9414" lon="-4.17186">
        <ele>63.96</ele>
        <time>2026-05-02T16:44:59.254Z</time>
      </trkpt>
      <trkpt lat="47.9414" lon="-4.17186">
        <ele>63.53</ele>
        <time>2026-05-02T16:44:59.254Z</time>
      </trkpt>
      <trkpt lat="47.94114" lon="-4.17189">
        <ele>63.04</ele>
        <time>2026-05-02T16:45:03.031Z</time>
      </trkpt>
      <trkpt lat="47.94089" lon="-4.17192">
        <ele>62.61</ele>
        <time>2026-05-02T16:45:06.714Z</time>
      </trkpt>
      <trkpt lat="47.94064" lon="-4.17194">
        <ele>62.14</ele>
        <time>2026-05-02T16:45:10.341Z</time>
      </trkpt>
      <trkpt lat="47.94038" lon="-4.17197">
        <ele>61.74</ele>
        <time>2026-05-02T16:45:14.230Z</time>
      </trkpt>
      <trkpt lat="47.94013" lon="-4.17199">
        <ele>61.28</ele>
        <time>2026-05-02T16:45:17.869Z</time>
      </trkpt>
      <trkpt lat="47.93985" lon="-4.17203">
        <ele>60.77</ele>
        <time>2026-05-02T16:45:21.966Z</time>
      </trkpt>
      <trkpt lat="47.93957" lon="-4.17207">
        <ele>60.32</ele>
        <time>2026-05-02T16:45:26.138Z</time>
      </trkpt>
      <trkpt lat="47.93929" lon="-4.1721">
        <ele>59.89</ele>
        <time>2026-05-02T16:45:30.325Z</time>
      </trkpt>
      <trkpt lat="47.93912" lon="-4.17212">
        <ele>59.48</ele>
        <time>2026-05-02T16:45:32.690Z</time>
      </trkpt>
      <trkpt lat="47.93884" lon="-4.17215">
        <ele>59.06</ele>
        <time>2026-05-02T16:45:36.891Z</time>
      </trkpt>
      <trkpt lat="47.93857" lon="-4.17218">
        <ele>58.58</ele>
        <time>2026-05-02T16:45:40.848Z</time>
      </trkpt>
      <trkpt lat="47.93829" lon="-4.17222">
        <ele>58.04</ele>
        <time>2026-05-02T16:45:44.908Z</time>
      </trkpt>
      <trkpt lat="47.93801" lon="-4.17225">
        <ele>57.5</ele>
        <time>2026-05-02T16:45:48.959Z</time>
      </trkpt>
      <trkpt lat="47.93796" lon="-4.17225">
        <ele>57.01</ele>
        <time>2026-05-02T16:45:49.473Z</time>
      </trkpt>
      <trkpt lat="47.93769" lon="-4.17228">
        <ele>56.49</ele>
        <time>2026-05-02T16:45:53.380Z</time>
      </trkpt>
      <trkpt lat="47.93742" lon="-4.17232">
        <ele>56.01</ele>
        <time>2026-05-02T16:45:57.347Z</time>
      </trkpt>
      <trkpt lat="47.93714" lon="-4.17235">
        <ele>55.6</ele>
        <time>2026-05-02T16:46:01.560Z</time>
      </trkpt>
      <trkpt lat="47.93687" lon="-4.17238">
        <ele>55.15</ele>
        <time>2026-05-02T16:46:05.555Z</time>
      </trkpt>
      <trkpt lat="47.93661" lon="-4.17241">
        <ele>54.63</ele>
        <time>2026-05-02T16:46:09.295Z</time>
      </trkpt>
      <trkpt lat="47.93634" lon="-4.17244">
        <ele>54.06</ele>
        <time>2026-05-02T16:46:13.144Z</time>
      </trkpt>
      <trkpt lat="47.93608" lon="-4.17248">
        <ele>53.49</ele>
        <time>2026-05-02T16:46:16.836Z</time>
      </trkpt>
      <trkpt lat="47.93582" lon="-4.17251">
        <ele>52.93</ele>
        <time>2026-05-02T16:46:20.529Z</time>
      </trkpt>
      <trkpt lat="47.93555" lon="-4.17257">
        <ele>52.29</ele>
        <time>2026-05-02T16:46:24.334Z</time>
      </trkpt>
      <trkpt lat="47.93528" lon="-4.17264">
        <ele>51.61</ele>
        <time>2026-05-02T16:46:28.111Z</time>
      </trkpt>
      <trkpt lat="47.93509" lon="-4.17273">
        <ele>50.97</ele>
        <time>2026-05-02T16:46:30.706Z</time>
      </trkpt>
      <trkpt lat="47.93489" lon="-4.17283">
        <ele>50.34</ele>
        <time>2026-05-02T16:46:33.499Z</time>
      </trkpt>
      <trkpt lat="47.9346" lon="-4.17299">
        <ele>49.68</ele>
        <time>2026-05-02T16:46:37.883Z</time>
      </trkpt>
      <trkpt lat="47.93431" lon="-4.17315">
        <ele>49.08</ele>
        <time>2026-05-02T16:46:42.338Z</time>
      </trkpt>
      <trkpt lat="47.93401" lon="-4.1733">
        <ele>48.45</ele>
        <time>2026-05-02T16:46:46.877Z</time>
      </trkpt>
      <trkpt lat="47.93401" lon="-4.1733">
        <ele>47.83</ele>
        <time>2026-05-02T16:46:46.877Z</time>
      </trkpt>
      <trkpt lat="47.93378" lon="-4.17349">
        <ele>47.11</ele>
        <time>2026-05-02T16:46:50.427Z</time>
      </trkpt>
      <trkpt lat="47.93354" lon="-4.17367">
        <ele>46.46</ele>
        <time>2026-05-02T16:46:54.148Z</time>
      </trkpt>
      <trkpt lat="47.93331" lon="-4.17388">
        <ele>45.83</ele>
        <time>2026-05-02T16:46:57.908Z</time>
      </trkpt>
      <trkpt lat="47.93308" lon="-4.17409">
        <ele>45.16</ele>
        <time>2026-05-02T16:47:01.623Z</time>
      </trkpt>
      <trkpt lat="47.93285" lon="-4.1743">
        <ele>44.43</ele>
        <time>2026-05-02T16:47:05.273Z</time>
      </trkpt>
      <trkpt lat="47.93262" lon="-4.1745">
        <ele>43.74</ele>
        <time>2026-05-02T16:47:08.910Z</time>
      </trkpt>
      <trkpt lat="47.93242" lon="-4.17475">
        <ele>43.08</ele>
        <time>2026-05-02T16:47:12.491Z</time>
      </trkpt>
      <trkpt lat="47.93222" lon="-4.17501">
        <ele>42.43</ele>
        <time>2026-05-02T16:47:16.156Z</time>
      </trkpt>
      <trkpt lat="47.93202" lon="-4.17526">
        <ele>41.8</ele>
        <time>2026-05-02T16:47:19.771Z</time>
      </trkpt>
      <trkpt lat="47.93183" lon="-4.17562">
        <ele>41.12</ele>
        <time>2026-05-02T16:47:24.097Z</time>
      </trkpt>
      <trkpt lat="47.93163" lon="-4.17598">
        <ele>40.37</ele>
        <time>2026-05-02T16:47:28.446Z</time>
      </trkpt>
      <trkpt lat="47.93154" lon="-4.17621">
        <ele>39.7</ele>
        <time>2026-05-02T16:47:30.676Z</time>
      </trkpt>
      <trkpt lat="47.93144" lon="-4.17644">
        <ele>39.02</ele>
        <time>2026-05-02T16:47:32.980Z</time>
      </trkpt>
      <trkpt lat="47.93134" lon="-4.17673">
        <ele>38.33</ele>
        <time>2026-05-02T16:47:35.836Z</time>
      </trkpt>
      <trkpt lat="47.93125" lon="-4.17701">
        <ele>37.68</ele>
        <time>2026-05-02T16:47:38.562Z</time>
      </trkpt>
      <trkpt lat="47.93118" lon="-4.17734">
        <ele>37.03</ele>
        <time>2026-05-02T16:47:41.678Z</time>
      </trkpt>
      <trkpt lat="47.9311" lon="-4.17767">
        <ele>36.38</ele>
        <time>2026-05-02T16:47:44.847Z</time>
      </trkpt>
      <trkpt lat="47.93103" lon="-4.178">
        <ele>35.77</ele>
        <time>2026-05-02T16:47:48.005Z</time>
      </trkpt>
      <trkpt lat="47.93099" lon="-4.17845">
        <ele>35.12</ele>
        <time>2026-05-02T16:47:52.317Z</time>
      </trkpt>
      <trkpt lat="47.93095" lon="-4.1789">
        <ele>34.49</ele>
        <time>2026-05-02T16:47:56.652Z</time>
      </trkpt>
      <trkpt lat="47.93095" lon="-4.1789">
        <ele>33.96</ele>
        <time>2026-05-02T16:47:56.652Z</time>
      </trkpt>
      <trkpt lat="47.93096" lon="-4.17919">
        <ele>33.4</ele>
        <time>2026-05-02T16:47:59.251Z</time>
      </trkpt>
      <trkpt lat="47.93097" lon="-4.17948">
        <ele>32.89</ele>
        <time>2026-05-02T16:48:01.903Z</time>
      </trkpt>
      <trkpt lat="47.93099" lon="-4.17988">
        <ele>32.43</ele>
        <time>2026-05-02T16:48:05.851Z</time>
      </trkpt>
      <trkpt lat="47.93102" lon="-4.18028">
        <ele>32.04</ele>
        <time>2026-05-02T16:48:09.904Z</time>
      </trkpt>
      <trkpt lat="47.93104" lon="-4.18068">
        <ele>31.67</ele>
        <time>2026-05-02T16:48:13.967Z</time>
      </trkpt>
      <trkpt lat="47.93107" lon="-4.18107">
        <ele>31.33</ele>
        <time>2026-05-02T16:48:17.973Z</time>
      </trkpt>
      <trkpt lat="47.93109" lon="-4.18147">
        <ele>30.98</ele>
        <time>2026-05-02T16:48:22.062Z</time>
      </trkpt>
      <trkpt lat="47.93112" lon="-4.18186">
        <ele>30.62</ele>
        <time>2026-05-02T16:48:26.042Z</time>
      </trkpt>
      <trkpt lat="47.93112" lon="-4.18231">
        <ele>30.36</ele>
        <time>2026-05-02T16:48:30.812Z</time>
      </trkpt>
      <trkpt lat="47.93105" lon="-4.18266">
        <ele>30.17</ele>
        <time>2026-05-02T16:48:34.714Z</time>
      </trkpt>
      <trkpt lat="47.93098" lon="-4.18287">
        <ele>30.02</ele>
        <time>2026-05-02T16:48:37.180Z</time>
      </trkpt>
      <trkpt lat="47.9309" lon="-4.18309">
        <ele>29.89</ele>
        <time>2026-05-02T16:48:39.855Z</time>
      </trkpt>
      <trkpt lat="47.93073" lon="-4.1834">
        <ele>29.83</ele>
        <time>2026-05-02T16:48:44.358Z</time>
      </trkpt>
      <trkpt lat="47.93055" lon="-4.18371">
        <ele>29.84</ele>
        <time>2026-05-02T16:48:49.084Z</time>
      </trkpt>
      <trkpt lat="47.93037" lon="-4.18403">
        <ele>29.87</ele>
        <time>2026-05-02T16:48:53.930Z</time>
      </trkpt>
      <trkpt lat="47.9302" lon="-4.18434">
        <ele>29.82</ele>
        <time>2026-05-02T16:48:58.449Z</time>
      </trkpt>
      <trkpt lat="47.93002" lon="-4.18465">
        <ele>29.8</ele>
        <time>2026-05-02T16:49:03.126Z</time>
      </trkpt>
      <trkpt lat="47.92989" lon="-4.18485">
        <ele>29.84</ele>
        <time>2026-05-02T16:49:06.391Z</time>
      </trkpt>
      <trkpt lat="47.92967" lon="-4.18508">
        <ele>29.91</ele>
        <time>2026-05-02T16:49:11.110Z</time>
      </trkpt>
      <trkpt lat="47.92945" lon="-4.18531">
        <ele>30.03</ele>
        <time>2026-05-02T16:49:15.915Z</time>
      </trkpt>
      <trkpt lat="47.92922" lon="-4.18554">
        <ele>30.21</ele>
        <time>2026-05-02T16:49:20.968Z</time>
      </trkpt>
      <trkpt lat="47.929" lon="-4.18577">
        <ele>30.43</ele>
        <time>2026-05-02T16:49:25.954Z</time>
      </trkpt>
      <trkpt lat="47.92878" lon="-4.18601">
        <ele>30.78</ele>
        <time>2026-05-02T16:49:31.257Z</time>
      </trkpt>
      <trkpt lat="47.9285" lon="-4.18611">
        <ele>31.25</ele>
        <time>2026-05-02T16:49:37.068Z</time>
      </trkpt>
      <trkpt lat="47.92834" lon="-4.18611">
        <ele>31.74</ele>
        <time>2026-05-02T16:49:40.848Z</time>
      </trkpt>
      <trkpt lat="47.92818" lon="-4.18611">
        <ele>32.26</ele>
        <time>2026-05-02T16:49:44.712Z</time>
      </trkpt>
      <trkpt lat="47.92796" lon="-4.18606">
        <ele>32.88</ele>
        <time>2026-05-02T16:49:49.807Z</time>
      </trkpt>
      <trkpt lat="47.92775" lon="-4.18601">
        <ele>33.56</ele>
        <time>2026-05-02T16:49:54.910Z</time>
      </trkpt>
      <trkpt lat="47.92753" lon="-4.18596">
        <ele>34.28</ele>
        <time>2026-05-02T16:50:00.275Z</time>
      </trkpt>
      <trkpt lat="47.92733" lon="-4.18581">
        <ele>35.01</ele>
        <time>2026-05-02T16:50:05.687Z</time>
      </trkpt>
      <trkpt lat="47.92712" lon="-4.18565">
        <ele>35.82</ele>
        <time>2026-05-02T16:50:11.505Z</time>
      </trkpt>
      <trkpt lat="47.92691" lon="-4.18549">
        <ele>36.66</ele>
        <time>2026-05-02T16:50:17.411Z</time>
      </trkpt>
      <trkpt lat="47.92668" lon="-4.18524">
        <ele>37.46</ele>
        <time>2026-05-02T16:50:23.945Z</time>
      </trkpt>
      <trkpt lat="47.92644" lon="-4.18499">
        <ele>38.32</ele>
        <time>2026-05-02T16:50:30.763Z</time>
      </trkpt>
      <trkpt lat="47.9262" lon="-4.18474">
        <ele>39.18</ele>
        <time>2026-05-02T16:50:37.581Z</time>
      </trkpt>
      <trkpt lat="47.92599" lon="-4.18457">
        <ele>40.01</ele>
        <time>2026-05-02T16:50:43.503Z</time>
      </trkpt>
      <trkpt lat="47.92577" lon="-4.18441">
        <ele>40.77</ele>
        <time>2026-05-02T16:50:49.314Z</time>
      </trkpt>
      <trkpt lat="47.92556" lon="-4.18424">
        <ele>41.51</ele>
        <time>2026-05-02T16:50:54.982Z</time>
      </trkpt>
      <trkpt lat="47.92535" lon="-4.18407">
        <ele>42.26</ele>
        <time>2026-05-02T16:51:00.677Z</time>
      </trkpt>
      <trkpt lat="47.92532" lon="-4.18407">
        <ele>42.96</ele>
        <time>2026-05-02T16:51:02.880Z</time>
      </trkpt>
      <trkpt lat="47.92502" lon="-4.18398">
        <ele>43.61</ele>
        <time>2026-05-02T16:51:09.390Z</time>
      </trkpt>
      <trkpt lat="47.92472" lon="-4.18388">
        <ele>44.33</ele>
        <time>2026-05-02T16:51:16.087Z</time>
      </trkpt>
      <trkpt lat="47.92455" lon="-4.18388">
        <ele>45</ele>
        <time>2026-05-02T16:51:20.543Z</time>
      </trkpt>
      <trkpt lat="47.92438" lon="-4.18388">
        <ele>45.65</ele>
        <time>2026-05-02T16:51:24.936Z</time>
      </trkpt>
      <trkpt lat="47.92421" lon="-4.18391">
        <ele>46.24</ele>
        <time>2026-05-02T16:51:29.165Z</time>
      </trkpt>
      <trkpt lat="47.92404" lon="-4.18395">
        <ele>46.73</ele>
        <time>2026-05-02T16:51:33.133Z</time>
      </trkpt>
      <trkpt lat="47.92381" lon="-4.18403">
        <ele>47.21</ele>
        <time>2026-05-02T16:51:38.107Z</time>
      </trkpt>
      <trkpt lat="47.92359" lon="-4.18412">
        <ele>47.6</ele>
        <time>2026-05-02T16:51:42.749Z</time>
      </trkpt>
      <trkpt lat="47.92338" lon="-4.18427">
        <ele>47.88</ele>
        <time>2026-05-02T16:51:47.242Z</time>
      </trkpt>
      <trkpt lat="47.92317" lon="-4.18442">
        <ele>48.04</ele>
        <time>2026-05-02T16:51:51.506Z</time>
      </trkpt>
      <trkpt lat="47.92296" lon="-4.18457">
        <ele>48.16</ele>
        <time>2026-05-02T16:51:55.700Z</time>
      </trkpt>
      <trkpt lat="47.92271" lon="-4.18479">
        <ele>48.31</ele>
        <time>2026-05-02T16:52:00.927Z</time>
      </trkpt>
      <trkpt lat="47.92245" lon="-4.18502">
        <ele>48.38</ele>
        <time>2026-05-02T16:52:06.223Z</time>
      </trkpt>
      <trkpt lat="47.92219" lon="-4.18524">
        <ele>48.3</ele>
        <time>2026-05-02T16:52:11.216Z</time>
      </trkpt>
      <trkpt lat="47.92193" lon="-4.18547">
        <ele>48.13</ele>
        <time>2026-05-02T16:52:16.130Z</time>
      </trkpt>
      <trkpt lat="47.92168" lon="-4.18568">
        <ele>47.98</ele>
        <time>2026-05-02T16:52:20.812Z</time>
      </trkpt>
      <trkpt lat="47.92146" lon="-4.18577">
        <ele>47.81</ele>
        <time>2026-05-02T16:52:24.459Z</time>
      </trkpt>
      <trkpt lat="47.92118" lon="-4.18582">
        <ele>47.6</ele>
        <time>2026-05-02T16:52:28.968Z</time>
      </trkpt>
      <trkpt lat="47.92089" lon="-4.18588">
        <ele>47.36</ele>
        <time>2026-05-02T16:52:33.618Z</time>
      </trkpt>
      <trkpt lat="47.9206" lon="-4.18593">
        <ele>47.06</ele>
        <time>2026-05-02T16:52:38.169Z</time>
      </trkpt>
      <trkpt lat="47.92032" lon="-4.18598">
        <ele>46.71</ele>
        <time>2026-05-02T16:52:42.484Z</time>
      </trkpt>
      <trkpt lat="47.92003" lon="-4.18604">
        <ele>46.35</ele>
        <time>2026-05-02T16:52:46.967Z</time>
      </trkpt>
      <trkpt lat="47.91975" lon="-4.18609">
        <ele>46.03</ele>
        <time>2026-05-02T16:52:51.322Z</time>
      </trkpt>
      <trkpt lat="47.91979" lon="-4.18649">
        <ele>45.75</ele>
        <time>2026-05-02T16:52:55.545Z</time>
      </trkpt>
      <trkpt lat="47.91983" lon="-4.18689">
        <ele>45.5</ele>
        <time>2026-05-02T16:52:59.810Z</time>
      </trkpt>
      <trkpt lat="47.92009" lon="-4.18682">
        <ele>45.34</ele>
        <time>2026-05-02T16:53:04.089Z</time>
      </trkpt>
      <trkpt lat="47.92035" lon="-4.18676">
        <ele>45.23</ele>
        <time>2026-05-02T16:53:08.423Z</time>
      </trkpt>
      <trkpt lat="47.92058" lon="-4.1868">
        <ele>45.13</ele>
        <time>2026-05-02T16:53:12.234Z</time>
      </trkpt>
      <trkpt lat="47.92069" lon="-4.18689">
        <ele>44.99</ele>
        <time>2026-05-02T16:53:14.174Z</time>
      </trkpt>
      <trkpt lat="47.92078" lon="-4.18699">
        <ele>44.87</ele>
        <time>2026-05-02T16:53:15.917Z</time>
      </trkpt>
      <trkpt lat="47.9209" lon="-4.1874">
        <ele>44.83</ele>
        <time>2026-05-02T16:53:20.990Z</time>
      </trkpt>
      <trkpt lat="47.92103" lon="-4.18781">
        <ele>44.75</ele>
        <time>2026-05-02T16:53:26.070Z</time>
      </trkpt>
      <trkpt lat="47.92116" lon="-4.18822">
        <ele>44.74</ele>
        <time>2026-05-02T16:53:31.262Z</time>
      </trkpt>
      <trkpt lat="47.92117" lon="-4.18845">
        <ele>44.75</ele>
        <time>2026-05-02T16:53:33.925Z</time>
      </trkpt>
      <trkpt lat="47.92118" lon="-4.18869">
        <ele>44.82</ele>
        <time>2026-05-02T16:53:36.805Z</time>
      </trkpt>
      <trkpt lat="47.9211" lon="-4.18903">
        <ele>44.86</ele>
        <time>2026-05-02T16:53:41.009Z</time>
      </trkpt>
      <trkpt lat="47.92098" lon="-4.1892">
        <ele>44.92</ele>
        <time>2026-05-02T16:53:43.944Z</time>
      </trkpt>
      <trkpt lat="47.92086" lon="-4.18937">
        <ele>45.05</ele>
        <time>2026-05-02T16:53:47.005Z</time>
      </trkpt>
      <trkpt lat="47.92066" lon="-4.18954">
        <ele>45.21</ele>
        <time>2026-05-02T16:53:51.225Z</time>
      </trkpt>
      <trkpt lat="47.92045" lon="-4.1897">
        <ele>45.45</ele>
        <time>2026-05-02T16:53:55.691Z</time>
      </trkpt>
      <trkpt lat="47.92024" lon="-4.18993">
        <ele>45.72</ele>
        <time>2026-05-02T16:54:00.633Z</time>
      </trkpt>
      <trkpt lat="47.92007" lon="-4.1902">
        <ele>46.07</ele>
        <time>2026-05-02T16:54:05.528Z</time>
      </trkpt>
      <trkpt lat="47.9199" lon="-4.19047">
        <ele>46.47</ele>
        <time>2026-05-02T16:54:10.527Z</time>
      </trkpt>
      <trkpt lat="47.91972" lon="-4.19074">
        <ele>46.9</ele>
        <time>2026-05-02T16:54:15.707Z</time>
      </trkpt>
      <trkpt lat="47.91955" lon="-4.19101">
        <ele>47.29</ele>
        <time>2026-05-02T16:54:20.685Z</time>
      </trkpt>
      <trkpt lat="47.9194" lon="-4.19126">
        <ele>47.72</ele>
        <time>2026-05-02T16:54:25.360Z</time>
      </trkpt>
      <trkpt lat="47.91925" lon="-4.19152">
        <ele>48.16</ele>
        <time>2026-05-02T16:54:30.141Z</time>
      </trkpt>
      <trkpt lat="47.9191" lon="-4.19178">
        <ele>48.6</ele>
        <time>2026-05-02T16:54:34.923Z</time>
      </trkpt>
      <trkpt lat="47.91908" lon="-4.19193">
        <ele>48.99</ele>
        <time>2026-05-02T16:54:37.565Z</time>
      </trkpt>
      <trkpt lat="47.91914" lon="-4.19223">
        <ele>49.31</ele>
        <time>2026-05-02T16:54:41.752Z</time>
      </trkpt>
      <trkpt lat="47.91917" lon="-4.19266">
        <ele>49.57</ele>
        <time>2026-05-02T16:54:47.172Z</time>
      </trkpt>
      <trkpt lat="47.91896" lon="-4.19299">
        <ele>49.9</ele>
        <time>2026-05-02T16:54:52.986Z</time>
      </trkpt>
      <trkpt lat="47.91876" lon="-4.19332">
        <ele>50.17</ele>
        <time>2026-05-02T16:54:58.569Z</time>
      </trkpt>
      <trkpt lat="47.91868" lon="-4.19357">
        <ele>50.4</ele>
        <time>2026-05-02T16:55:02.165Z</time>
      </trkpt>
      <trkpt lat="47.91861" lon="-4.19382">
        <ele>50.57</ele>
        <time>2026-05-02T16:55:05.575Z</time>
      </trkpt>
      <trkpt lat="47.91857" lon="-4.19403">
        <ele>50.74</ele>
        <time>2026-05-02T16:55:08.387Z</time>
      </trkpt>
      <trkpt lat="47.91857" lon="-4.19433">
        <ele>50.88</ele>
        <time>2026-05-02T16:55:12.074Z</time>
      </trkpt>
      <trkpt lat="47.91863" lon="-4.19457">
        <ele>51</ele>
        <time>2026-05-02T16:55:15.222Z</time>
      </trkpt>
      <trkpt lat="47.91865" lon="-4.19465">
        <ele>51.09</ele>
        <time>2026-05-02T16:55:16.370Z</time>
      </trkpt>
      <trkpt lat="47.91886" lon="-4.19493">
        <ele>51.24</ele>
        <time>2026-05-02T16:55:21.450Z</time>
      </trkpt>
      <trkpt lat="47.91906" lon="-4.19521">
        <ele>51.3</ele>
        <time>2026-05-02T16:55:26.249Z</time>
      </trkpt>
      <trkpt lat="47.91912" lon="-4.19543">
        <ele>51.28</ele>
        <time>2026-05-02T16:55:28.944Z</time>
      </trkpt>
      <trkpt lat="47.91912" lon="-4.19568">
        <ele>51.18</ele>
        <time>2026-05-02T16:55:31.660Z</time>
      </trkpt>
      <trkpt lat="47.91907" lon="-4.19607">
        <ele>51.04</ele>
        <time>2026-05-02T16:55:36.001Z</time>
      </trkpt>
      <trkpt lat="47.91901" lon="-4.19645">
        <ele>50.9</ele>
        <time>2026-05-02T16:55:40.265Z</time>
      </trkpt>
      <trkpt lat="47.91895" lon="-4.19683">
        <ele>50.75</ele>
        <time>2026-05-02T16:55:44.515Z</time>
      </trkpt>
      <trkpt lat="47.91889" lon="-4.19721">
        <ele>50.5</ele>
        <time>2026-05-02T16:55:48.620Z</time>
      </trkpt>
      <trkpt lat="47.91883" lon="-4.19759">
        <ele>50.14</ele>
        <time>2026-05-02T16:55:52.576Z</time>
      </trkpt>
      <trkpt lat="47.9188" lon="-4.19781">
        <ele>49.8</ele>
        <time>2026-05-02T16:55:54.687Z</time>
      </trkpt>
      <trkpt lat="47.9187" lon="-4.19818">
        <ele>49.47</ele>
        <time>2026-05-02T16:55:58.780Z</time>
      </trkpt>
      <trkpt lat="47.91859" lon="-4.19855">
        <ele>49.16</ele>
        <time>2026-05-02T16:56:02.966Z</time>
      </trkpt>
      <trkpt lat="47.91849" lon="-4.19892">
        <ele>48.79</ele>
        <time>2026-05-02T16:56:07.006Z</time>
      </trkpt>
      <trkpt lat="47.91839" lon="-4.19929">
        <ele>48.31</ele>
        <time>2026-05-02T16:56:10.906Z</time>
      </trkpt>
      <trkpt lat="47.91829" lon="-4.19965">
        <ele>47.77</ele>
        <time>2026-05-02T16:56:14.630Z</time>
      </trkpt>
      <trkpt lat="47.91829" lon="-4.19965">
        <ele>47.34</ele>
        <time>2026-05-02T16:56:14.630Z</time>
      </trkpt>
      <trkpt lat="47.9182" lon="-4.19995">
        <ele>46.81</ele>
        <time>2026-05-02T16:56:17.685Z</time>
      </trkpt>
      <trkpt lat="47.91811" lon="-4.20024">
        <ele>46.3</ele>
        <time>2026-05-02T16:56:20.661Z</time>
      </trkpt>
      <trkpt lat="47.91803" lon="-4.20053">
        <ele>45.82</ele>
        <time>2026-05-02T16:56:23.605Z</time>
      </trkpt>
      <trkpt lat="47.91794" lon="-4.20064">
        <ele>45.39</ele>
        <time>2026-05-02T16:56:25.065Z</time>
      </trkpt>
      <trkpt lat="47.91779" lon="-4.20075">
        <ele>44.99</ele>
        <time>2026-05-02T16:56:27.385Z</time>
      </trkpt>
      <trkpt lat="47.9176" lon="-4.20079">
        <ele>44.63</ele>
        <time>2026-05-02T16:56:30.165Z</time>
      </trkpt>
      <trkpt lat="47.91736" lon="-4.20079">
        <ele>44.29</ele>
        <time>2026-05-02T16:56:33.781Z</time>
      </trkpt>
      <trkpt lat="47.91712" lon="-4.20079">
        <ele>43.97</ele>
        <time>2026-05-02T16:56:37.423Z</time>
      </trkpt>
      <trkpt lat="47.91688" lon="-4.20079">
        <ele>43.65</ele>
        <time>2026-05-02T16:56:41.065Z</time>
      </trkpt>
      <trkpt lat="47.91663" lon="-4.20079">
        <ele>43.4</ele>
        <time>2026-05-02T16:56:44.972Z</time>
      </trkpt>
      <trkpt lat="47.91633" lon="-4.20084">
        <ele>43.25</ele>
        <time>2026-05-02T16:56:49.910Z</time>
      </trkpt>
      <trkpt lat="47.91603" lon="-4.20088">
        <ele>43.12</ele>
        <time>2026-05-02T16:56:54.866Z</time>
      </trkpt>
      <trkpt lat="47.91573" lon="-4.20093">
        <ele>43</ele>
        <time>2026-05-02T16:56:59.849Z</time>
      </trkpt>
      <trkpt lat="47.91543" lon="-4.20098">
        <ele>42.83</ele>
        <time>2026-05-02T16:57:04.756Z</time>
      </trkpt>
      <trkpt lat="47.91513" lon="-4.20102">
        <ele>42.7</ele>
        <time>2026-05-02T16:57:09.712Z</time>
      </trkpt>
      <trkpt lat="47.91483" lon="-4.20107">
        <ele>42.66</ele>
        <time>2026-05-02T16:57:14.820Z</time>
      </trkpt>
      <trkpt lat="47.91475" lon="-4.20111">
        <ele>42.67</ele>
        <time>2026-05-02T16:57:16.282Z</time>
      </trkpt>
      <trkpt lat="47.91457" lon="-4.20126">
        <ele>42.72</ele>
        <time>2026-05-02T16:57:19.898Z</time>
      </trkpt>
      <trkpt lat="47.91451" lon="-4.20148">
        <ele>42.76</ele>
        <time>2026-05-02T16:57:22.692Z</time>
      </trkpt>
      <trkpt lat="47.9145" lon="-4.20177">
        <ele>42.83</ele>
        <time>2026-05-02T16:57:26.144Z</time>
      </trkpt>
      <trkpt lat="47.91449" lon="-4.20206">
        <ele>42.93</ele>
        <time>2026-05-02T16:57:29.649Z</time>
      </trkpt>
      <trkpt lat="47.9145" lon="-4.2025">
        <ele>43.17</ele>
        <time>2026-05-02T16:57:35.123Z</time>
      </trkpt>
      <trkpt lat="47.9145" lon="-4.20295">
        <ele>43.48</ele>
        <time>2026-05-02T16:57:40.840Z</time>
      </trkpt>
      <trkpt lat="47.91451" lon="-4.20339">
        <ele>43.8</ele>
        <time>2026-05-02T16:57:46.466Z</time>
      </trkpt>
      <trkpt lat="47.91449" lon="-4.20385">
        <ele>44.09</ele>
        <time>2026-05-02T16:57:52.270Z</time>
      </trkpt>
      <trkpt lat="47.91447" lon="-4.20431">
        <ele>44.46</ele>
        <time>2026-05-02T16:57:58.230Z</time>
      </trkpt>
      <trkpt lat="47.9144" lon="-4.20455">
        <ele>44.82</ele>
        <time>2026-05-02T16:58:01.933Z</time>
      </trkpt>
      <trkpt lat="47.91424" lon="-4.20485">
        <ele>45.2</ele>
        <time>2026-05-02T16:58:07.035Z</time>
      </trkpt>
      <trkpt lat="47.91408" lon="-4.20515">
        <ele>45.54</ele>
        <time>2026-05-02T16:58:12.056Z</time>
      </trkpt>
      <trkpt lat="47.91397" lon="-4.20545">
        <ele>45.91</ele>
        <time>2026-05-02T16:58:16.673Z</time>
      </trkpt>
      <trkpt lat="47.91392" lon="-4.20591">
        <ele>46.26</ele>
        <time>2026-05-02T16:58:22.650Z</time>
      </trkpt>
      <trkpt lat="47.91386" lon="-4.20636">
        <ele>46.56</ele>
        <time>2026-05-02T16:58:28.449Z</time>
      </trkpt>
      <trkpt lat="47.9138" lon="-4.20682">
        <ele>46.83</ele>
        <time>2026-05-02T16:58:34.303Z</time>
      </trkpt>
      <trkpt lat="47.91357" lon="-4.20699">
        <ele>47.12</ele>
        <time>2026-05-02T16:58:39.219Z</time>
      </trkpt>
      <trkpt lat="47.91333" lon="-4.20716">
        <ele>47.42</ele>
        <time>2026-05-02T16:58:44.308Z</time>
      </trkpt>
      <trkpt lat="47.91309" lon="-4.2074">
        <ele>47.7</ele>
        <time>2026-05-02T16:58:49.752Z</time>
      </trkpt>
      <trkpt lat="47.9129" lon="-4.20763">
        <ele>48</ele>
        <time>2026-05-02T16:58:54.485Z</time>
      </trkpt>
      <trkpt lat="47.91277" lon="-4.20791">
        <ele>48.27</ele>
        <time>2026-05-02T16:58:58.882Z</time>
      </trkpt>
      <trkpt lat="47.91264" lon="-4.20819">
        <ele>48.46</ele>
        <time>2026-05-02T16:59:03.125Z</time>
      </trkpt>
      <trkpt lat="47.91246" lon="-4.20839">
        <ele>48.64</ele>
        <time>2026-05-02T16:59:07.284Z</time>
      </trkpt>
      <trkpt lat="47.91227" lon="-4.20859">
        <ele>48.83</ele>
        <time>2026-05-02T16:59:11.599Z</time>
      </trkpt>
      <trkpt lat="47.91209" lon="-4.20879">
        <ele>49.02</ele>
        <time>2026-05-02T16:59:15.777Z</time>
      </trkpt>
      <trkpt lat="47.91191" lon="-4.20905">
        <ele>49.19</ele>
        <time>2026-05-02T16:59:20.362Z</time>
      </trkpt>
      <trkpt lat="47.91176" lon="-4.20916">
        <ele>49.35</ele>
        <time>2026-05-02T16:59:23.508Z</time>
      </trkpt>
      <trkpt lat="47.91161" lon="-4.20927">
        <ele>49.52</ele>
        <time>2026-05-02T16:59:26.673Z</time>
      </trkpt>
      <trkpt lat="47.91137" lon="-4.20936">
        <ele>49.66</ele>
        <time>2026-05-02T16:59:31.152Z</time>
      </trkpt>
      <trkpt lat="47.91113" lon="-4.20945">
        <ele>49.76</ele>
        <time>2026-05-02T16:59:35.561Z</time>
      </trkpt>
      <trkpt lat="47.91088" lon="-4.20954">
        <ele>49.85</ele>
        <time>2026-05-02T16:59:40.118Z</time>
      </trkpt>
      <trkpt lat="47.91068" lon="-4.20966">
        <ele>49.95</ele>
        <time>2026-05-02T16:59:43.981Z</time>
      </trkpt>
      <trkpt lat="47.91047" lon="-4.20977">
        <ele>50.02</ele>
        <time>2026-05-02T16:59:47.911Z</time>
      </trkpt>
      <trkpt lat="47.91026" lon="-4.20989">
        <ele>50.04</ele>
        <time>2026-05-02T16:59:51.797Z</time>
      </trkpt>
      <trkpt lat="47.91008" lon="-4.21">
        <ele>50.01</ele>
        <time>2026-05-02T16:59:55.082Z</time>
      </trkpt>
      <trkpt lat="47.9099" lon="-4.2101">
        <ele>49.93</ele>
        <time>2026-05-02T16:59:58.247Z</time>
      </trkpt>
      <trkpt lat="47.90968" lon="-4.2103">
        <ele>49.8</ele>
        <time>2026-05-02T17:00:02.458Z</time>
      </trkpt>
      <trkpt lat="47.90945" lon="-4.21054">
        <ele>49.63</ele>
        <time>2026-05-02T17:00:07.003Z</time>
      </trkpt>
      <trkpt lat="47.90923" lon="-4.21079">
        <ele>49.48</ele>
        <time>2026-05-02T17:00:11.508Z</time>
      </trkpt>
      <trkpt lat="47.909" lon="-4.21104">
        <ele>49.33</ele>
        <time>2026-05-02T17:00:16.149Z</time>
      </trkpt>
      <trkpt lat="47.90877" lon="-4.21129">
        <ele>49.19</ele>
        <time>2026-05-02T17:00:20.806Z</time>
      </trkpt>
      <trkpt lat="47.90854" lon="-4.21154">
        <ele>49.03</ele>
        <time>2026-05-02T17:00:25.433Z</time>
      </trkpt>
      <trkpt lat="47.90836" lon="-4.21175">
        <ele>48.78</ele>
        <time>2026-05-02T17:00:28.974Z</time>
      </trkpt>
      <trkpt lat="47.90817" lon="-4.21197">
        <ele>48.48</ele>
        <time>2026-05-02T17:00:32.652Z</time>
      </trkpt>
      <trkpt lat="47.90799" lon="-4.21218">
        <ele>48.15</ele>
        <time>2026-05-02T17:00:36.086Z</time>
      </trkpt>
      <trkpt lat="47.90792" lon="-4.21223">
        <ele>47.82</ele>
        <time>2026-05-02T17:00:37.021Z</time>
      </trkpt>
      <trkpt lat="47.90786" lon="-4.21223">
        <ele>47.47</ele>
        <time>2026-05-02T17:00:37.671Z</time>
      </trkpt>
      <trkpt lat="47.90784" lon="-4.21233">
        <ele>47.07</ele>
        <time>2026-05-02T17:00:38.434Z</time>
      </trkpt>
      <trkpt lat="47.90775" lon="-4.21236">
        <ele>46.65</ele>
        <time>2026-05-02T17:00:39.522Z</time>
      </trkpt>
      <trkpt lat="47.90773" lon="-4.21227">
        <ele>46.22</ele>
        <time>2026-05-02T17:00:40.175Z</time>
      </trkpt>
      <trkpt lat="47.90757" lon="-4.21228">
        <ele>45.72</ele>
        <time>2026-05-02T17:00:42.274Z</time>
      </trkpt>
      <trkpt lat="47.90741" lon="-4.21229">
        <ele>45.14</ele>
        <time>2026-05-02T17:00:44.294Z</time>
      </trkpt>
      <trkpt lat="47.90741" lon="-4.21229">
        <ele>44.6</ele>
        <time>2026-05-02T17:00:44.294Z</time>
      </trkpt>
      <trkpt lat="47.90716" lon="-4.21224">
        <ele>43.94</ele>
        <time>2026-05-02T17:00:47.734Z</time>
      </trkpt>
      <trkpt lat="47.90691" lon="-4.21218">
        <ele>43.31</ele>
        <time>2026-05-02T17:00:51.222Z</time>
      </trkpt>
      <trkpt lat="47.90667" lon="-4.21213">
        <ele>42.68</ele>
        <time>2026-05-02T17:00:54.531Z</time>
      </trkpt>
      <trkpt lat="47.90642" lon="-4.21208">
        <ele>41.98</ele>
        <time>2026-05-02T17:00:57.927Z</time>
      </trkpt>
      <trkpt lat="47.90618" lon="-4.21203">
        <ele>41.2</ele>
        <time>2026-05-02T17:01:01.079Z</time>
      </trkpt>
      <trkpt lat="47.906" lon="-4.21193">
        <ele>40.41</ele>
        <time>2026-05-02T17:01:03.416Z</time>
      </trkpt>
      <trkpt lat="47.90582" lon="-4.21182">
        <ele>39.62</ele>
        <time>2026-05-02T17:01:05.793Z</time>
      </trkpt>
      <trkpt lat="47.90558" lon="-4.21154">
        <ele>38.82</ele>
        <time>2026-05-02T17:01:09.944Z</time>
      </trkpt>
      <trkpt lat="47.90541" lon="-4.21142">
        <ele>38.02</ele>
        <time>2026-05-02T17:01:12.210Z</time>
      </trkpt>
      <trkpt lat="47.90524" lon="-4.2113">
        <ele>37.23</ele>
        <time>2026-05-02T17:01:14.484Z</time>
      </trkpt>
      <trkpt lat="47.90503" lon="-4.21127">
        <ele>36.4</ele>
        <time>2026-05-02T17:01:17.085Z</time>
      </trkpt>
      <trkpt lat="47.90481" lon="-4.21124">
        <ele>35.55</ele>
        <time>2026-05-02T17:01:19.826Z</time>
      </trkpt>
      <trkpt lat="47.90466" lon="-4.21128">
        <ele>34.62</ele>
        <time>2026-05-02T17:01:21.449Z</time>
      </trkpt>
      <trkpt lat="47.90442" lon="-4.21136">
        <ele>33.68</ele>
        <time>2026-05-02T17:01:24.506Z</time>
      </trkpt>
      <trkpt lat="47.90419" lon="-4.21143">
        <ele>32.76</ele>
        <time>2026-05-02T17:01:27.403Z</time>
      </trkpt>
      <trkpt lat="47.904" lon="-4.21147">
        <ele>31.84</ele>
        <time>2026-05-02T17:01:29.629Z</time>
      </trkpt>
      <trkpt lat="47.90381" lon="-4.21152">
        <ele>30.91</ele>
        <time>2026-05-02T17:01:31.863Z</time>
      </trkpt>
      <trkpt lat="47.90352" lon="-4.21158">
        <ele>30.03</ele>
        <time>2026-05-02T17:01:35.734Z</time>
      </trkpt>
      <trkpt lat="47.90322" lon="-4.21165">
        <ele>29.14</ele>
        <time>2026-05-02T17:01:39.773Z</time>
      </trkpt>
      <trkpt lat="47.90309" lon="-4.21167">
        <ele>28.21</ele>
        <time>2026-05-02T17:01:41.116Z</time>
      </trkpt>
      <trkpt lat="47.90285" lon="-4.21181">
        <ele>27.3</ele>
        <time>2026-05-02T17:01:44.390Z</time>
      </trkpt>
      <trkpt lat="47.90261" lon="-4.21196">
        <ele>26.4</ele>
        <time>2026-05-02T17:01:47.713Z</time>
      </trkpt>
      <trkpt lat="47.90236" lon="-4.2121">
        <ele>25.5</ele>
        <time>2026-05-02T17:01:51.147Z</time>
      </trkpt>
      <trkpt lat="47.90211" lon="-4.21221">
        <ele>24.55</ele>
        <time>2026-05-02T17:01:54.430Z</time>
      </trkpt>
      <trkpt lat="47.90185" lon="-4.21231">
        <ele>23.58</ele>
        <time>2026-05-02T17:01:57.820Z</time>
      </trkpt>
      <trkpt lat="47.90159" lon="-4.21242">
        <ele>22.62</ele>
        <time>2026-05-02T17:02:01.247Z</time>
      </trkpt>
      <trkpt lat="47.90136" lon="-4.21257">
        <ele>21.78</ele>
        <time>2026-05-02T17:02:04.481Z</time>
      </trkpt>
      <trkpt lat="47.90112" lon="-4.21277">
        <ele>21.06</ele>
        <time>2026-05-02T17:02:08.228Z</time>
      </trkpt>
      <trkpt lat="47.90088" lon="-4.21297">
        <ele>20.43</ele>
        <time>2026-05-02T17:02:12.077Z</time>
      </trkpt>
      <trkpt lat="47.90065" lon="-4.21317">
        <ele>19.85</ele>
        <time>2026-05-02T17:02:15.838Z</time>
      </trkpt>
      <trkpt lat="47.90041" lon="-4.21336">
        <ele>19.36</ele>
        <time>2026-05-02T17:02:19.798Z</time>
      </trkpt>
      <trkpt lat="47.90024" lon="-4.21364">
        <ele>19.03</ele>
        <time>2026-05-02T17:02:23.652Z</time>
      </trkpt>
      <trkpt lat="47.90007" lon="-4.21392">
        <ele>18.81</ele>
        <time>2026-05-02T17:02:27.657Z</time>
      </trkpt>
      <trkpt lat="47.8999" lon="-4.2142">
        <ele>18.67</ele>
        <time>2026-05-02T17:02:31.778Z</time>
      </trkpt>
      <trkpt lat="47.89973" lon="-4.21432">
        <ele>18.66</ele>
        <time>2026-05-02T17:02:34.984Z</time>
      </trkpt>
      <trkpt lat="47.89955" lon="-4.21444">
        <ele>18.75</ele>
        <time>2026-05-02T17:02:38.514Z</time>
      </trkpt>
      <trkpt lat="47.89927" lon="-4.21448">
        <ele>18.97</ele>
        <time>2026-05-02T17:02:43.716Z</time>
      </trkpt>
      <trkpt lat="47.8991" lon="-4.21447">
        <ele>19.3</ele>
        <time>2026-05-02T17:02:47.264Z</time>
      </trkpt>
      <trkpt lat="47.89893" lon="-4.21446">
        <ele>19.72</ele>
        <time>2026-05-02T17:02:51.023Z</time>
      </trkpt>
      <trkpt lat="47.89889" lon="-4.21462">
        <ele>20.17</ele>
        <time>2026-05-02T17:02:54.020Z</time>
      </trkpt>
      <trkpt lat="47.89881" lon="-4.215">
        <ele>20.71</ele>
        <time>2026-05-02T17:02:59.638Z</time>
      </trkpt>
      <trkpt lat="47.89872" lon="-4.21538">
        <ele>21.36</ele>
        <time>2026-05-02T17:03:05.566Z</time>
      </trkpt>
      <trkpt lat="47.89863" lon="-4.21576">
        <ele>22.06</ele>
        <time>2026-05-02T17:03:11.618Z</time>
      </trkpt>
      <trkpt lat="47.89855" lon="-4.21613">
        <ele>22.77</ele>
        <time>2026-05-02T17:03:17.544Z</time>
      </trkpt>
      <trkpt lat="47.89846" lon="-4.21651">
        <ele>23.54</ele>
        <time>2026-05-02T17:03:23.775Z</time>
      </trkpt>
      <trkpt lat="47.89837" lon="-4.21688">
        <ele>24.32</ele>
        <time>2026-05-02T17:03:29.934Z</time>
      </trkpt>
      <trkpt lat="47.89831" lon="-4.21712">
        <ele>25.13</ele>
        <time>2026-05-02T17:03:34.886Z</time>
      </trkpt>
      <trkpt lat="47.89824" lon="-4.21736">
        <ele>25.93</ele>
        <time>2026-05-02T17:03:39.848Z</time>
      </trkpt>
      <trkpt lat="47.89818" lon="-4.21759">
        <ele>26.73</ele>
        <time>2026-05-02T17:03:44.691Z</time>
      </trkpt>
      <trkpt lat="47.89807" lon="-4.21786">
        <ele>27.51</ele>
        <time>2026-05-02T17:03:50.073Z</time>
      </trkpt>
      <trkpt lat="47.89795" lon="-4.21812">
        <ele>28.27</ele>
        <time>2026-05-02T17:03:55.392Z</time>
      </trkpt>
      <trkpt lat="47.89784" lon="-4.21839">
        <ele>29.03</ele>
        <time>2026-05-02T17:04:00.714Z</time>
      </trkpt>
      <trkpt lat="47.89773" lon="-4.21866">
        <ele>29.74</ele>
        <time>2026-05-02T17:04:05.890Z</time>
      </trkpt>
      <trkpt lat="47.89762" lon="-4.21894">
        <ele>30.42</ele>
        <time>2026-05-02T17:04:11.068Z</time>
      </trkpt>
      <trkpt lat="47.89753" lon="-4.21927">
        <ele>31.07</ele>
        <time>2026-05-02T17:04:16.497Z</time>
      </trkpt>
      <trkpt lat="47.89744" lon="-4.21959">
        <ele>31.72</ele>
        <time>2026-05-02T17:04:21.828Z</time>
      </trkpt>
      <trkpt lat="47.89734" lon="-4.21991">
        <ele>32.26</ele>
        <time>2026-05-02T17:04:26.951Z</time>
      </trkpt>
      <trkpt lat="47.89726" lon="-4.22018">
        <ele>32.76</ele>
        <time>2026-05-02T17:04:31.352Z</time>
      </trkpt>
      <trkpt lat="47.89717" lon="-4.22045">
        <ele>33.22</ele>
        <time>2026-05-02T17:04:35.725Z</time>
      </trkpt>
      <trkpt lat="47.89709" lon="-4.22057">
        <ele>33.65</ele>
        <time>2026-05-02T17:04:38.645Z</time>
      </trkpt>
      <trkpt lat="47.89683" lon="-4.22077">
        <ele>34.06</ele>
        <time>2026-05-02T17:04:44.407Z</time>
      </trkpt>
      <trkpt lat="47.89672" lon="-4.22115">
        <ele>34.42</ele>
        <time>2026-05-02T17:04:49.815Z</time>
      </trkpt>
      <trkpt lat="47.8967" lon="-4.22135">
        <ele>34.75</ele>
        <time>2026-05-02T17:04:52.799Z</time>
      </trkpt>
      <trkpt lat="47.89673" lon="-4.22167">
        <ele>35.01</ele>
        <time>2026-05-02T17:04:56.979Z</time>
      </trkpt>
      <trkpt lat="47.89676" lon="-4.22199">
        <ele>35.21</ele>
        <time>2026-05-02T17:05:01.042Z</time>
      </trkpt>
      <trkpt lat="47.89679" lon="-4.22231">
        <ele>35.37</ele>
        <time>2026-05-02T17:05:05.031Z</time>
      </trkpt>
      <trkpt lat="47.89684" lon="-4.22272">
        <ele>35.52</ele>
        <time>2026-05-02T17:05:10.074Z</time>
      </trkpt>
      <trkpt lat="47.89689" lon="-4.22313">
        <ele>35.61</ele>
        <time>2026-05-02T17:05:15.012Z</time>
      </trkpt>
      <trkpt lat="47.89694" lon="-4.22354">
        <ele>35.72</ele>
        <time>2026-05-02T17:05:19.984Z</time>
      </trkpt>
      <trkpt lat="47.89699" lon="-4.22395">
        <ele>35.81</ele>
        <time>2026-05-02T17:05:24.922Z</time>
      </trkpt>
      <trkpt lat="47.89704" lon="-4.22436">
        <ele>35.86</ele>
        <time>2026-05-02T17:05:29.792Z</time>
      </trkpt>
      <trkpt lat="47.89709" lon="-4.22476">
        <ele>35.96</ele>
        <time>2026-05-02T17:05:34.634Z</time>
      </trkpt>
      <trkpt lat="47.89711" lon="-4.22504">
        <ele>36.02</ele>
        <time>2026-05-02T17:05:37.970Z</time>
      </trkpt>
      <trkpt lat="47.89704" lon="-4.22536">
        <ele>36.04</ele>
        <time>2026-05-02T17:05:41.869Z</time>
      </trkpt>
      <trkpt lat="47.89689" lon="-4.22555">
        <ele>35.96</ele>
        <time>2026-05-02T17:05:45.115Z</time>
      </trkpt>
      <trkpt lat="47.89667" lon="-4.22567">
        <ele>35.82</ele>
        <time>2026-05-02T17:05:48.911Z</time>
      </trkpt>
      <trkpt lat="47.89644" lon="-4.22579">
        <ele>35.68</ele>
        <time>2026-05-02T17:05:52.868Z</time>
      </trkpt>
      <trkpt lat="47.89634" lon="-4.22587">
        <ele>35.57</ele>
        <time>2026-05-02T17:05:54.647Z</time>
      </trkpt>
      <trkpt lat="47.89627" lon="-4.22598">
        <ele>35.46</ele>
        <time>2026-05-02T17:05:56.224Z</time>
      </trkpt>
      <trkpt lat="47.89621" lon="-4.22617">
        <ele>35.36</ele>
        <time>2026-05-02T17:05:58.483Z</time>
      </trkpt>
      <trkpt lat="47.89618" lon="-4.22642">
        <ele>35.27</ele>
        <time>2026-05-02T17:06:01.260Z</time>
      </trkpt>
      <trkpt lat="47.89616" lon="-4.22667">
        <ele>35.16</ele>
        <time>2026-05-02T17:06:03.982Z</time>
      </trkpt>
      <trkpt lat="47.89611" lon="-4.227">
        <ele>35.1</ele>
        <time>2026-05-02T17:06:07.773Z</time>
      </trkpt>
      <trkpt lat="47.89605" lon="-4.22733">
        <ele>34.98</ele>
        <time>2026-05-02T17:06:11.514Z</time>
      </trkpt>
      <trkpt lat="47.89599" lon="-4.22765">
        <ele>34.84</ele>
        <time>2026-05-02T17:06:15.114Z</time>
      </trkpt>
      <trkpt lat="47.89593" lon="-4.22778">
        <ele>34.67</ele>
        <time>2026-05-02T17:06:16.683Z</time>
      </trkpt>
      <trkpt lat="47.89572" lon="-4.22794">
        <ele>34.47</ele>
        <time>2026-05-02T17:06:20.418Z</time>
      </trkpt>
      <trkpt lat="47.89552" lon="-4.22811">
        <ele>34.28</ele>
        <time>2026-05-02T17:06:24.073Z</time>
      </trkpt>
      <trkpt lat="47.89529" lon="-4.22832">
        <ele>34.12</ele>
        <time>2026-05-02T17:06:28.445Z</time>
      </trkpt>
      <trkpt lat="47.89507" lon="-4.22853">
        <ele>33.97</ele>
        <time>2026-05-02T17:06:32.687Z</time>
      </trkpt>
      <trkpt lat="47.89497" lon="-4.2285">
        <ele>33.75</ele>
        <time>2026-05-02T17:06:34.130Z</time>
      </trkpt>
      <trkpt lat="47.89485" lon="-4.22847">
        <ele>33.54</ele>
        <time>2026-05-02T17:06:35.915Z</time>
      </trkpt>
      <trkpt lat="47.89463" lon="-4.22826">
        <ele>33.31</ele>
        <time>2026-05-02T17:06:40.041Z</time>
      </trkpt>
      <trkpt lat="47.8944" lon="-4.22804">
        <ele>33.02</ele>
        <time>2026-05-02T17:06:44.288Z</time>
      </trkpt>
      <trkpt lat="47.89416" lon="-4.22792">
        <ele>32.8</ele>
        <time>2026-05-02T17:06:48.291Z</time>
      </trkpt>
      <trkpt lat="47.89392" lon="-4.2278">
        <ele>32.62</ele>
        <time>2026-05-02T17:06:52.351Z</time>
      </trkpt>
      <trkpt lat="47.89367" lon="-4.22768">
        <ele>32.41</ele>
        <time>2026-05-02T17:06:56.529Z</time>
      </trkpt>
      <trkpt lat="47.89345" lon="-4.22752">
        <ele>32.22</ele>
        <time>2026-05-02T17:07:00.432Z</time>
      </trkpt>
      <trkpt lat="47.89323" lon="-4.22736">
        <ele>32.07</ele>
        <time>2026-05-02T17:07:04.393Z</time>
      </trkpt>
      <trkpt lat="47.89301" lon="-4.2272">
        <ele>31.93</ele>
        <time>2026-05-02T17:07:08.369Z</time>
      </trkpt>
      <trkpt lat="47.89279" lon="-4.2271">
        <ele>31.74</ele>
        <time>2026-05-02T17:07:12.020Z</time>
      </trkpt>
      <trkpt lat="47.89257" lon="-4.227">
        <ele>31.53</ele>
        <time>2026-05-02T17:07:15.642Z</time>
      </trkpt>
      <trkpt lat="47.89234" lon="-4.2269">
        <ele>31.35</ele>
        <time>2026-05-02T17:07:19.471Z</time>
      </trkpt>
      <trkpt lat="47.89217" lon="-4.22693">
        <ele>31.16</ele>
        <time>2026-05-02T17:07:22.120Z</time>
      </trkpt>
      <trkpt lat="47.89191" lon="-4.2271">
        <ele>30.96</ele>
        <time>2026-05-02T17:07:26.676Z</time>
      </trkpt>
      <trkpt lat="47.89164" lon="-4.22728">
        <ele>30.77</ele>
        <time>2026-05-02T17:07:31.449Z</time>
      </trkpt>
      <trkpt lat="47.89138" lon="-4.22746">
        <ele>30.6</ele>
        <time>2026-05-02T17:07:36.097Z</time>
      </trkpt>
      <trkpt lat="47.89123" lon="-4.22753">
        <ele>30.42</ele>
        <time>2026-05-02T17:07:38.522Z</time>
      </trkpt>
      <trkpt lat="47.89097" lon="-4.22752">
        <ele>30.24</ele>
        <time>2026-05-02T17:07:42.700Z</time>
      </trkpt>
      <trkpt lat="47.89071" lon="-4.22751">
        <ele>30.03</ele>
        <time>2026-05-02T17:07:46.836Z</time>
      </trkpt>
      <trkpt lat="47.89046" lon="-4.2275">
        <ele>29.83</ele>
        <time>2026-05-02T17:07:50.815Z</time>
      </trkpt>
      <trkpt lat="47.89026" lon="-4.22749">
        <ele>29.63</ele>
        <time>2026-05-02T17:07:53.942Z</time>
      </trkpt>
      <trkpt lat="47.89007" lon="-4.22748">
        <ele>29.45</ele>
        <time>2026-05-02T17:07:56.928Z</time>
      </trkpt>
      <trkpt lat="47.88988" lon="-4.22761">
        <ele>29.27</ele>
        <time>2026-05-02T17:08:00.236Z</time>
      </trkpt>
      <trkpt lat="47.88981" lon="-4.22774">
        <ele>29.12</ele>
        <time>2026-05-02T17:08:01.931Z</time>
      </trkpt>
      <trkpt lat="47.88967" lon="-4.22813">
        <ele>28.95</ele>
        <time>2026-05-02T17:08:06.749Z</time>
      </trkpt>
      <trkpt lat="47.88953" lon="-4.22853">
        <ele>28.86</ele>
        <time>2026-05-02T17:08:11.790Z</time>
      </trkpt>
      <trkpt lat="47.88939" lon="-4.22892">
        <ele>28.76</ele>
        <time>2026-05-02T17:08:16.714Z</time>
      </trkpt>
      <trkpt lat="47.88925" lon="-4.22931">
        <ele>28.64</ele>
        <time>2026-05-02T17:08:21.608Z</time>
      </trkpt>
      <trkpt lat="47.88914" lon="-4.22959">
        <ele>28.52</ele>
        <time>2026-05-02T17:08:25.149Z</time>
      </trkpt>
      <trkpt lat="47.88902" lon="-4.22987">
        <ele>28.4</ele>
        <time>2026-05-02T17:08:28.780Z</time>
      </trkpt>
      <trkpt lat="47.88887" lon="-4.23006">
        <ele>28.25</ele>
        <time>2026-05-02T17:08:31.922Z</time>
      </trkpt>
      <trkpt lat="47.88872" lon="-4.23014">
        <ele>28.05</ele>
        <time>2026-05-02T17:08:34.356Z</time>
      </trkpt>
      <trkpt lat="47.88848" lon="-4.23017">
        <ele>27.84</ele>
        <time>2026-05-02T17:08:38.163Z</time>
      </trkpt>
      <trkpt lat="47.88823" lon="-4.23019">
        <ele>27.65</ele>
        <time>2026-05-02T17:08:42.161Z</time>
      </trkpt>
      <trkpt lat="47.88799" lon="-4.23021">
        <ele>27.43</ele>
        <time>2026-05-02T17:08:45.946Z</time>
      </trkpt>
      <trkpt lat="47.88775" lon="-4.23023">
        <ele>27.13</ele>
        <time>2026-05-02T17:08:49.622Z</time>
      </trkpt>
      <trkpt lat="47.8875" lon="-4.23029">
        <ele>26.74</ele>
        <time>2026-05-02T17:08:53.396Z</time>
      </trkpt>
      <trkpt lat="47.88725" lon="-4.23034">
        <ele>26.3</ele>
        <time>2026-05-02T17:08:57.091Z</time>
      </trkpt>
      <trkpt lat="47.887" lon="-4.2304">
        <ele>25.88</ele>
        <time>2026-05-02T17:09:00.828Z</time>
      </trkpt>
      <trkpt lat="47.8867" lon="-4.23047">
        <ele>25.49</ele>
        <time>2026-05-02T17:09:05.456Z</time>
      </trkpt>
      <trkpt lat="47.8864" lon="-4.23054">
        <ele>25.01</ele>
        <time>2026-05-02T17:09:09.967Z</time>
      </trkpt>
      <trkpt lat="47.8861" lon="-4.23062">
        <ele>24.47</ele>
        <time>2026-05-02T17:09:14.421Z</time>
      </trkpt>
      <trkpt lat="47.88589" lon="-4.23067">
        <ele>23.92</ele>
        <time>2026-05-02T17:09:17.327Z</time>
      </trkpt>
      <trkpt lat="47.88567" lon="-4.23072">
        <ele>23.33</ele>
        <time>2026-05-02T17:09:20.353Z</time>
      </trkpt>
      <trkpt lat="47.88546" lon="-4.23077">
        <ele>22.79</ele>
        <time>2026-05-02T17:09:23.271Z</time>
      </trkpt>
      <trkpt lat="47.88524" lon="-4.23057">
        <ele>22.12</ele>
        <time>2026-05-02T17:09:26.789Z</time>
      </trkpt>
      <trkpt lat="47.88525" lon="-4.23018">
        <ele>21.41</ele>
        <time>2026-05-02T17:09:30.330Z</time>
      </trkpt>
      <trkpt lat="47.88526" lon="-4.22978">
        <ele>20.62</ele>
        <time>2026-05-02T17:09:33.897Z</time>
      </trkpt>
      <trkpt lat="47.88513" lon="-4.22948">
        <ele>19.89</ele>
        <time>2026-05-02T17:09:37.054Z</time>
      </trkpt>
      <trkpt lat="47.88492" lon="-4.22922">
        <ele>19.14</ele>
        <time>2026-05-02T17:09:40.737Z</time>
      </trkpt>
      <trkpt lat="47.88469" lon="-4.22919">
        <ele>18.46</ele>
        <time>2026-05-02T17:09:43.804Z</time>
      </trkpt>
      <trkpt lat="47.88447" lon="-4.22916">
        <ele>17.81</ele>
        <time>2026-05-02T17:09:46.740Z</time>
      </trkpt>
      <trkpt lat="47.8843" lon="-4.22919">
        <ele>17.2</ele>
        <time>2026-05-02T17:09:48.909Z</time>
      </trkpt>
      <trkpt lat="47.88413" lon="-4.22922">
        <ele>16.6</ele>
        <time>2026-05-02T17:09:51.088Z</time>
      </trkpt>
      <trkpt lat="47.88387" lon="-4.22937">
        <ele>16.02</ele>
        <time>2026-05-02T17:09:55.059Z</time>
      </trkpt>
      <trkpt lat="47.88357" lon="-4.22941">
        <ele>15.43</ele>
        <time>2026-05-02T17:09:59.392Z</time>
      </trkpt>
      <trkpt lat="47.8834" lon="-4.22939">
        <ele>14.85</ele>
        <time>2026-05-02T17:10:01.580Z</time>
      </trkpt>
      <trkpt lat="47.88315" lon="-4.22958">
        <ele>14.33</ele>
        <time>2026-05-02T17:10:05.653Z</time>
      </trkpt>
      <trkpt lat="47.88291" lon="-4.22976">
        <ele>13.75</ele>
        <time>2026-05-02T17:10:09.454Z</time>
      </trkpt>
      <trkpt lat="47.88267" lon="-4.22994">
        <ele>13.28</ele>
        <time>2026-05-02T17:10:13.388Z</time>
      </trkpt>
      <trkpt lat="47.88243" lon="-4.23012">
        <ele>12.85</ele>
        <time>2026-05-02T17:10:17.372Z</time>
      </trkpt>
      <trkpt lat="47.88226" lon="-4.23007">
        <ele>12.4</ele>
        <time>2026-05-02T17:10:19.739Z</time>
      </trkpt>
      <trkpt lat="47.88209" lon="-4.23002">
        <ele>11.98</ele>
        <time>2026-05-02T17:10:22.138Z</time>
      </trkpt>
      <trkpt lat="47.88194" lon="-4.22987">
        <ele>11.58</ele>
        <time>2026-05-02T17:10:24.682Z</time>
      </trkpt>
      <trkpt lat="47.88179" lon="-4.22957">
        <ele>11.18</ele>
        <time>2026-05-02T17:10:28.406Z</time>
      </trkpt>
      <trkpt lat="47.88165" lon="-4.22927">
        <ele>10.88</ele>
        <time>2026-05-02T17:10:32.162Z</time>
      </trkpt>
      <trkpt lat="47.8815" lon="-4.22898">
        <ele>10.69</ele>
        <time>2026-05-02T17:10:36.079Z</time>
      </trkpt>
      <trkpt lat="47.88136" lon="-4.22868">
        <ele>10.6</ele>
        <time>2026-05-02T17:10:40.136Z</time>
      </trkpt>
      <trkpt lat="47.88123" lon="-4.22842">
        <ele>10.61</ele>
        <time>2026-05-02T17:10:43.879Z</time>
      </trkpt>
      <trkpt lat="47.8811" lon="-4.22815">
        <ele>10.69</ele>
        <time>2026-05-02T17:10:47.833Z</time>
      </trkpt>
      <trkpt lat="47.88106" lon="-4.22804">
        <ele>10.86</ele>
        <time>2026-05-02T17:10:49.599Z</time>
      </trkpt>
      <trkpt lat="47.88093" lon="-4.22778">
        <ele>11.1</ele>
        <time>2026-05-02T17:10:53.754Z</time>
      </trkpt>
      <trkpt lat="47.88086" lon="-4.22756">
        <ele>11.5</ele>
        <time>2026-05-02T17:10:57.355Z</time>
      </trkpt>
      <trkpt lat="47.8808" lon="-4.22733">
        <ele>11.97</ele>
        <time>2026-05-02T17:11:01.167Z</time>
      </trkpt>
      <trkpt lat="47.88079" lon="-4.22702">
        <ele>12.57</ele>
        <time>2026-05-02T17:11:05.985Z</time>
      </trkpt>
      <trkpt lat="47.88078" lon="-4.22671">
        <ele>13.24</ele>
        <time>2026-05-02T17:11:10.993Z</time>
      </trkpt>
      <trkpt lat="47.88068" lon="-4.22637">
        <ele>13.95</ele>
        <time>2026-05-02T17:11:16.737Z</time>
      </trkpt>
      <trkpt lat="47.88059" lon="-4.22602">
        <ele>14.7</ele>
        <time>2026-05-02T17:11:22.623Z</time>
      </trkpt>
      <trkpt lat="47.88059" lon="-4.22602">
        <ele>15.45</ele>
        <time>2026-05-02T17:11:22.623Z</time>
      </trkpt>
      <trkpt lat="47.88041" lon="-4.22568">
        <ele>16.31</ele>
        <time>2026-05-02T17:11:29.408Z</time>
      </trkpt>
      <trkpt lat="47.88028" lon="-4.22547">
        <ele>17.21</ele>
        <time>2026-05-02T17:11:34.920Z</time>
      </trkpt>
      <trkpt lat="47.88007" lon="-4.22523">
        <ele>18.1</ele>
        <time>2026-05-02T17:11:41.395Z</time>
      </trkpt>
      <trkpt lat="47.87979" lon="-4.22504">
        <ele>18.98</ele>
        <time>2026-05-02T17:11:48.498Z</time>
      </trkpt>
      <trkpt lat="47.8796" lon="-4.22495">
        <ele>19.86</ele>
        <time>2026-05-02T17:11:54.034Z</time>
      </trkpt>
      <trkpt lat="47.87941" lon="-4.22487">
        <ele>20.81</ele>
        <time>2026-05-02T17:11:59.796Z</time>
      </trkpt>
      <trkpt lat="47.87913" lon="-4.2248">
        <ele>21.71</ele>
        <time>2026-05-02T17:12:06.588Z</time>
      </trkpt>
      <trkpt lat="47.87886" lon="-4.22474">
        <ele>22.5</ele>
        <time>2026-05-02T17:12:12.915Z</time>
      </trkpt>
      <trkpt lat="47.87858" lon="-4.22467">
        <ele>23.24</ele>
        <time>2026-05-02T17:12:19.285Z</time>
      </trkpt>
      <trkpt lat="47.87831" lon="-4.22461">
        <ele>23.96</ele>
        <time>2026-05-02T17:12:25.431Z</time>
      </trkpt>
      <trkpt lat="47.87803" lon="-4.22454">
        <ele>24.59</ele>
        <time>2026-05-02T17:12:31.534Z</time>
      </trkpt>
      <trkpt lat="47.87802" lon="-4.22463">
        <ele>25.12</ele>
        <time>2026-05-02T17:12:34.519Z</time>
      </trkpt>
      <trkpt lat="47.87802" lon="-4.22463">
        <ele>25.58</ele>
        <time>2026-05-02T17:12:34.519Z</time>
      </trkpt>
      <trkpt lat="47.87803" lon="-4.22454">
        <ele>25.97</ele>
        <time>2026-05-02T17:12:36.708Z</time>
      </trkpt>
      <trkpt lat="47.87799" lon="-4.22454">
        <ele>26.28</ele>
        <time>2026-05-02T17:12:38.433Z</time>
      </trkpt>
      <trkpt lat="47.87799" lon="-4.22454">
        <ele>26.5</ele>
        <time>2026-05-02T17:12:38.433Z</time>
      </trkpt>
      <trkpt lat="47.87772" lon="-4.22449">
        <ele>26.68</ele>
        <time>2026-05-02T17:12:43.405Z</time>
      </trkpt>
      <trkpt lat="47.87746" lon="-4.22443">
        <ele>26.85</ele>
        <time>2026-05-02T17:12:48.205Z</time>
      </trkpt>
      <trkpt lat="47.87719" lon="-4.22437">
        <ele>26.91</ele>
        <time>2026-05-02T17:12:52.982Z</time>
      </trkpt>
      <trkpt lat="47.87698" lon="-4.22431">
        <ele>26.76</ele>
        <time>2026-05-02T17:12:56.414Z</time>
      </trkpt>
      <trkpt lat="47.87677" lon="-4.22424">
        <ele>26.39</ele>
        <time>2026-05-02T17:12:59.573Z</time>
      </trkpt>
      <trkpt lat="47.87653" lon="-4.22411">
        <ele>25.91</ele>
        <time>2026-05-02T17:13:03.271Z</time>
      </trkpt>
      <trkpt lat="47.87638" lon="-4.22392">
        <ele>25.47</ele>
        <time>2026-05-02T17:13:06.039Z</time>
      </trkpt>
      <trkpt lat="47.87632" lon="-4.22379">
        <ele>25.07</ele>
        <time>2026-05-02T17:13:07.359Z</time>
      </trkpt>
      <trkpt lat="47.87623" lon="-4.22349">
        <ele>24.61</ele>
        <time>2026-05-02T17:13:10.497Z</time>
      </trkpt>
      <trkpt lat="47.87619" lon="-4.22316">
        <ele>24.19</ele>
        <time>2026-05-02T17:13:13.758Z</time>
      </trkpt>
      <trkpt lat="47.87614" lon="-4.22282">
        <ele>23.68</ele>
        <time>2026-05-02T17:13:17.055Z</time>
      </trkpt>
      <trkpt lat="47.8761" lon="-4.22248">
        <ele>23.12</ele>
        <time>2026-05-02T17:13:20.262Z</time>
      </trkpt>
      <trkpt lat="47.87607" lon="-4.2221">
        <ele>22.47</ele>
        <time>2026-05-02T17:13:23.785Z</time>
      </trkpt>
      <trkpt lat="47.87604" lon="-4.22172">
        <ele>21.83</ele>
        <time>2026-05-02T17:13:27.319Z</time>
      </trkpt>
      <trkpt lat="47.876" lon="-4.22134">
        <ele>21.22</ele>
        <time>2026-05-02T17:13:30.909Z</time>
      </trkpt>
      <trkpt lat="47.87597" lon="-4.22096">
        <ele>20.57</ele>
        <time>2026-05-02T17:13:34.432Z</time>
      </trkpt>
      <trkpt lat="47.87593" lon="-4.2207">
        <ele>19.93</ele>
        <time>2026-05-02T17:13:36.697Z</time>
      </trkpt>
      <trkpt lat="47.8758" lon="-4.22051">
        <ele>19.25</ele>
        <time>2026-05-02T17:13:38.974Z</time>
      </trkpt>
      <trkpt lat="47.87562" lon="-4.22046">
        <ele>18.55</ele>
        <time>2026-05-02T17:13:41.250Z</time>
      </trkpt>
      <trkpt lat="47.87544" lon="-4.2204">
        <ele>17.82</ele>
        <time>2026-05-02T17:13:43.520Z</time>
      </trkpt>
      <trkpt lat="47.87537" lon="-4.22083">
        <ele>17.09</ele>
        <time>2026-05-02T17:13:47.619Z</time>
      </trkpt>
      <trkpt lat="47.87531" lon="-4.22125">
        <ele>16.35</ele>
        <time>2026-05-02T17:13:51.561Z</time>
      </trkpt>
      <trkpt lat="47.87524" lon="-4.22168">
        <ele>15.63</ele>
        <time>2026-05-02T17:13:55.670Z</time>
      </trkpt>
      <trkpt lat="47.87518" lon="-4.2221">
        <ele>14.88</ele>
        <time>2026-05-02T17:13:59.601Z</time>
      </trkpt>
      <trkpt lat="47.8752" lon="-4.22218">
        <ele>14.17</ele>
        <time>2026-05-02T17:14:00.190Z</time>
      </trkpt>
      <trkpt lat="47.8754" lon="-4.22246">
        <ele>13.39</ele>
        <time>2026-05-02T17:14:03.864Z</time>
      </trkpt>
      <trkpt lat="47.87561" lon="-4.22274">
        <ele>12.59</ele>
        <time>2026-05-02T17:14:07.638Z</time>
      </trkpt>
      <trkpt lat="47.87552" lon="-4.22311">
        <ele>11.75</ele>
        <time>2026-05-02T17:14:11.082Z</time>
      </trkpt>
      <trkpt lat="47.87539" lon="-4.22326">
        <ele>11.02</ele>
        <time>2026-05-02T17:14:13.036Z</time>
      </trkpt>
      <trkpt lat="47.87513" lon="-4.22336">
        <ele>10.41</ele>
        <time>2026-05-02T17:14:16.801Z</time>
      </trkpt>
      <trkpt lat="47.87487" lon="-4.22347">
        <ele>9.75</ele>
        <time>2026-05-02T17:14:20.538Z</time>
      </trkpt>
      <trkpt lat="47.87477" lon="-4.22351">
        <ele>9.12</ele>
        <time>2026-05-02T17:14:21.642Z</time>
      </trkpt>
      <trkpt lat="47.87456" lon="-4.22366">
        <ele>8.47</ele>
        <time>2026-05-02T17:14:24.773Z</time>
      </trkpt>
      <trkpt lat="47.87434" lon="-4.22381">
        <ele>7.86</ele>
        <time>2026-05-02T17:14:28.096Z</time>
      </trkpt>
      <trkpt lat="47.87418" lon="-4.22398">
        <ele>7.33</ele>
        <time>2026-05-02T17:14:30.758Z</time>
      </trkpt>
      <trkpt lat="47.87402" lon="-4.22414">
        <ele>6.86</ele>
        <time>2026-05-02T17:14:33.423Z</time>
      </trkpt>
      <trkpt lat="47.87378" lon="-4.22441">
        <ele>6.42</ele>
        <time>2026-05-02T17:14:37.934Z</time>
      </trkpt>
      <trkpt lat="47.87363" lon="-4.22454">
        <ele>5.94</ele>
        <time>2026-05-02T17:14:40.272Z</time>
      </trkpt>
      <trkpt lat="47.87338" lon="-4.22454">
        <ele>5.44</ele>
        <time>2026-05-02T17:14:43.857Z</time>
      </trkpt>
      <trkpt lat="47.87312" lon="-4.22439">
        <ele>4.97</ele>
        <time>2026-05-02T17:14:47.961Z</time>
      </trkpt>
      <trkpt lat="47.87305" lon="-4.22439">
        <ele>4.61</ele>
        <time>2026-05-02T17:14:48.754Z</time>
      </trkpt>
      <trkpt lat="47.87301" lon="-4.22431">
        <ele>4.28</ele>
        <time>2026-05-02T17:14:49.523Z</time>
      </trkpt>
      <trkpt lat="47.87285" lon="-4.22425">
        <ele>3.95</ele>
        <time>2026-05-02T17:14:51.889Z</time>
      </trkpt>
      <trkpt lat="47.87269" lon="-4.2242">
        <ele>3.66</ele>
        <time>2026-05-02T17:14:54.278Z</time>
      </trkpt>
      <trkpt lat="47.87238" lon="-4.22417">
        <ele>3.39</ele>
        <time>2026-05-02T17:14:59.190Z</time>
      </trkpt>
      <trkpt lat="47.87207" lon="-4.22414">
        <ele>3.17</ele>
        <time>2026-05-02T17:15:04.174Z</time>
      </trkpt>
      <trkpt lat="47.87183" lon="-4.2242">
        <ele>2.97</ele>
        <time>2026-05-02T17:15:08.038Z</time>
      </trkpt>
      <trkpt lat="47.87159" lon="-4.22426">
        <ele>2.77</ele>
        <time>2026-05-02T17:15:11.902Z</time>
      </trkpt>
      <trkpt lat="47.8713" lon="-4.22435">
        <ele>2.63</ele>
        <time>2026-05-02T17:15:16.758Z</time>
      </trkpt>
      <trkpt lat="47.87101" lon="-4.22444">
        <ele>2.5</ele>
        <time>2026-05-02T17:15:21.629Z</time>
      </trkpt>
      <trkpt lat="47.87071" lon="-4.22452">
        <ele>2.42</ele>
        <time>2026-05-02T17:15:26.723Z</time>
      </trkpt>
      <trkpt lat="47.87071" lon="-4.22452">
        <ele>2.32</ele>
        <time>2026-05-02T17:15:26.723Z</time>
      </trkpt>
      <trkpt lat="47.87069" lon="-4.22452">
        <ele>2.24</ele>
        <time>2026-05-02T17:15:26.969Z</time>
      </trkpt>
      <trkpt lat="47.87048" lon="-4.22456">
        <ele>2.14</ele>
        <time>2026-05-02T17:15:30.439Z</time>
      </trkpt>
      <trkpt lat="47.87026" lon="-4.22461">
        <ele>2.07</ele>
        <time>2026-05-02T17:15:34.141Z</time>
      </trkpt>
      <trkpt lat="47.87009" lon="-4.22463">
        <ele>2.02</ele>
        <time>2026-05-02T17:15:36.984Z</time>
      </trkpt>
      <trkpt lat="47.86986" lon="-4.22461">
        <ele>2.04</ele>
        <time>2026-05-02T17:15:40.964Z</time>
      </trkpt>
      <trkpt lat="47.8696" lon="-4.2245">
        <ele>2.01</ele>
        <time>2026-05-02T17:15:45.547Z</time>
      </trkpt>
      <trkpt lat="47.86942" lon="-4.22466">
        <ele>1.97</ele>
        <time>2026-05-02T17:15:49.073Z</time>
      </trkpt>
      <trkpt lat="47.86923" lon="-4.22482">
        <ele>1.95</ele>
        <time>2026-05-02T17:15:52.780Z</time>
      </trkpt>
      <trkpt lat="47.86919" lon="-4.22482">
        <ele>1.94</ele>
        <time>2026-05-02T17:15:53.450Z</time>
      </trkpt>
      <trkpt lat="47.86908" lon="-4.22491">
        <ele>1.94</ele>
        <time>2026-05-02T17:15:55.600Z</time>
      </trkpt>
      <trkpt lat="47.86887" lon="-4.22503">
        <ele>1.98</ele>
        <time>2026-05-02T17:15:59.519Z</time>
      </trkpt>
      <trkpt lat="47.86865" lon="-4.22514">
        <ele>2.03</ele>
        <time>2026-05-02T17:16:03.578Z</time>
      </trkpt>
      <trkpt lat="47.86845" lon="-4.22527">
        <ele>2.08</ele>
        <time>2026-05-02T17:16:07.400Z</time>
      </trkpt>
      <trkpt lat="47.86824" lon="-4.2254">
        <ele>2.14</ele>
        <time>2026-05-02T17:16:11.396Z</time>
      </trkpt>
      <trkpt lat="47.86803" lon="-4.22553">
        <ele>2.12</ele>
        <time>2026-05-02T17:16:15.260Z</time>
      </trkpt>
      <trkpt lat="47.86793" lon="-4.22559">
        <ele>2.1</ele>
        <time>2026-05-02T17:16:17.074Z</time>
      </trkpt>
      <trkpt lat="47.86775" lon="-4.22568">
        <ele>2.08</ele>
        <time>2026-05-02T17:16:20.295Z</time>
      </trkpt>
      <trkpt lat="47.86769" lon="-4.22575">
        <ele>2.11</ele>
        <time>2026-05-02T17:16:21.651Z</time>
      </trkpt>
      <trkpt lat="47.86769" lon="-4.22575">
        <ele>2.19</ele>
        <time>2026-05-02T17:16:21.651Z</time>
      </trkpt>
      <trkpt lat="47.8676" lon="-4.22581">
        <ele>2.24</ele>
        <time>2026-05-02T17:16:23.425Z</time>
      </trkpt>
      <trkpt lat="47.86745" lon="-4.22587">
        <ele>2.34</ele>
        <time>2026-05-02T17:16:26.258Z</time>
      </trkpt>
      <trkpt lat="47.86745" lon="-4.22587">
        <ele>2.47</ele>
        <time>2026-05-02T17:16:26.258Z</time>
      </trkpt>
      <trkpt lat="47.8674" lon="-4.22591">
        <ele>2.61</ele>
        <time>2026-05-02T17:16:27.512Z</time>
      </trkpt>
      <trkpt lat="47.86726" lon="-4.226">
        <ele>2.77</ele>
        <time>2026-05-02T17:16:30.408Z</time>
      </trkpt>
      <trkpt lat="47.86711" lon="-4.22609">
        <ele>2.99</ele>
        <time>2026-05-02T17:16:33.580Z</time>
      </trkpt>
      <trkpt lat="47.86695" lon="-4.22619">
        <ele>3.24</ele>
        <time>2026-05-02T17:16:37.012Z</time>
      </trkpt>
      <trkpt lat="47.86679" lon="-4.22628">
        <ele>3.5</ele>
        <time>2026-05-02T17:16:40.423Z</time>
      </trkpt>
      <trkpt lat="47.86666" lon="-4.22635">
        <ele>3.75</ele>
        <time>2026-05-02T17:16:43.265Z</time>
      </trkpt>
      <trkpt lat="47.86644" lon="-4.22638">
        <ele>4.01</ele>
        <time>2026-05-02T17:16:47.517Z</time>
      </trkpt>
      <trkpt lat="47.86623" lon="-4.22641">
        <ele>4.28</ele>
        <time>2026-05-02T17:16:51.620Z</time>
      </trkpt>
      <trkpt lat="47.86612" lon="-4.22643">
        <ele>4.54</ele>
        <time>2026-05-02T17:16:54.036Z</time>
      </trkpt>
      <trkpt lat="47.86612" lon="-4.22643">
        <ele>4.78</ele>
        <time>2026-05-02T17:16:54.036Z</time>
      </trkpt>
      <trkpt lat="47.86606" lon="-4.22643">
        <ele>5.03</ele>
        <time>2026-05-02T17:16:55.652Z</time>
      </trkpt>
      <trkpt lat="47.86581" lon="-4.22641">
        <ele>5.32</ele>
        <time>2026-05-02T17:17:00.462Z</time>
      </trkpt>
      <trkpt lat="47.86556" lon="-4.22639">
        <ele>5.57</ele>
        <time>2026-05-02T17:17:05.194Z</time>
      </trkpt>
      <trkpt lat="47.86544" lon="-4.2265">
        <ele>5.78</ele>
        <time>2026-05-02T17:17:07.995Z</time>
      </trkpt>
      <trkpt lat="47.86544" lon="-4.22652">
        <ele>6.01</ele>
        <time>2026-05-02T17:17:08.980Z</time>
      </trkpt>
      <trkpt lat="47.86537" lon="-4.22662">
        <ele>6.24</ele>
        <time>2026-05-02T17:17:11.099Z</time>
      </trkpt>
      <trkpt lat="47.86533" lon="-4.22662">
        <ele>6.48</ele>
        <time>2026-05-02T17:17:12.461Z</time>
      </trkpt>
      <trkpt lat="47.86518" lon="-4.22682">
        <ele>6.74</ele>
        <time>2026-05-02T17:17:16.381Z</time>
      </trkpt>
      <trkpt lat="47.86515" lon="-4.22698">
        <ele>6.98</ele>
        <time>2026-05-02T17:17:18.759Z</time>
      </trkpt>
      <trkpt lat="47.86507" lon="-4.22742">
        <ele>7.22</ele>
        <time>2026-05-02T17:17:24.417Z</time>
      </trkpt>
      <trkpt lat="47.86496" lon="-4.22772">
        <ele>7.48</ele>
        <time>2026-05-02T17:17:28.812Z</time>
      </trkpt>
      <trkpt lat="47.86486" lon="-4.22789">
        <ele>7.73</ele>
        <time>2026-05-02T17:17:31.878Z</time>
      </trkpt>
      <trkpt lat="47.86486" lon="-4.22819">
        <ele>7.97</ele>
        <time>2026-05-02T17:17:35.758Z</time>
      </trkpt>
      <trkpt lat="47.86478" lon="-4.22848">
        <ele>8.19</ele>
        <time>2026-05-02T17:17:39.753Z</time>
      </trkpt>
      <trkpt lat="47.86471" lon="-4.22877">
        <ele>8.44</ele>
        <time>2026-05-02T17:17:43.746Z</time>
      </trkpt>
      <trkpt lat="47.86466" lon="-4.22902">
        <ele>8.73</ele>
        <time>2026-05-02T17:17:47.287Z</time>
      </trkpt>
      <trkpt lat="47.86462" lon="-4.22926">
        <ele>8.97</ele>
        <time>2026-05-02T17:17:50.570Z</time>
      </trkpt>
      <trkpt lat="47.86462" lon="-4.22944">
        <ele>9.23</ele>
        <time>2026-05-02T17:17:53.147Z</time>
      </trkpt>
      <trkpt lat="47.86462" lon="-4.22944">
        <ele>9.51</ele>
        <time>2026-05-02T17:17:53.147Z</time>
      </trkpt>
      <trkpt lat="47.86457" lon="-4.22987">
        <ele>9.77</ele>
        <time>2026-05-02T17:17:58.620Z</time>
      </trkpt>
      <trkpt lat="47.86452" lon="-4.23031">
        <ele>10.08</ele>
        <time>2026-05-02T17:18:04.300Z</time>
      </trkpt>
      <trkpt lat="47.86448" lon="-4.23074">
        <ele>10.42</ele>
        <time>2026-05-02T17:18:09.900Z</time>
      </trkpt>
      <trkpt lat="47.86443" lon="-4.23117">
        <ele>10.79</ele>
        <time>2026-05-02T17:18:15.585Z</time>
      </trkpt>
      <trkpt lat="47.86445" lon="-4.23128">
        <ele>11.15</ele>
        <time>2026-05-02T17:18:17.788Z</time>
      </trkpt>
      <trkpt lat="47.86449" lon="-4.23128">
        <ele>11.5</ele>
        <time>2026-05-02T17:18:19.763Z</time>
      </trkpt>
      <trkpt lat="47.86451" lon="-4.23135">
        <ele>11.86</ele>
        <time>2026-05-02T17:18:21.764Z</time>
      </trkpt>
      <trkpt lat="47.86451" lon="-4.23139">
        <ele>12.23</ele>
        <time>2026-05-02T17:18:23.735Z</time>
      </trkpt>
      <trkpt lat="47.86443" lon="-4.23141">
        <ele>12.6</ele>
        <time>2026-05-02T17:18:26.029Z</time>
      </trkpt>
      <trkpt lat="47.86438" lon="-4.23152">
        <ele>12.99</ele>
        <time>2026-05-02T17:18:28.493Z</time>
      </trkpt>
      <trkpt lat="47.86434" lon="-4.23167">
        <ele>13.37</ele>
        <time>2026-05-02T17:18:31.188Z</time>
      </trkpt>
      <trkpt lat="47.86434" lon="-4.23197">
        <ele>13.78</ele>
        <time>2026-05-02T17:18:35.430Z</time>
      </trkpt>
      <trkpt lat="47.86431" lon="-4.23232">
        <ele>14.26</ele>
        <time>2026-05-02T17:18:40.413Z</time>
      </trkpt>
      <trkpt lat="47.86428" lon="-4.23268">
        <ele>14.69</ele>
        <time>2026-05-02T17:18:45.395Z</time>
      </trkpt>
      <trkpt lat="47.86428" lon="-4.23268">
        <ele>15.03</ele>
        <time>2026-05-02T17:18:45.395Z</time>
      </trkpt>
      <trkpt lat="47.86425" lon="-4.23302">
        <ele>15.45</ele>
        <time>2026-05-02T17:18:50.134Z</time>
      </trkpt>
      <trkpt lat="47.86422" lon="-4.23336">
        <ele>15.77</ele>
        <time>2026-05-02T17:18:54.661Z</time>
      </trkpt>
      <trkpt lat="47.86419" lon="-4.23371">
        <ele>15.97</ele>
        <time>2026-05-02T17:18:59.067Z</time>
      </trkpt>
      <trkpt lat="47.86426" lon="-4.23392">
        <ele>16.19</ele>
        <time>2026-05-02T17:19:02.165Z</time>
      </trkpt>
      <trkpt lat="47.86436" lon="-4.23398">
        <ele>16.4</ele>
        <time>2026-05-02T17:19:04.415Z</time>
      </trkpt>
      <trkpt lat="47.86438" lon="-4.23414">
        <ele>16.54</ele>
        <time>2026-05-02T17:19:06.539Z</time>
      </trkpt>
      <trkpt lat="47.86438" lon="-4.23418">
        <ele>16.7</ele>
        <time>2026-05-02T17:19:07.448Z</time>
      </trkpt>
      <trkpt lat="47.86434" lon="-4.23426">
        <ele>16.83</ele>
        <time>2026-05-02T17:19:08.844Z</time>
      </trkpt>
      <trkpt lat="47.86423" lon="-4.23431">
        <ele>16.95</ele>
        <time>2026-05-02T17:19:11.028Z</time>
      </trkpt>
      <trkpt lat="47.86415" lon="-4.23439">
        <ele>17.03</ele>
        <time>2026-05-02T17:19:12.818Z</time>
      </trkpt>
      <trkpt lat="47.86408" lon="-4.23465">
        <ele>17.09</ele>
        <time>2026-05-02T17:19:16.139Z</time>
      </trkpt>
      <trkpt lat="47.86408" lon="-4.23465">
        <ele>17.12</ele>
        <time>2026-05-02T17:19:16.139Z</time>
      </trkpt>
      <trkpt lat="47.86404" lon="-4.23484">
        <ele>17.13</ele>
        <time>2026-05-02T17:19:18.444Z</time>
      </trkpt>
      <trkpt lat="47.86404" lon="-4.23484">
        <ele>17.1</ele>
        <time>2026-05-02T17:19:18.444Z</time>
      </trkpt>
      <trkpt lat="47.864" lon="-4.23519">
        <ele>17.05</ele>
        <time>2026-05-02T17:19:22.446Z</time>
      </trkpt>
      <trkpt lat="47.86396" lon="-4.23553">
        <ele>17.03</ele>
        <time>2026-05-02T17:19:26.381Z</time>
      </trkpt>
      <trkpt lat="47.86396" lon="-4.2359">
        <ele>16.99</ele>
        <time>2026-05-02T17:19:30.570Z</time>
      </trkpt>
      <trkpt lat="47.86396" lon="-4.23626">
        <ele>16.88</ele>
        <time>2026-05-02T17:19:34.536Z</time>
      </trkpt>
      <trkpt lat="47.86396" lon="-4.23626">
        <ele>16.71</ele>
        <time>2026-05-02T17:19:34.536Z</time>
      </trkpt>
      <trkpt lat="47.86396" lon="-4.23639">
        <ele>16.51</ele>
        <time>2026-05-02T17:19:35.756Z</time>
      </trkpt>
      <trkpt lat="47.86396" lon="-4.23639">
        <ele>16.28</ele>
        <time>2026-05-02T17:19:35.756Z</time>
      </trkpt>
      <trkpt lat="47.86396" lon="-4.23673">
        <ele>16.01</ele>
        <time>2026-05-02T17:19:39.264Z</time>
      </trkpt>
      <trkpt lat="47.86397" lon="-4.23708">
        <ele>15.67</ele>
        <time>2026-05-02T17:19:42.796Z</time>
      </trkpt>
      <trkpt lat="47.86398" lon="-4.23742">
        <ele>15.31</ele>
        <time>2026-05-02T17:19:46.189Z</time>
      </trkpt>
      <trkpt lat="47.86402" lon="-4.23746">
        <ele>14.99</ele>
        <time>2026-05-02T17:19:46.685Z</time>
      </trkpt>
      <trkpt lat="47.86404" lon="-4.23753">
        <ele>14.66</ele>
        <time>2026-05-02T17:19:47.216Z</time>
      </trkpt>
      <trkpt lat="47.86398" lon="-4.23763">
        <ele>14.31</ele>
        <time>2026-05-02T17:19:48.329Z</time>
      </trkpt>
      <trkpt lat="47.86395" lon="-4.23795">
        <ele>13.91</ele>
        <time>2026-05-02T17:19:51.478Z</time>
      </trkpt>
      <trkpt lat="47.86392" lon="-4.23826">
        <ele>13.51</ele>
        <time>2026-05-02T17:19:54.515Z</time>
      </trkpt>
      <trkpt lat="47.86389" lon="-4.23858">
        <ele>13.11</ele>
        <time>2026-05-02T17:19:57.664Z</time>
      </trkpt>
      <trkpt lat="47.86383" lon="-4.23901">
        <ele>12.78</ele>
        <time>2026-05-02T17:20:02.220Z</time>
      </trkpt>
      <trkpt lat="47.86383" lon="-4.23901">
        <ele>12.43</ele>
        <time>2026-05-02T17:20:02.220Z</time>
      </trkpt>
      <trkpt lat="47.86377" lon="-4.23936">
        <ele>12.06</ele>
        <time>2026-05-02T17:20:05.837Z</time>
      </trkpt>
      <trkpt lat="47.86372" lon="-4.23971">
        <ele>11.67</ele>
        <time>2026-05-02T17:20:09.390Z</time>
      </trkpt>
      <trkpt lat="47.86362" lon="-4.24007">
        <ele>11.37</ele>
        <time>2026-05-02T17:20:13.422Z</time>
      </trkpt>
      <trkpt lat="47.86353" lon="-4.24042">
        <ele>11.1</ele>
        <time>2026-05-02T17:20:17.327Z</time>
      </trkpt>
      <trkpt lat="47.86338" lon="-4.24081">
        <ele>10.85</ele>
        <time>2026-05-02T17:20:22.113Z</time>
      </trkpt>
      <trkpt lat="47.86322" lon="-4.24112">
        <ele>10.58</ele>
        <time>2026-05-02T17:20:26.203Z</time>
      </trkpt>
      <trkpt lat="47.86306" lon="-4.24144">
        <ele>10.36</ele>
        <time>2026-05-02T17:20:30.455Z</time>
      </trkpt>
      <trkpt lat="47.8629" lon="-4.24175">
        <ele>10.18</ele>
        <time>2026-05-02T17:20:34.673Z</time>
      </trkpt>
      <trkpt lat="47.86284" lon="-4.242">
        <ele>10.03</ele>
        <time>2026-05-02T17:20:37.497Z</time>
      </trkpt>
      <trkpt lat="47.86278" lon="-4.24225">
        <ele>9.93</ele>
        <time>2026-05-02T17:20:40.393Z</time>
      </trkpt>
      <trkpt lat="47.86278" lon="-4.24225">
        <ele>9.85</ele>
        <time>2026-05-02T17:20:40.393Z</time>
      </trkpt>
      <trkpt lat="47.86273" lon="-4.24257">
        <ele>9.84</ele>
        <time>2026-05-02T17:20:44.154Z</time>
      </trkpt>
      <trkpt lat="47.86271" lon="-4.24302">
        <ele>9.84</ele>
        <time>2026-05-02T17:20:49.338Z</time>
      </trkpt>
      <trkpt lat="47.86272" lon="-4.24341">
        <ele>9.88</ele>
        <time>2026-05-02T17:20:53.891Z</time>
      </trkpt>
      <trkpt lat="47.86273" lon="-4.2438">
        <ele>9.95</ele>
        <time>2026-05-02T17:20:58.494Z</time>
      </trkpt>
      <trkpt lat="47.86274" lon="-4.2442">
        <ele>10.02</ele>
        <time>2026-05-02T17:21:03.212Z</time>
      </trkpt>
      <trkpt lat="47.86275" lon="-4.24459">
        <ele>10.18</ele>
        <time>2026-05-02T17:21:07.973Z</time>
      </trkpt>
      <trkpt lat="47.8627" lon="-4.24482">
        <ele>10.39</ele>
        <time>2026-05-02T17:21:11.133Z</time>
      </trkpt>
      <trkpt lat="47.86265" lon="-4.24506">
        <ele>10.63</ele>
        <time>2026-05-02T17:21:14.462Z</time>
      </trkpt>
      <trkpt lat="47.86265" lon="-4.24527">
        <ele>10.94</ele>
        <time>2026-05-02T17:21:17.484Z</time>
      </trkpt>
      <trkpt lat="47.86267" lon="-4.2454">
        <ele>11.28</ele>
        <time>2026-05-02T17:21:19.789Z</time>
      </trkpt>
      <trkpt lat="47.86275" lon="-4.24544">
        <ele>11.67</ele>
        <time>2026-05-02T17:21:22.194Z</time>
      </trkpt>
      <trkpt lat="47.8628" lon="-4.24564">
        <ele>12.13</ele>
        <time>2026-05-02T17:21:25.637Z</time>
      </trkpt>
      <trkpt lat="47.86273" lon="-4.24581">
        <ele>12.6</ele>
        <time>2026-05-02T17:21:28.969Z</time>
      </trkpt>
      <trkpt lat="47.8626" lon="-4.24615">
        <ele>13.07</ele>
        <time>2026-05-02T17:21:34.357Z</time>
      </trkpt>
      <trkpt lat="47.86254" lon="-4.24647">
        <ele>13.62</ele>
        <time>2026-05-02T17:21:39.281Z</time>
      </trkpt>
      <trkpt lat="47.86252" lon="-4.24654">
        <ele>14.19</ele>
        <time>2026-05-02T17:21:42.627Z</time>
      </trkpt>
      <trkpt lat="47.86243" lon="-4.24692">
        <ele>14.78</ele>
        <time>2026-05-02T17:21:48.415Z</time>
      </trkpt>
      <trkpt lat="47.86243" lon="-4.24725">
        <ele>15.46</ele>
        <time>2026-05-02T17:21:53.651Z</time>
      </trkpt>
      <trkpt lat="47.86248" lon="-4.24768">
        <ele>16.18</ele>
        <time>2026-05-02T17:22:00.114Z</time>
      </trkpt>
      <trkpt lat="47.86252" lon="-4.24812">
        <ele>16.88</ele>
        <time>2026-05-02T17:22:06.610Z</time>
      </trkpt>
      <trkpt lat="47.86256" lon="-4.24855">
        <ele>17.6</ele>
        <time>2026-05-02T17:22:13.047Z</time>
      </trkpt>
      <trkpt lat="47.86256" lon="-4.24901">
        <ele>18.3</ele>
        <time>2026-05-02T17:22:19.716Z</time>
      </trkpt>
      <trkpt lat="47.86252" lon="-4.24935">
        <ele>18.99</ele>
        <time>2026-05-02T17:22:25.137Z</time>
      </trkpt>
      <trkpt lat="47.86248" lon="-4.24969">
        <ele>19.6</ele>
        <time>2026-05-02T17:22:30.349Z</time>
      </trkpt>
      <trkpt lat="47.86244" lon="-4.25007">
        <ele>20.2</ele>
        <time>2026-05-02T17:22:35.961Z</time>
      </trkpt>
      <trkpt lat="47.86241" lon="-4.25044">
        <ele>20.9</ele>
        <time>2026-05-02T17:22:41.694Z</time>
      </trkpt>
      <trkpt lat="47.86243" lon="-4.25087">
        <ele>21.6</ele>
        <time>2026-05-02T17:22:48.050Z</time>
      </trkpt>
      <trkpt lat="47.86246" lon="-4.25129">
        <ele>22.27</ele>
        <time>2026-05-02T17:22:54.239Z</time>
      </trkpt>
      <trkpt lat="47.86249" lon="-4.25172">
        <ele>22.83</ele>
        <time>2026-05-02T17:23:00.281Z</time>
      </trkpt>
      <trkpt lat="47.86252" lon="-4.25214">
        <ele>23.29</ele>
        <time>2026-05-02T17:23:05.995Z</time>
      </trkpt>
      <trkpt lat="47.86255" lon="-4.25256">
        <ele>23.7</ele>
        <time>2026-05-02T17:23:11.603Z</time>
      </trkpt>
      <trkpt lat="47.86258" lon="-4.25297">
        <ele>24.07</ele>
        <time>2026-05-02T17:23:17.018Z</time>
      </trkpt>
      <trkpt lat="47.86257" lon="-4.25338">
        <ele>24.34</ele>
        <time>2026-05-02T17:23:22.211Z</time>
      </trkpt>
      <trkpt lat="47.86256" lon="-4.25379">
        <ele>24.58</ele>
        <time>2026-05-02T17:23:27.347Z</time>
      </trkpt>
      <trkpt lat="47.86252" lon="-4.25421">
        <ele>24.81</ele>
        <time>2026-05-02T17:23:32.624Z</time>
      </trkpt>
      <trkpt lat="47.8625" lon="-4.25443">
        <ele>25</ele>
        <time>2026-05-02T17:23:35.520Z</time>
      </trkpt>
      <trkpt lat="47.86243" lon="-4.25484">
        <ele>25.16</ele>
        <time>2026-05-02T17:23:40.657Z</time>
      </trkpt>
      <trkpt lat="47.86238" lon="-4.25509">
        <ele>25.28</ele>
        <time>2026-05-02T17:23:43.862Z</time>
      </trkpt>
      <trkpt lat="47.86232" lon="-4.25534">
        <ele>25.35</ele>
        <time>2026-05-02T17:23:47.032Z</time>
      </trkpt>
      <trkpt lat="47.86224" lon="-4.25561">
        <ele>25.38</ele>
        <time>2026-05-02T17:23:50.475Z</time>
      </trkpt>
      <trkpt lat="47.86215" lon="-4.25589">
        <ele>25.4</ele>
        <time>2026-05-02T17:23:54.077Z</time>
      </trkpt>
      <trkpt lat="47.86211" lon="-4.25609">
        <ele>25.39</ele>
        <time>2026-05-02T17:23:56.460Z</time>
      </trkpt>
      <trkpt lat="47.86199" lon="-4.25644">
        <ele>25.33</ele>
        <time>2026-05-02T17:24:00.882Z</time>
      </trkpt>
      <trkpt lat="47.86187" lon="-4.2568">
        <ele>25.25</ele>
        <time>2026-05-02T17:24:05.376Z</time>
      </trkpt>
      <trkpt lat="47.86175" lon="-4.25716">
        <ele>25.14</ele>
        <time>2026-05-02T17:24:09.824Z</time>
      </trkpt>
      <trkpt lat="47.86163" lon="-4.25751">
        <ele>24.93</ele>
        <time>2026-05-02T17:24:14.021Z</time>
      </trkpt>
      <trkpt lat="47.86151" lon="-4.25787">
        <ele>24.66</ele>
        <time>2026-05-02T17:24:18.236Z</time>
      </trkpt>
      <trkpt lat="47.86141" lon="-4.25818">
        <ele>24.43</ele>
        <time>2026-05-02T17:24:21.843Z</time>
      </trkpt>
      <trkpt lat="47.86131" lon="-4.25848">
        <ele>24.2</ele>
        <time>2026-05-02T17:24:25.348Z</time>
      </trkpt>
      <trkpt lat="47.86121" lon="-4.25879">
        <ele>24.02</ele>
        <time>2026-05-02T17:24:29.027Z</time>
      </trkpt>
      <trkpt lat="47.8611" lon="-4.25914">
        <ele>23.84</ele>
        <time>2026-05-02T17:24:33.192Z</time>
      </trkpt>
      <trkpt lat="47.86099" lon="-4.2595">
        <ele>23.65</ele>
        <time>2026-05-02T17:24:37.447Z</time>
      </trkpt>
      <trkpt lat="47.86087" lon="-4.25985">
        <ele>23.47</ele>
        <time>2026-05-02T17:24:41.688Z</time>
      </trkpt>
      <trkpt lat="47.86076" lon="-4.2602">
        <ele>23.32</ele>
        <time>2026-05-02T17:24:45.898Z</time>
      </trkpt>
      <trkpt lat="47.86065" lon="-4.26055">
        <ele>23.07</ele>
        <time>2026-05-02T17:24:49.963Z</time>
      </trkpt>
      <trkpt lat="47.86065" lon="-4.26055">
        <ele>22.88</ele>
        <time>2026-05-02T17:24:49.963Z</time>
      </trkpt>
      <trkpt lat="47.86053" lon="-4.26089">
        <ele>22.63</ele>
        <time>2026-05-02T17:24:54.002Z</time>
      </trkpt>
      <trkpt lat="47.8604" lon="-4.26124">
        <ele>22.42</ele>
        <time>2026-05-02T17:24:58.280Z</time>
      </trkpt>
      <trkpt lat="47.86028" lon="-4.26158">
        <ele>22.26</ele>
        <time>2026-05-02T17:25:02.448Z</time>
      </trkpt>
      <trkpt lat="47.86016" lon="-4.26192">
        <ele>22.16</ele>
        <time>2026-05-02T17:25:06.707Z</time>
      </trkpt>
      <trkpt lat="47.86" lon="-4.26232">
        <ele>22.08</ele>
        <time>2026-05-02T17:25:11.933Z</time>
      </trkpt>
      <trkpt lat="47.85984" lon="-4.26273">
        <ele>21.96</ele>
        <time>2026-05-02T17:25:17.196Z</time>
      </trkpt>
      <trkpt lat="47.85969" lon="-4.26312">
        <ele>21.81</ele>
        <time>2026-05-02T17:25:22.129Z</time>
      </trkpt>
      <trkpt lat="47.85949" lon="-4.2631">
        <ele>21.73</ele>
        <time>2026-05-02T17:25:25.437Z</time>
      </trkpt>
      <trkpt lat="47.85941" lon="-4.26317">
        <ele>21.69</ele>
        <time>2026-05-02T17:25:26.964Z</time>
      </trkpt>
      <trkpt lat="47.85917" lon="-4.2634">
        <ele>21.65</ele>
        <time>2026-05-02T17:25:31.788Z</time>
      </trkpt>
      <trkpt lat="47.85894" lon="-4.26364">
        <ele>21.67</ele>
        <time>2026-05-02T17:25:36.632Z</time>
      </trkpt>
      <trkpt lat="47.85871" lon="-4.26388">
        <ele>21.79</ele>
        <time>2026-05-02T17:25:41.645Z</time>
      </trkpt>
      <trkpt lat="47.85847" lon="-4.26411">
        <ele>22.01</ele>
        <time>2026-05-02T17:25:46.916Z</time>
      </trkpt>
      <trkpt lat="47.85824" lon="-4.26435">
        <ele>22.15</ele>
        <time>2026-05-02T17:25:51.964Z</time>
      </trkpt>
      <trkpt lat="47.85801" lon="-4.26458">
        <ele>22.33</ele>
        <time>2026-05-02T17:25:57.019Z</time>
      </trkpt>
      <trkpt lat="47.85778" lon="-4.26482">
        <ele>22.51</ele>
        <time>2026-05-02T17:26:02.139Z</time>
      </trkpt>
      <trkpt lat="47.8576" lon="-4.26493">
        <ele>22.72</ele>
        <time>2026-05-02T17:26:05.846Z</time>
      </trkpt>
      <trkpt lat="47.8573" lon="-4.26506">
        <ele>22.98</ele>
        <time>2026-05-02T17:26:11.653Z</time>
      </trkpt>
      <trkpt lat="47.85715" lon="-4.26518">
        <ele>23.18</ele>
        <time>2026-05-02T17:26:14.929Z</time>
      </trkpt>
      <trkpt lat="47.85696" lon="-4.26544">
        <ele>23.45</ele>
        <time>2026-05-02T17:26:19.828Z</time>
      </trkpt>
      <trkpt lat="47.85677" lon="-4.26569">
        <ele>23.76</ele>
        <time>2026-05-02T17:26:24.730Z</time>
      </trkpt>
      <trkpt lat="47.85657" lon="-4.26594">
        <ele>24.01</ele>
        <time>2026-05-02T17:26:29.643Z</time>
      </trkpt>
      <trkpt lat="47.85638" lon="-4.26619">
        <ele>24.28</ele>
        <time>2026-05-02T17:26:34.466Z</time>
      </trkpt>
      <trkpt lat="47.85627" lon="-4.26636">
        <ele>24.59</ele>
        <time>2026-05-02T17:26:37.776Z</time>
      </trkpt>
      <trkpt lat="47.85617" lon="-4.26654">
        <ele>24.93</ele>
        <time>2026-05-02T17:26:41.128Z</time>
      </trkpt>
      <trkpt lat="47.85604" lon="-4.26684">
        <ele>25.32</ele>
        <time>2026-05-02T17:26:45.962Z</time>
      </trkpt>
      <trkpt lat="47.8559" lon="-4.26719">
        <ele>25.66</ele>
        <time>2026-05-02T17:26:51.260Z</time>
      </trkpt>
      <trkpt lat="47.85576" lon="-4.26754">
        <ele>25.92</ele>
        <time>2026-05-02T17:26:56.403Z</time>
      </trkpt>
      <trkpt lat="47.85562" lon="-4.26788">
        <ele>26.21</ele>
        <time>2026-05-02T17:27:01.506Z</time>
      </trkpt>
      <trkpt lat="47.85548" lon="-4.26823">
        <ele>26.56</ele>
        <time>2026-05-02T17:27:06.825Z</time>
      </trkpt>
      <trkpt lat="47.85536" lon="-4.26844">
        <ele>26.91</ele>
        <time>2026-05-02T17:27:10.664Z</time>
      </trkpt>
      <trkpt lat="47.85524" lon="-4.26864">
        <ele>27.26</ele>
        <time>2026-05-02T17:27:14.420Z</time>
      </trkpt>
      <trkpt lat="47.85513" lon="-4.2688">
        <ele>27.61</ele>
        <time>2026-05-02T17:27:17.745Z</time>
      </trkpt>
      <trkpt lat="47.85501" lon="-4.26896">
        <ele>27.95</ele>
        <time>2026-05-02T17:27:21.166Z</time>
      </trkpt>
      <trkpt lat="47.85478" lon="-4.26919">
        <ele>28.28</ele>
        <time>2026-05-02T17:27:26.505Z</time>
      </trkpt>
      <trkpt lat="47.85456" lon="-4.26942">
        <ele>28.62</ele>
        <time>2026-05-02T17:27:31.724Z</time>
      </trkpt>
      <trkpt lat="47.85434" lon="-4.26966">
        <ele>29.02</ele>
        <time>2026-05-02T17:27:37.132Z</time>
      </trkpt>
      <trkpt lat="47.85411" lon="-4.26989">
        <ele>29.41</ele>
        <time>2026-05-02T17:27:42.592Z</time>
      </trkpt>
      <trkpt lat="47.85389" lon="-4.27012">
        <ele>29.77</ele>
        <time>2026-05-02T17:27:47.852Z</time>
      </trkpt>
      <trkpt lat="47.85389" lon="-4.27012">
        <ele>30.08</ele>
        <time>2026-05-02T17:27:47.852Z</time>
      </trkpt>
      <trkpt lat="47.85367" lon="-4.27037">
        <ele>30.43</ele>
        <time>2026-05-02T17:27:53.225Z</time>
      </trkpt>
      <trkpt lat="47.85345" lon="-4.27063">
        <ele>30.8</ele>
        <time>2026-05-02T17:27:58.709Z</time>
      </trkpt>
      <trkpt lat="47.85322" lon="-4.27088">
        <ele>31.08</ele>
        <time>2026-05-02T17:28:04.081Z</time>
      </trkpt>
      <trkpt lat="47.853" lon="-4.27113">
        <ele>31.29</ele>
        <time>2026-05-02T17:28:09.185Z</time>
      </trkpt>
      <trkpt lat="47.85278" lon="-4.27139">
        <ele>31.48</ele>
        <time>2026-05-02T17:28:14.324Z</time>
      </trkpt>
      <trkpt lat="47.85258" lon="-4.27159">
        <ele>31.72</ele>
        <time>2026-05-02T17:28:18.875Z</time>
      </trkpt>
      <trkpt lat="47.85239" lon="-4.27179">
        <ele>31.97</ele>
        <time>2026-05-02T17:28:23.306Z</time>
      </trkpt>
      <trkpt lat="47.8522" lon="-4.27199">
        <ele>32.19</ele>
        <time>2026-05-02T17:28:27.679Z</time>
      </trkpt>
      <trkpt lat="47.85195" lon="-4.27223">
        <ele>32.36</ele>
        <time>2026-05-02T17:28:33.064Z</time>
      </trkpt>
      <trkpt lat="47.8517" lon="-4.27248">
        <ele>32.48</ele>
        <time>2026-05-02T17:28:38.425Z</time>
      </trkpt>
      <trkpt lat="47.85155" lon="-4.27267">
        <ele>32.69</ele>
        <time>2026-05-02T17:28:42.172Z</time>
      </trkpt>
      <trkpt lat="47.8514" lon="-4.27287">
        <ele>32.89</ele>
        <time>2026-05-02T17:28:45.974Z</time>
      </trkpt>
      <trkpt lat="47.85127" lon="-4.27314">
        <ele>33.09</ele>
        <time>2026-05-02T17:28:50.146Z</time>
      </trkpt>
      <trkpt lat="47.85109" lon="-4.27349">
        <ele>33.26</ele>
        <time>2026-05-02T17:28:55.506Z</time>
      </trkpt>
      <trkpt lat="47.85092" lon="-4.27385">
        <ele>33.44</ele>
        <time>2026-05-02T17:29:00.876Z</time>
      </trkpt>
      <trkpt lat="47.85074" lon="-4.2742">
        <ele>33.52</ele>
        <time>2026-05-02T17:29:06.080Z</time>
      </trkpt>
      <trkpt lat="47.85057" lon="-4.27455">
        <ele>33.6</ele>
        <time>2026-05-02T17:29:11.181Z</time>
      </trkpt>
      <trkpt lat="47.8504" lon="-4.2749">
        <ele>33.67</ele>
        <time>2026-05-02T17:29:16.265Z</time>
      </trkpt>
      <trkpt lat="47.85022" lon="-4.27525">
        <ele>33.75</ele>
        <time>2026-05-02T17:29:21.469Z</time>
      </trkpt>
      <trkpt lat="47.85006" lon="-4.27554">
        <ele>33.78</ele>
        <time>2026-05-02T17:29:25.835Z</time>
      </trkpt>
      <trkpt lat="47.8499" lon="-4.27584">
        <ele>33.86</ele>
        <time>2026-05-02T17:29:30.375Z</time>
      </trkpt>
      <trkpt lat="47.84975" lon="-4.27614">
        <ele>34.05</ele>
        <time>2026-05-02T17:29:35.006Z</time>
      </trkpt>
      <trkpt lat="47.84959" lon="-4.27643">
        <ele>34.19</ele>
        <time>2026-05-02T17:29:39.561Z</time>
      </trkpt>
      <trkpt lat="47.84943" lon="-4.27673">
        <ele>34.24</ele>
        <time>2026-05-02T17:29:44.051Z</time>
      </trkpt>
      <trkpt lat="47.84928" lon="-4.27703">
        <ele>34.23</ele>
        <time>2026-05-02T17:29:48.336Z</time>
      </trkpt>
      <trkpt lat="47.84913" lon="-4.27734">
        <ele>34.22</ele>
        <time>2026-05-02T17:29:52.714Z</time>
      </trkpt>
      <trkpt lat="47.84898" lon="-4.27765">
        <ele>34.2</ele>
        <time>2026-05-02T17:29:57.077Z</time>
      </trkpt>
      <trkpt lat="47.84883" lon="-4.27795">
        <ele>34.19</ele>
        <time>2026-05-02T17:30:01.362Z</time>
      </trkpt>
      <trkpt lat="47.84873" lon="-4.27827">
        <ele>34.18</ele>
        <time>2026-05-02T17:30:05.405Z</time>
      </trkpt>
      <trkpt lat="47.84863" lon="-4.2786">
        <ele>34.16</ele>
        <time>2026-05-02T17:30:09.536Z</time>
      </trkpt>
      <trkpt lat="47.84858" lon="-4.2789">
        <ele>34.14</ele>
        <time>2026-05-02T17:30:13.058Z</time>
      </trkpt>
      <trkpt lat="47.84852" lon="-4.2792">
        <ele>34.09</ele>
        <time>2026-05-02T17:30:16.578Z</time>
      </trkpt>
      <trkpt lat="47.84846" lon="-4.2795">
        <ele>34.02</ele>
        <time>2026-05-02T17:30:20.067Z</time>
      </trkpt>
      <trkpt lat="47.84837" lon="-4.27983">
        <ele>33.94</ele>
        <time>2026-05-02T17:30:24.036Z</time>
      </trkpt>
      <trkpt lat="47.84827" lon="-4.28016">
        <ele>33.85</ele>
        <time>2026-05-02T17:30:28.057Z</time>
      </trkpt>
      <trkpt lat="47.84815" lon="-4.28043">
        <ele>33.82</ele>
        <time>2026-05-02T17:30:31.732Z</time>
      </trkpt>
      <trkpt lat="47.84803" lon="-4.28069">
        <ele>33.77</ele>
        <time>2026-05-02T17:30:35.281Z</time>
      </trkpt>
      <trkpt lat="47.84791" lon="-4.28096">
        <ele>33.7</ele>
        <time>2026-05-02T17:30:38.894Z</time>
      </trkpt>
      <trkpt lat="47.8478" lon="-4.28114">
        <ele>33.63</ele>
        <time>2026-05-02T17:30:41.583Z</time>
      </trkpt>
      <trkpt lat="47.84769" lon="-4.28132">
        <ele>33.57</ele>
        <time>2026-05-02T17:30:44.287Z</time>
      </trkpt>
      <trkpt lat="47.84756" lon="-4.28151">
        <ele>33.47</ele>
        <time>2026-05-02T17:30:47.251Z</time>
      </trkpt>
      <trkpt lat="47.84743" lon="-4.28166">
        <ele>33.41</ele>
        <time>2026-05-02T17:30:49.974Z</time>
      </trkpt>
      <trkpt lat="47.8473" lon="-4.28181">
        <ele>33.34</ele>
        <time>2026-05-02T17:30:52.681Z</time>
      </trkpt>
      <trkpt lat="47.84709" lon="-4.28211">
        <ele>33.32</ele>
        <time>2026-05-02T17:30:57.633Z</time>
      </trkpt>
      <trkpt lat="47.847" lon="-4.28232">
        <ele>33.25</ele>
        <time>2026-05-02T17:31:00.388Z</time>
      </trkpt>
      <trkpt lat="47.84692" lon="-4.28252">
        <ele>33.19</ele>
        <time>2026-05-02T17:31:02.971Z</time>
      </trkpt>
      <trkpt lat="47.8469" lon="-4.28282">
        <ele>33.14</ele>
        <time>2026-05-02T17:31:06.357Z</time>
      </trkpt>
      <trkpt lat="47.84688" lon="-4.28293">
        <ele>33.13</ele>
        <time>2026-05-02T17:31:07.652Z</time>
      </trkpt>
      <trkpt lat="47.84688" lon="-4.28293">
        <ele>33.12</ele>
        <time>2026-05-02T17:31:07.652Z</time>
      </trkpt>
      <trkpt lat="47.84675" lon="-4.28282">
        <ele>33.14</ele>
        <time>2026-05-02T17:31:10.246Z</time>
      </trkpt>
      <trkpt lat="47.8468" lon="-4.28273">
        <ele>33.15</ele>
        <time>2026-05-02T17:31:11.606Z</time>
      </trkpt>
      <trkpt lat="47.84692" lon="-4.28252">
        <ele>33.19</ele>
        <time>2026-05-02T17:31:14.844Z</time>
      </trkpt>
      <trkpt lat="47.8469" lon="-4.28282">
        <ele>33.14</ele>
        <time>2026-05-02T17:31:18.231Z</time>
      </trkpt>
      <trkpt lat="47.84688" lon="-4.28293">
        <ele>33.13</ele>
        <time>2026-05-02T17:31:19.526Z</time>
      </trkpt>
      <trkpt lat="47.84711" lon="-4.28314">
        <ele>33.28</ele>
        <time>2026-05-02T17:31:24.403Z</time>
      </trkpt>
      <trkpt lat="47.84735" lon="-4.28336">
        <ele>33.34</ele>
        <time>2026-05-02T17:31:29.331Z</time>
      </trkpt>
      <trkpt lat="47.84758" lon="-4.28357">
        <ele>33.5</ele>
        <time>2026-05-02T17:31:34.226Z</time>
      </trkpt>
      <trkpt lat="47.84782" lon="-4.28379">
        <ele>33.65</ele>
        <time>2026-05-02T17:31:39.310Z</time>
      </trkpt>
      <trkpt lat="47.84804" lon="-4.28396">
        <ele>33.75</ele>
        <time>2026-05-02T17:31:43.724Z</time>
      </trkpt>
      <trkpt lat="47.84827" lon="-4.28413">
        <ele>33.86</ele>
        <time>2026-05-02T17:31:48.309Z</time>
      </trkpt>
      <trkpt lat="47.84844" lon="-4.28424">
        <ele>33.99</ele>
        <time>2026-05-02T17:31:51.709Z</time>
      </trkpt>
      <trkpt lat="47.84861" lon="-4.28435">
        <ele>34.09</ele>
        <time>2026-05-02T17:31:55.055Z</time>
      </trkpt>
      <trkpt lat="47.8488" lon="-4.28441">
        <ele>34.18</ele>
        <time>2026-05-02T17:31:58.535Z</time>
      </trkpt>
      <trkpt lat="47.84898" lon="-4.28447">
        <ele>34.27</ele>
        <time>2026-05-02T17:32:01.848Z</time>
      </trkpt>
      <trkpt lat="47.84889" lon="-4.28485">
        <ele>34.4</ele>
        <time>2026-05-02T17:32:06.702Z</time>
      </trkpt>
      <trkpt lat="47.84881" lon="-4.28523">
        <ele>34.51</ele>
        <time>2026-05-02T17:32:11.466Z</time>
      </trkpt>
      <trkpt lat="47.84872" lon="-4.2856">
        <ele>34.64</ele>
        <time>2026-05-02T17:32:16.212Z</time>
      </trkpt>
      <trkpt lat="47.84863" lon="-4.28598">
        <ele>34.79</ele>
        <time>2026-05-02T17:32:21.102Z</time>
      </trkpt>
      <trkpt lat="47.84861" lon="-4.28621">
        <ele>34.89</ele>
        <time>2026-05-02T17:32:23.940Z</time>
      </trkpt>
      <trkpt lat="47.84859" lon="-4.28645">
        <ele>34.98</ele>
        <time>2026-05-02T17:32:26.874Z</time>
      </trkpt>
      <trkpt lat="47.84866" lon="-4.28673">
        <ele>35.03</ele>
        <time>2026-05-02T17:32:30.393Z</time>
      </trkpt>
      <trkpt lat="47.84882" lon="-4.287">
        <ele>35</ele>
        <time>2026-05-02T17:32:34.487Z</time>
      </trkpt>
      <trkpt lat="47.84898" lon="-4.28727">
        <ele>35.02</ele>
        <time>2026-05-02T17:32:38.662Z</time>
      </trkpt>
      <trkpt lat="47.84914" lon="-4.28753">
        <ele>35.04</ele>
        <time>2026-05-02T17:32:42.751Z</time>
      </trkpt>
      <trkpt lat="47.8493" lon="-4.2878">
        <ele>35.1</ele>
        <time>2026-05-02T17:32:46.992Z</time>
      </trkpt>
      <trkpt lat="47.84939" lon="-4.28791">
        <ele>35.1</ele>
        <time>2026-05-02T17:32:48.987Z</time>
      </trkpt>
      <trkpt lat="47.84955" lon="-4.28819">
        <ele>35.1</ele>
        <time>2026-05-02T17:32:53.216Z</time>
      </trkpt>
      <trkpt lat="47.84971" lon="-4.28847">
        <ele>35.08</ele>
        <time>2026-05-02T17:32:57.412Z</time>
      </trkpt>
      <trkpt lat="47.84978" lon="-4.28877">
        <ele>34.99</ele>
        <time>2026-05-02T17:33:00.922Z</time>
      </trkpt>
      <trkpt lat="47.84986" lon="-4.28907">
        <ele>34.89</ele>
        <time>2026-05-02T17:33:04.477Z</time>
      </trkpt>
      <trkpt lat="47.84991" lon="-4.28934">
        <ele>34.73</ele>
        <time>2026-05-02T17:33:07.454Z</time>
      </trkpt>
      <trkpt lat="47.84997" lon="-4.2896">
        <ele>34.61</ele>
        <time>2026-05-02T17:33:10.430Z</time>
      </trkpt>
      <trkpt lat="47.84999" lon="-4.28969">
        <ele>34.48</ele>
        <time>2026-05-02T17:33:11.339Z</time>
      </trkpt>
      <trkpt lat="47.84999" lon="-4.28969">
        <ele>34.33</ele>
        <time>2026-05-02T17:33:11.339Z</time>
      </trkpt>
      <trkpt lat="47.8501" lon="-4.29009">
        <ele>34.12</ele>
        <time>2026-05-02T17:33:15.986Z</time>
      </trkpt>
      <trkpt lat="47.85021" lon="-4.29049">
        <ele>33.9</ele>
        <time>2026-05-02T17:33:20.619Z</time>
      </trkpt>
      <trkpt lat="47.85032" lon="-4.29088">
        <ele>33.67</ele>
        <time>2026-05-02T17:33:25.132Z</time>
      </trkpt>
      <trkpt lat="47.85033" lon="-4.29091">
        <ele>33.49</ele>
        <time>2026-05-02T17:33:25.363Z</time>
      </trkpt>
      <trkpt lat="47.85046" lon="-4.29124">
        <ele>33.32</ele>
        <time>2026-05-02T17:33:29.500Z</time>
      </trkpt>
      <trkpt lat="47.85059" lon="-4.29157">
        <ele>33.16</ele>
        <time>2026-05-02T17:33:33.652Z</time>
      </trkpt>
      <trkpt lat="47.85072" lon="-4.2919">
        <ele>32.99</ele>
        <time>2026-05-02T17:33:37.789Z</time>
      </trkpt>
      <trkpt lat="47.85088" lon="-4.29223">
        <ele>32.84</ele>
        <time>2026-05-02T17:33:42.236Z</time>
      </trkpt>
      <trkpt lat="47.85104" lon="-4.29256">
        <ele>32.59</ele>
        <time>2026-05-02T17:33:46.538Z</time>
      </trkpt>
      <trkpt lat="47.85118" lon="-4.2928">
        <ele>32.38</ele>
        <time>2026-05-02T17:33:49.878Z</time>
      </trkpt>
      <trkpt lat="47.85132" lon="-4.29304">
        <ele>32.21</ele>
        <time>2026-05-02T17:33:53.274Z</time>
      </trkpt>
      <trkpt lat="47.85145" lon="-4.29331">
        <ele>32.04</ele>
        <time>2026-05-02T17:33:56.834Z</time>
      </trkpt>
      <trkpt lat="47.85157" lon="-4.29357">
        <ele>31.85</ele>
        <time>2026-05-02T17:34:00.174Z</time>
      </trkpt>
      <trkpt lat="47.85166" lon="-4.29381">
        <ele>31.71</ele>
        <time>2026-05-02T17:34:03.121Z</time>
      </trkpt>
      <trkpt lat="47.85172" lon="-4.29424">
        <ele>31.59</ele>
        <time>2026-05-02T17:34:07.981Z</time>
      </trkpt>
      <trkpt lat="47.85168" lon="-4.29462">
        <ele>31.48</ele>
        <time>2026-05-02T17:34:12.231Z</time>
      </trkpt>
      <trkpt lat="47.85163" lon="-4.29487">
        <ele>31.37</ele>
        <time>2026-05-02T17:34:15.060Z</time>
      </trkpt>
      <trkpt lat="47.85157" lon="-4.29512">
        <ele>31.26</ele>
        <time>2026-05-02T17:34:17.942Z</time>
      </trkpt>
      <trkpt lat="47.85145" lon="-4.29552">
        <ele>31.15</ele>
        <time>2026-05-02T17:34:22.806Z</time>
      </trkpt>
      <trkpt lat="47.85133" lon="-4.29593">
        <ele>31.07</ele>
        <time>2026-05-02T17:34:27.822Z</time>
      </trkpt>
      <trkpt lat="47.85121" lon="-4.29633">
        <ele>31</ele>
        <time>2026-05-02T17:34:32.748Z</time>
      </trkpt>
      <trkpt lat="47.85109" lon="-4.29673">
        <ele>30.88</ele>
        <time>2026-05-02T17:34:37.596Z</time>
      </trkpt>
      <trkpt lat="47.85097" lon="-4.29713">
        <ele>30.87</ele>
        <time>2026-05-02T17:34:42.618Z</time>
      </trkpt>
      <trkpt lat="47.85089" lon="-4.29752">
        <ele>30.86</ele>
        <time>2026-05-02T17:34:47.291Z</time>
      </trkpt>
      <trkpt lat="47.85081" lon="-4.29797">
        <ele>30.86</ele>
        <time>2026-05-02T17:34:52.644Z</time>
      </trkpt>
      <trkpt lat="47.85073" lon="-4.29842">
        <ele>30.87</ele>
        <time>2026-05-02T17:34:58.013Z</time>
      </trkpt>
      <trkpt lat="47.85065" lon="-4.29888">
        <ele>30.91</ele>
        <time>2026-05-02T17:35:03.543Z</time>
      </trkpt>
      <trkpt lat="47.85057" lon="-4.29932">
        <ele>30.97</ele>
        <time>2026-05-02T17:35:08.884Z</time>
      </trkpt>
      <trkpt lat="47.8505" lon="-4.29975">
        <ele>31.03</ele>
        <time>2026-05-02T17:35:14.071Z</time>
      </trkpt>
      <trkpt lat="47.85043" lon="-4.30017">
        <ele>31.16</ele>
        <time>2026-05-02T17:35:19.267Z</time>
      </trkpt>
      <trkpt lat="47.85036" lon="-4.3006">
        <ele>31.26</ele>
        <time>2026-05-02T17:35:24.522Z</time>
      </trkpt>
      <trkpt lat="47.8503" lon="-4.30102">
        <ele>31.33</ele>
        <time>2026-05-02T17:35:29.576Z</time>
      </trkpt>
      <trkpt lat="47.85023" lon="-4.30144">
        <ele>31.48</ele>
        <time>2026-05-02T17:35:34.807Z</time>
      </trkpt>
      <trkpt lat="47.85016" lon="-4.30187">
        <ele>31.64</ele>
        <time>2026-05-02T17:35:40.167Z</time>
      </trkpt>
      <trkpt lat="47.85009" lon="-4.30228">
        <ele>31.84</ele>
        <time>2026-05-02T17:35:45.376Z</time>
      </trkpt>
      <trkpt lat="47.85004" lon="-4.30266">
        <ele>32.03</ele>
        <time>2026-05-02T17:35:50.157Z</time>
      </trkpt>
      <trkpt lat="47.84999" lon="-4.30304">
        <ele>32.21</ele>
        <time>2026-05-02T17:35:54.920Z</time>
      </trkpt>
      <trkpt lat="47.84993" lon="-4.30341">
        <ele>32.36</ele>
        <time>2026-05-02T17:35:59.554Z</time>
      </trkpt>
      <trkpt lat="47.84988" lon="-4.30379">
        <ele>32.54</ele>
        <time>2026-05-02T17:36:04.317Z</time>
      </trkpt>
      <trkpt lat="47.84987" lon="-4.3042">
        <ele>32.73</ele>
        <time>2026-05-02T17:36:09.362Z</time>
      </trkpt>
      <trkpt lat="47.84986" lon="-4.30461">
        <ele>32.9</ele>
        <time>2026-05-02T17:36:14.370Z</time>
      </trkpt>
      <trkpt lat="47.84985" lon="-4.30503">
        <ele>33.13</ele>
        <time>2026-05-02T17:36:19.603Z</time>
      </trkpt>
      <trkpt lat="47.84984" lon="-4.30544">
        <ele>33.41</ele>
        <time>2026-05-02T17:36:24.817Z</time>
      </trkpt>
      <trkpt lat="47.84984" lon="-4.30585">
        <ele>33.66</ele>
        <time>2026-05-02T17:36:29.970Z</time>
      </trkpt>
      <trkpt lat="47.84979" lon="-4.30615">
        <ele>33.82</ele>
        <time>2026-05-02T17:36:33.802Z</time>
      </trkpt>
      <trkpt lat="47.84976" lon="-4.30657">
        <ele>34.01</ele>
        <time>2026-05-02T17:36:38.986Z</time>
      </trkpt>
      <trkpt lat="47.84972" lon="-4.307">
        <ele>34.23</ele>
        <time>2026-05-02T17:36:44.358Z</time>
      </trkpt>
      <trkpt lat="47.84968" lon="-4.30742">
        <ele>34.44</ele>
        <time>2026-05-02T17:36:49.600Z</time>
      </trkpt>
      <trkpt lat="47.84964" lon="-4.30785">
        <ele>34.63</ele>
        <time>2026-05-02T17:36:54.918Z</time>
      </trkpt>
      <trkpt lat="47.84964" lon="-4.30785">
        <ele>34.72</ele>
        <time>2026-05-02T17:36:54.918Z</time>
      </trkpt>
      <trkpt lat="47.84961" lon="-4.30827">
        <ele>34.85</ele>
        <time>2026-05-02T17:36:59.994Z</time>
      </trkpt>
      <trkpt lat="47.84957" lon="-4.3087">
        <ele>34.88</ele>
        <time>2026-05-02T17:37:05.035Z</time>
      </trkpt>
      <trkpt lat="47.84953" lon="-4.30913">
        <ele>34.86</ele>
        <time>2026-05-02T17:37:09.995Z</time>
      </trkpt>
      <trkpt lat="47.84949" lon="-4.30956">
        <ele>34.84</ele>
        <time>2026-05-02T17:37:14.954Z</time>
      </trkpt>
      <trkpt lat="47.84934" lon="-4.30956">
        <ele>34.72</ele>
        <time>2026-05-02T17:37:17.340Z</time>
      </trkpt>
      <trkpt lat="47.84919" lon="-4.30962">
        <ele>34.57</ele>
        <time>2026-05-02T17:37:19.775Z</time>
      </trkpt>
      <trkpt lat="47.84897" lon="-4.30986">
        <ele>34.33</ele>
        <time>2026-05-02T17:37:24.082Z</time>
      </trkpt>
      <trkpt lat="47.84874" lon="-4.3101">
        <ele>34.06</ele>
        <time>2026-05-02T17:37:28.485Z</time>
      </trkpt>
      <trkpt lat="47.84863" lon="-4.3103">
        <ele>33.8</ele>
        <time>2026-05-02T17:37:31.081Z</time>
      </trkpt>
      <trkpt lat="47.84853" lon="-4.3105">
        <ele>33.54</ele>
        <time>2026-05-02T17:37:33.573Z</time>
      </trkpt>
      <trkpt lat="47.84838" lon="-4.31091">
        <ele>33.16</ele>
        <time>2026-05-02T17:37:38.380Z</time>
      </trkpt>
      <trkpt lat="47.84824" lon="-4.31132">
        <ele>32.8</ele>
        <time>2026-05-02T17:37:43.134Z</time>
      </trkpt>
      <trkpt lat="47.84809" lon="-4.31173">
        <ele>32.42</ele>
        <time>2026-05-02T17:37:47.940Z</time>
      </trkpt>
      <trkpt lat="47.84795" lon="-4.31213">
        <ele>32.01</ele>
        <time>2026-05-02T17:37:52.527Z</time>
      </trkpt>
      <trkpt lat="47.84778" lon="-4.31252">
        <ele>31.71</ele>
        <time>2026-05-02T17:37:57.421Z</time>
      </trkpt>
      <trkpt lat="47.8476" lon="-4.31291">
        <ele>31.37</ele>
        <time>2026-05-02T17:38:02.354Z</time>
      </trkpt>
      <trkpt lat="47.84743" lon="-4.31329">
        <ele>30.96</ele>
        <time>2026-05-02T17:38:07.004Z</time>
      </trkpt>
      <trkpt lat="47.84723" lon="-4.31365">
        <ele>30.59</ele>
        <time>2026-05-02T17:38:11.828Z</time>
      </trkpt>
      <trkpt lat="47.84703" lon="-4.31401">
        <ele>30.17</ele>
        <time>2026-05-02T17:38:16.585Z</time>
      </trkpt>
      <trkpt lat="47.84683" lon="-4.31437">
        <ele>29.7</ele>
        <time>2026-05-02T17:38:21.277Z</time>
      </trkpt>
      <trkpt lat="47.84663" lon="-4.31465">
        <ele>29.25</ele>
        <time>2026-05-02T17:38:25.334Z</time>
      </trkpt>
      <trkpt lat="47.84642" lon="-4.31493">
        <ele>28.76</ele>
        <time>2026-05-02T17:38:29.464Z</time>
      </trkpt>
      <trkpt lat="47.84622" lon="-4.31522">
        <ele>28.29</ele>
        <time>2026-05-02T17:38:33.573Z</time>
      </trkpt>
      <trkpt lat="47.84602" lon="-4.3155">
        <ele>27.86</ele>
        <time>2026-05-02T17:38:37.654Z</time>
      </trkpt>
      <trkpt lat="47.84585" lon="-4.31581">
        <ele>27.44</ele>
        <time>2026-05-02T17:38:41.651Z</time>
      </trkpt>
      <trkpt lat="47.84568" lon="-4.31612">
        <ele>27.06</ele>
        <time>2026-05-02T17:38:45.700Z</time>
      </trkpt>
      <trkpt lat="47.84552" lon="-4.31642">
        <ele>26.67</ele>
        <time>2026-05-02T17:38:49.542Z</time>
      </trkpt>
      <trkpt lat="47.84535" lon="-4.31673">
        <ele>26.26</ele>
        <time>2026-05-02T17:38:53.552Z</time>
      </trkpt>
      <trkpt lat="47.84515" lon="-4.31708">
        <ele>25.71</ele>
        <time>2026-05-02T17:38:58.056Z</time>
      </trkpt>
      <trkpt lat="47.84494" lon="-4.31743">
        <ele>25.26</ele>
        <time>2026-05-02T17:39:02.799Z</time>
      </trkpt>
      <trkpt lat="47.84476" lon="-4.3178">
        <ele>24.86</ele>
        <time>2026-05-02T17:39:07.465Z</time>
      </trkpt>
      <trkpt lat="47.84458" lon="-4.31816">
        <ele>24.53</ele>
        <time>2026-05-02T17:39:12.134Z</time>
      </trkpt>
      <trkpt lat="47.8444" lon="-4.31853">
        <ele>24.17</ele>
        <time>2026-05-02T17:39:16.854Z</time>
      </trkpt>
      <trkpt lat="47.84421" lon="-4.3189">
        <ele>23.79</ele>
        <time>2026-05-02T17:39:21.648Z</time>
      </trkpt>
      <trkpt lat="47.84403" lon="-4.31926">
        <ele>23.44</ele>
        <time>2026-05-02T17:39:26.290Z</time>
      </trkpt>
      <trkpt lat="47.84385" lon="-4.31963">
        <ele>23.17</ele>
        <time>2026-05-02T17:39:31.135Z</time>
      </trkpt>
      <trkpt lat="47.84367" lon="-4.31999">
        <ele>22.88</ele>
        <time>2026-05-02T17:39:35.859Z</time>
      </trkpt>
      <trkpt lat="47.84348" lon="-4.32035">
        <ele>22.62</ele>
        <time>2026-05-02T17:39:40.729Z</time>
      </trkpt>
      <trkpt lat="47.84348" lon="-4.32035">
        <ele>22.38</ele>
        <time>2026-05-02T17:39:40.729Z</time>
      </trkpt>
      <trkpt lat="47.84333" lon="-4.32066">
        <ele>22.16</ele>
        <time>2026-05-02T17:39:44.789Z</time>
      </trkpt>
      <trkpt lat="47.84318" lon="-4.32096">
        <ele>21.97</ele>
        <time>2026-05-02T17:39:48.800Z</time>
      </trkpt>
      <trkpt lat="47.84303" lon="-4.32127">
        <ele>21.76</ele>
        <time>2026-05-02T17:39:52.874Z</time>
      </trkpt>
      <trkpt lat="47.84288" lon="-4.32157">
        <ele>21.59</ele>
        <time>2026-05-02T17:39:56.913Z</time>
      </trkpt>
      <trkpt lat="47.84273" lon="-4.32188">
        <ele>21.47</ele>
        <time>2026-05-02T17:40:01.120Z</time>
      </trkpt>
      <trkpt lat="47.84255" lon="-4.32226">
        <ele>21.38</ele>
        <time>2026-05-02T17:40:06.325Z</time>
      </trkpt>
      <trkpt lat="47.84238" lon="-4.32263">
        <ele>21.27</ele>
        <time>2026-05-02T17:40:11.308Z</time>
      </trkpt>
      <trkpt lat="47.8422" lon="-4.32301">
        <ele>21.21</ele>
        <time>2026-05-02T17:40:16.560Z</time>
      </trkpt>
      <trkpt lat="47.84208" lon="-4.32328">
        <ele>21.12</ele>
        <time>2026-05-02T17:40:20.143Z</time>
      </trkpt>
      <trkpt lat="47.84197" lon="-4.32354">
        <ele>21.04</ele>
        <time>2026-05-02T17:40:23.551Z</time>
      </trkpt>
      <trkpt lat="47.84185" lon="-4.32381">
        <ele>20.98</ele>
        <time>2026-05-02T17:40:27.179Z</time>
      </trkpt>
      <trkpt lat="47.8417" lon="-4.32416">
        <ele>20.94</ele>
        <time>2026-05-02T17:40:31.891Z</time>
      </trkpt>
      <trkpt lat="47.84155" lon="-4.32452">
        <ele>20.94</ele>
        <time>2026-05-02T17:40:36.764Z</time>
      </trkpt>
      <trkpt lat="47.8414" lon="-4.32488">
        <ele>20.92</ele>
        <time>2026-05-02T17:40:41.604Z</time>
      </trkpt>
      <trkpt lat="47.84125" lon="-4.32523">
        <ele>20.91</ele>
        <time>2026-05-02T17:40:46.364Z</time>
      </trkpt>
      <trkpt lat="47.8411" lon="-4.32559">
        <ele>20.92</ele>
        <time>2026-05-02T17:40:51.253Z</time>
      </trkpt>
      <trkpt lat="47.841" lon="-4.32577">
        <ele>20.96</ele>
        <time>2026-05-02T17:40:54.007Z</time>
      </trkpt>
      <trkpt lat="47.8409" lon="-4.32595">
        <ele>21.01</ele>
        <time>2026-05-02T17:40:56.778Z</time>
      </trkpt>
      <trkpt lat="47.84089" lon="-4.32597">
        <ele>21.09</ele>
        <time>2026-05-02T17:40:57.265Z</time>
      </trkpt>
      <trkpt lat="47.84082" lon="-4.32615">
        <ele>21.18</ele>
        <time>2026-05-02T17:40:59.812Z</time>
      </trkpt>
      <trkpt lat="47.84109" lon="-4.32622">
        <ele>21.34</ele>
        <time>2026-05-02T17:41:04.781Z</time>
      </trkpt>
      <trkpt lat="47.84136" lon="-4.32629">
        <ele>21.49</ele>
        <time>2026-05-02T17:41:09.732Z</time>
      </trkpt>
      <trkpt lat="47.84163" lon="-4.32635">
        <ele>21.62</ele>
        <time>2026-05-02T17:41:14.630Z</time>
      </trkpt>
      <trkpt lat="47.8419" lon="-4.32642">
        <ele>21.76</ele>
        <time>2026-05-02T17:41:19.563Z</time>
      </trkpt>
      <trkpt lat="47.84217" lon="-4.32648">
        <ele>21.91</ele>
        <time>2026-05-02T17:41:24.496Z</time>
      </trkpt>
      <trkpt lat="47.84245" lon="-4.32654">
        <ele>22.08</ele>
        <time>2026-05-02T17:41:29.634Z</time>
      </trkpt>
      <trkpt lat="47.84272" lon="-4.3266">
        <ele>22.25</ele>
        <time>2026-05-02T17:41:34.603Z</time>
      </trkpt>
      <trkpt lat="47.843" lon="-4.32665">
        <ele>22.42</ele>
        <time>2026-05-02T17:41:39.726Z</time>
      </trkpt>
      <trkpt lat="47.84327" lon="-4.32671">
        <ele>22.6</ele>
        <time>2026-05-02T17:41:44.713Z</time>
      </trkpt>
      <trkpt lat="47.84355" lon="-4.32677">
        <ele>22.73</ele>
        <time>2026-05-02T17:41:49.780Z</time>
      </trkpt>
      <trkpt lat="47.84355" lon="-4.32677">
        <ele>22.85</ele>
        <time>2026-05-02T17:41:49.780Z</time>
      </trkpt>
      <trkpt lat="47.84368" lon="-4.32679">
        <ele>22.97</ele>
        <time>2026-05-02T17:41:52.230Z</time>
      </trkpt>
      <trkpt lat="47.84396" lon="-4.32685">
        <ele>23.06</ele>
        <time>2026-05-02T17:41:57.227Z</time>
      </trkpt>
      <trkpt lat="47.84424" lon="-4.3269">
        <ele>23.09</ele>
        <time>2026-05-02T17:42:02.109Z</time>
      </trkpt>
      <trkpt lat="47.84451" lon="-4.32696">
        <ele>23.14</ele>
        <time>2026-05-02T17:42:06.869Z</time>
      </trkpt>
      <trkpt lat="47.84479" lon="-4.32701">
        <ele>23.19</ele>
        <time>2026-05-02T17:42:11.783Z</time>
      </trkpt>
      <trkpt lat="47.84507" lon="-4.32707">
        <ele>23.21</ele>
        <time>2026-05-02T17:42:16.663Z</time>
      </trkpt>
      <trkpt lat="47.84535" lon="-4.32713">
        <ele>23.21</ele>
        <time>2026-05-02T17:42:21.510Z</time>
      </trkpt>
      <trkpt lat="47.84563" lon="-4.32718">
        <ele>23.18</ele>
        <time>2026-05-02T17:42:26.294Z</time>
      </trkpt>
      <trkpt lat="47.84591" lon="-4.32724">
        <ele>23.13</ele>
        <time>2026-05-02T17:42:31.061Z</time>
      </trkpt>
      <trkpt lat="47.84615" lon="-4.3273">
        <ele>23.01</ele>
        <time>2026-05-02T17:42:35.042Z</time>
      </trkpt>
      <trkpt lat="47.8464" lon="-4.32737">
        <ele>22.89</ele>
        <time>2026-05-02T17:42:39.213Z</time>
      </trkpt>
      <trkpt lat="47.84664" lon="-4.32743">
        <ele>22.74</ele>
        <time>2026-05-02T17:42:43.150Z</time>
      </trkpt>
      <trkpt lat="47.84691" lon="-4.32745">
        <ele>22.61</ele>
        <time>2026-05-02T17:42:47.578Z</time>
      </trkpt>
      <trkpt lat="47.84718" lon="-4.32748">
        <ele>22.48</ele>
        <time>2026-05-02T17:42:52.013Z</time>
      </trkpt>
      <trkpt lat="47.84744" lon="-4.3275">
        <ele>22.36</ele>
        <time>2026-05-02T17:42:56.286Z</time>
      </trkpt>
      <trkpt lat="47.84771" lon="-4.32752">
        <ele>22.21</ele>
        <time>2026-05-02T17:43:00.684Z</time>
      </trkpt>
      <trkpt lat="47.84798" lon="-4.32751">
        <ele>22</ele>
        <time>2026-05-02T17:43:04.990Z</time>
      </trkpt>
      <trkpt lat="47.84825" lon="-4.3275">
        <ele>21.75</ele>
        <time>2026-05-02T17:43:09.239Z</time>
      </trkpt>
      <trkpt lat="47.84848" lon="-4.32747">
        <ele>21.48</ele>
        <time>2026-05-02T17:43:12.793Z</time>
      </trkpt>
      <trkpt lat="47.84872" lon="-4.32744">
        <ele>21.22</ele>
        <time>2026-05-02T17:43:16.530Z</time>
      </trkpt>
      <trkpt lat="47.84896" lon="-4.32742">
        <ele>21</ele>
        <time>2026-05-02T17:43:20.315Z</time>
      </trkpt>
      <trkpt lat="47.84919" lon="-4.32739">
        <ele>20.77</ele>
        <time>2026-05-02T17:43:23.925Z</time>
      </trkpt>
      <trkpt lat="47.84949" lon="-4.32736">
        <ele>20.5</ele>
        <time>2026-05-02T17:43:28.667Z</time>
      </trkpt>
      <trkpt lat="47.84978" lon="-4.32733">
        <ele>20.3</ele>
        <time>2026-05-02T17:43:33.339Z</time>
      </trkpt>
      <trkpt lat="47.85007" lon="-4.3273">
        <ele>20.14</ele>
        <time>2026-05-02T17:43:38.071Z</time>
      </trkpt>
      <trkpt lat="47.85038" lon="-4.32733">
        <ele>19.92</ele>
        <time>2026-05-02T17:43:43.055Z</time>
      </trkpt>
      <trkpt lat="47.85068" lon="-4.32736">
        <ele>19.69</ele>
        <time>2026-05-02T17:43:47.854Z</time>
      </trkpt>
      <trkpt lat="47.85099" lon="-4.32738">
        <ele>19.52</ele>
        <time>2026-05-02T17:43:52.905Z</time>
      </trkpt>
      <trkpt lat="47.85129" lon="-4.32741">
        <ele>19.33</ele>
        <time>2026-05-02T17:43:57.763Z</time>
      </trkpt>
      <trkpt lat="47.8516" lon="-4.32743">
        <ele>19.19</ele>
        <time>2026-05-02T17:44:02.859Z</time>
      </trkpt>
      <trkpt lat="47.8519" lon="-4.32745">
        <ele>19.09</ele>
        <time>2026-05-02T17:44:07.846Z</time>
      </trkpt>
      <trkpt lat="47.8522" lon="-4.32748">
        <ele>19.01</ele>
        <time>2026-05-02T17:44:12.870Z</time>
      </trkpt>
      <trkpt lat="47.85241" lon="-4.3275">
        <ele>18.96</ele>
        <time>2026-05-02T17:44:16.396Z</time>
      </trkpt>
      <trkpt lat="47.85272" lon="-4.32752">
        <ele>18.93</ele>
        <time>2026-05-02T17:44:21.664Z</time>
      </trkpt>
      <trkpt lat="47.85302" lon="-4.32755">
        <ele>18.94</ele>
        <time>2026-05-02T17:44:26.832Z</time>
      </trkpt>
      <trkpt lat="47.85332" lon="-4.32757">
        <ele>18.98</ele>
        <time>2026-05-02T17:44:32.044Z</time>
      </trkpt>
      <trkpt lat="47.85363" lon="-4.3276">
        <ele>19.02</ele>
        <time>2026-05-02T17:44:37.433Z</time>
      </trkpt>
      <trkpt lat="47.85393" lon="-4.32762">
        <ele>19.1</ele>
        <time>2026-05-02T17:44:42.711Z</time>
      </trkpt>
      <trkpt lat="47.85424" lon="-4.32765">
        <ele>19.26</ele>
        <time>2026-05-02T17:44:48.306Z</time>
      </trkpt>
      <trkpt lat="47.85443" lon="-4.32769">
        <ele>19.4</ele>
        <time>2026-05-02T17:44:51.836Z</time>
      </trkpt>
      <trkpt lat="47.85465" lon="-4.32774">
        <ele>19.57</ele>
        <time>2026-05-02T17:44:55.944Z</time>
      </trkpt>
      <trkpt lat="47.85487" lon="-4.32779">
        <ele>19.8</ele>
        <time>2026-05-02T17:45:00.165Z</time>
      </trkpt>
      <trkpt lat="47.85509" lon="-4.32784">
        <ele>20.04</ele>
        <time>2026-05-02T17:45:04.405Z</time>
      </trkpt>
      <trkpt lat="47.85532" lon="-4.32785">
        <ele>20.31</ele>
        <time>2026-05-02T17:45:08.833Z</time>
      </trkpt>
      <trkpt lat="47.85555" lon="-4.32786">
        <ele>20.63</ele>
        <time>2026-05-02T17:45:13.360Z</time>
      </trkpt>
      <trkpt lat="47.85578" lon="-4.32786">
        <ele>21.02</ele>
        <time>2026-05-02T17:45:18.033Z</time>
      </trkpt>
      <trkpt lat="47.85608" lon="-4.32795">
        <ele>21.45</ele>
        <time>2026-05-02T17:45:24.064Z</time>
      </trkpt>
      <trkpt lat="47.85638" lon="-4.32803">
        <ele>21.81</ele>
        <time>2026-05-02T17:45:29.932Z</time>
      </trkpt>
      <trkpt lat="47.85658" lon="-4.32806">
        <ele>22.12</ele>
        <time>2026-05-02T17:45:33.950Z</time>
      </trkpt>
      <trkpt lat="47.85679" lon="-4.32808">
        <ele>22.43</ele>
        <time>2026-05-02T17:45:38.127Z</time>
      </trkpt>
      <trkpt lat="47.85696" lon="-4.32801">
        <ele>22.77</ele>
        <time>2026-05-02T17:45:41.800Z</time>
      </trkpt>
      <trkpt lat="47.85709" lon="-4.32788">
        <ele>23.07</ele>
        <time>2026-05-02T17:45:45.056Z</time>
      </trkpt>
      <trkpt lat="47.85722" lon="-4.32765">
        <ele>23.32</ele>
        <time>2026-05-02T17:45:48.965Z</time>
      </trkpt>
      <trkpt lat="47.85746" lon="-4.32749">
        <ele>23.48</ele>
        <time>2026-05-02T17:45:53.744Z</time>
      </trkpt>
      <trkpt lat="47.85771" lon="-4.32733">
        <ele>23.57</ele>
        <time>2026-05-02T17:45:58.556Z</time>
      </trkpt>
      <trkpt lat="47.858" lon="-4.32721">
        <ele>23.65</ele>
        <time>2026-05-02T17:46:03.846Z</time>
      </trkpt>
      <trkpt lat="47.85828" lon="-4.3271">
        <ele>23.76</ele>
        <time>2026-05-02T17:46:08.993Z</time>
      </trkpt>
      <trkpt lat="47.85857" lon="-4.32698">
        <ele>23.78</ele>
        <time>2026-05-02T17:46:14.182Z</time>
      </trkpt>
      <trkpt lat="47.85857" lon="-4.32698">
        <ele>23.79</ele>
        <time>2026-05-02T17:46:14.182Z</time>
      </trkpt>
      <trkpt lat="47.85882" lon="-4.32689">
        <ele>23.7</ele>
        <time>2026-05-02T17:46:18.447Z</time>
      </trkpt>
      <trkpt lat="47.85907" lon="-4.32679">
        <ele>23.6</ele>
        <time>2026-05-02T17:46:22.724Z</time>
      </trkpt>
      <trkpt lat="47.85932" lon="-4.3267">
        <ele>23.49</ele>
        <time>2026-05-02T17:46:26.957Z</time>
      </trkpt>
      <trkpt lat="47.85957" lon="-4.3266">
        <ele>23.38</ele>
        <time>2026-05-02T17:46:31.219Z</time>
      </trkpt>
      <trkpt lat="47.85981" lon="-4.32651">
        <ele>23.26</ele>
        <time>2026-05-02T17:46:35.272Z</time>
      </trkpt>
      <trkpt lat="47.86006" lon="-4.32637">
        <ele>23.09</ele>
        <time>2026-05-02T17:46:39.584Z</time>
      </trkpt>
      <trkpt lat="47.86031" lon="-4.32624">
        <ele>22.91</ele>
        <time>2026-05-02T17:46:43.843Z</time>
      </trkpt>
      <trkpt lat="47.86057" lon="-4.3261">
        <ele>22.71</ele>
        <time>2026-05-02T17:46:48.272Z</time>
      </trkpt>
      <trkpt lat="47.86084" lon="-4.32596">
        <ele>22.49</ele>
        <time>2026-05-02T17:46:52.833Z</time>
      </trkpt>
      <trkpt lat="47.86111" lon="-4.32581">
        <ele>22.24</ele>
        <time>2026-05-02T17:46:57.390Z</time>
      </trkpt>
      <trkpt lat="47.86139" lon="-4.32567">
        <ele>21.95</ele>
        <time>2026-05-02T17:47:02.013Z</time>
      </trkpt>
      <trkpt lat="47.86166" lon="-4.32552">
        <ele>21.66</ele>
        <time>2026-05-02T17:47:06.513Z</time>
      </trkpt>
      <trkpt lat="47.86193" lon="-4.32538">
        <ele>21.35</ele>
        <time>2026-05-02T17:47:10.948Z</time>
      </trkpt>
      <trkpt lat="47.86221" lon="-4.32523">
        <ele>21.07</ele>
        <time>2026-05-02T17:47:15.622Z</time>
      </trkpt>
      <trkpt lat="47.86248" lon="-4.32509">
        <ele>20.82</ele>
        <time>2026-05-02T17:47:20.140Z</time>
      </trkpt>
      <trkpt lat="47.86275" lon="-4.32494">
        <ele>20.59</ele>
        <time>2026-05-02T17:47:24.725Z</time>
      </trkpt>
      <trkpt lat="47.86297" lon="-4.32485">
        <ele>20.38</ele>
        <time>2026-05-02T17:47:28.316Z</time>
      </trkpt>
      <trkpt lat="47.86318" lon="-4.32475">
        <ele>20.16</ele>
        <time>2026-05-02T17:47:31.762Z</time>
      </trkpt>
      <trkpt lat="47.86341" lon="-4.32467">
        <ele>19.83</ele>
        <time>2026-05-02T17:47:35.326Z</time>
      </trkpt>
      <trkpt lat="47.86364" lon="-4.32458">
        <ele>19.5</ele>
        <time>2026-05-02T17:47:38.918Z</time>
      </trkpt>
      <trkpt lat="47.86387" lon="-4.32449">
        <ele>19.22</ele>
        <time>2026-05-02T17:47:42.576Z</time>
      </trkpt>
      <trkpt lat="47.86415" lon="-4.32432">
        <ele>18.96</ele>
        <time>2026-05-02T17:47:47.361Z</time>
      </trkpt>
      <trkpt lat="47.86443" lon="-4.32415">
        <ele>18.68</ele>
        <time>2026-05-02T17:47:52.117Z</time>
      </trkpt>
      <trkpt lat="47.86465" lon="-4.32396">
        <ele>18.42</ele>
        <time>2026-05-02T17:47:56.083Z</time>
      </trkpt>
      <trkpt lat="47.86488" lon="-4.32376">
        <ele>18.17</ele>
        <time>2026-05-02T17:48:00.267Z</time>
      </trkpt>
      <trkpt lat="47.86506" lon="-4.32353">
        <ele>17.98</ele>
        <time>2026-05-02T17:48:04.038Z</time>
      </trkpt>
      <trkpt lat="47.86524" lon="-4.32329">
        <ele>17.72</ele>
        <time>2026-05-02T17:48:07.787Z</time>
      </trkpt>
      <trkpt lat="47.86539" lon="-4.32315">
        <ele>17.43</ele>
        <time>2026-05-02T17:48:10.403Z</time>
      </trkpt>
      <trkpt lat="47.86554" lon="-4.323">
        <ele>17.13</ele>
        <time>2026-05-02T17:48:13.068Z</time>
      </trkpt>
      <trkpt lat="47.86556" lon="-4.32297">
        <ele>16.85</ele>
        <time>2026-05-02T17:48:13.360Z</time>
      </trkpt>
      <trkpt lat="47.86574" lon="-4.32286">
        <ele>16.57</ele>
        <time>2026-05-02T17:48:16.285Z</time>
      </trkpt>
      <trkpt lat="47.86595" lon="-4.3228">
        <ele>16.28</ele>
        <time>2026-05-02T17:48:19.524Z</time>
      </trkpt>
      <trkpt lat="47.86617" lon="-4.32273">
        <ele>16</ele>
        <time>2026-05-02T17:48:22.964Z</time>
      </trkpt>
      <trkpt lat="47.8664" lon="-4.32265">
        <ele>15.68</ele>
        <time>2026-05-02T17:48:26.542Z</time>
      </trkpt>
      <trkpt lat="47.8667" lon="-4.32263">
        <ele>15.33</ele>
        <time>2026-05-02T17:48:31.166Z</time>
      </trkpt>
      <trkpt lat="47.86692" lon="-4.32271">
        <ele>15</ele>
        <time>2026-05-02T17:48:34.566Z</time>
      </trkpt>
      <trkpt lat="47.86714" lon="-4.32296">
        <ele>14.62</ele>
        <time>2026-05-02T17:48:38.750Z</time>
      </trkpt>
      <trkpt lat="47.86737" lon="-4.32321">
        <ele>14.29</ele>
        <time>2026-05-02T17:48:43.136Z</time>
      </trkpt>
      <trkpt lat="47.86745" lon="-4.32325">
        <ele>14.01</ele>
        <time>2026-05-02T17:48:44.225Z</time>
      </trkpt>
      <trkpt lat="47.86762" lon="-4.32329">
        <ele>13.73</ele>
        <time>2026-05-02T17:48:46.772Z</time>
      </trkpt>
      <trkpt lat="47.86793" lon="-4.32318">
        <ele>13.41</ele>
        <time>2026-05-02T17:48:51.750Z</time>
      </trkpt>
      <trkpt lat="47.86835" lon="-4.32247">
        <ele>13.1</ele>
        <time>2026-05-02T17:49:02.145Z</time>
      </trkpt>
      <trkpt lat="47.86865" lon="-4.32173">
        <ele>14</ele>
        <time>2026-05-02T17:49:13.752Z</time>
      </trkpt>
      <trkpt lat="47.86915" lon="-4.32016">
        <ele>13.9</ele>
        <time>2026-05-02T17:49:33.566Z</time>
      </trkpt>
      <trkpt lat="47.86943" lon="-4.3191">
        <ele>14</ele>
        <time>2026-05-02T17:49:46.825Z</time>
      </trkpt>
      <trkpt lat="47.87002" lon="-4.31708">
        <ele>16.1</ele>
        <time>2026-05-02T17:50:15.998Z</time>
      </trkpt>
      <trkpt lat="47.87083" lon="-4.31368">
        <ele>19</ele>
        <time>2026-05-02T17:51:02.684Z</time>
      </trkpt>
      <trkpt lat="47.87143" lon="-4.31225">
        <ele>20.2</ele>
        <time>2026-05-02T17:51:24.204Z</time>
      </trkpt>
      <trkpt lat="47.87316" lon="-4.3091">
        <ele>22</ele>
        <time>2026-05-02T17:52:14.090Z</time>
      </trkpt>
      <trkpt lat="47.87333" lon="-4.30944">
        <ele>21</ele>
        <time>2026-05-02T17:52:17.708Z</time>
      </trkpt>
      <trkpt lat="47.87353" lon="-4.31044">
        <ele>20</ele>
        <time>2026-05-02T17:52:28.242Z</time>
      </trkpt>
      <trkpt lat="47.87391" lon="-4.31329">
        <ele>12.4</ele>
        <time>2026-05-02T17:52:52.335Z</time>
      </trkpt>
      <trkpt lat="47.87421" lon="-4.31365">
        <ele>9.5</ele>
        <time>2026-05-02T17:52:56.294Z</time>
      </trkpt>
      <trkpt lat="47.87464" lon="-4.31396">
        <ele>9</ele>
        <time>2026-05-02T17:53:03.728Z</time>
      </trkpt>
      <trkpt lat="47.87741" lon="-4.31573">
        <ele>27.1</ele>
        <time>2026-05-02T17:54:46.399Z</time>
      </trkpt>
      <trkpt lat="47.87805" lon="-4.31626">
        <ele>30.9</ele>
        <time>2026-05-02T17:55:08.822Z</time>
      </trkpt>
      <trkpt lat="47.87866" lon="-4.3163">
        <ele>34.2</ele>
        <time>2026-05-02T17:55:28.046Z</time>
      </trkpt>
      <trkpt lat="47.88095" lon="-4.31791">
        <ele>34.2</ele>
        <time>2026-05-02T17:56:11.428Z</time>
      </trkpt>
      <trkpt lat="47.88258" lon="-4.31848">
        <ele>36.8</ele>
        <time>2026-05-02T17:56:44.934Z</time>
      </trkpt>
      <trkpt lat="47.88318" lon="-4.31878">
        <ele>37.3</ele>
        <time>2026-05-02T17:56:56.647Z</time>
      </trkpt>
      <trkpt lat="47.88351" lon="-4.31928">
        <ele>37</ele>
        <time>2026-05-02T17:57:04.243Z</time>
      </trkpt>
      <trkpt lat="47.88279" lon="-4.32225">
        <ele>35</ele>
        <time>2026-05-02T17:57:37.507Z</time>
      </trkpt>
      <trkpt lat="47.88253" lon="-4.32311">
        <ele>34.8</ele>
        <time>2026-05-02T17:57:48.030Z</time>
      </trkpt>
      <trkpt lat="47.88222" lon="-4.32387">
        <ele>33.1</ele>
        <time>2026-05-02T17:57:56.015Z</time>
      </trkpt>
      <trkpt lat="47.88041" lon="-4.32844">
        <ele>27</ele>
        <time>2026-05-02T17:58:48.296Z</time>
      </trkpt>
      <trkpt lat="47.88053" lon="-4.32905">
        <ele>27</ele>
        <time>2026-05-02T17:58:55.601Z</time>
      </trkpt>
      <trkpt lat="47.88145" lon="-4.33045">
        <ele>24</ele>
        <time>2026-05-02T17:59:14.015Z</time>
      </trkpt>
      <trkpt lat="47.88283" lon="-4.3323">
        <ele>29.2</ele>
        <time>2026-05-02T17:59:56.580Z</time>
      </trkpt>
      <trkpt lat="47.88512" lon="-4.33476">
        <ele>27.9</ele>
        <time>2026-05-02T18:00:42.898Z</time>
      </trkpt>
      <trkpt lat="47.88596" lon="-4.33594">
        <ele>26.3</ele>
        <time>2026-05-02T18:01:00.331Z</time>
      </trkpt>
      <trkpt lat="47.88644" lon="-4.33668">
        <ele>25.8</ele>
        <time>2026-05-02T18:01:11.391Z</time>
      </trkpt>
      <trkpt lat="47.88642" lon="-4.33707">
        <ele>25</ele>
        <time>2026-05-02T18:01:14.848Z</time>
      </trkpt>
      <trkpt lat="47.88659" lon="-4.33734">
        <ele>25</ele>
        <time>2026-05-02T18:01:19.103Z</time>
      </trkpt>
      <trkpt lat="47.88711" lon="-4.33642">
        <ele>22.52</ele>
        <time>2026-05-02T18:01:29.716Z</time>
      </trkpt>
      <trkpt lat="47.88735" lon="-4.33616">
        <ele>22.45</ele>
        <time>2026-05-02T18:01:34.687Z</time>
      </trkpt>
      <trkpt lat="47.8876" lon="-4.33589">
        <ele>22.49</ele>
        <time>2026-05-02T18:01:40.042Z</time>
      </trkpt>
      <trkpt lat="47.88784" lon="-4.33563">
        <ele>22.52</ele>
        <time>2026-05-02T18:01:45.174Z</time>
      </trkpt>
      <trkpt lat="47.88808" lon="-4.3356">
        <ele>22.57</ele>
        <time>2026-05-02T18:01:49.384Z</time>
      </trkpt>
      <trkpt lat="47.88833" lon="-4.33557">
        <ele>22.75</ele>
        <time>2026-05-02T18:01:53.992Z</time>
      </trkpt>
      <trkpt lat="47.88852" lon="-4.33548">
        <ele>22.96</ele>
        <time>2026-05-02T18:01:57.781Z</time>
      </trkpt>
      <trkpt lat="47.88875" lon="-4.33527">
        <ele>23.21</ele>
        <time>2026-05-02T18:02:02.842Z</time>
      </trkpt>
      <trkpt lat="47.88898" lon="-4.33506">
        <ele>23.52</ele>
        <time>2026-05-02T18:02:08.018Z</time>
      </trkpt>
      <trkpt lat="47.88921" lon="-4.33486">
        <ele>23.86</ele>
        <time>2026-05-02T18:02:13.195Z</time>
      </trkpt>
      <trkpt lat="47.88939" lon="-4.33463">
        <ele>24.18</ele>
        <time>2026-05-02T18:02:17.840Z</time>
      </trkpt>
      <trkpt lat="47.88958" lon="-4.33441">
        <ele>24.51</ele>
        <time>2026-05-02T18:02:22.564Z</time>
      </trkpt>
      <trkpt lat="47.88976" lon="-4.33414">
        <ele>24.78</ele>
        <time>2026-05-02T18:02:27.418Z</time>
      </trkpt>
      <trkpt lat="47.88994" lon="-4.33387">
        <ele>25.11</ele>
        <time>2026-05-02T18:02:32.391Z</time>
      </trkpt>
      <trkpt lat="47.88994" lon="-4.33387">
        <ele>25.45</ele>
        <time>2026-05-02T18:02:32.391Z</time>
      </trkpt>
      <trkpt lat="47.89006" lon="-4.33371">
        <ele>25.82</ele>
        <time>2026-05-02T18:02:35.881Z</time>
      </trkpt>
      <trkpt lat="47.89018" lon="-4.33355">
        <ele>26.21</ele>
        <time>2026-05-02T18:02:39.419Z</time>
      </trkpt>
      <trkpt lat="47.89041" lon="-4.33331">
        <ele>26.64</ele>
        <time>2026-05-02T18:02:45.025Z</time>
      </trkpt>
      <trkpt lat="47.89065" lon="-4.33308">
        <ele>27.16</ele>
        <time>2026-05-02T18:02:50.900Z</time>
      </trkpt>
      <trkpt lat="47.89069" lon="-4.33306">
        <ele>27.57</ele>
        <time>2026-05-02T18:02:53.259Z</time>
      </trkpt>
      <trkpt lat="47.89091" lon="-4.33284">
        <ele>27.99</ele>
        <time>2026-05-02T18:02:58.578Z</time>
      </trkpt>
      <trkpt lat="47.89112" lon="-4.33263">
        <ele>28.41</ele>
        <time>2026-05-02T18:03:03.696Z</time>
      </trkpt>
      <trkpt lat="47.89112" lon="-4.33263">
        <ele>28.82</ele>
        <time>2026-05-02T18:03:03.696Z</time>
      </trkpt>
      <trkpt lat="47.89112" lon="-4.33263">
        <ele>28.41</ele>
        <time>2026-05-02T18:03:03.696Z</time>
      </trkpt>
      <trkpt lat="47.89127" lon="-4.3325">
        <ele>29.64</ele>
        <time>2026-05-02T18:03:10.534Z</time>
      </trkpt>
      <trkpt lat="47.89142" lon="-4.33237">
        <ele>30.07</ele>
        <time>2026-05-02T18:03:14.372Z</time>
      </trkpt>
      <trkpt lat="47.89168" lon="-4.33225">
        <ele>30.52</ele>
        <time>2026-05-02T18:03:19.877Z</time>
      </trkpt>
      <trkpt lat="47.89194" lon="-4.33213">
        <ele>30.92</ele>
        <time>2026-05-02T18:03:25.276Z</time>
      </trkpt>
      <trkpt lat="47.89219" lon="-4.332">
        <ele>31.33</ele>
        <time>2026-05-02T18:03:30.573Z</time>
      </trkpt>
      <trkpt lat="47.89232" lon="-4.33194">
        <ele>31.74</ele>
        <time>2026-05-02T18:03:33.770Z</time>
      </trkpt>
      <trkpt lat="47.89254" lon="-4.33183">
        <ele>32.12</ele>
        <time>2026-05-02T18:03:38.455Z</time>
      </trkpt>
      <trkpt lat="47.89277" lon="-4.33172">
        <ele>32.5</ele>
        <time>2026-05-02T18:03:43.299Z</time>
      </trkpt>
      <trkpt lat="47.89299" lon="-4.33162">
        <ele>32.92</ele>
        <time>2026-05-02T18:03:48.037Z</time>
      </trkpt>
      <trkpt lat="47.89312" lon="-4.33155">
        <ele>33.34</ele>
        <time>2026-05-02T18:03:51.294Z</time>
      </trkpt>
      <trkpt lat="47.89322" lon="-4.3314">
        <ele>33.74</ele>
        <time>2026-05-02T18:03:54.554Z</time>
      </trkpt>
      <trkpt lat="47.89322" lon="-4.3314">
        <ele>34.14</ele>
        <time>2026-05-02T18:03:54.554Z</time>
      </trkpt>
      <trkpt lat="47.89338" lon="-4.33109">
        <ele>34.57</ele>
        <time>2026-05-02T18:03:59.852Z</time>
      </trkpt>
      <trkpt lat="47.89353" lon="-4.33078">
        <ele>34.99</ele>
        <time>2026-05-02T18:04:05.028Z</time>
      </trkpt>
      <trkpt lat="47.89369" lon="-4.33047">
        <ele>35.45</ele>
        <time>2026-05-02T18:04:10.390Z</time>
      </trkpt>
      <trkpt lat="47.89384" lon="-4.33016">
        <ele>35.83</ele>
        <time>2026-05-02T18:04:15.483Z</time>
      </trkpt>
      <trkpt lat="47.894" lon="-4.32986">
        <ele>36.21</ele>
        <time>2026-05-02T18:04:20.586Z</time>
      </trkpt>
      <trkpt lat="47.89413" lon="-4.32955">
        <ele>36.61</ele>
        <time>2026-05-02T18:04:25.534Z</time>
      </trkpt>
      <trkpt lat="47.89425" lon="-4.32924">
        <ele>37.01</ele>
        <time>2026-05-02T18:04:30.395Z</time>
      </trkpt>
      <trkpt lat="47.89438" lon="-4.32894">
        <ele>37.39</ele>
        <time>2026-05-02T18:04:35.205Z</time>
      </trkpt>
      <trkpt lat="47.8944" lon="-4.32872">
        <ele>37.71</ele>
        <time>2026-05-02T18:04:38.381Z</time>
      </trkpt>
      <trkpt lat="47.89443" lon="-4.32827">
        <ele>38</ele>
        <time>2026-05-02T18:04:44.087Z</time>
      </trkpt>
      <trkpt lat="47.89445" lon="-4.32783">
        <ele>38.27</ele>
        <time>2026-05-02T18:04:49.628Z</time>
      </trkpt>
      <trkpt lat="47.89447" lon="-4.32738">
        <ele>38.51</ele>
        <time>2026-05-02T18:04:55.226Z</time>
      </trkpt>
      <trkpt lat="47.89449" lon="-4.32694">
        <ele>38.75</ele>
        <time>2026-05-02T18:05:00.711Z</time>
      </trkpt>
      <trkpt lat="47.89447" lon="-4.32677">
        <ele>38.98</ele>
        <time>2026-05-02T18:05:03.136Z</time>
      </trkpt>
      <trkpt lat="47.89441" lon="-4.3265">
        <ele>39.15</ele>
        <time>2026-05-02T18:05:06.702Z</time>
      </trkpt>
      <trkpt lat="47.89436" lon="-4.32623">
        <ele>39.34</ele>
        <time>2026-05-02T18:05:10.257Z</time>
      </trkpt>
      <trkpt lat="47.89432" lon="-4.32578">
        <ele>39.52</ele>
        <time>2026-05-02T18:05:15.779Z</time>
      </trkpt>
      <trkpt lat="47.89433" lon="-4.32538">
        <ele>39.68</ele>
        <time>2026-05-02T18:05:20.652Z</time>
      </trkpt>
      <trkpt lat="47.89434" lon="-4.32499">
        <ele>39.82</ele>
        <time>2026-05-02T18:05:25.374Z</time>
      </trkpt>
      <trkpt lat="47.89443" lon="-4.32456">
        <ele>39.95</ele>
        <time>2026-05-02T18:05:30.768Z</time>
      </trkpt>
      <trkpt lat="47.89452" lon="-4.32423">
        <ele>40.1</ele>
        <time>2026-05-02T18:05:35.118Z</time>
      </trkpt>
      <trkpt lat="47.89461" lon="-4.3239">
        <ele>40.22</ele>
        <time>2026-05-02T18:05:39.415Z</time>
      </trkpt>
      <trkpt lat="47.8947" lon="-4.32357">
        <ele>40.32</ele>
        <time>2026-05-02T18:05:43.676Z</time>
      </trkpt>
      <trkpt lat="47.89481" lon="-4.32327">
        <ele>40.41</ele>
        <time>2026-05-02T18:05:47.756Z</time>
      </trkpt>
      <trkpt lat="47.89491" lon="-4.32297">
        <ele>40.5</ele>
        <time>2026-05-02T18:05:51.757Z</time>
      </trkpt>
      <trkpt lat="47.89503" lon="-4.32261">
        <ele>40.59</ele>
        <time>2026-05-02T18:05:56.526Z</time>
      </trkpt>
      <trkpt lat="47.89515" lon="-4.32228">
        <ele>40.7</ele>
        <time>2026-05-02T18:06:01.025Z</time>
      </trkpt>
      <trkpt lat="47.89526" lon="-4.32195">
        <ele>40.77</ele>
        <time>2026-05-02T18:06:05.375Z</time>
      </trkpt>
      <trkpt lat="47.89536" lon="-4.32162">
        <ele>40.79</ele>
        <time>2026-05-02T18:06:09.568Z</time>
      </trkpt>
      <trkpt lat="47.89546" lon="-4.3213">
        <ele>40.85</ele>
        <time>2026-05-02T18:06:13.724Z</time>
      </trkpt>
      <trkpt lat="47.8956" lon="-4.32104">
        <ele>40.91</ele>
        <time>2026-05-02T18:06:17.655Z</time>
      </trkpt>
      <trkpt lat="47.89573" lon="-4.32078">
        <ele>41.02</ele>
        <time>2026-05-02T18:06:21.568Z</time>
      </trkpt>
      <trkpt lat="47.89586" lon="-4.3206">
        <ele>41.11</ele>
        <time>2026-05-02T18:06:24.760Z</time>
      </trkpt>
      <trkpt lat="47.89599" lon="-4.32042">
        <ele>41.17</ele>
        <time>2026-05-02T18:06:27.900Z</time>
      </trkpt>
      <trkpt lat="47.89622" lon="-4.32019">
        <ele>41.17</ele>
        <time>2026-05-02T18:06:32.645Z</time>
      </trkpt>
      <trkpt lat="47.89645" lon="-4.31996">
        <ele>41.2</ele>
        <time>2026-05-02T18:06:37.439Z</time>
      </trkpt>
      <trkpt lat="47.89668" lon="-4.31973">
        <ele>41.33</ele>
        <time>2026-05-02T18:06:42.404Z</time>
      </trkpt>
      <trkpt lat="47.8968" lon="-4.31953">
        <ele>41.45</ele>
        <time>2026-05-02T18:06:45.693Z</time>
      </trkpt>
      <trkpt lat="47.89691" lon="-4.31932">
        <ele>41.59</ele>
        <time>2026-05-02T18:06:48.998Z</time>
      </trkpt>
      <trkpt lat="47.89701" lon="-4.319">
        <ele>41.76</ele>
        <time>2026-05-02T18:06:53.347Z</time>
      </trkpt>
      <trkpt lat="47.89711" lon="-4.31868">
        <ele>41.91</ele>
        <time>2026-05-02T18:06:57.661Z</time>
      </trkpt>
      <trkpt lat="47.89715" lon="-4.31837">
        <ele>42.11</ele>
        <time>2026-05-02T18:07:01.639Z</time>
      </trkpt>
      <trkpt lat="47.89719" lon="-4.31806">
        <ele>42.32</ele>
        <time>2026-05-02T18:07:05.637Z</time>
      </trkpt>
      <trkpt lat="47.89724" lon="-4.31776">
        <ele>42.49</ele>
        <time>2026-05-02T18:07:09.485Z</time>
      </trkpt>
      <trkpt lat="47.89724" lon="-4.31771">
        <ele>42.72</ele>
        <time>2026-05-02T18:07:10.766Z</time>
      </trkpt>
      <trkpt lat="47.89728" lon="-4.31731">
        <ele>42.96</ele>
        <time>2026-05-02T18:07:15.832Z</time>
      </trkpt>
      <trkpt lat="47.89729" lon="-4.31698">
        <ele>43.22</ele>
        <time>2026-05-02T18:07:20.094Z</time>
      </trkpt>
      <trkpt lat="47.89729" lon="-4.31665">
        <ele>43.46</ele>
        <time>2026-05-02T18:07:24.312Z</time>
      </trkpt>
      <trkpt lat="47.8973" lon="-4.31632">
        <ele>43.76</ele>
        <time>2026-05-02T18:07:28.654Z</time>
      </trkpt>
      <trkpt lat="47.89727" lon="-4.31594">
        <ele>44.12</ele>
        <time>2026-05-02T18:07:33.708Z</time>
      </trkpt>
      <trkpt lat="47.89725" lon="-4.31557">
        <ele>44.55</ele>
        <time>2026-05-02T18:07:38.782Z</time>
      </trkpt>
      <trkpt lat="47.89722" lon="-4.31519">
        <ele>44.99</ele>
        <time>2026-05-02T18:07:44.005Z</time>
      </trkpt>
      <trkpt lat="47.89719" lon="-4.31482">
        <ele>45.41</ele>
        <time>2026-05-02T18:07:49.073Z</time>
      </trkpt>
      <trkpt lat="47.89723" lon="-4.31439">
        <ele>45.8</ele>
        <time>2026-05-02T18:07:54.770Z</time>
      </trkpt>
      <trkpt lat="47.89727" lon="-4.31396">
        <ele>46.22</ele>
        <time>2026-05-02T18:08:00.529Z</time>
      </trkpt>
      <trkpt lat="47.8973" lon="-4.31353">
        <ele>46.65</ele>
        <time>2026-05-02T18:08:06.288Z</time>
      </trkpt>
      <trkpt lat="47.89734" lon="-4.31317">
        <ele>47.08</ele>
        <time>2026-05-02T18:08:11.291Z</time>
      </trkpt>
      <trkpt lat="47.89739" lon="-4.31281">
        <ele>47.45</ele>
        <time>2026-05-02T18:08:16.197Z</time>
      </trkpt>
      <trkpt lat="47.89743" lon="-4.31246">
        <ele>47.83</ele>
        <time>2026-05-02T18:08:20.983Z</time>
      </trkpt>
      <trkpt lat="47.89743" lon="-4.31246">
        <ele>48.2</ele>
        <time>2026-05-02T18:08:20.983Z</time>
      </trkpt>
      <trkpt lat="47.89749" lon="-4.31219">
        <ele>48.55</ele>
        <time>2026-05-02T18:08:24.916Z</time>
      </trkpt>
      <trkpt lat="47.89756" lon="-4.31192">
        <ele>48.9</ele>
        <time>2026-05-02T18:08:28.904Z</time>
      </trkpt>
      <trkpt lat="47.89762" lon="-4.31147">
        <ele>49.26</ele>
        <time>2026-05-02T18:08:34.821Z</time>
      </trkpt>
      <trkpt lat="47.89764" lon="-4.31108">
        <ele>49.59</ele>
        <time>2026-05-02T18:08:39.911Z</time>
      </trkpt>
      <trkpt lat="47.89763" lon="-4.31081">
        <ele>49.91</ele>
        <time>2026-05-02T18:08:43.622Z</time>
      </trkpt>
      <trkpt lat="47.89762" lon="-4.31055">
        <ele>50.21</ele>
        <time>2026-05-02T18:08:47.178Z</time>
      </trkpt>
      <trkpt lat="47.89759" lon="-4.31008">
        <ele>50.54</ele>
        <time>2026-05-02T18:08:53.187Z</time>
      </trkpt>
      <trkpt lat="47.89757" lon="-4.30961">
        <ele>50.85</ele>
        <time>2026-05-02T18:08:59.145Z</time>
      </trkpt>
      <trkpt lat="47.89754" lon="-4.30915">
        <ele>51.1</ele>
        <time>2026-05-02T18:09:04.889Z</time>
      </trkpt>
      <trkpt lat="47.89754" lon="-4.30915">
        <ele>51.33</ele>
        <time>2026-05-02T18:09:04.889Z</time>
      </trkpt>
      <trkpt lat="47.89753" lon="-4.3087">
        <ele>51.56</ele>
        <time>2026-05-02T18:09:10.460Z</time>
      </trkpt>
      <trkpt lat="47.89752" lon="-4.30825">
        <ele>51.76</ele>
        <time>2026-05-02T18:09:15.977Z</time>
      </trkpt>
      <trkpt lat="47.89755" lon="-4.3078">
        <ele>51.95</ele>
        <time>2026-05-02T18:09:21.498Z</time>
      </trkpt>
      <trkpt lat="47.89758" lon="-4.30735">
        <ele>52.2</ele>
        <time>2026-05-02T18:09:27.128Z</time>
      </trkpt>
      <trkpt lat="47.89765" lon="-4.30695">
        <ele>52.38</ele>
        <time>2026-05-02T18:09:32.187Z</time>
      </trkpt>
      <trkpt lat="47.89773" lon="-4.30656">
        <ele>52.47</ele>
        <time>2026-05-02T18:09:37.023Z</time>
      </trkpt>
      <trkpt lat="47.89781" lon="-4.30617">
        <ele>52.63</ele>
        <time>2026-05-02T18:09:41.981Z</time>
      </trkpt>
      <trkpt lat="47.89788" lon="-4.30577">
        <ele>52.82</ele>
        <time>2026-05-02T18:09:47.058Z</time>
      </trkpt>
      <trkpt lat="47.89796" lon="-4.30538">
        <ele>52.97</ele>
        <time>2026-05-02T18:09:51.999Z</time>
      </trkpt>
      <trkpt lat="47.89803" lon="-4.30499">
        <ele>53.1</ele>
        <time>2026-05-02T18:09:56.857Z</time>
      </trkpt>
      <trkpt lat="47.89805" lon="-4.30471">
        <ele>53.21</ele>
        <time>2026-05-02T18:10:00.280Z</time>
      </trkpt>
      <trkpt lat="47.89807" lon="-4.30443">
        <ele>53.33</ele>
        <time>2026-05-02T18:10:03.720Z</time>
      </trkpt>
      <trkpt lat="47.89806" lon="-4.30404">
        <ele>53.41</ele>
        <time>2026-05-02T18:10:08.337Z</time>
      </trkpt>
      <trkpt lat="47.89805" lon="-4.30365">
        <ele>53.52</ele>
        <time>2026-05-02T18:10:13.006Z</time>
      </trkpt>
      <trkpt lat="47.89804" lon="-4.30325">
        <ele>53.67</ele>
        <time>2026-05-02T18:10:17.860Z</time>
      </trkpt>
      <trkpt lat="47.89803" lon="-4.30286">
        <ele>53.85</ele>
        <time>2026-05-02T18:10:22.654Z</time>
      </trkpt>
      <trkpt lat="47.89805" lon="-4.30246">
        <ele>54.02</ele>
        <time>2026-05-02T18:10:27.554Z</time>
      </trkpt>
      <trkpt lat="47.89818" lon="-4.30207">
        <ele>54.19</ele>
        <time>2026-05-02T18:10:32.847Z</time>
      </trkpt>
      <trkpt lat="47.89833" lon="-4.30173">
        <ele>54.34</ele>
        <time>2026-05-02T18:10:37.779Z</time>
      </trkpt>
      <trkpt lat="47.89848" lon="-4.3014">
        <ele>54.57</ele>
        <time>2026-05-02T18:10:42.761Z</time>
      </trkpt>
      <trkpt lat="47.89863" lon="-4.30106">
        <ele>54.86</ele>
        <time>2026-05-02T18:10:47.952Z</time>
      </trkpt>
      <trkpt lat="47.89863" lon="-4.30106">
        <ele>55.13</ele>
        <time>2026-05-02T18:10:47.952Z</time>
      </trkpt>
      <trkpt lat="47.89874" lon="-4.3007">
        <ele>55.43</ele>
        <time>2026-05-02T18:10:53.033Z</time>
      </trkpt>
      <trkpt lat="47.89885" lon="-4.30035">
        <ele>55.8</ele>
        <time>2026-05-02T18:10:58.152Z</time>
      </trkpt>
      <trkpt lat="47.89897" lon="-4.29999">
        <ele>56.23</ele>
        <time>2026-05-02T18:11:03.571Z</time>
      </trkpt>
      <trkpt lat="47.89908" lon="-4.29963">
        <ele>56.68</ele>
        <time>2026-05-02T18:11:08.960Z</time>
      </trkpt>
      <trkpt lat="47.89919" lon="-4.29928">
        <ele>57.09</ele>
        <time>2026-05-02T18:11:14.163Z</time>
      </trkpt>
      <trkpt lat="47.89928" lon="-4.29899">
        <ele>57.46</ele>
        <time>2026-05-02T18:11:18.530Z</time>
      </trkpt>
      <trkpt lat="47.89936" lon="-4.2987">
        <ele>57.86</ele>
        <time>2026-05-02T18:11:22.897Z</time>
      </trkpt>
      <trkpt lat="47.89946" lon="-4.29835">
        <ele>58.33</ele>
        <time>2026-05-02T18:11:28.161Z</time>
      </trkpt>
      <trkpt lat="47.89957" lon="-4.298">
        <ele>58.79</ele>
        <time>2026-05-02T18:11:33.470Z</time>
      </trkpt>
      <trkpt lat="47.89967" lon="-4.29765">
        <ele>59.18</ele>
        <time>2026-05-02T18:11:38.562Z</time>
      </trkpt>
      <trkpt lat="47.89977" lon="-4.29731">
        <ele>59.57</ele>
        <time>2026-05-02T18:11:43.551Z</time>
      </trkpt>
      <trkpt lat="47.89977" lon="-4.29731">
        <ele>59.94</ele>
        <time>2026-05-02T18:11:43.551Z</time>
      </trkpt>
      <trkpt lat="47.89985" lon="-4.29698">
        <ele>60.34</ele>
        <time>2026-05-02T18:11:48.333Z</time>
      </trkpt>
      <trkpt lat="47.89994" lon="-4.29666">
        <ele>60.71</ele>
        <time>2026-05-02T18:11:53.008Z</time>
      </trkpt>
      <trkpt lat="47.89997" lon="-4.29632">
        <ele>61.1</ele>
        <time>2026-05-02T18:11:57.679Z</time>
      </trkpt>
      <trkpt lat="47.9" lon="-4.29598">
        <ele>61.45</ele>
        <time>2026-05-02T18:12:02.266Z</time>
      </trkpt>
      <trkpt lat="47.90003" lon="-4.29566">
        <ele>61.8</ele>
        <time>2026-05-02T18:12:06.630Z</time>
      </trkpt>
      <trkpt lat="47.90005" lon="-4.29535">
        <ele>62.12</ele>
        <time>2026-05-02T18:12:10.799Z</time>
      </trkpt>
      <trkpt lat="47.90007" lon="-4.29503">
        <ele>62.38</ele>
        <time>2026-05-02T18:12:14.959Z</time>
      </trkpt>
      <trkpt lat="47.90007" lon="-4.29503">
        <ele>62.6</ele>
        <time>2026-05-02T18:12:14.959Z</time>
      </trkpt>
      <trkpt lat="47.90005" lon="-4.29482">
        <ele>62.8</ele>
        <time>2026-05-02T18:12:17.762Z</time>
      </trkpt>
      <trkpt lat="47.89998" lon="-4.2948">
        <ele>62.96</ele>
        <time>2026-05-02T18:12:19.298Z</time>
      </trkpt>
      <trkpt lat="47.89996" lon="-4.29473">
        <ele>63.1</ele>
        <time>2026-05-02T18:12:20.461Z</time>
      </trkpt>
      <trkpt lat="47.9" lon="-4.29462">
        <ele>63.24</ele>
        <time>2026-05-02T18:12:22.160Z</time>
      </trkpt>
      <trkpt lat="47.90011" lon="-4.29447">
        <ele>63.37</ele>
        <time>2026-05-02T18:12:24.942Z</time>
      </trkpt>
      <trkpt lat="47.9002" lon="-4.29414">
        <ele>63.48</ele>
        <time>2026-05-02T18:12:29.220Z</time>
      </trkpt>
      <trkpt lat="47.90028" lon="-4.29381">
        <ele>63.57</ele>
        <time>2026-05-02T18:12:33.402Z</time>
      </trkpt>
      <trkpt lat="47.90038" lon="-4.29348">
        <ele>63.68</ele>
        <time>2026-05-02T18:12:37.748Z</time>
      </trkpt>
      <trkpt lat="47.90047" lon="-4.29315">
        <ele>63.73</ele>
        <time>2026-05-02T18:12:41.924Z</time>
      </trkpt>
      <trkpt lat="47.90056" lon="-4.29282">
        <ele>63.81</ele>
        <time>2026-05-02T18:12:46.150Z</time>
      </trkpt>
      <trkpt lat="47.90063" lon="-4.29249">
        <ele>63.9</ele>
        <time>2026-05-02T18:12:50.278Z</time>
      </trkpt>
      <trkpt lat="47.90071" lon="-4.29216">
        <ele>63.93</ele>
        <time>2026-05-02T18:12:54.358Z</time>
      </trkpt>
      <trkpt lat="47.90078" lon="-4.29183">
        <ele>63.97</ele>
        <time>2026-05-02T18:12:58.400Z</time>
      </trkpt>
      <trkpt lat="47.90085" lon="-4.29147">
        <ele>64.09</ele>
        <time>2026-05-02T18:13:02.909Z</time>
      </trkpt>
      <trkpt lat="47.90093" lon="-4.29111">
        <ele>64.28</ele>
        <time>2026-05-02T18:13:07.595Z</time>
      </trkpt>
      <trkpt lat="47.90101" lon="-4.2908">
        <ele>64.45</ele>
        <time>2026-05-02T18:13:11.705Z</time>
      </trkpt>
      <trkpt lat="47.90108" lon="-4.29049">
        <ele>64.63</ele>
        <time>2026-05-02T18:13:15.777Z</time>
      </trkpt>
      <trkpt lat="47.90116" lon="-4.29018">
        <ele>64.87</ele>
        <time>2026-05-02T18:13:20.020Z</time>
      </trkpt>
      <trkpt lat="47.90116" lon="-4.29018">
        <ele>65.08</ele>
        <time>2026-05-02T18:13:20.020Z</time>
      </trkpt>
      <trkpt lat="47.90124" lon="-4.28995">
        <ele>65.3</ele>
        <time>2026-05-02T18:13:23.394Z</time>
      </trkpt>
      <trkpt lat="47.90131" lon="-4.28971">
        <ele>65.58</ele>
        <time>2026-05-02T18:13:26.921Z</time>
      </trkpt>
      <trkpt lat="47.90146" lon="-4.28932">
        <ele>65.89</ele>
        <time>2026-05-02T18:13:32.636Z</time>
      </trkpt>
      <trkpt lat="47.90146" lon="-4.28932">
        <ele>66.2</ele>
        <time>2026-05-02T18:13:32.636Z</time>
      </trkpt>
      <trkpt lat="47.90146" lon="-4.28932">
        <ele>65.89</ele>
        <time>2026-05-02T18:13:32.636Z</time>
      </trkpt>
      <trkpt lat="47.9016" lon="-4.28902">
        <ele>66.88</ele>
        <time>2026-05-02T18:13:39.136Z</time>
      </trkpt>
      <trkpt lat="47.90174" lon="-4.28872">
        <ele>67.25</ele>
        <time>2026-05-02T18:13:44.018Z</time>
      </trkpt>
      <trkpt lat="47.90187" lon="-4.28842">
        <ele>67.64</ele>
        <time>2026-05-02T18:13:48.849Z</time>
      </trkpt>
      <trkpt lat="47.90198" lon="-4.28812">
        <ele>68.09</ele>
        <time>2026-05-02T18:13:53.641Z</time>
      </trkpt>
      <trkpt lat="47.90209" lon="-4.28782">
        <ele>68.59</ele>
        <time>2026-05-02T18:13:58.548Z</time>
      </trkpt>
      <trkpt lat="47.90213" lon="-4.28767">
        <ele>69.05</ele>
        <time>2026-05-02T18:14:01.493Z</time>
      </trkpt>
      <trkpt lat="47.90223" lon="-4.28736">
        <ele>69.54</ele>
        <time>2026-05-02T18:14:06.400Z</time>
      </trkpt>
      <trkpt lat="47.90232" lon="-4.28705">
        <ele>70.02</ele>
        <time>2026-05-02T18:14:11.215Z</time>
      </trkpt>
      <trkpt lat="47.90241" lon="-4.28675">
        <ele>70.41</ele>
        <time>2026-05-02T18:14:15.727Z</time>
      </trkpt>
      <trkpt lat="47.90243" lon="-4.28664">
        <ele>70.8</ele>
        <time>2026-05-02T18:14:18.042Z</time>
      </trkpt>
      <trkpt lat="47.90249" lon="-4.28651">
        <ele>71.21</ele>
        <time>2026-05-02T18:14:20.793Z</time>
      </trkpt>
      <trkpt lat="47.90256" lon="-4.28649">
        <ele>71.59</ele>
        <time>2026-05-02T18:14:23.016Z</time>
      </trkpt>
      <trkpt lat="47.90258" lon="-4.28634">
        <ele>71.97</ele>
        <time>2026-05-02T18:14:25.628Z</time>
      </trkpt>
      <trkpt lat="47.9026" lon="-4.28608">
        <ele>72.32</ele>
        <time>2026-05-02T18:14:29.309Z</time>
      </trkpt>
      <trkpt lat="47.90264" lon="-4.28572">
        <ele>72.64</ele>
        <time>2026-05-02T18:14:34.081Z</time>
      </trkpt>
      <trkpt lat="47.90275" lon="-4.28535">
        <ele>72.95</ele>
        <time>2026-05-02T18:14:39.285Z</time>
      </trkpt>
      <trkpt lat="47.90279" lon="-4.28525">
        <ele>73.2</ele>
        <time>2026-05-02T18:14:41.160Z</time>
      </trkpt>
      <trkpt lat="47.90282" lon="-4.28514">
        <ele>73.44</ele>
        <time>2026-05-02T18:14:43.031Z</time>
      </trkpt>
      <trkpt lat="47.90301" lon="-4.28478">
        <ele>73.71</ele>
        <time>2026-05-02T18:14:48.767Z</time>
      </trkpt>
      <trkpt lat="47.90316" lon="-4.28445">
        <ele>73.9</ele>
        <time>2026-05-02T18:14:53.674Z</time>
      </trkpt>
      <trkpt lat="47.90321" lon="-4.28413">
        <ele>74</ele>
        <time>2026-05-02T18:14:57.618Z</time>
      </trkpt>
      <trkpt lat="47.90327" lon="-4.28381">
        <ele>74.06</ele>
        <time>2026-05-02T18:15:01.534Z</time>
      </trkpt>
      <trkpt lat="47.90327" lon="-4.28364">
        <ele>74.05</ele>
        <time>2026-05-02T18:15:03.471Z</time>
      </trkpt>
      <trkpt lat="47.90324" lon="-4.28353">
        <ele>73.99</ele>
        <time>2026-05-02T18:15:04.743Z</time>
      </trkpt>
      <trkpt lat="47.90318" lon="-4.28327">
        <ele>73.88</ele>
        <time>2026-05-02T18:15:07.731Z</time>
      </trkpt>
      <trkpt lat="47.90312" lon="-4.28302">
        <ele>73.72</ele>
        <time>2026-05-02T18:15:10.538Z</time>
      </trkpt>
      <trkpt lat="47.90307" lon="-4.28282">
        <ele>73.49</ele>
        <time>2026-05-02T18:15:12.659Z</time>
      </trkpt>
      <trkpt lat="47.90305" lon="-4.28276">
        <ele>73.24</ele>
        <time>2026-05-02T18:15:13.154Z</time>
      </trkpt>
      <trkpt lat="47.90301" lon="-4.28265">
        <ele>72.94</ele>
        <time>2026-05-02T18:15:14.216Z</time>
      </trkpt>
      <trkpt lat="47.90292" lon="-4.28252">
        <ele>72.62</ele>
        <time>2026-05-02T18:15:15.932Z</time>
      </trkpt>
      <trkpt lat="47.903" lon="-4.2823">
        <ele>72.24</ele>
        <time>2026-05-02T18:15:18.286Z</time>
      </trkpt>
      <trkpt lat="47.90307" lon="-4.28207">
        <ele>71.81</ele>
        <time>2026-05-02T18:15:20.609Z</time>
      </trkpt>
      <trkpt lat="47.90318" lon="-4.28181">
        <ele>71.35</ele>
        <time>2026-05-02T18:15:23.509Z</time>
      </trkpt>
      <trkpt lat="47.90328" lon="-4.28162">
        <ele>70.92</ele>
        <time>2026-05-02T18:15:25.710Z</time>
      </trkpt>
      <trkpt lat="47.90337" lon="-4.28143">
        <ele>70.48</ele>
        <time>2026-05-02T18:15:27.802Z</time>
      </trkpt>
      <trkpt lat="47.90352" lon="-4.28113">
        <ele>69.99</ele>
        <time>2026-05-02T18:15:31.413Z</time>
      </trkpt>
      <trkpt lat="47.90365" lon="-4.2808">
        <ele>69.51</ele>
        <time>2026-05-02T18:15:35.133Z</time>
      </trkpt>
      <trkpt lat="47.90377" lon="-4.28048">
        <ele>68.99</ele>
        <time>2026-05-02T18:15:38.623Z</time>
      </trkpt>
      <trkpt lat="47.90389" lon="-4.28016">
        <ele>68.55</ele>
        <time>2026-05-02T18:15:42.210Z</time>
      </trkpt>
      <trkpt lat="47.90402" lon="-4.27984">
        <ele>68.17</ele>
        <time>2026-05-02T18:15:45.958Z</time>
      </trkpt>
      <trkpt lat="47.90416" lon="-4.27961">
        <ele>67.77</ele>
        <time>2026-05-02T18:15:48.964Z</time>
      </trkpt>
      <trkpt lat="47.9043" lon="-4.27939">
        <ele>67.41</ele>
        <time>2026-05-02T18:15:51.936Z</time>
      </trkpt>
      <trkpt lat="47.90449" lon="-4.27913">
        <ele>67.02</ele>
        <time>2026-05-02T18:15:55.789Z</time>
      </trkpt>
      <trkpt lat="47.90468" lon="-4.27887">
        <ele>66.65</ele>
        <time>2026-05-02T18:15:59.667Z</time>
      </trkpt>
      <trkpt lat="47.90485" lon="-4.27865">
        <ele>66.29</ele>
        <time>2026-05-02T18:16:03.005Z</time>
      </trkpt>
      <trkpt lat="47.90503" lon="-4.27842">
        <ele>65.92</ele>
        <time>2026-05-02T18:16:06.532Z</time>
      </trkpt>
      <trkpt lat="47.90509" lon="-4.27821">
        <ele>65.59</ele>
        <time>2026-05-02T18:16:08.698Z</time>
      </trkpt>
      <trkpt lat="47.90515" lon="-4.27799">
        <ele>65.28</ele>
        <time>2026-05-02T18:16:10.991Z</time>
      </trkpt>
      <trkpt lat="47.90518" lon="-4.27793">
        <ele>65</ele>
        <time>2026-05-02T18:16:11.543Z</time>
      </trkpt>
      <trkpt lat="47.90522" lon="-4.27765">
        <ele>64.71</ele>
        <time>2026-05-02T18:16:14.411Z</time>
      </trkpt>
      <trkpt lat="47.90526" lon="-4.27737">
        <ele>64.48</ele>
        <time>2026-05-02T18:16:17.358Z</time>
      </trkpt>
      <trkpt lat="47.9053" lon="-4.27697">
        <ele>64.27</ele>
        <time>2026-05-02T18:16:21.681Z</time>
      </trkpt>
      <trkpt lat="47.90535" lon="-4.27657">
        <ele>64.13</ele>
        <time>2026-05-02T18:16:26.136Z</time>
      </trkpt>
      <trkpt lat="47.90539" lon="-4.27617">
        <ele>63.94</ele>
        <time>2026-05-02T18:16:30.489Z</time>
      </trkpt>
      <trkpt lat="47.90543" lon="-4.27577">
        <ele>63.74</ele>
        <time>2026-05-02T18:16:34.826Z</time>
      </trkpt>
      <trkpt lat="47.90548" lon="-4.27538">
        <ele>63.59</ele>
        <time>2026-05-02T18:16:39.154Z</time>
      </trkpt>
      <trkpt lat="47.90554" lon="-4.27508">
        <ele>63.53</ele>
        <time>2026-05-02T18:16:42.654Z</time>
      </trkpt>
      <trkpt lat="47.90567" lon="-4.27474">
        <ele>63.49</ele>
        <time>2026-05-02T18:16:47.085Z</time>
      </trkpt>
      <trkpt lat="47.90581" lon="-4.27441">
        <ele>63.39</ele>
        <time>2026-05-02T18:16:51.413Z</time>
      </trkpt>
      <trkpt lat="47.90594" lon="-4.27408">
        <ele>63.31</ele>
        <time>2026-05-02T18:16:55.683Z</time>
      </trkpt>
      <trkpt lat="47.90608" lon="-4.27375">
        <ele>63.28</ele>
        <time>2026-05-02T18:17:00.120Z</time>
      </trkpt>
      <trkpt lat="47.9061" lon="-4.27366">
        <ele>63.31</ele>
        <time>2026-05-02T18:17:01.260Z</time>
      </trkpt>
      <trkpt lat="47.9061" lon="-4.27366">
        <ele>63.38</ele>
        <time>2026-05-02T18:17:01.260Z</time>
      </trkpt>
      <trkpt lat="47.90624" lon="-4.27334">
        <ele>63.4</ele>
        <time>2026-05-02T18:17:05.682Z</time>
      </trkpt>
      <trkpt lat="47.90638" lon="-4.27302">
        <ele>63.55</ele>
        <time>2026-05-02T18:17:10.327Z</time>
      </trkpt>
      <trkpt lat="47.9064" lon="-4.27297">
        <ele>63.71</ele>
        <time>2026-05-02T18:17:11.370Z</time>
      </trkpt>
      <trkpt lat="47.90652" lon="-4.2727">
        <ele>63.93</ele>
        <time>2026-05-02T18:17:15.480Z</time>
      </trkpt>
      <trkpt lat="47.90663" lon="-4.27244">
        <ele>64.19</ele>
        <time>2026-05-02T18:17:19.482Z</time>
      </trkpt>
      <trkpt lat="47.90675" lon="-4.27224">
        <ele>64.47</ele>
        <time>2026-05-02T18:17:23.084Z</time>
      </trkpt>
      <trkpt lat="47.90687" lon="-4.27205">
        <ele>64.75</ele>
        <time>2026-05-02T18:17:26.603Z</time>
      </trkpt>
      <trkpt lat="47.90694" lon="-4.27194">
        <ele>65.04</ele>
        <time>2026-05-02T18:17:28.949Z</time>
      </trkpt>
      <trkpt lat="47.90694" lon="-4.27194">
        <ele>65.32</ele>
        <time>2026-05-02T18:17:28.949Z</time>
      </trkpt>
      <trkpt lat="47.90716" lon="-4.27171">
        <ele>65.65</ele>
        <time>2026-05-02T18:17:34.147Z</time>
      </trkpt>
      <trkpt lat="47.90739" lon="-4.27147">
        <ele>65.97</ele>
        <time>2026-05-02T18:17:39.529Z</time>
      </trkpt>
      <trkpt lat="47.90766" lon="-4.27132">
        <ele>66.26</ele>
        <time>2026-05-02T18:17:44.979Z</time>
      </trkpt>
      <trkpt lat="47.90794" lon="-4.27117">
        <ele>66.53</ele>
        <time>2026-05-02T18:17:50.550Z</time>
      </trkpt>
      <trkpt lat="47.90821" lon="-4.27105">
        <ele>66.83</ele>
        <time>2026-05-02T18:17:55.911Z</time>
      </trkpt>
      <trkpt lat="47.90847" lon="-4.27093">
        <ele>67.16</ele>
        <time>2026-05-02T18:18:01.168Z</time>
      </trkpt>
      <trkpt lat="47.90873" lon="-4.27081">
        <ele>67.43</ele>
        <time>2026-05-02T18:18:06.309Z</time>
      </trkpt>
      <trkpt lat="47.90899" lon="-4.27069">
        <ele>67.62</ele>
        <time>2026-05-02T18:18:11.300Z</time>
      </trkpt>
      <trkpt lat="47.90925" lon="-4.27057">
        <ele>67.84</ele>
        <time>2026-05-02T18:18:16.346Z</time>
      </trkpt>
      <trkpt lat="47.90952" lon="-4.27043">
        <ele>68.02</ele>
        <time>2026-05-02T18:18:21.552Z</time>
      </trkpt>
      <trkpt lat="47.9098" lon="-4.2703">
        <ele>68.09</ele>
        <time>2026-05-02T18:18:26.693Z</time>
      </trkpt>
      <trkpt lat="47.91007" lon="-4.27016">
        <ele>68.16</ele>
        <time>2026-05-02T18:18:31.707Z</time>
      </trkpt>
      <trkpt lat="47.91034" lon="-4.27003">
        <ele>68.21</ele>
        <time>2026-05-02T18:18:36.651Z</time>
      </trkpt>
      <trkpt lat="47.91061" lon="-4.26989">
        <ele>68.24</ele>
        <time>2026-05-02T18:18:41.599Z</time>
      </trkpt>
      <trkpt lat="47.91088" lon="-4.26975">
        <ele>68.21</ele>
        <time>2026-05-02T18:18:46.448Z</time>
      </trkpt>
      <trkpt lat="47.91116" lon="-4.26958">
        <ele>68.13</ele>
        <time>2026-05-02T18:18:51.500Z</time>
      </trkpt>
      <trkpt lat="47.91143" lon="-4.2694">
        <ele>68.05</ele>
        <time>2026-05-02T18:18:56.440Z</time>
      </trkpt>
      <trkpt lat="47.9117" lon="-4.26922">
        <ele>67.87</ele>
        <time>2026-05-02T18:19:01.227Z</time>
      </trkpt>
      <trkpt lat="47.91194" lon="-4.269">
        <ele>67.69</ele>
        <time>2026-05-02T18:19:05.775Z</time>
      </trkpt>
      <trkpt lat="47.91218" lon="-4.26879">
        <ele>67.47</ele>
        <time>2026-05-02T18:19:10.206Z</time>
      </trkpt>
      <trkpt lat="47.91242" lon="-4.26857">
        <ele>67.15</ele>
        <time>2026-05-02T18:19:14.555Z</time>
      </trkpt>
      <trkpt lat="47.91266" lon="-4.26836">
        <ele>66.79</ele>
        <time>2026-05-02T18:19:18.792Z</time>
      </trkpt>
      <trkpt lat="47.91289" lon="-4.26811">
        <ele>66.43</ele>
        <time>2026-05-02T18:19:23.136Z</time>
      </trkpt>
      <trkpt lat="47.91312" lon="-4.26787">
        <ele>65.95</ele>
        <time>2026-05-02T18:19:27.260Z</time>
      </trkpt>
      <trkpt lat="47.9132" lon="-4.26776">
        <ele>65.45</ele>
        <time>2026-05-02T18:19:28.539Z</time>
      </trkpt>
      <trkpt lat="47.91344" lon="-4.26748">
        <ele>64.86</ele>
        <time>2026-05-02T18:19:32.931Z</time>
      </trkpt>
      <trkpt lat="47.91367" lon="-4.2672">
        <ele>64.15</ele>
        <time>2026-05-02T18:19:37.052Z</time>
      </trkpt>
      <trkpt lat="47.91367" lon="-4.2672">
        <ele>63.58</ele>
        <time>2026-05-02T18:19:37.052Z</time>
      </trkpt>
      <trkpt lat="47.91389" lon="-4.26688">
        <ele>62.94</ele>
        <time>2026-05-02T18:19:41.427Z</time>
      </trkpt>
      <trkpt lat="47.91412" lon="-4.26656">
        <ele>62.35</ele>
        <time>2026-05-02T18:19:45.984Z</time>
      </trkpt>
      <trkpt lat="47.91434" lon="-4.26623">
        <ele>61.67</ele>
        <time>2026-05-02T18:19:50.390Z</time>
      </trkpt>
      <trkpt lat="47.91456" lon="-4.26591">
        <ele>60.98</ele>
        <time>2026-05-02T18:19:54.707Z</time>
      </trkpt>
      <trkpt lat="47.91478" lon="-4.26559">
        <ele>60.37</ele>
        <time>2026-05-02T18:19:59.118Z</time>
      </trkpt>
      <trkpt lat="47.915" lon="-4.26527">
        <ele>59.64</ele>
        <time>2026-05-02T18:20:03.389Z</time>
      </trkpt>
      <trkpt lat="47.91523" lon="-4.265">
        <ele>58.78</ele>
        <time>2026-05-02T18:20:07.279Z</time>
      </trkpt>
      <trkpt lat="47.91545" lon="-4.26472">
        <ele>57.88</ele>
        <time>2026-05-02T18:20:11.071Z</time>
      </trkpt>
      <trkpt lat="47.91568" lon="-4.26445">
        <ele>56.98</ele>
        <time>2026-05-02T18:20:14.920Z</time>
      </trkpt>
      <trkpt lat="47.91591" lon="-4.26417">
        <ele>56.07</ele>
        <time>2026-05-02T18:20:18.827Z</time>
      </trkpt>
      <trkpt lat="47.91613" lon="-4.2639">
        <ele>55.16</ele>
        <time>2026-05-02T18:20:22.540Z</time>
      </trkpt>
      <trkpt lat="47.91636" lon="-4.26363">
        <ele>54.2</ele>
        <time>2026-05-02T18:20:26.328Z</time>
      </trkpt>
      <trkpt lat="47.91658" lon="-4.26335">
        <ele>53.16</ele>
        <time>2026-05-02T18:20:29.983Z</time>
      </trkpt>
      <trkpt lat="47.91681" lon="-4.26308">
        <ele>52.16</ele>
        <time>2026-05-02T18:20:33.733Z</time>
      </trkpt>
      <trkpt lat="47.91696" lon="-4.26294">
        <ele>51.18</ele>
        <time>2026-05-02T18:20:35.686Z</time>
      </trkpt>
      <trkpt lat="47.91711" lon="-4.2628">
        <ele>50.19</ele>
        <time>2026-05-02T18:20:37.631Z</time>
      </trkpt>
      <trkpt lat="47.91732" lon="-4.26263">
        <ele>49.15</ele>
        <time>2026-05-02T18:20:40.489Z</time>
      </trkpt>
      <trkpt lat="47.91754" lon="-4.26244">
        <ele>48.11</ele>
        <time>2026-05-02T18:20:43.588Z</time>
      </trkpt>
      <trkpt lat="47.91776" lon="-4.26226">
        <ele>47.2</ele>
        <time>2026-05-02T18:20:46.752Z</time>
      </trkpt>
      <trkpt lat="47.91798" lon="-4.26207">
        <ele>46.34</ele>
        <time>2026-05-02T18:20:50.017Z</time>
      </trkpt>
      <trkpt lat="47.9182" lon="-4.26188">
        <ele>45.5</ele>
        <time>2026-05-02T18:20:53.302Z</time>
      </trkpt>
      <trkpt lat="47.91845" lon="-4.26161">
        <ele>44.66</ele>
        <time>2026-05-02T18:20:57.475Z</time>
      </trkpt>
      <trkpt lat="47.91869" lon="-4.26134">
        <ele>43.78</ele>
        <time>2026-05-02T18:21:01.474Z</time>
      </trkpt>
      <trkpt lat="47.91884" lon="-4.26111">
        <ele>42.94</ele>
        <time>2026-05-02T18:21:04.131Z</time>
      </trkpt>
      <trkpt lat="47.91899" lon="-4.26087">
        <ele>42.19</ele>
        <time>2026-05-02T18:21:06.950Z</time>
      </trkpt>
      <trkpt lat="47.91913" lon="-4.26057">
        <ele>41.62</ele>
        <time>2026-05-02T18:21:10.370Z</time>
      </trkpt>
      <trkpt lat="47.91927" lon="-4.26027">
        <ele>41.1</ele>
        <time>2026-05-02T18:21:13.847Z</time>
      </trkpt>
      <trkpt lat="47.91927" lon="-4.26027">
        <ele>40.69</ele>
        <time>2026-05-02T18:21:13.847Z</time>
      </trkpt>
      <trkpt lat="47.91938" lon="-4.25999">
        <ele>40.33</ele>
        <time>2026-05-02T18:21:17.058Z</time>
      </trkpt>
      <trkpt lat="47.91949" lon="-4.25971">
        <ele>40.02</ele>
        <time>2026-05-02T18:21:20.333Z</time>
      </trkpt>
      <trkpt lat="47.91963" lon="-4.25934">
        <ele>39.88</ele>
        <time>2026-05-02T18:21:24.992Z</time>
      </trkpt>
      <trkpt lat="47.91977" lon="-4.25897">
        <ele>39.75</ele>
        <time>2026-05-02T18:21:29.667Z</time>
      </trkpt>
      <trkpt lat="47.91991" lon="-4.2586">
        <ele>39.69</ele>
        <time>2026-05-02T18:21:34.450Z</time>
      </trkpt>
      <trkpt lat="47.92006" lon="-4.25823">
        <ele>39.69</ele>
        <time>2026-05-02T18:21:39.416Z</time>
      </trkpt>
      <trkpt lat="47.9202" lon="-4.25787">
        <ele>39.84</ele>
        <time>2026-05-02T18:21:44.451Z</time>
      </trkpt>
      <trkpt lat="47.92024" lon="-4.25776">
        <ele>40.06</ele>
        <time>2026-05-02T18:21:46.336Z</time>
      </trkpt>
      <trkpt lat="47.92039" lon="-4.25738">
        <ele>40.43</ele>
        <time>2026-05-02T18:21:52.069Z</time>
      </trkpt>
      <trkpt lat="47.92053" lon="-4.25701">
        <ele>40.81</ele>
        <time>2026-05-02T18:21:57.639Z</time>
      </trkpt>
      <trkpt lat="47.92068" lon="-4.25663">
        <ele>41.28</ele>
        <time>2026-05-02T18:22:03.577Z</time>
      </trkpt>
      <trkpt lat="47.92083" lon="-4.25626">
        <ele>41.75</ele>
        <time>2026-05-02T18:22:09.419Z</time>
      </trkpt>
      <trkpt lat="47.92097" lon="-4.25588">
        <ele>42.21</ele>
        <time>2026-05-02T18:22:15.254Z</time>
      </trkpt>
      <trkpt lat="47.92112" lon="-4.25551">
        <ele>42.65</ele>
        <time>2026-05-02T18:22:21.032Z</time>
      </trkpt>
      <trkpt lat="47.92128" lon="-4.25513">
        <ele>43.05</ele>
        <time>2026-05-02T18:22:26.913Z</time>
      </trkpt>
      <trkpt lat="47.92143" lon="-4.25475">
        <ele>43.49</ele>
        <time>2026-05-02T18:22:32.788Z</time>
      </trkpt>
      <trkpt lat="47.92159" lon="-4.25437">
        <ele>43.92</ele>
        <time>2026-05-02T18:22:38.730Z</time>
      </trkpt>
      <trkpt lat="47.92178" lon="-4.25405">
        <ele>44.24</ele>
        <time>2026-05-02T18:22:44.211Z</time>
      </trkpt>
      <trkpt lat="47.92196" lon="-4.25373">
        <ele>44.51</ele>
        <time>2026-05-02T18:22:49.484Z</time>
      </trkpt>
      <trkpt lat="47.92215" lon="-4.2534">
        <ele>44.67</ele>
        <time>2026-05-02T18:22:54.753Z</time>
      </trkpt>
      <trkpt lat="47.92234" lon="-4.25308">
        <ele>44.73</ele>
        <time>2026-05-02T18:22:59.761Z</time>
      </trkpt>
      <trkpt lat="47.92252" lon="-4.25276">
        <ele>44.71</ele>
        <time>2026-05-02T18:23:04.526Z</time>
      </trkpt>
      <trkpt lat="47.92271" lon="-4.25244">
        <ele>44.61</ele>
        <time>2026-05-02T18:23:09.277Z</time>
      </trkpt>
      <trkpt lat="47.92282" lon="-4.2522">
        <ele>44.49</ele>
        <time>2026-05-02T18:23:12.429Z</time>
      </trkpt>
      <trkpt lat="47.92294" lon="-4.25197">
        <ele>44.3</ele>
        <time>2026-05-02T18:23:15.489Z</time>
      </trkpt>
      <trkpt lat="47.92305" lon="-4.25168">
        <ele>44.04</ele>
        <time>2026-05-02T18:23:18.929Z</time>
      </trkpt>
      <trkpt lat="47.92316" lon="-4.25139">
        <ele>43.76</ele>
        <time>2026-05-02T18:23:22.341Z</time>
      </trkpt>
      <trkpt lat="47.92326" lon="-4.25111">
        <ele>43.45</ele>
        <time>2026-05-02T18:23:25.533Z</time>
      </trkpt>
      <trkpt lat="47.92339" lon="-4.25076">
        <ele>43.16</ele>
        <time>2026-05-02T18:23:29.694Z</time>
      </trkpt>
      <trkpt lat="47.92351" lon="-4.2504">
        <ele>42.9</ele>
        <time>2026-05-02T18:23:33.918Z</time>
      </trkpt>
      <trkpt lat="47.92364" lon="-4.25005">
        <ele>42.64</ele>
        <time>2026-05-02T18:23:38.120Z</time>
      </trkpt>
      <trkpt lat="47.92376" lon="-4.2497">
        <ele>42.33</ele>
        <time>2026-05-02T18:23:42.174Z</time>
      </trkpt>
      <trkpt lat="47.92389" lon="-4.24935">
        <ele>42.05</ele>
        <time>2026-05-02T18:23:46.348Z</time>
      </trkpt>
      <trkpt lat="47.92402" lon="-4.24899">
        <ele>41.7</ele>
        <time>2026-05-02T18:23:50.527Z</time>
      </trkpt>
      <trkpt lat="47.92414" lon="-4.24863">
        <ele>41.5</ele>
        <time>2026-05-02T18:23:54.836Z</time>
      </trkpt>
      <trkpt lat="47.92427" lon="-4.24828">
        <ele>41.47</ele>
        <time>2026-05-02T18:23:59.383Z</time>
      </trkpt>
      <trkpt lat="47.9244" lon="-4.24795">
        <ele>41.54</ele>
        <time>2026-05-02T18:24:03.895Z</time>
      </trkpt>
      <trkpt lat="47.92453" lon="-4.24763">
        <ele>41.74</ele>
        <time>2026-05-02T18:24:08.539Z</time>
      </trkpt>
      <trkpt lat="47.9247" lon="-4.24731">
        <ele>42.03</ele>
        <time>2026-05-02T18:24:13.743Z</time>
      </trkpt>
      <trkpt lat="47.92487" lon="-4.24698">
        <ele>42.47</ele>
        <time>2026-05-02T18:24:19.340Z</time>
      </trkpt>
      <trkpt lat="47.92504" lon="-4.24666">
        <ele>42.96</ele>
        <time>2026-05-02T18:24:24.956Z</time>
      </trkpt>
      <trkpt lat="47.92521" lon="-4.24633">
        <ele>43.51</ele>
        <time>2026-05-02T18:24:30.793Z</time>
      </trkpt>
      <trkpt lat="47.92537" lon="-4.246">
        <ele>43.97</ele>
        <time>2026-05-02T18:24:36.332Z</time>
      </trkpt>
      <trkpt lat="47.92554" lon="-4.24568">
        <ele>44.61</ele>
        <time>2026-05-02T18:24:42.292Z</time>
      </trkpt>
      <trkpt lat="47.92571" lon="-4.24536">
        <ele>45.26</ele>
        <time>2026-05-02T18:24:48.276Z</time>
      </trkpt>
      <trkpt lat="47.92571" lon="-4.24536">
        <ele>45.81</ele>
        <time>2026-05-02T18:24:48.276Z</time>
      </trkpt>
      <trkpt lat="47.92588" lon="-4.24501">
        <ele>46.52</ele>
        <time>2026-05-02T18:24:54.663Z</time>
      </trkpt>
      <trkpt lat="47.92604" lon="-4.24466">
        <ele>47.15</ele>
        <time>2026-05-02T18:25:00.766Z</time>
      </trkpt>
      <trkpt lat="47.92621" lon="-4.24431">
        <ele>47.7</ele>
        <time>2026-05-02T18:25:06.779Z</time>
      </trkpt>
      <trkpt lat="47.92638" lon="-4.24396">
        <ele>48.31</ele>
        <time>2026-05-02T18:25:12.929Z</time>
      </trkpt>
      <trkpt lat="47.92653" lon="-4.24361">
        <ele>48.92</ele>
        <time>2026-05-02T18:25:18.895Z</time>
      </trkpt>
      <trkpt lat="47.92669" lon="-4.24326">
        <ele>49.51</ele>
        <time>2026-05-02T18:25:24.905Z</time>
      </trkpt>
      <trkpt lat="47.92685" lon="-4.24291">
        <ele>50.05</ele>
        <time>2026-05-02T18:25:30.801Z</time>
      </trkpt>
      <trkpt lat="47.92701" lon="-4.24256">
        <ele>50.63</ele>
        <time>2026-05-02T18:25:36.788Z</time>
      </trkpt>
      <trkpt lat="47.92716" lon="-4.24221">
        <ele>51.25</ele>
        <time>2026-05-02T18:25:42.777Z</time>
      </trkpt>
      <trkpt lat="47.92732" lon="-4.24186">
        <ele>51.82</ele>
        <time>2026-05-02T18:25:48.741Z</time>
      </trkpt>
      <trkpt lat="47.92742" lon="-4.24158">
        <ele>52.32</ele>
        <time>2026-05-02T18:25:53.378Z</time>
      </trkpt>
      <trkpt lat="47.92751" lon="-4.2413">
        <ele>52.74</ele>
        <time>2026-05-02T18:25:57.754Z</time>
      </trkpt>
      <trkpt lat="47.92759" lon="-4.24101">
        <ele>53.1</ele>
        <time>2026-05-02T18:26:02.031Z</time>
      </trkpt>
      <trkpt lat="47.92767" lon="-4.24071">
        <ele>53.45</ele>
        <time>2026-05-02T18:26:06.391Z</time>
      </trkpt>
      <trkpt lat="47.92775" lon="-4.24042">
        <ele>53.79</ele>
        <time>2026-05-02T18:26:10.625Z</time>
      </trkpt>
      <trkpt lat="47.92784" lon="-4.23998">
        <ele>54.05</ele>
        <time>2026-05-02T18:26:16.361Z</time>
      </trkpt>
      <trkpt lat="47.92794" lon="-4.23954">
        <ele>54.35</ele>
        <time>2026-05-02T18:26:22.225Z</time>
      </trkpt>
      <trkpt lat="47.92803" lon="-4.2391">
        <ele>54.71</ele>
        <time>2026-05-02T18:26:28.152Z</time>
      </trkpt>
      <trkpt lat="47.92813" lon="-4.23866">
        <ele>55.02</ele>
        <time>2026-05-02T18:26:34.035Z</time>
      </trkpt>
      <trkpt lat="47.92823" lon="-4.23823">
        <ele>55.38</ele>
        <time>2026-05-02T18:26:39.907Z</time>
      </trkpt>
      <trkpt lat="47.92832" lon="-4.23779">
        <ele>55.81</ele>
        <time>2026-05-02T18:26:45.975Z</time>
      </trkpt>
      <trkpt lat="47.92841" lon="-4.23735">
        <ele>56.3</ele>
        <time>2026-05-02T18:26:52.168Z</time>
      </trkpt>
      <trkpt lat="47.9285" lon="-4.23695">
        <ele>56.7</ele>
        <time>2026-05-02T18:26:57.745Z</time>
      </trkpt>
      <trkpt lat="47.92859" lon="-4.23654">
        <ele>57.03</ele>
        <time>2026-05-02T18:27:03.289Z</time>
      </trkpt>
      <trkpt lat="47.92867" lon="-4.23613">
        <ele>57.35</ele>
        <time>2026-05-02T18:27:08.764Z</time>
      </trkpt>
      <trkpt lat="47.92876" lon="-4.23572">
        <ele>57.81</ele>
        <time>2026-05-02T18:27:14.573Z</time>
      </trkpt>
      <trkpt lat="47.92884" lon="-4.23531">
        <ele>58.29</ele>
        <time>2026-05-02T18:27:20.375Z</time>
      </trkpt>
      <trkpt lat="47.92893" lon="-4.23489">
        <ele>58.67</ele>
        <time>2026-05-02T18:27:26.126Z</time>
      </trkpt>
      <trkpt lat="47.92902" lon="-4.23448">
        <ele>59.03</ele>
        <time>2026-05-02T18:27:31.729Z</time>
      </trkpt>
      <trkpt lat="47.9291" lon="-4.23415">
        <ele>59.4</ele>
        <time>2026-05-02T18:27:36.445Z</time>
      </trkpt>
      <trkpt lat="47.92918" lon="-4.23381">
        <ele>59.79</ele>
        <time>2026-05-02T18:27:41.309Z</time>
      </trkpt>
      <trkpt lat="47.92926" lon="-4.23348">
        <ele>60.21</ele>
        <time>2026-05-02T18:27:46.133Z</time>
      </trkpt>
      <trkpt lat="47.92934" lon="-4.23315">
        <ele>60.68</ele>
        <time>2026-05-02T18:27:51.068Z</time>
      </trkpt>
      <trkpt lat="47.92939" lon="-4.23291">
        <ele>61.17</ele>
        <time>2026-05-02T18:27:54.978Z</time>
      </trkpt>
      <trkpt lat="47.92945" lon="-4.23268">
        <ele>61.67</ele>
        <time>2026-05-02T18:27:58.868Z</time>
      </trkpt>
      <trkpt lat="47.92945" lon="-4.23268">
        <ele>62.11</ele>
        <time>2026-05-02T18:27:58.868Z</time>
      </trkpt>
      <trkpt lat="47.92955" lon="-4.23227">
        <ele>62.63</ele>
        <time>2026-05-02T18:28:04.860Z</time>
      </trkpt>
      <trkpt lat="47.92966" lon="-4.23196">
        <ele>63.12</ele>
        <time>2026-05-02T18:28:09.839Z</time>
      </trkpt>
      <trkpt lat="47.92977" lon="-4.23165">
        <ele>63.6</ele>
        <time>2026-05-02T18:28:14.795Z</time>
      </trkpt>
      <trkpt lat="47.9299" lon="-4.2313">
        <ele>64</ele>
        <time>2026-05-02T18:28:20.127Z</time>
      </trkpt>
      <trkpt lat="47.93002" lon="-4.23096">
        <ele>64.44</ele>
        <time>2026-05-02T18:28:25.365Z</time>
      </trkpt>
      <trkpt lat="47.93015" lon="-4.23061">
        <ele>64.91</ele>
        <time>2026-05-02T18:28:30.846Z</time>
      </trkpt>
      <trkpt lat="47.93028" lon="-4.23027">
        <ele>65.4</ele>
        <time>2026-05-02T18:28:36.274Z</time>
      </trkpt>
      <trkpt lat="47.93045" lon="-4.22993">
        <ele>65.84</ele>
        <time>2026-05-02T18:28:41.960Z</time>
      </trkpt>
      <trkpt lat="47.93054" lon="-4.22976">
        <ele>66.24</ele>
        <time>2026-05-02T18:28:45.272Z</time>
      </trkpt>
      <trkpt lat="47.93073" lon="-4.22991">
        <ele>66.54</ele>
        <time>2026-05-02T18:28:49.504Z</time>
      </trkpt>
      <trkpt lat="47.93084" lon="-4.2301">
        <ele>66.8</ele>
        <time>2026-05-02T18:28:52.868Z</time>
      </trkpt>
      <trkpt lat="47.93105" lon="-4.23026">
        <ele>67.05</ele>
        <time>2026-05-02T18:28:57.352Z</time>
      </trkpt>
      <trkpt lat="47.93127" lon="-4.23042">
        <ele>67.29</ele>
        <time>2026-05-02T18:29:01.969Z</time>
      </trkpt>
      <trkpt lat="47.93148" lon="-4.23057">
        <ele>67.56</ele>
        <time>2026-05-02T18:29:06.443Z</time>
      </trkpt>
      <trkpt lat="47.9317" lon="-4.23074">
        <ele>67.79</ele>
        <time>2026-05-02T18:29:11.092Z</time>
      </trkpt>
      <trkpt lat="47.93191" lon="-4.2309">
        <ele>68.02</ele>
        <time>2026-05-02T18:29:15.538Z</time>
      </trkpt>
      <trkpt lat="47.93213" lon="-4.23107">
        <ele>68.25</ele>
        <time>2026-05-02T18:29:20.187Z</time>
      </trkpt>
      <trkpt lat="47.93237" lon="-4.23127">
        <ele>68.41</ele>
        <time>2026-05-02T18:29:25.170Z</time>
      </trkpt>
      <trkpt lat="47.93261" lon="-4.23147">
        <ele>68.46</ele>
        <time>2026-05-02T18:29:29.963Z</time>
      </trkpt>
      <trkpt lat="47.93285" lon="-4.23168">
        <ele>68.54</ele>
        <time>2026-05-02T18:29:34.863Z</time>
      </trkpt>
      <trkpt lat="47.93309" lon="-4.23188">
        <ele>68.61</ele>
        <time>2026-05-02T18:29:39.689Z</time>
      </trkpt>
      <trkpt lat="47.93334" lon="-4.23203">
        <ele>68.61</ele>
        <time>2026-05-02T18:29:44.306Z</time>
      </trkpt>
      <trkpt lat="47.93359" lon="-4.23217">
        <ele>68.55</ele>
        <time>2026-05-02T18:29:48.785Z</time>
      </trkpt>
      <trkpt lat="47.93383" lon="-4.23232">
        <ele>68.48</ele>
        <time>2026-05-02T18:29:53.132Z</time>
      </trkpt>
      <trkpt lat="47.93408" lon="-4.23246">
        <ele>68.39</ele>
        <time>2026-05-02T18:29:57.564Z</time>
      </trkpt>
      <trkpt lat="47.93429" lon="-4.23259">
        <ele>68.24</ele>
        <time>2026-05-02T18:30:01.228Z</time>
      </trkpt>
      <trkpt lat="47.93451" lon="-4.23272">
        <ele>68</ele>
        <time>2026-05-02T18:30:04.921Z</time>
      </trkpt>
      <trkpt lat="47.93472" lon="-4.2329">
        <ele>67.7</ele>
        <time>2026-05-02T18:30:08.626Z</time>
      </trkpt>
      <trkpt lat="47.93492" lon="-4.23308">
        <ele>67.37</ele>
        <time>2026-05-02T18:30:12.146Z</time>
      </trkpt>
      <trkpt lat="47.93513" lon="-4.23326">
        <ele>67.02</ele>
        <time>2026-05-02T18:30:15.786Z</time>
      </trkpt>
      <trkpt lat="47.9353" lon="-4.23351">
        <ele>66.7</ele>
        <time>2026-05-02T18:30:19.405Z</time>
      </trkpt>
      <trkpt lat="47.93539" lon="-4.23375">
        <ele>66.34</ele>
        <time>2026-05-02T18:30:22.057Z</time>
      </trkpt>
      <trkpt lat="47.93547" lon="-4.23398">
        <ele>66</ele>
        <time>2026-05-02T18:30:24.555Z</time>
      </trkpt>
      <trkpt lat="47.93559" lon="-4.23428">
        <ele>65.63</ele>
        <time>2026-05-02T18:30:28.033Z</time>
      </trkpt>
      <trkpt lat="47.93571" lon="-4.23456">
        <ele>65.25</ele>
        <time>2026-05-02T18:30:31.306Z</time>
      </trkpt>
      <trkpt lat="47.93586" lon="-4.23482">
        <ele>64.88</ele>
        <time>2026-05-02T18:30:34.712Z</time>
      </trkpt>
      <trkpt lat="47.93607" lon="-4.23501">
        <ele>64.56</ele>
        <time>2026-05-02T18:30:38.449Z</time>
      </trkpt>
      <trkpt lat="47.93624" lon="-4.23506">
        <ele>64.2</ele>
        <time>2026-05-02T18:30:40.917Z</time>
      </trkpt>
      <trkpt lat="47.9364" lon="-4.2351">
        <ele>63.83</ele>
        <time>2026-05-02T18:30:43.190Z</time>
      </trkpt>
      <trkpt lat="47.93665" lon="-4.23508">
        <ele>63.46</ele>
        <time>2026-05-02T18:30:46.942Z</time>
      </trkpt>
      <trkpt lat="47.93691" lon="-4.23506">
        <ele>63.04</ele>
        <time>2026-05-02T18:30:50.799Z</time>
      </trkpt>
      <trkpt lat="47.93718" lon="-4.23507">
        <ele>62.62</ele>
        <time>2026-05-02T18:30:54.820Z</time>
      </trkpt>
      <trkpt lat="47.93745" lon="-4.23508">
        <ele>62.11</ele>
        <time>2026-05-02T18:30:58.728Z</time>
      </trkpt>
      <trkpt lat="47.93765" lon="-4.23519">
        <ele>61.63</ele>
        <time>2026-05-02T18:31:01.722Z</time>
      </trkpt>
      <trkpt lat="47.93786" lon="-4.23529">
        <ele>61.22</ele>
        <time>2026-05-02T18:31:04.919Z</time>
      </trkpt>
      <trkpt lat="47.93804" lon="-4.2353">
        <ele>60.9</ele>
        <time>2026-05-02T18:31:07.551Z</time>
      </trkpt>
      <trkpt lat="47.93822" lon="-4.23532">
        <ele>60.6</ele>
        <time>2026-05-02T18:31:10.214Z</time>
      </trkpt>
      <trkpt lat="47.93849" lon="-4.23523">
        <ele>60.35</ele>
        <time>2026-05-02T18:31:14.574Z</time>
      </trkpt>
      <trkpt lat="47.93876" lon="-4.23515">
        <ele>60.12</ele>
        <time>2026-05-02T18:31:18.940Z</time>
      </trkpt>
      <trkpt lat="47.93903" lon="-4.23507">
        <ele>59.98</ele>
        <time>2026-05-02T18:31:23.438Z</time>
      </trkpt>
      <trkpt lat="47.9393" lon="-4.23499">
        <ele>59.9</ele>
        <time>2026-05-02T18:31:28.027Z</time>
      </trkpt>
      <trkpt lat="47.93957" lon="-4.23491">
        <ele>59.86</ele>
        <time>2026-05-02T18:31:32.679Z</time>
      </trkpt>
      <trkpt lat="47.93979" lon="-4.2348">
        <ele>59.93</ele>
        <time>2026-05-02T18:31:36.771Z</time>
      </trkpt>
      <trkpt lat="47.94002" lon="-4.23466">
        <ele>60.09</ele>
        <time>2026-05-02T18:31:41.302Z</time>
      </trkpt>
      <trkpt lat="47.94024" lon="-4.23451">
        <ele>60.39</ele>
        <time>2026-05-02T18:31:45.988Z</time>
      </trkpt>
      <trkpt lat="47.94047" lon="-4.23437">
        <ele>60.78</ele>
        <time>2026-05-02T18:31:50.968Z</time>
      </trkpt>
      <trkpt lat="47.94071" lon="-4.23429">
        <ele>61.14</ele>
        <time>2026-05-02T18:31:55.843Z</time>
      </trkpt>
      <trkpt lat="47.94095" lon="-4.23421">
        <ele>61.54</ele>
        <time>2026-05-02T18:32:00.803Z</time>
      </trkpt>
      <trkpt lat="47.94118" lon="-4.23414">
        <ele>61.97</ele>
        <time>2026-05-02T18:32:05.642Z</time>
      </trkpt>
      <trkpt lat="47.94133" lon="-4.23418">
        <ele>62.45</ele>
        <time>2026-05-02T18:32:09.279Z</time>
      </trkpt>
      <trkpt lat="47.94149" lon="-4.23425">
        <ele>62.96</ele>
        <time>2026-05-02T18:32:13.217Z</time>
      </trkpt>
      <trkpt lat="47.94165" lon="-4.23433">
        <ele>63.53</ele>
        <time>2026-05-02T18:32:17.353Z</time>
      </trkpt>
      <trkpt lat="47.94193" lon="-4.23448">
        <ele>64.13</ele>
        <time>2026-05-02T18:32:23.608Z</time>
      </trkpt>
      <trkpt lat="47.94221" lon="-4.23463">
        <ele>64.87</ele>
        <time>2026-05-02T18:32:30.194Z</time>
      </trkpt>
      <trkpt lat="47.94249" lon="-4.23478">
        <ele>65.7</ele>
        <time>2026-05-02T18:32:37.008Z</time>
      </trkpt>
      <trkpt lat="47.94277" lon="-4.23493">
        <ele>66.53</ele>
        <time>2026-05-02T18:32:43.822Z</time>
      </trkpt>
      <trkpt lat="47.94305" lon="-4.23508">
        <ele>67.43</ele>
        <time>2026-05-02T18:32:50.822Z</time>
      </trkpt>
      <trkpt lat="47.94333" lon="-4.23523">
        <ele>68.41</ele>
        <time>2026-05-02T18:32:58.042Z</time>
      </trkpt>
      <trkpt lat="47.9435" lon="-4.23538">
        <ele>69.43</ele>
        <time>2026-05-02T18:33:04.071Z</time>
      </trkpt>
      <trkpt lat="47.94376" lon="-4.23564">
        <ele>70.48</ele>
        <time>2026-05-02T18:33:11.720Z</time>
      </trkpt>
      <trkpt lat="47.94401" lon="-4.23589">
        <ele>71.52</ele>
        <time>2026-05-02T18:33:19.164Z</time>
      </trkpt>
      <trkpt lat="47.94429" lon="-4.23611">
        <ele>72.55</ele>
        <time>2026-05-02T18:33:26.809Z</time>
      </trkpt>
      <trkpt lat="47.94456" lon="-4.23632">
        <ele>73.67</ele>
        <time>2026-05-02T18:33:34.541Z</time>
      </trkpt>
      <trkpt lat="47.94484" lon="-4.23654">
        <ele>74.71</ele>
        <time>2026-05-02T18:33:42.214Z</time>
      </trkpt>
      <trkpt lat="47.94511" lon="-4.23675">
        <ele>75.61</ele>
        <time>2026-05-02T18:33:49.320Z</time>
      </trkpt>
      <trkpt lat="47.94537" lon="-4.23684">
        <ele>76.42</ele>
        <time>2026-05-02T18:33:55.607Z</time>
      </trkpt>
      <trkpt lat="47.94564" lon="-4.23687">
        <ele>77.21</ele>
        <time>2026-05-02T18:34:01.899Z</time>
      </trkpt>
      <trkpt lat="47.94592" lon="-4.2369">
        <ele>77.93</ele>
        <time>2026-05-02T18:34:08.168Z</time>
      </trkpt>
      <trkpt lat="47.9462" lon="-4.23692">
        <ele>78.58</ele>
        <time>2026-05-02T18:34:14.260Z</time>
      </trkpt>
      <trkpt lat="47.94641" lon="-4.23719">
        <ele>79.06</ele>
        <time>2026-05-02T18:34:19.912Z</time>
      </trkpt>
      <trkpt lat="47.94662" lon="-4.23745">
        <ele>79.52</ele>
        <time>2026-05-02T18:34:25.449Z</time>
      </trkpt>
      <trkpt lat="47.94683" lon="-4.23772">
        <ele>79.94</ele>
        <time>2026-05-02T18:34:30.974Z</time>
      </trkpt>
      <trkpt lat="47.94703" lon="-4.23798">
        <ele>80.25</ele>
        <time>2026-05-02T18:34:36.074Z</time>
      </trkpt>
      <trkpt lat="47.94724" lon="-4.23825">
        <ele>80.48</ele>
        <time>2026-05-02T18:34:41.224Z</time>
      </trkpt>
      <trkpt lat="47.94745" lon="-4.23851">
        <ele>80.63</ele>
        <time>2026-05-02T18:34:46.154Z</time>
      </trkpt>
      <trkpt lat="47.94764" lon="-4.23879">
        <ele>80.71</ele>
        <time>2026-05-02T18:34:50.862Z</time>
      </trkpt>
      <trkpt lat="47.9478" lon="-4.23906">
        <ele>80.74</ele>
        <time>2026-05-02T18:34:55.049Z</time>
      </trkpt>
      <trkpt lat="47.94796" lon="-4.23934">
        <ele>80.71</ele>
        <time>2026-05-02T18:34:59.225Z</time>
      </trkpt>
      <trkpt lat="47.94811" lon="-4.23961">
        <ele>80.62</ele>
        <time>2026-05-02T18:35:03.108Z</time>
      </trkpt>
      <trkpt lat="47.94832" lon="-4.23994">
        <ele>80.43</ele>
        <time>2026-05-02T18:35:08.038Z</time>
      </trkpt>
      <trkpt lat="47.94852" lon="-4.24027">
        <ele>80.18</ele>
        <time>2026-05-02T18:35:12.764Z</time>
      </trkpt>
      <trkpt lat="47.94839" lon="-4.24041">
        <ele>79.94</ele>
        <time>2026-05-02T18:35:15.162Z</time>
      </trkpt>
      <trkpt lat="47.94852" lon="-4.24027">
        <ele>79.71</ele>
        <time>2026-05-02T18:35:17.573Z</time>
      </trkpt>
      <trkpt lat="47.94867" lon="-4.24045">
        <ele>79.41</ele>
        <time>2026-05-02T18:35:20.438Z</time>
      </trkpt>
      <trkpt lat="47.94882" lon="-4.24064">
        <ele>79.1</ele>
        <time>2026-05-02T18:35:23.361Z</time>
      </trkpt>
      <trkpt lat="47.94906" lon="-4.24083">
        <ele>78.76</ele>
        <time>2026-05-02T18:35:27.513Z</time>
      </trkpt>
      <trkpt lat="47.94936" lon="-4.24089">
        <ele>78.45</ele>
        <time>2026-05-02T18:35:32.233Z</time>
      </trkpt>
      <trkpt lat="47.94966" lon="-4.24094">
        <ele>78.1</ele>
        <time>2026-05-02T18:35:36.885Z</time>
      </trkpt>
      <trkpt lat="47.94996" lon="-4.241">
        <ele>77.72</ele>
        <time>2026-05-02T18:35:41.509Z</time>
      </trkpt>
      <trkpt lat="47.95" lon="-4.24068">
        <ele>77.53</ele>
        <time>2026-05-02T18:35:44.956Z</time>
      </trkpt>
      <trkpt lat="47.95004" lon="-4.24036">
        <ele>77.32</ele>
        <time>2026-05-02T18:35:48.375Z</time>
      </trkpt>
      <trkpt lat="47.95011" lon="-4.24004">
        <ele>77.1</ele>
        <time>2026-05-02T18:35:51.906Z</time>
      </trkpt>
      <trkpt lat="47.95017" lon="-4.23971">
        <ele>76.9</ele>
        <time>2026-05-02T18:35:55.526Z</time>
      </trkpt>
      <trkpt lat="47.95031" lon="-4.23938">
        <ele>76.73</ele>
        <time>2026-05-02T18:35:59.746Z</time>
      </trkpt>
      <trkpt lat="47.95045" lon="-4.23905">
        <ele>76.59</ele>
        <time>2026-05-02T18:36:04.010Z</time>
      </trkpt>
      <trkpt lat="47.9506" lon="-4.23878">
        <ele>76.52</ele>
        <time>2026-05-02T18:36:07.925Z</time>
      </trkpt>
      <trkpt lat="47.95075" lon="-4.23851">
        <ele>76.48</ele>
        <time>2026-05-02T18:36:11.886Z</time>
      </trkpt>
      <trkpt lat="47.9509" lon="-4.2383">
        <ele>76.5</ele>
        <time>2026-05-02T18:36:15.442Z</time>
      </trkpt>
      <trkpt lat="47.95116" lon="-4.23805">
        <ele>76.59</ele>
        <time>2026-05-02T18:36:20.891Z</time>
      </trkpt>
      <trkpt lat="47.95142" lon="-4.2378">
        <ele>76.7</ele>
        <time>2026-05-02T18:36:26.375Z</time>
      </trkpt>
      <trkpt lat="47.95164" lon="-4.23762">
        <ele>76.83</ele>
        <time>2026-05-02T18:36:30.894Z</time>
      </trkpt>
      <trkpt lat="47.95187" lon="-4.23744">
        <ele>77.03</ele>
        <time>2026-05-02T18:36:35.690Z</time>
      </trkpt>
      <trkpt lat="47.95212" lon="-4.23726">
        <ele>77.27</ele>
        <time>2026-05-02T18:36:40.866Z</time>
      </trkpt>
      <trkpt lat="47.95237" lon="-4.23709">
        <ele>77.55</ele>
        <time>2026-05-02T18:36:46.069Z</time>
      </trkpt>
      <trkpt lat="47.95262" lon="-4.23691">
        <ele>77.84</ele>
        <time>2026-05-02T18:36:51.339Z</time>
      </trkpt>
      <trkpt lat="47.95288" lon="-4.23673">
        <ele>78.19</ele>
        <time>2026-05-02T18:36:56.880Z</time>
      </trkpt>
      <trkpt lat="47.95312" lon="-4.23648">
        <ele>78.63</ele>
        <time>2026-05-02T18:37:02.707Z</time>
      </trkpt>
      <trkpt lat="47.95337" lon="-4.23624">
        <ele>79.07</ele>
        <time>2026-05-02T18:37:08.610Z</time>
      </trkpt>
      <trkpt lat="47.95358" lon="-4.23596">
        <ele>79.52</ele>
        <time>2026-05-02T18:37:14.271Z</time>
      </trkpt>
      <trkpt lat="47.95368" lon="-4.23567">
        <ele>79.95</ele>
        <time>2026-05-02T18:37:18.841Z</time>
      </trkpt>
      <trkpt lat="47.95378" lon="-4.23539">
        <ele>80.34</ele>
        <time>2026-05-02T18:37:23.223Z</time>
      </trkpt>
      <trkpt lat="47.95388" lon="-4.2351">
        <ele>80.74</ele>
        <time>2026-05-02T18:37:27.726Z</time>
      </trkpt>
      <trkpt lat="47.95392" lon="-4.23485">
        <ele>81.14</ele>
        <time>2026-05-02T18:37:31.469Z</time>
      </trkpt>
      <trkpt lat="47.95395" lon="-4.23461">
        <ele>81.52</ele>
        <time>2026-05-02T18:37:35.024Z</time>
      </trkpt>
      <trkpt lat="47.95397" lon="-4.2342">
        <ele>81.96</ele>
        <time>2026-05-02T18:37:40.560Z</time>
      </trkpt>
      <trkpt lat="47.95399" lon="-4.23379">
        <ele>82.39</ele>
        <time>2026-05-02T18:37:46.075Z</time>
      </trkpt>
      <trkpt lat="47.95406" lon="-4.23336">
        <ele>82.86</ele>
        <time>2026-05-02T18:37:52.027Z</time>
      </trkpt>
      <trkpt lat="47.95412" lon="-4.23293">
        <ele>83.26</ele>
        <time>2026-05-02T18:37:57.797Z</time>
      </trkpt>
      <trkpt lat="47.95414" lon="-4.2326">
        <ele>83.67</ele>
        <time>2026-05-02T18:38:02.379Z</time>
      </trkpt>
      <trkpt lat="47.95416" lon="-4.23227">
        <ele>84.04</ele>
        <time>2026-05-02T18:38:06.874Z</time>
      </trkpt>
      <trkpt lat="47.95414" lon="-4.23185">
        <ele>84.34</ele>
        <time>2026-05-02T18:38:12.239Z</time>
      </trkpt>
      <trkpt lat="47.95412" lon="-4.23144">
        <ele>84.6</ele>
        <time>2026-05-02T18:38:17.414Z</time>
      </trkpt>
      <trkpt lat="47.9541" lon="-4.23103">
        <ele>84.91</ele>
        <time>2026-05-02T18:38:22.686Z</time>
      </trkpt>
      <trkpt lat="47.95408" lon="-4.23062">
        <ele>85.12</ele>
        <time>2026-05-02T18:38:27.767Z</time>
      </trkpt>
      <trkpt lat="47.95412" lon="-4.2302">
        <ele>85.24</ele>
        <time>2026-05-02T18:38:32.838Z</time>
      </trkpt>
      <trkpt lat="47.95416" lon="-4.22979">
        <ele>85.33</ele>
        <time>2026-05-02T18:38:37.743Z</time>
      </trkpt>
      <trkpt lat="47.95421" lon="-4.22938">
        <ele>85.48</ele>
        <time>2026-05-02T18:38:42.781Z</time>
      </trkpt>
      <trkpt lat="47.95425" lon="-4.22896">
        <ele>85.6</ele>
        <time>2026-05-02T18:38:47.851Z</time>
      </trkpt>
      <trkpt lat="47.95429" lon="-4.22856">
        <ele>85.7</ele>
        <time>2026-05-02T18:38:52.660Z</time>
      </trkpt>
      <trkpt lat="47.95429" lon="-4.22821">
        <ele>85.72</ele>
        <time>2026-05-02T18:38:56.709Z</time>
      </trkpt>
      <trkpt lat="47.95429" lon="-4.22787">
        <ele>85.82</ele>
        <time>2026-05-02T18:39:00.780Z</time>
      </trkpt>
      <trkpt lat="47.95426" lon="-4.22754">
        <ele>85.89</ele>
        <time>2026-05-02T18:39:04.718Z</time>
      </trkpt>
      <trkpt lat="47.95423" lon="-4.2272">
        <ele>85.89</ele>
        <time>2026-05-02T18:39:08.654Z</time>
      </trkpt>
      <trkpt lat="47.95418" lon="-4.22675">
        <ele>85.81</ele>
        <time>2026-05-02T18:39:13.761Z</time>
      </trkpt>
      <trkpt lat="47.95414" lon="-4.2263">
        <ele>85.73</ele>
        <time>2026-05-02T18:39:18.842Z</time>
      </trkpt>
      <trkpt lat="47.9541" lon="-4.22585">
        <ele>85.66</ele>
        <time>2026-05-02T18:39:23.939Z</time>
      </trkpt>
      <trkpt lat="47.9541" lon="-4.22555">
        <ele>85.58</ele>
        <time>2026-05-02T18:39:27.256Z</time>
      </trkpt>
      <trkpt lat="47.9541" lon="-4.22525">
        <ele>85.49</ele>
        <time>2026-05-02T18:39:30.557Z</time>
      </trkpt>
      <trkpt lat="47.95412" lon="-4.22482">
        <ele>85.34</ele>
        <time>2026-05-02T18:39:35.269Z</time>
      </trkpt>
      <trkpt lat="47.95416" lon="-4.22444">
        <ele>85.2</ele>
        <time>2026-05-02T18:39:39.464Z</time>
      </trkpt>
      <trkpt lat="47.95424" lon="-4.22403">
        <ele>85.03</ele>
        <time>2026-05-02T18:39:44.101Z</time>
      </trkpt>
      <trkpt lat="47.95432" lon="-4.22362">
        <ele>84.8</ele>
        <time>2026-05-02T18:39:48.649Z</time>
      </trkpt>
      <trkpt lat="47.9544" lon="-4.22321">
        <ele>84.55</ele>
        <time>2026-05-02T18:39:53.170Z</time>
      </trkpt>
      <trkpt lat="47.95448" lon="-4.2228">
        <ele>84.34</ele>
        <time>2026-05-02T18:39:57.747Z</time>
      </trkpt>
      <trkpt lat="47.95456" lon="-4.22239">
        <ele>84.1</ele>
        <time>2026-05-02T18:40:02.282Z</time>
      </trkpt>
      <trkpt lat="47.95464" lon="-4.22199">
        <ele>83.95</ele>
        <time>2026-05-02T18:40:06.838Z</time>
      </trkpt>
      <trkpt lat="47.95472" lon="-4.22154">
        <ele>83.72</ele>
        <time>2026-05-02T18:40:11.827Z</time>
      </trkpt>
      <trkpt lat="47.95481" lon="-4.22109">
        <ele>83.47</ele>
        <time>2026-05-02T18:40:16.834Z</time>
      </trkpt>
      <trkpt lat="47.95489" lon="-4.22063">
        <ele>83.24</ele>
        <time>2026-05-02T18:40:21.933Z</time>
      </trkpt>
      <trkpt lat="47.95498" lon="-4.22018">
        <ele>83</ele>
        <time>2026-05-02T18:40:26.954Z</time>
      </trkpt>
      <trkpt lat="47.95507" lon="-4.21973">
        <ele>82.75</ele>
        <time>2026-05-02T18:40:31.961Z</time>
      </trkpt>
      <trkpt lat="47.95515" lon="-4.21929">
        <ele>82.42</ele>
        <time>2026-05-02T18:40:36.699Z</time>
      </trkpt>
      <trkpt lat="47.95515" lon="-4.21929">
        <ele>82.12</ele>
        <time>2026-05-02T18:40:36.699Z</time>
      </trkpt>
      <trkpt lat="47.95524" lon="-4.21884">
        <ele>81.72</ele>
        <time>2026-05-02T18:40:41.498Z</time>
      </trkpt>
      <trkpt lat="47.95532" lon="-4.2184">
        <ele>81.33</ele>
        <time>2026-05-02T18:40:46.154Z</time>
      </trkpt>
      <trkpt lat="47.95541" lon="-4.21796">
        <ele>80.92</ele>
        <time>2026-05-02T18:40:50.831Z</time>
      </trkpt>
      <trkpt lat="47.95549" lon="-4.21751">
        <ele>80.57</ele>
        <time>2026-05-02T18:40:55.651Z</time>
      </trkpt>
      <trkpt lat="47.95558" lon="-4.21708">
        <ele>80.31</ele>
        <time>2026-05-02T18:41:00.425Z</time>
      </trkpt>
      <trkpt lat="47.95568" lon="-4.21679">
        <ele>80.06</ele>
        <time>2026-05-02T18:41:03.796Z</time>
      </trkpt>
      <trkpt lat="47.95577" lon="-4.2165">
        <ele>79.79</ele>
        <time>2026-05-02T18:41:07.064Z</time>
      </trkpt>
      <trkpt lat="47.95593" lon="-4.21627">
        <ele>79.53</ele>
        <time>2026-05-02T18:41:10.483Z</time>
      </trkpt>
      <trkpt lat="47.95609" lon="-4.21605">
        <ele>79.37</ele>
        <time>2026-05-02T18:41:13.964Z</time>
      </trkpt>
      <trkpt lat="47.95628" lon="-4.21586">
        <ele>79.21</ele>
        <time>2026-05-02T18:41:17.636Z</time>
      </trkpt>
      <trkpt lat="47.95646" lon="-4.21568">
        <ele>79.04</ele>
        <time>2026-05-02T18:41:21.087Z</time>
      </trkpt>
      <trkpt lat="47.95672" lon="-4.21555">
        <ele>78.89</ele>
        <time>2026-05-02T18:41:25.551Z</time>
      </trkpt>
      <trkpt lat="47.95699" lon="-4.21542">
        <ele>78.8</ele>
        <time>2026-05-02T18:41:30.269Z</time>
      </trkpt>
      <trkpt lat="47.95725" lon="-4.2153">
        <ele>78.74</ele>
        <time>2026-05-02T18:41:34.836Z</time>
      </trkpt>
      <trkpt lat="47.95745" lon="-4.21503">
        <ele>78.68</ele>
        <time>2026-05-02T18:41:39.360Z</time>
      </trkpt>
      <trkpt lat="47.95764" lon="-4.21477">
        <ele>78.69</ele>
        <time>2026-05-02T18:41:43.792Z</time>
      </trkpt>
      <trkpt lat="47.95783" lon="-4.2145">
        <ele>78.83</ele>
        <time>2026-05-02T18:41:48.524Z</time>
      </trkpt>
      <trkpt lat="47.95796" lon="-4.21422">
        <ele>79.01</ele>
        <time>2026-05-02T18:41:52.747Z</time>
      </trkpt>
      <trkpt lat="47.95809" lon="-4.21394">
        <ele>79.12</ele>
        <time>2026-05-02T18:41:56.842Z</time>
      </trkpt>
      <trkpt lat="47.9582" lon="-4.21363">
        <ele>79.17</ele>
        <time>2026-05-02T18:42:00.951Z</time>
      </trkpt>
      <trkpt lat="47.9583" lon="-4.21332">
        <ele>79.18</ele>
        <time>2026-05-02T18:42:04.916Z</time>
      </trkpt>
      <trkpt lat="47.95846" lon="-4.21301">
        <ele>79.23</ele>
        <time>2026-05-02T18:42:09.489Z</time>
      </trkpt>
      <trkpt lat="47.95861" lon="-4.2127">
        <ele>79.31</ele>
        <time>2026-05-02T18:42:14.011Z</time>
      </trkpt>
      <trkpt lat="47.95877" lon="-4.21236">
        <ele>79.34</ele>
        <time>2026-05-02T18:42:18.829Z</time>
      </trkpt>
      <trkpt lat="47.95894" lon="-4.21203">
        <ele>79.41</ele>
        <time>2026-05-02T18:42:23.723Z</time>
      </trkpt>
      <trkpt lat="47.9591" lon="-4.21169">
        <ele>79.41</ele>
        <time>2026-05-02T18:42:28.491Z</time>
      </trkpt>
      <trkpt lat="47.95927" lon="-4.21136">
        <ele>79.45</ele>
        <time>2026-05-02T18:42:33.334Z</time>
      </trkpt>
      <trkpt lat="47.95945" lon="-4.211">
        <ele>79.44</ele>
        <time>2026-05-02T18:42:38.473Z</time>
      </trkpt>
      <trkpt lat="47.95962" lon="-4.21065">
        <ele>79.45</ele>
        <time>2026-05-02T18:42:43.451Z</time>
      </trkpt>
      <trkpt lat="47.9598" lon="-4.21029">
        <ele>79.5</ele>
        <time>2026-05-02T18:42:48.688Z</time>
      </trkpt>
      <trkpt lat="47.95998" lon="-4.20993">
        <ele>79.45</ele>
        <time>2026-05-02T18:42:53.763Z</time>
      </trkpt>
      <trkpt lat="47.96004" lon="-4.20978">
        <ele>79.43</ele>
        <time>2026-05-02T18:42:55.736Z</time>
      </trkpt>
      <trkpt lat="47.96004" lon="-4.20978">
        <ele>79.49</ele>
        <time>2026-05-02T18:42:55.736Z</time>
      </trkpt>
      <trkpt lat="47.96022" lon="-4.20943">
        <ele>79.4</ele>
        <time>2026-05-02T18:43:00.656Z</time>
      </trkpt>
      <trkpt lat="47.96039" lon="-4.20908">
        <ele>79.44</ele>
        <time>2026-05-02T18:43:05.683Z</time>
      </trkpt>
      <trkpt lat="47.96057" lon="-4.20873">
        <ele>79.62</ele>
        <time>2026-05-02T18:43:11.055Z</time>
      </trkpt>
      <trkpt lat="47.96075" lon="-4.20838">
        <ele>79.85</ele>
        <time>2026-05-02T18:43:16.518Z</time>
      </trkpt>
      <trkpt lat="47.96092" lon="-4.20803">
        <ele>80.03</ele>
        <time>2026-05-02T18:43:21.787Z</time>
      </trkpt>
      <trkpt lat="47.96109" lon="-4.20768">
        <ele>80.15</ele>
        <time>2026-05-02T18:43:26.950Z</time>
      </trkpt>
      <trkpt lat="47.96119" lon="-4.20748">
        <ele>80.22</ele>
        <time>2026-05-02T18:43:29.932Z</time>
      </trkpt>
      <trkpt lat="47.96129" lon="-4.20729">
        <ele>80.23</ele>
        <time>2026-05-02T18:43:32.722Z</time>
      </trkpt>
      <trkpt lat="47.96139" lon="-4.207">
        <ele>80.19</ele>
        <time>2026-05-02T18:43:36.400Z</time>
      </trkpt>
      <trkpt lat="47.96149" lon="-4.2067">
        <ele>80.12</ele>
        <time>2026-05-02T18:43:40.134Z</time>
      </trkpt>
      <trkpt lat="47.96159" lon="-4.20641">
        <ele>80</ele>
        <time>2026-05-02T18:43:43.689Z</time>
      </trkpt>
      <trkpt lat="47.96168" lon="-4.20599">
        <ele>79.82</ele>
        <time>2026-05-02T18:43:48.470Z</time>
      </trkpt>
      <trkpt lat="47.96178" lon="-4.20557">
        <ele>79.73</ele>
        <time>2026-05-02T18:43:53.441Z</time>
      </trkpt>
      <trkpt lat="47.96185" lon="-4.20525">
        <ele>79.63</ele>
        <time>2026-05-02T18:43:57.146Z</time>
      </trkpt>
      <trkpt lat="47.96191" lon="-4.20493">
        <ele>79.5</ele>
        <time>2026-05-02T18:44:00.757Z</time>
      </trkpt>
      <trkpt lat="47.96196" lon="-4.20448">
        <ele>79.18</ele>
        <time>2026-05-02T18:44:05.510Z</time>
      </trkpt>
      <trkpt lat="47.96201" lon="-4.20403">
        <ele>78.83</ele>
        <time>2026-05-02T18:44:10.222Z</time>
      </trkpt>
      <trkpt lat="47.96206" lon="-4.20359">
        <ele>78.45</ele>
        <time>2026-05-02T18:44:14.782Z</time>
      </trkpt>
      <trkpt lat="47.96211" lon="-4.20314">
        <ele>78.04</ele>
        <time>2026-05-02T18:44:19.414Z</time>
      </trkpt>
      <trkpt lat="47.96216" lon="-4.20269">
        <ele>77.68</ele>
        <time>2026-05-02T18:44:24.113Z</time>
      </trkpt>
      <trkpt lat="47.96221" lon="-4.20225">
        <ele>77.23</ele>
        <time>2026-05-02T18:44:28.581Z</time>
      </trkpt>
      <trkpt lat="47.96221" lon="-4.20225">
        <ele>76.78</ele>
        <time>2026-05-02T18:44:28.581Z</time>
      </trkpt>
      <trkpt lat="47.96223" lon="-4.20206">
        <ele>76.28</ele>
        <time>2026-05-02T18:44:30.175Z</time>
      </trkpt>
      <trkpt lat="47.96229" lon="-4.2016">
        <ele>75.72</ele>
        <time>2026-05-02T18:44:34.756Z</time>
      </trkpt>
      <trkpt lat="47.96234" lon="-4.20115">
        <ele>75.14</ele>
        <time>2026-05-02T18:44:39.173Z</time>
      </trkpt>
      <trkpt lat="47.96236" lon="-4.2008">
        <ele>74.55</ele>
        <time>2026-05-02T18:44:42.408Z</time>
      </trkpt>
      <trkpt lat="47.96238" lon="-4.20045">
        <ele>73.92</ele>
        <time>2026-05-02T18:44:45.600Z</time>
      </trkpt>
      <trkpt lat="47.96238" lon="-4.20002">
        <ele>73.38</ele>
        <time>2026-05-02T18:44:49.771Z</time>
      </trkpt>
      <trkpt lat="47.96238" lon="-4.19959">
        <ele>72.88</ele>
        <time>2026-05-02T18:44:53.992Z</time>
      </trkpt>
      <trkpt lat="47.96236" lon="-4.19918">
        <ele>72.5</ele>
        <time>2026-05-02T18:44:58.153Z</time>
      </trkpt>
      <trkpt lat="47.96234" lon="-4.19877">
        <ele>72.18</ele>
        <time>2026-05-02T18:45:02.393Z</time>
      </trkpt>
      <trkpt lat="47.9623" lon="-4.19834">
        <ele>71.86</ele>
        <time>2026-05-02T18:45:06.896Z</time>
      </trkpt>
      <trkpt lat="47.96226" lon="-4.19791">
        <ele>71.58</ele>
        <time>2026-05-02T18:45:11.454Z</time>
      </trkpt>
      <trkpt lat="47.96223" lon="-4.19748">
        <ele>71.47</ele>
        <time>2026-05-02T18:45:16.240Z</time>
      </trkpt>
      <trkpt lat="47.96219" lon="-4.19706">
        <ele>71.44</ele>
        <time>2026-05-02T18:45:21.059Z</time>
      </trkpt>
      <trkpt lat="47.96218" lon="-4.1967">
        <ele>71.46</ele>
        <time>2026-05-02T18:45:25.226Z</time>
      </trkpt>
      <trkpt lat="47.96217" lon="-4.19635">
        <ele>71.45</ele>
        <time>2026-05-02T18:45:29.229Z</time>
      </trkpt>
      <trkpt lat="47.96217" lon="-4.19596">
        <ele>71.55</ele>
        <time>2026-05-02T18:45:33.872Z</time>
      </trkpt>
      <trkpt lat="47.96222" lon="-4.19552">
        <ele>71.65</ele>
        <time>2026-05-02T18:45:39.160Z</time>
      </trkpt>
      <trkpt lat="47.96227" lon="-4.19508">
        <ele>71.81</ele>
        <time>2026-05-02T18:45:44.553Z</time>
      </trkpt>
      <trkpt lat="47.96233" lon="-4.19464">
        <ele>71.98</ele>
        <time>2026-05-02T18:45:49.995Z</time>
      </trkpt>
      <trkpt lat="47.96238" lon="-4.1942">
        <ele>71.91</ele>
        <time>2026-05-02T18:45:55.004Z</time>
      </trkpt>
      <trkpt lat="47.96244" lon="-4.19378">
        <ele>71.87</ele>
        <time>2026-05-02T18:45:59.867Z</time>
      </trkpt>
      <trkpt lat="47.96249" lon="-4.19335">
        <ele>72.04</ele>
        <time>2026-05-02T18:46:05.164Z</time>
      </trkpt>
      <trkpt lat="47.96254" lon="-4.19292">
        <ele>72.28</ele>
        <time>2026-05-02T18:46:10.590Z</time>
      </trkpt>
      <trkpt lat="47.9626" lon="-4.1925">
        <ele>72.51</ele>
        <time>2026-05-02T18:46:15.917Z</time>
      </trkpt>
      <trkpt lat="47.96265" lon="-4.19207">
        <ele>72.75</ele>
        <time>2026-05-02T18:46:21.343Z</time>
      </trkpt>
      <trkpt lat="47.9627" lon="-4.19165">
        <ele>72.97</ele>
        <time>2026-05-02T18:46:26.619Z</time>
      </trkpt>
      <trkpt lat="47.9627" lon="-4.19165">
        <ele>73.16</ele>
        <time>2026-05-02T18:46:26.619Z</time>
      </trkpt>
      <trkpt lat="47.96277" lon="-4.19126">
        <ele>73.28</ele>
        <time>2026-05-02T18:46:31.454Z</time>
      </trkpt>
      <trkpt lat="47.96283" lon="-4.19088">
        <ele>73.4</ele>
        <time>2026-05-02T18:46:36.137Z</time>
      </trkpt>
      <trkpt lat="47.96294" lon="-4.19045">
        <ele>73.57</ele>
        <time>2026-05-02T18:46:41.708Z</time>
      </trkpt>
      <trkpt lat="47.96309" lon="-4.19006">
        <ele>73.84</ele>
        <time>2026-05-02T18:46:47.342Z</time>
      </trkpt>
      <trkpt lat="47.96325" lon="-4.18968">
        <ele>74.07</ele>
        <time>2026-05-02T18:46:52.891Z</time>
      </trkpt>
      <trkpt lat="47.9634" lon="-4.1893">
        <ele>74.24</ele>
        <time>2026-05-02T18:46:58.242Z</time>
      </trkpt>
      <trkpt lat="47.96356" lon="-4.18892">
        <ele>74.44</ele>
        <time>2026-05-02T18:47:03.736Z</time>
      </trkpt>
      <trkpt lat="47.96371" lon="-4.18854">
        <ele>74.69</ele>
        <time>2026-05-02T18:47:09.234Z</time>
      </trkpt>
      <trkpt lat="47.96378" lon="-4.18834">
        <ele>74.91</ele>
        <time>2026-05-02T18:47:12.227Z</time>
      </trkpt>
      <trkpt lat="47.96389" lon="-4.18807">
        <ele>75.14</ele>
        <time>2026-05-02T18:47:16.263Z</time>
      </trkpt>
      <trkpt lat="47.96401" lon="-4.1878">
        <ele>75.36</ele>
        <time>2026-05-02T18:47:20.371Z</time>
      </trkpt>
      <trkpt lat="47.96412" lon="-4.18753">
        <ele>75.56</ele>
        <time>2026-05-02T18:47:24.349Z</time>
      </trkpt>
      <trkpt lat="47.9643" lon="-4.1872">
        <ele>75.72</ele>
        <time>2026-05-02T18:47:29.505Z</time>
      </trkpt>
      <trkpt lat="47.96448" lon="-4.18686">
        <ele>75.94</ele>
        <time>2026-05-02T18:47:34.859Z</time>
      </trkpt>
      <trkpt lat="47.96462" lon="-4.18669">
        <ele>76.15</ele>
        <time>2026-05-02T18:47:38.328Z</time>
      </trkpt>
      <trkpt lat="47.96476" lon="-4.18652">
        <ele>76.36</ele>
        <time>2026-05-02T18:47:41.796Z</time>
      </trkpt>
      <trkpt lat="47.96501" lon="-4.18627">
        <ele>76.51</ele>
        <time>2026-05-02T18:47:47.206Z</time>
      </trkpt>
      <trkpt lat="47.96525" lon="-4.18603">
        <ele>76.64</ele>
        <time>2026-05-02T18:47:52.374Z</time>
      </trkpt>
      <trkpt lat="47.9655" lon="-4.18578">
        <ele>76.79</ele>
        <time>2026-05-02T18:47:57.784Z</time>
      </trkpt>
      <trkpt lat="47.96574" lon="-4.18553">
        <ele>76.96</ele>
        <time>2026-05-02T18:48:03.088Z</time>
      </trkpt>
      <trkpt lat="47.96599" lon="-4.18529">
        <ele>77.16</ele>
        <time>2026-05-02T18:48:08.524Z</time>
      </trkpt>
      <trkpt lat="47.96623" lon="-4.18504">
        <ele>77.35</ele>
        <time>2026-05-02T18:48:13.865Z</time>
      </trkpt>
      <trkpt lat="47.96648" lon="-4.18479">
        <ele>77.61</ele>
        <time>2026-05-02T18:48:19.474Z</time>
      </trkpt>
      <trkpt lat="47.96672" lon="-4.18455">
        <ele>77.86</ele>
        <time>2026-05-02T18:48:24.861Z</time>
      </trkpt>
      <trkpt lat="47.96697" lon="-4.1843">
        <ele>78.07</ele>
        <time>2026-05-02T18:48:30.378Z</time>
      </trkpt>
      <trkpt lat="47.96721" lon="-4.18405">
        <ele>78.23</ele>
        <time>2026-05-02T18:48:35.664Z</time>
      </trkpt>
      <trkpt lat="47.9673" lon="-4.18397">
        <ele>78.33</ele>
        <time>2026-05-02T18:48:37.635Z</time>
      </trkpt>
      <trkpt lat="47.96744" lon="-4.18382">
        <ele>78.42</ele>
        <time>2026-05-02T18:48:40.740Z</time>
      </trkpt>
      <trkpt lat="47.96765" lon="-4.18362">
        <ele>78.46</ele>
        <time>2026-05-02T18:48:45.074Z</time>
      </trkpt>
      <trkpt lat="47.96785" lon="-4.18341">
        <ele>78.47</ele>
        <time>2026-05-02T18:48:49.279Z</time>
      </trkpt>
      <trkpt lat="47.96805" lon="-4.18313">
        <ele>78.47</ele>
        <time>2026-05-02T18:48:53.976Z</time>
      </trkpt>
      <trkpt lat="47.9682" lon="-4.18281">
        <ele>78.43</ele>
        <time>2026-05-02T18:48:58.393Z</time>
      </trkpt>
      <trkpt lat="47.96826" lon="-4.18249">
        <ele>78.45</ele>
        <time>2026-05-02T18:49:02.238Z</time>
      </trkpt>
      <trkpt lat="47.9683" lon="-4.18221">
        <ele>78.51</ele>
        <time>2026-05-02T18:49:05.623Z</time>
      </trkpt>
      <trkpt lat="47.96824" lon="-4.1818">
        <ele>78.58</ele>
        <time>2026-05-02T18:49:10.554Z</time>
      </trkpt>
      <trkpt lat="47.96813" lon="-4.18165">
        <ele>78.67</ele>
        <time>2026-05-02T18:49:13.260Z</time>
      </trkpt>
      <trkpt lat="47.96813" lon="-4.18144">
        <ele>78.72</ele>
        <time>2026-05-02T18:49:15.753Z</time>
      </trkpt>
      <trkpt lat="47.96822" lon="-4.18126">
        <ele>78.82</ele>
        <time>2026-05-02T18:49:18.503Z</time>
      </trkpt>
      <trkpt lat="47.96839" lon="-4.18126">
        <ele>78.97</ele>
        <time>2026-05-02T18:49:21.678Z</time>
      </trkpt>
      <trkpt lat="47.96845" lon="-4.18133">
        <ele>79.07</ele>
        <time>2026-05-02T18:49:23.164Z</time>
      </trkpt>
      <trkpt lat="47.96852" lon="-4.18148">
        <ele>79.16</ele>
        <time>2026-05-02T18:49:25.418Z</time>
      </trkpt>
      <trkpt lat="47.96852" lon="-4.18159">
        <ele>79.24</ele>
        <time>2026-05-02T18:49:26.822Z</time>
      </trkpt>
      <trkpt lat="47.96858" lon="-4.18174">
        <ele>79.34</ele>
        <time>2026-05-02T18:49:29.001Z</time>
      </trkpt>
      <trkpt lat="47.96875" lon="-4.18193">
        <ele>79.45</ele>
        <time>2026-05-02T18:49:32.827Z</time>
      </trkpt>
      <trkpt lat="47.96893" lon="-4.18212">
        <ele>79.58</ele>
        <time>2026-05-02T18:49:36.825Z</time>
      </trkpt>
      <trkpt lat="47.96916" lon="-4.18237">
        <ele>79.76</ele>
        <time>2026-05-02T18:49:42.008Z</time>
      </trkpt>
      <trkpt lat="47.9694" lon="-4.18262">
        <ele>80.03</ele>
        <time>2026-05-02T18:49:47.496Z</time>
      </trkpt>
      <trkpt lat="47.96963" lon="-4.18286">
        <ele>80.37</ele>
        <time>2026-05-02T18:49:52.916Z</time>
      </trkpt>
      <trkpt lat="47.96987" lon="-4.18311">
        <ele>80.63</ele>
        <time>2026-05-02T18:49:58.385Z</time>
      </trkpt>
      <trkpt lat="47.97013" lon="-4.18334">
        <ele>80.79</ele>
        <time>2026-05-02T18:50:03.835Z</time>
      </trkpt>
      <trkpt lat="47.97039" lon="-4.18358">
        <ele>80.99</ele>
        <time>2026-05-02T18:50:09.416Z</time>
      </trkpt>
      <trkpt lat="47.97064" lon="-4.18382">
        <ele>81.25</ele>
        <time>2026-05-02T18:50:14.963Z</time>
      </trkpt>
      <trkpt lat="47.97083" lon="-4.18402">
        <ele>81.51</ele>
        <time>2026-05-02T18:50:19.410Z</time>
      </trkpt>
      <trkpt lat="47.97102" lon="-4.18423">
        <ele>81.81</ele>
        <time>2026-05-02T18:50:24.003Z</time>
      </trkpt>
      <trkpt lat="47.9712" lon="-4.18444">
        <ele>82.08</ele>
        <time>2026-05-02T18:50:28.401Z</time>
      </trkpt>
      <trkpt lat="47.97133" lon="-4.1846">
        <ele>82.42</ele>
        <time>2026-05-02T18:50:31.944Z</time>
      </trkpt>
      <trkpt lat="47.97146" lon="-4.18476">
        <ele>82.68</ele>
        <time>2026-05-02T18:50:35.312Z</time>
      </trkpt>
      <trkpt lat="47.97162" lon="-4.185">
        <ele>83.01</ele>
        <time>2026-05-02T18:50:39.804Z</time>
      </trkpt>
      <trkpt lat="47.97178" lon="-4.18523">
        <ele>83.35</ele>
        <time>2026-05-02T18:50:44.238Z</time>
      </trkpt>
      <trkpt lat="47.97195" lon="-4.18557">
        <ele>83.67</ele>
        <time>2026-05-02T18:50:49.678Z</time>
      </trkpt>
      <trkpt lat="47.97212" lon="-4.18591">
        <ele>83.94</ele>
        <time>2026-05-02T18:50:55.021Z</time>
      </trkpt>
      <trkpt lat="47.9723" lon="-4.18624">
        <ele>84.14</ele>
        <time>2026-05-02T18:51:00.249Z</time>
      </trkpt>
      <trkpt lat="47.97245" lon="-4.18657">
        <ele>84.26</ele>
        <time>2026-05-02T18:51:05.027Z</time>
      </trkpt>
      <trkpt lat="47.9726" lon="-4.1869">
        <ele>84.45</ele>
        <time>2026-05-02T18:51:09.931Z</time>
      </trkpt>
      <trkpt lat="47.97275" lon="-4.18723">
        <ele>84.69</ele>
        <time>2026-05-02T18:51:14.928Z</time>
      </trkpt>
      <trkpt lat="47.9729" lon="-4.18751">
        <ele>84.88</ele>
        <time>2026-05-02T18:51:19.371Z</time>
      </trkpt>
      <trkpt lat="47.97305" lon="-4.18779">
        <ele>85.06</ele>
        <time>2026-05-02T18:51:23.797Z</time>
      </trkpt>
      <trkpt lat="47.97316" lon="-4.18795">
        <ele>85.2</ele>
        <time>2026-05-02T18:51:26.674Z</time>
      </trkpt>
      <trkpt lat="47.97328" lon="-4.18811">
        <ele>85.3</ele>
        <time>2026-05-02T18:51:29.601Z</time>
      </trkpt>
      <trkpt lat="47.97342" lon="-4.18826">
        <ele>85.36</ele>
        <time>2026-05-02T18:51:32.654Z</time>
      </trkpt>
      <trkpt lat="47.97356" lon="-4.18841">
        <ele>85.41</ele>
        <time>2026-05-02T18:51:35.689Z</time>
      </trkpt>
      <trkpt lat="47.97374" lon="-4.18856">
        <ele>85.43</ele>
        <time>2026-05-02T18:51:39.254Z</time>
      </trkpt>
      <trkpt lat="47.97393" lon="-4.18871">
        <ele>85.45</ele>
        <time>2026-05-02T18:51:42.969Z</time>
      </trkpt>
      <trkpt lat="47.97413" lon="-4.1888">
        <ele>85.38</ele>
        <time>2026-05-02T18:51:46.437Z</time>
      </trkpt>
      <trkpt lat="47.97433" lon="-4.18888">
        <ele>85.33</ele>
        <time>2026-05-02T18:51:49.905Z</time>
      </trkpt>
      <trkpt lat="47.97454" lon="-4.1889">
        <ele>85.25</ele>
        <time>2026-05-02T18:51:53.384Z</time>
      </trkpt>
      <trkpt lat="47.97474" lon="-4.18892">
        <ele>85.17</ele>
        <time>2026-05-02T18:51:56.692Z</time>
      </trkpt>
      <trkpt lat="47.97474" lon="-4.1891">
        <ele>85.15</ele>
        <time>2026-05-02T18:51:58.725Z</time>
      </trkpt>
      <trkpt lat="47.97497" lon="-4.18907">
        <ele>85.05</ele>
        <time>2026-05-02T18:52:02.523Z</time>
      </trkpt>
      <trkpt lat="47.97519" lon="-4.18905">
        <ele>84.96</ele>
        <time>2026-05-02T18:52:06.158Z</time>
      </trkpt>
      <trkpt lat="47.97548" lon="-4.18899">
        <ele>84.91</ele>
        <time>2026-05-02T18:52:11.094Z</time>
      </trkpt>
      <trkpt lat="47.97576" lon="-4.18894">
        <ele>84.83</ele>
        <time>2026-05-02T18:52:15.798Z</time>
      </trkpt>
      <trkpt lat="47.97605" lon="-4.18888">
        <ele>84.75</ele>
        <time>2026-05-02T18:52:20.687Z</time>
      </trkpt>
      <trkpt lat="47.97633" lon="-4.18882">
        <ele>84.71</ele>
        <time>2026-05-02T18:52:25.470Z</time>
      </trkpt>
      <trkpt lat="47.97662" lon="-4.18876">
        <ele>84.75</ele>
        <time>2026-05-02T18:52:30.552Z</time>
      </trkpt>
      <trkpt lat="47.9769" lon="-4.1887">
        <ele>84.85</ele>
        <time>2026-05-02T18:52:35.566Z</time>
      </trkpt>
      <trkpt lat="47.97719" lon="-4.18864">
        <ele>84.97</ele>
        <time>2026-05-02T18:52:40.785Z</time>
      </trkpt>
      <trkpt lat="47.97747" lon="-4.1886">
        <ele>85.05</ele>
        <time>2026-05-02T18:52:45.738Z</time>
      </trkpt>
      <trkpt lat="47.97775" lon="-4.18855">
        <ele>85.17</ele>
        <time>2026-05-02T18:52:50.772Z</time>
      </trkpt>
      <trkpt lat="47.97804" lon="-4.1885">
        <ele>85.37</ele>
        <time>2026-05-02T18:52:56.119Z</time>
      </trkpt>
      <trkpt lat="47.97832" lon="-4.18845">
        <ele>85.57</ele>
        <time>2026-05-02T18:53:01.296Z</time>
      </trkpt>
      <trkpt lat="47.97856" lon="-4.18841">
        <ele>85.71</ele>
        <time>2026-05-02T18:53:05.673Z</time>
      </trkpt>
      <trkpt lat="47.97863" lon="-4.18834">
        <ele>85.83</ele>
        <time>2026-05-02T18:53:07.336Z</time>
      </trkpt>
      <trkpt lat="47.97858" lon="-4.18834">
        <ele>85.99</ele>
        <time>2026-05-02T18:53:08.536Z</time>
      </trkpt>
      <trkpt lat="47.97858" lon="-4.18828">
        <ele>86.16</ele>
        <time>2026-05-02T18:53:09.627Z</time>
      </trkpt>
      <trkpt lat="47.97856" lon="-4.18819">
        <ele>86.33</ele>
        <time>2026-05-02T18:53:11.063Z</time>
      </trkpt>
      <trkpt lat="47.97882" lon="-4.18809">
        <ele>86.46</ele>
        <time>2026-05-02T18:53:15.883Z</time>
      </trkpt>
      <trkpt lat="47.97884" lon="-4.18798">
        <ele>86.64</ele>
        <time>2026-05-02T18:53:17.549Z</time>
      </trkpt>
      <trkpt lat="47.97893" lon="-4.18789">
        <ele>86.84</ele>
        <time>2026-05-02T18:53:19.785Z</time>
      </trkpt>
      <trkpt lat="47.97897" lon="-4.18745">
        <ele>86.99</ele>
        <time>2026-05-02T18:53:25.133Z</time>
      </trkpt>
      <trkpt lat="47.97901" lon="-4.18701">
        <ele>87.22</ele>
        <time>2026-05-02T18:53:30.625Z</time>
      </trkpt>
      <trkpt lat="47.97903" lon="-4.18665">
        <ele>87.49</ele>
        <time>2026-05-02T18:53:35.250Z</time>
      </trkpt>
      <trkpt lat="47.97905" lon="-4.18628">
        <ele>87.82</ele>
        <time>2026-05-02T18:53:40.108Z</time>
      </trkpt>
      <trkpt lat="47.97908" lon="-4.1862">
        <ele>88.14</ele>
        <time>2026-05-02T18:53:41.994Z</time>
      </trkpt>
      <trkpt lat="47.9791" lon="-4.1859">
        <ele>88.49</ele>
        <time>2026-05-02T18:53:46.111Z</time>
      </trkpt>
      <trkpt lat="47.97913" lon="-4.18544">
        <ele>88.83</ele>
        <time>2026-05-02T18:53:52.018Z</time>
      </trkpt>
      <trkpt lat="47.97915" lon="-4.18498">
        <ele>89.18</ele>
        <time>2026-05-02T18:53:57.931Z</time>
      </trkpt>
      <trkpt lat="47.97918" lon="-4.18453">
        <ele>89.51</ele>
        <time>2026-05-02T18:54:03.706Z</time>
      </trkpt>
      <trkpt lat="47.97923" lon="-4.18415">
        <ele>89.89</ele>
        <time>2026-05-02T18:54:08.848Z</time>
      </trkpt>
      <trkpt lat="47.97927" lon="-4.18377">
        <ele>90.25</ele>
        <time>2026-05-02T18:54:13.918Z</time>
      </trkpt>
      <trkpt lat="47.97929" lon="-4.18356">
        <ele>90.62</ele>
        <time>2026-05-02T18:54:17.104Z</time>
      </trkpt>
      <trkpt lat="47.97933" lon="-4.18339">
        <ele>90.98</ele>
        <time>2026-05-02T18:54:19.928Z</time>
      </trkpt>
      <trkpt lat="47.97943" lon="-4.18308">
        <ele>91.34</ele>
        <time>2026-05-02T18:54:24.543Z</time>
      </trkpt>
      <trkpt lat="47.97953" lon="-4.18277">
        <ele>91.66</ele>
        <time>2026-05-02T18:54:29.075Z</time>
      </trkpt>
      <trkpt lat="47.97953" lon="-4.18277">
        <ele>91.94</ele>
        <time>2026-05-02T18:54:29.075Z</time>
      </trkpt>
      <trkpt lat="47.97959" lon="-4.18262">
        <ele>92.23</ele>
        <time>2026-05-02T18:54:31.663Z</time>
      </trkpt>
      <trkpt lat="47.9797" lon="-4.18236">
        <ele>92.5</ele>
        <time>2026-05-02T18:54:35.681Z</time>
      </trkpt>
      <trkpt lat="47.97979" lon="-4.18198">
        <ele>92.79</ele>
        <time>2026-05-02T18:54:40.820Z</time>
      </trkpt>
      <trkpt lat="47.97989" lon="-4.18161">
        <ele>93.08</ele>
        <time>2026-05-02T18:54:45.913Z</time>
      </trkpt>
      <trkpt lat="47.97996" lon="-4.18128">
        <ele>93.27</ele>
        <time>2026-05-02T18:54:50.215Z</time>
      </trkpt>
      <trkpt lat="47.97998" lon="-4.1812">
        <ele>93.42</ele>
        <time>2026-05-02T18:54:51.500Z</time>
      </trkpt>
      <trkpt lat="47.98004" lon="-4.18083">
        <ele>93.53</ele>
        <time>2026-05-02T18:54:56.052Z</time>
      </trkpt>
      <trkpt lat="47.98011" lon="-4.18047">
        <ele>93.66</ele>
        <time>2026-05-02T18:55:00.573Z</time>
      </trkpt>
      <trkpt lat="47.98011" lon="-4.18047">
        <ele>93.78</ele>
        <time>2026-05-02T18:55:00.573Z</time>
      </trkpt>
      <trkpt lat="47.98014" lon="-4.1801">
        <ele>93.83</ele>
        <time>2026-05-02T18:55:04.930Z</time>
      </trkpt>
      <trkpt lat="47.98018" lon="-4.17974">
        <ele>93.91</ele>
        <time>2026-05-02T18:55:09.250Z</time>
      </trkpt>
      <trkpt lat="47.98021" lon="-4.17938">
        <ele>93.96</ele>
        <time>2026-05-02T18:55:13.494Z</time>
      </trkpt>
      <trkpt lat="47.98027" lon="-4.17911">
        <ele>94.02</ele>
        <time>2026-05-02T18:55:16.857Z</time>
      </trkpt>
      <trkpt lat="47.98032" lon="-4.17884">
        <ele>94.05</ele>
        <time>2026-05-02T18:55:20.119Z</time>
      </trkpt>
      <trkpt lat="47.9803" lon="-4.17877">
        <ele>94.1</ele>
        <time>2026-05-02T18:55:21.081Z</time>
      </trkpt>
      <trkpt lat="47.98026" lon="-4.1786">
        <ele>94.12</ele>
        <time>2026-05-02T18:55:23.180Z</time>
      </trkpt>
      <trkpt lat="47.98023" lon="-4.17854">
        <ele>94.17</ele>
        <time>2026-05-02T18:55:24.128Z</time>
      </trkpt>
      <trkpt lat="47.98013" lon="-4.17837">
        <ele>94.18</ele>
        <time>2026-05-02T18:55:26.740Z</time>
      </trkpt>
      <trkpt lat="47.97994" lon="-4.17813">
        <ele>94.23</ele>
        <time>2026-05-02T18:55:31.086Z</time>
      </trkpt>
      <trkpt lat="47.97976" lon="-4.17789">
        <ele>94.33</ele>
        <time>2026-05-02T18:55:35.389Z</time>
      </trkpt>
      <trkpt lat="47.97957" lon="-4.17766">
        <ele>94.46</ele>
        <time>2026-05-02T18:55:39.800Z</time>
      </trkpt>
      <trkpt lat="47.9794" lon="-4.17736">
        <ele>94.58</ele>
        <time>2026-05-02T18:55:44.511Z</time>
      </trkpt>
      <trkpt lat="47.97933" lon="-4.17714">
        <ele>94.69</ele>
        <time>2026-05-02T18:55:47.494Z</time>
      </trkpt>
      <trkpt lat="47.97925" lon="-4.17686">
        <ele>94.75</ele>
        <time>2026-05-02T18:55:51.086Z</time>
      </trkpt>
      <trkpt lat="47.97918" lon="-4.17648">
        <ele>94.65</ele>
        <time>2026-05-02T18:55:55.449Z</time>
      </trkpt>
      <trkpt lat="47.97917" lon="-4.17636">
        <ele>94.57</ele>
        <time>2026-05-02T18:55:56.715Z</time>
      </trkpt>
      <trkpt lat="47.97913" lon="-4.17599">
        <ele>94.43</ele>
        <time>2026-05-02T18:56:00.796Z</time>
      </trkpt>
      <trkpt lat="47.9791" lon="-4.17562">
        <ele>94.36</ele>
        <time>2026-05-02T18:56:04.959Z</time>
      </trkpt>
      <trkpt lat="47.97908" lon="-4.17528">
        <ele>94.24</ele>
        <time>2026-05-02T18:56:08.686Z</time>
      </trkpt>
      <trkpt lat="47.97908" lon="-4.17528">
        <ele>94.05</ele>
        <time>2026-05-02T18:56:08.686Z</time>
      </trkpt>
      <trkpt lat="47.97905" lon="-4.175">
        <ele>93.84</ele>
        <time>2026-05-02T18:56:11.625Z</time>
      </trkpt>
      <trkpt lat="47.97903" lon="-4.17472">
        <ele>93.58</ele>
        <time>2026-05-02T18:56:14.474Z</time>
      </trkpt>
      <trkpt lat="47.979" lon="-4.17429">
        <ele>93.24</ele>
        <time>2026-05-02T18:56:18.928Z</time>
      </trkpt>
      <trkpt lat="47.97897" lon="-4.17386">
        <ele>92.93</ele>
        <time>2026-05-02T18:56:23.422Z</time>
      </trkpt>
      <trkpt lat="47.97894" lon="-4.17358">
        <ele>92.54</ele>
        <time>2026-05-02T18:56:26.131Z</time>
      </trkpt>
      <trkpt lat="47.9789" lon="-4.1733">
        <ele>92.11</ele>
        <time>2026-05-02T18:56:28.824Z</time>
      </trkpt>
      <trkpt lat="47.97882" lon="-4.17294">
        <ele>91.53</ele>
        <time>2026-05-02T18:56:32.381Z</time>
      </trkpt>
      <trkpt lat="47.9787" lon="-4.17257">
        <ele>90.93</ele>
        <time>2026-05-02T18:56:36.269Z</time>
      </trkpt>
      <trkpt lat="47.97858" lon="-4.17221">
        <ele>90.35</ele>
        <time>2026-05-02T18:56:40.079Z</time>
      </trkpt>
      <trkpt lat="47.97852" lon="-4.17202">
        <ele>89.78</ele>
        <time>2026-05-02T18:56:41.798Z</time>
      </trkpt>
      <trkpt lat="47.97842" lon="-4.17158">
        <ele>89.21</ele>
        <time>2026-05-02T18:56:46.321Z</time>
      </trkpt>
      <trkpt lat="47.97832" lon="-4.17116">
        <ele>88.57</ele>
        <time>2026-05-02T18:56:50.549Z</time>
      </trkpt>
      <trkpt lat="47.97827" lon="-4.17075">
        <ele>87.93</ele>
        <time>2026-05-02T18:56:54.453Z</time>
      </trkpt>
      <trkpt lat="47.97821" lon="-4.17034">
        <ele>87.27</ele>
        <time>2026-05-02T18:56:58.367Z</time>
      </trkpt>
      <trkpt lat="47.97815" lon="-4.16993">
        <ele>86.61</ele>
        <time>2026-05-02T18:57:02.281Z</time>
      </trkpt>
      <trkpt lat="47.97815" lon="-4.16993">
        <ele>86</ele>
        <time>2026-05-02T18:57:02.281Z</time>
      </trkpt>
      <trkpt lat="47.97809" lon="-4.16948">
        <ele>85.31</ele>
        <time>2026-05-02T18:57:06.597Z</time>
      </trkpt>
      <trkpt lat="47.97802" lon="-4.16903">
        <ele>84.66</ele>
        <time>2026-05-02T18:57:10.994Z</time>
      </trkpt>
      <trkpt lat="47.97796" lon="-4.16858">
        <ele>83.98</ele>
        <time>2026-05-02T18:57:15.320Z</time>
      </trkpt>
      <trkpt lat="47.97787" lon="-4.16835">
        <ele>83.4</ele>
        <time>2026-05-02T18:57:17.634Z</time>
      </trkpt>
      <trkpt lat="47.97779" lon="-4.16835">
        <ele>82.82</ele>
        <time>2026-05-02T18:57:18.457Z</time>
      </trkpt>
      <trkpt lat="47.97775" lon="-4.16824">
        <ele>82.22</ele>
        <time>2026-05-02T18:57:19.318Z</time>
      </trkpt>
      <trkpt lat="47.97777" lon="-4.16815">
        <ele>81.63</ele>
        <time>2026-05-02T18:57:19.971Z</time>
      </trkpt>
      <trkpt lat="47.97783" lon="-4.16813">
        <ele>81.03</ele>
        <time>2026-05-02T18:57:20.603Z</time>
      </trkpt>
      <trkpt lat="47.97783" lon="-4.16768">
        <ele>80.47</ele>
        <time>2026-05-02T18:57:24.973Z</time>
      </trkpt>
      <trkpt lat="47.9778" lon="-4.16743">
        <ele>79.89</ele>
        <time>2026-05-02T18:57:27.153Z</time>
      </trkpt>
      <trkpt lat="47.97777" lon="-4.16719">
        <ele>79.28</ele>
        <time>2026-05-02T18:57:29.198Z</time>
      </trkpt>
      <trkpt lat="47.97771" lon="-4.16678">
        <ele>78.67</ele>
        <time>2026-05-02T18:57:33.169Z</time>
      </trkpt>
      <trkpt lat="47.97764" lon="-4.16637">
        <ele>78.11</ele>
        <time>2026-05-02T18:57:37.238Z</time>
      </trkpt>
      <trkpt lat="47.97758" lon="-4.16596">
        <ele>77.57</ele>
        <time>2026-05-02T18:57:41.293Z</time>
      </trkpt>
      <trkpt lat="47.97752" lon="-4.16555">
        <ele>77.01</ele>
        <time>2026-05-02T18:57:45.323Z</time>
      </trkpt>
      <trkpt lat="47.97746" lon="-4.16514">
        <ele>76.41</ele>
        <time>2026-05-02T18:57:49.307Z</time>
      </trkpt>
      <trkpt lat="47.9774" lon="-4.16473">
        <ele>75.86</ele>
        <time>2026-05-02T18:57:53.349Z</time>
      </trkpt>
      <trkpt lat="47.97733" lon="-4.16433">
        <ele>75.31</ele>
        <time>2026-05-02T18:57:57.322Z</time>
      </trkpt>
      <trkpt lat="47.97727" lon="-4.16393">
        <ele>74.82</ele>
        <time>2026-05-02T18:58:01.328Z</time>
      </trkpt>
      <trkpt lat="47.97728" lon="-4.16365">
        <ele>74.34</ele>
        <time>2026-05-02T18:58:03.899Z</time>
      </trkpt>
      <trkpt lat="47.97729" lon="-4.16337">
        <ele>73.88</ele>
        <time>2026-05-02T18:58:06.493Z</time>
      </trkpt>
      <trkpt lat="47.97734" lon="-4.16298">
        <ele>73.44</ele>
        <time>2026-05-02T18:58:10.417Z</time>
      </trkpt>
      <trkpt lat="47.97738" lon="-4.1626">
        <ele>73.01</ele>
        <time>2026-05-02T18:58:14.213Z</time>
      </trkpt>
      <trkpt lat="47.97745" lon="-4.16219">
        <ele>72.6</ele>
        <time>2026-05-02T18:58:18.469Z</time>
      </trkpt>
      <trkpt lat="47.97751" lon="-4.16179">
        <ele>72.21</ele>
        <time>2026-05-02T18:58:22.602Z</time>
      </trkpt>
      <trkpt lat="47.97757" lon="-4.16139">
        <ele>71.81</ele>
        <time>2026-05-02T18:58:26.722Z</time>
      </trkpt>
      <trkpt lat="47.97764" lon="-4.16099">
        <ele>71.33</ele>
        <time>2026-05-02T18:58:30.779Z</time>
      </trkpt>
      <trkpt lat="47.97767" lon="-4.16066">
        <ele>70.9</ele>
        <time>2026-05-02T18:58:33.995Z</time>
      </trkpt>
      <trkpt lat="47.97771" lon="-4.16033">
        <ele>70.52</ele>
        <time>2026-05-02T18:58:37.298Z</time>
      </trkpt>
      <trkpt lat="47.97775" lon="-4.16">
        <ele>70.17</ele>
        <time>2026-05-02T18:58:40.640Z</time>
      </trkpt>
      <trkpt lat="47.97777" lon="-4.15958">
        <ele>69.83</ele>
        <time>2026-05-02T18:58:44.965Z</time>
      </trkpt>
      <trkpt lat="47.97779" lon="-4.15916">
        <ele>69.55</ele>
        <time>2026-05-02T18:58:49.373Z</time>
      </trkpt>
      <trkpt lat="47.97754" lon="-4.15911">
        <ele>69.26</ele>
        <time>2026-05-02T18:58:53.262Z</time>
      </trkpt>
      <trkpt lat="47.97729" lon="-4.15905">
        <ele>68.96</ele>
        <time>2026-05-02T18:58:57.155Z</time>
      </trkpt>
      <trkpt lat="47.97706" lon="-4.15882">
        <ele>68.72</ele>
        <time>2026-05-02T18:59:01.533Z</time>
      </trkpt>
      <trkpt lat="47.97693" lon="-4.15853">
        <ele>68.65</ele>
        <time>2026-05-02T18:59:05.425Z</time>
      </trkpt>
      <trkpt lat="47.9768" lon="-4.15825">
        <ele>68.51</ele>
        <time>2026-05-02T18:59:09.116Z</time>
      </trkpt>
      <trkpt lat="47.97667" lon="-4.15796">
        <ele>68.4</ele>
        <time>2026-05-02T18:59:12.946Z</time>
      </trkpt>
      <trkpt lat="47.97662" lon="-4.15801">
        <ele>68.35</ele>
        <time>2026-05-02T18:59:13.901Z</time>
      </trkpt>
      <trkpt lat="47.97662" lon="-4.15801">
        <ele>68.31</ele>
        <time>2026-05-02T18:59:13.901Z</time>
      </trkpt>
      <trkpt lat="47.97667" lon="-4.15796">
        <ele>68.28</ele>
        <time>2026-05-02T18:59:14.885Z</time>
      </trkpt>
      <trkpt lat="47.97667" lon="-4.15796">
        <ele>68.4</ele>
        <time>2026-05-02T18:59:14.885Z</time>
      </trkpt>
      <trkpt lat="47.97651" lon="-4.15759">
        <ele>68.3</ele>
        <time>2026-05-02T18:59:19.779Z</time>
      </trkpt>
      <trkpt lat="47.97636" lon="-4.15722">
        <ele>68.36</ele>
        <time>2026-05-02T18:59:24.840Z</time>
      </trkpt>
      <trkpt lat="47.9762" lon="-4.15684">
        <ele>68.45</ele>
        <time>2026-05-02T18:59:30.140Z</time>
      </trkpt>
      <trkpt lat="47.97609" lon="-4.1565">
        <ele>68.66</ele>
        <time>2026-05-02T18:59:34.837Z</time>
      </trkpt>
      <trkpt lat="47.97599" lon="-4.15616">
        <ele>68.86</ele>
        <time>2026-05-02T18:59:39.445Z</time>
      </trkpt>
      <trkpt lat="47.97588" lon="-4.15581">
        <ele>69.1</ele>
        <time>2026-05-02T18:59:44.302Z</time>
      </trkpt>
      <trkpt lat="47.97577" lon="-4.15547">
        <ele>69.35</ele>
        <time>2026-05-02T18:59:49.075Z</time>
      </trkpt>
      <trkpt lat="47.97562" lon="-4.15512">
        <ele>69.65</ele>
        <time>2026-05-02T18:59:54.376Z</time>
      </trkpt>
      <trkpt lat="47.97547" lon="-4.15477">
        <ele>69.98</ele>
        <time>2026-05-02T18:59:59.736Z</time>
      </trkpt>
      <trkpt lat="47.97532" lon="-4.15443">
        <ele>70.33</ele>
        <time>2026-05-02T19:00:05.041Z</time>
      </trkpt>
      <trkpt lat="47.97517" lon="-4.15408">
        <ele>70.78</ele>
        <time>2026-05-02T19:00:10.647Z</time>
      </trkpt>
      <trkpt lat="47.97502" lon="-4.15373">
        <ele>71.22</ele>
        <time>2026-05-02T19:00:16.231Z</time>
      </trkpt>
      <trkpt lat="47.9749" lon="-4.15333">
        <ele>71.57</ele>
        <time>2026-05-02T19:00:21.889Z</time>
      </trkpt>
      <trkpt lat="47.97478" lon="-4.15293">
        <ele>71.92</ele>
        <time>2026-05-02T19:00:27.546Z</time>
      </trkpt>
      <trkpt lat="47.97467" lon="-4.15252">
        <ele>72.34</ele>
        <time>2026-05-02T19:00:33.382Z</time>
      </trkpt>
      <trkpt lat="47.97455" lon="-4.15212">
        <ele>72.73</ele>
        <time>2026-05-02T19:00:39.119Z</time>
      </trkpt>
      <trkpt lat="47.9744" lon="-4.1518">
        <ele>73.05</ele>
        <time>2026-05-02T19:00:44.177Z</time>
      </trkpt>
      <trkpt lat="47.97421" lon="-4.1515">
        <ele>73.39</ele>
        <time>2026-05-02T19:00:49.527Z</time>
      </trkpt>
      <trkpt lat="47.97402" lon="-4.1513">
        <ele>73.8</ele>
        <time>2026-05-02T19:00:54.284Z</time>
      </trkpt>
      <trkpt lat="47.97384" lon="-4.15109">
        <ele>74.13</ele>
        <time>2026-05-02T19:00:58.804Z</time>
      </trkpt>
      <trkpt lat="47.97378" lon="-4.15103">
        <ele>74.48</ele>
        <time>2026-05-02T19:01:00.920Z</time>
      </trkpt>
      <trkpt lat="47.97378" lon="-4.15103">
        <ele>74.78</ele>
        <time>2026-05-02T19:01:00.920Z</time>
      </trkpt>
      <trkpt lat="47.97358" lon="-4.15077">
        <ele>75.06</ele>
        <time>2026-05-02T19:01:05.961Z</time>
      </trkpt>
      <trkpt lat="47.97345" lon="-4.1506">
        <ele>75.3</ele>
        <time>2026-05-02T19:01:09.360Z</time>
      </trkpt>
      <trkpt lat="47.97333" lon="-4.15028">
        <ele>75.48</ele>
        <time>2026-05-02T19:01:13.879Z</time>
      </trkpt>
      <trkpt lat="47.9732" lon="-4.14996">
        <ele>75.62</ele>
        <time>2026-05-02T19:01:18.411Z</time>
      </trkpt>
      <trkpt lat="47.97308" lon="-4.14965">
        <ele>75.69</ele>
        <time>2026-05-02T19:01:22.636Z</time>
      </trkpt>
      <trkpt lat="47.97295" lon="-4.14933">
        <ele>75.8</ele>
        <time>2026-05-02T19:01:27.115Z</time>
      </trkpt>
      <trkpt lat="47.97285" lon="-4.14908">
        <ele>75.97</ele>
        <time>2026-05-02T19:01:30.753Z</time>
      </trkpt>
      <trkpt lat="47.97277" lon="-4.14879">
        <ele>76.19</ele>
        <time>2026-05-02T19:01:34.742Z</time>
      </trkpt>
      <trkpt lat="47.97268" lon="-4.1485">
        <ele>76.38</ele>
        <time>2026-05-02T19:01:38.742Z</time>
      </trkpt>
      <trkpt lat="47.97263" lon="-4.14817">
        <ele>76.45</ele>
        <time>2026-05-02T19:01:42.740Z</time>
      </trkpt>
      <trkpt lat="47.97257" lon="-4.14785">
        <ele>76.43</ele>
        <time>2026-05-02T19:01:46.520Z</time>
      </trkpt>
      <trkpt lat="47.97256" lon="-4.1475">
        <ele>76.33</ele>
        <time>2026-05-02T19:01:50.381Z</time>
      </trkpt>
      <trkpt lat="47.97255" lon="-4.14714">
        <ele>76.18</ele>
        <time>2026-05-02T19:01:54.281Z</time>
      </trkpt>
      <trkpt lat="47.97253" lon="-4.14678">
        <ele>75.98</ele>
        <time>2026-05-02T19:01:58.120Z</time>
      </trkpt>
      <trkpt lat="47.97253" lon="-4.14665">
        <ele>75.72</ele>
        <time>2026-05-02T19:01:59.272Z</time>
      </trkpt>
      <trkpt lat="47.97252" lon="-4.14626">
        <ele>75.36</ele>
        <time>2026-05-02T19:02:03.222Z</time>
      </trkpt>
      <trkpt lat="47.9725" lon="-4.14588">
        <ele>75.02</ele>
        <time>2026-05-02T19:02:07.096Z</time>
      </trkpt>
      <trkpt lat="47.97249" lon="-4.14549">
        <ele>74.6</ele>
        <time>2026-05-02T19:02:10.968Z</time>
      </trkpt>
      <trkpt lat="47.97246" lon="-4.14504">
        <ele>74.08</ele>
        <time>2026-05-02T19:02:15.414Z</time>
      </trkpt>
      <trkpt lat="47.97242" lon="-4.14459">
        <ele>73.49</ele>
        <time>2026-05-02T19:02:19.792Z</time>
      </trkpt>
      <trkpt lat="47.9724" lon="-4.14436">
        <ele>72.94</ele>
        <time>2026-05-02T19:02:21.763Z</time>
      </trkpt>
      <trkpt lat="47.97236" lon="-4.14414">
        <ele>72.34</ele>
        <time>2026-05-02T19:02:23.645Z</time>
      </trkpt>
      <trkpt lat="47.97232" lon="-4.14381">
        <ele>71.76</ele>
        <time>2026-05-02T19:02:26.715Z</time>
      </trkpt>
      <trkpt lat="47.97227" lon="-4.14348">
        <ele>71.15</ele>
        <time>2026-05-02T19:02:29.785Z</time>
      </trkpt>
      <trkpt lat="47.97221" lon="-4.1432">
        <ele>70.44</ele>
        <time>2026-05-02T19:02:32.271Z</time>
      </trkpt>
      <trkpt lat="47.97206" lon="-4.14281">
        <ele>69.59</ele>
        <time>2026-05-02T19:02:36.310Z</time>
      </trkpt>
      <trkpt lat="47.9719" lon="-4.14259">
        <ele>68.8</ele>
        <time>2026-05-02T19:02:39.051Z</time>
      </trkpt>
      <trkpt lat="47.97174" lon="-4.14236">
        <ele>68.05</ele>
        <time>2026-05-02T19:02:41.905Z</time>
      </trkpt>
      <trkpt lat="47.9715" lon="-4.14215">
        <ele>67.25</ele>
        <time>2026-05-02T19:02:45.621Z</time>
      </trkpt>
      <trkpt lat="47.97133" lon="-4.14202">
        <ele>66.57</ele>
        <time>2026-05-02T19:02:48.041Z</time>
      </trkpt>
      <trkpt lat="47.97116" lon="-4.14189">
        <ele>65.94</ele>
        <time>2026-05-02T19:02:50.510Z</time>
      </trkpt>
      <trkpt lat="47.97094" lon="-4.14174">
        <ele>65.34</ele>
        <time>2026-05-02T19:02:53.844Z</time>
      </trkpt>
      <trkpt lat="47.97073" lon="-4.14158">
        <ele>64.7</ele>
        <time>2026-05-02T19:02:57.033Z</time>
      </trkpt>
      <trkpt lat="47.97056" lon="-4.14146">
        <ele>64.14</ele>
        <time>2026-05-02T19:02:59.525Z</time>
      </trkpt>
      <trkpt lat="47.97028" lon="-4.14144">
        <ele>59.14</ele>
        <time>2026-05-02T19:03:02.407Z</time>
      </trkpt>
      <trkpt lat="47.97015" lon="-4.1415">
        <ele>58.73</ele>
        <time>2026-05-02T19:03:04.205Z</time>
      </trkpt>
      <trkpt lat="47.97002" lon="-4.1414">
        <ele>62.67</ele>
        <time>2026-05-02T19:03:14.943Z</time>
      </trkpt>
      <trkpt lat="47.97" lon="-4.14118">
        <ele>62.32</ele>
        <time>2026-05-02T19:03:17.013Z</time>
      </trkpt>
      <trkpt lat="47.97009" lon="-4.14105">
        <ele>62.02</ele>
        <time>2026-05-02T19:03:18.750Z</time>
      </trkpt>
      <trkpt lat="47.97011" lon="-4.14084">
        <ele>60.68</ele>
        <time>2026-05-02T19:03:20.210Z</time>
      </trkpt>
      <trkpt lat="47.97013" lon="-4.14049">
        <ele>61.08</ele>
        <time>2026-05-02T19:03:24.991Z</time>
      </trkpt>
      <trkpt lat="47.9702" lon="-4.14019">
        <ele>61.41</ele>
        <time>2026-05-02T19:03:29.247Z</time>
      </trkpt>
      <trkpt lat="47.97027" lon="-4.13988">
        <ele>61.24</ele>
        <time>2026-05-02T19:03:32.740Z</time>
      </trkpt>
      <trkpt lat="47.97034" lon="-4.13957">
        <ele>62.09</ele>
        <time>2026-05-02T19:03:38.439Z</time>
      </trkpt>
      <trkpt lat="47.97045" lon="-4.13925">
        <ele>60.98</ele>
        <time>2026-05-02T19:03:41.269Z</time>
      </trkpt>
      <trkpt lat="47.97056" lon="-4.13893">
        <ele>62.6</ele>
        <time>2026-05-02T19:03:50.305Z</time>
      </trkpt>
      <trkpt lat="47.97068" lon="-4.13867">
        <ele>60.92</ele>
        <time>2026-05-02T19:03:52.479Z</time>
      </trkpt>
      <trkpt lat="47.97079" lon="-4.13841">
        <ele>63.06</ele>
        <time>2026-05-02T19:04:04.944Z</time>
      </trkpt>
      <trkpt lat="47.97079" lon="-4.13841">
        <ele>63.22</ele>
        <time>2026-05-02T19:04:04.944Z</time>
      </trkpt>
      <trkpt lat="47.97094" lon="-4.1381">
        <ele>60.89</ele>
        <time>2026-05-02T19:04:07.577Z</time>
      </trkpt>
      <trkpt lat="47.97109" lon="-4.1378">
        <ele>60.92</ele>
        <time>2026-05-02T19:04:11.921Z</time>
      </trkpt>
      <trkpt lat="47.97124" lon="-4.13749">
        <ele>63.47</ele>
        <time>2026-05-02T19:04:26.663Z</time>
      </trkpt>
      <trkpt lat="47.97137" lon="-4.13719">
        <ele>60.94</ele>
        <time>2026-05-02T19:04:29.122Z</time>
      </trkpt>
      <trkpt lat="47.97149" lon="-4.13689">
        <ele>60.89</ele>
        <time>2026-05-02T19:04:33.051Z</time>
      </trkpt>
      <trkpt lat="47.97161" lon="-4.13659">
        <ele>63.25</ele>
        <time>2026-05-02T19:04:46.727Z</time>
      </trkpt>
      <trkpt lat="47.97161" lon="-4.13659">
        <ele>63.18</ele>
        <time>2026-05-02T19:04:46.727Z</time>
      </trkpt>
      <trkpt lat="47.97174" lon="-4.13623">
        <ele>61.02</ele>
        <time>2026-05-02T19:04:49.542Z</time>
      </trkpt>
      <trkpt lat="47.97187" lon="-4.13588">
        <ele>62.91</ele>
        <time>2026-05-02T19:05:00.052Z</time>
      </trkpt>
      <trkpt lat="47.97199" lon="-4.1355">
        <ele>61.13</ele>
        <time>2026-05-02T19:05:03.005Z</time>
      </trkpt>
      <trkpt lat="47.97211" lon="-4.13511">
        <ele>61.15</ele>
        <time>2026-05-02T19:05:07.961Z</time>
      </trkpt>
      <trkpt lat="47.97223" lon="-4.13473">
        <ele>61.23</ele>
        <time>2026-05-02T19:05:12.914Z</time>
      </trkpt>
      <trkpt lat="47.97235" lon="-4.13435">
        <ele>61.27</ele>
        <time>2026-05-02T19:05:17.800Z</time>
      </trkpt>
      <trkpt lat="47.97247" lon="-4.13397">
        <ele>61.71</ele>
        <time>2026-05-02T19:05:23.436Z</time>
      </trkpt>
      <trkpt lat="47.97262" lon="-4.13356">
        <ele>61.24</ele>
        <time>2026-05-02T19:05:28.114Z</time>
      </trkpt>
      <trkpt lat="47.97253" lon="-4.1335">
        <ele>61.15</ele>
        <time>2026-05-02T19:05:29.666Z</time>
      </trkpt>
      <trkpt lat="47.97233" lon="-4.13366">
        <ele>61</ele>
        <time>2026-05-02T19:05:33.322Z</time>
      </trkpt>
      <trkpt lat="47.97212" lon="-4.13383">
        <ele>60.75</ele>
        <time>2026-05-02T19:05:37.039Z</time>
      </trkpt>
      <trkpt lat="47.97212" lon="-4.13383">
        <ele>60.53</ele>
        <time>2026-05-02T19:05:37.039Z</time>
      </trkpt>
      <trkpt lat="47.97233" lon="-4.13366">
        <ele>60.34</ele>
        <time>2026-05-02T19:05:40.841Z</time>
      </trkpt>
      <trkpt lat="47.97253" lon="-4.1335">
        <ele>61.15</ele>
        <time>2026-05-02T19:05:46.529Z</time>
      </trkpt>
      <trkpt lat="47.97262" lon="-4.13356">
        <ele>61.32</ele>
        <time>2026-05-02T19:05:48.538Z</time>
      </trkpt>
      <trkpt lat="47.9727" lon="-4.13333">
        <ele>59.21</ele>
        <time>2026-05-02T19:05:50.322Z</time>
      </trkpt>
      <trkpt lat="47.97279" lon="-4.13309">
        <ele>59.17</ele>
        <time>2026-05-02T19:05:53.413Z</time>
      </trkpt>
      <trkpt lat="47.97292" lon="-4.13281">
        <ele>58.04</ele>
        <time>2026-05-02T19:05:56.031Z</time>
      </trkpt>
      <trkpt lat="47.97305" lon="-4.13253">
        <ele>57.39</ele>
        <time>2026-05-02T19:05:59.085Z</time>
      </trkpt>
      <trkpt lat="47.97318" lon="-4.13225">
        <ele>56.91</ele>
        <time>2026-05-02T19:06:02.327Z</time>
      </trkpt>
      <trkpt lat="47.97322" lon="-4.13217">
        <ele>56.1</ele>
        <time>2026-05-02T19:06:03.015Z</time>
      </trkpt>
      <trkpt lat="47.97322" lon="-4.13217">
        <ele>55.27</ele>
        <time>2026-05-02T19:06:03.015Z</time>
      </trkpt>
      <trkpt lat="47.97335" lon="-4.13192">
        <ele>54.39</ele>
        <time>2026-05-02T19:06:05.587Z</time>
      </trkpt>
      <trkpt lat="47.97348" lon="-4.13167">
        <ele>53.33</ele>
        <time>2026-05-02T19:06:08.010Z</time>
      </trkpt>
      <trkpt lat="47.97366" lon="-4.13132">
        <ele>52.51</ele>
        <time>2026-05-02T19:06:11.989Z</time>
      </trkpt>
      <trkpt lat="47.97385" lon="-4.13097">
        <ele>51.51</ele>
        <time>2026-05-02T19:06:15.884Z</time>
      </trkpt>
      <trkpt lat="47.97403" lon="-4.13062">
        <ele>50.46</ele>
        <time>2026-05-02T19:06:19.631Z</time>
      </trkpt>
      <trkpt lat="47.97421" lon="-4.13026">
        <ele>49.46</ele>
        <time>2026-05-02T19:06:23.512Z</time>
      </trkpt>
      <trkpt lat="47.9744" lon="-4.12992">
        <ele>48.05</ele>
        <time>2026-05-02T19:06:26.961Z</time>
      </trkpt>
      <trkpt lat="47.97459" lon="-4.12957">
        <ele>47.02</ele>
        <time>2026-05-02T19:06:30.827Z</time>
      </trkpt>
      <trkpt lat="47.97474" lon="-4.12925">
        <ele>46.51</ele>
        <time>2026-05-02T19:06:34.592Z</time>
      </trkpt>
      <trkpt lat="47.97489" lon="-4.12893">
        <ele>45.43</ele>
        <time>2026-05-02T19:06:37.771Z</time>
      </trkpt>
      <trkpt lat="47.97504" lon="-4.12861">
        <ele>44.34</ele>
        <time>2026-05-02T19:06:40.941Z</time>
      </trkpt>
      <trkpt lat="47.97516" lon="-4.12837">
        <ele>43.27</ele>
        <time>2026-05-02T19:06:43.184Z</time>
      </trkpt>
      <trkpt lat="47.97528" lon="-4.12813">
        <ele>42.23</ele>
        <time>2026-05-02T19:06:45.449Z</time>
      </trkpt>
      <trkpt lat="47.97534" lon="-4.12801">
        <ele>41.23</ele>
        <time>2026-05-02T19:06:46.480Z</time>
      </trkpt>
      <trkpt lat="47.97543" lon="-4.12788">
        <ele>40.23</ele>
        <time>2026-05-02T19:06:47.767Z</time>
      </trkpt>
      <trkpt lat="47.97556" lon="-4.12761">
        <ele>39.27</ele>
        <time>2026-05-02T19:06:50.439Z</time>
      </trkpt>
      <trkpt lat="47.97569" lon="-4.12735">
        <ele>38.3</ele>
        <time>2026-05-02T19:06:53.017Z</time>
      </trkpt>
      <trkpt lat="47.97581" lon="-4.12708">
        <ele>37.29</ele>
        <time>2026-05-02T19:06:55.558Z</time>
      </trkpt>
      <trkpt lat="47.97581" lon="-4.12708">
        <ele>36.33</ele>
        <time>2026-05-02T19:06:55.558Z</time>
      </trkpt>
      <trkpt lat="47.97599" lon="-4.12677">
        <ele>35.32</ele>
        <time>2026-05-02T19:06:59.010Z</time>
      </trkpt>
      <trkpt lat="47.97616" lon="-4.12647">
        <ele>34.39</ele>
        <time>2026-05-02T19:07:02.352Z</time>
      </trkpt>
      <trkpt lat="47.97633" lon="-4.12616">
        <ele>33.32</ele>
        <time>2026-05-02T19:07:05.646Z</time>
      </trkpt>
      <trkpt lat="47.97644" lon="-4.12592">
        <ele>32.27</ele>
        <time>2026-05-02T19:07:07.816Z</time>
      </trkpt>
      <trkpt lat="47.9765" lon="-4.12575">
        <ele>31.35</ele>
        <time>2026-05-02T19:07:09.138Z</time>
      </trkpt>
      <trkpt lat="47.97664" lon="-4.12548">
        <ele>30.24</ele>
        <time>2026-05-02T19:07:11.780Z</time>
      </trkpt>
      <trkpt lat="47.97677" lon="-4.12521">
        <ele>29.16</ele>
        <time>2026-05-02T19:07:14.352Z</time>
      </trkpt>
      <trkpt lat="47.97691" lon="-4.12494">
        <ele>28.09</ele>
        <time>2026-05-02T19:07:17.026Z</time>
      </trkpt>
      <trkpt lat="47.97691" lon="-4.12494">
        <ele>27</ele>
        <time>2026-05-02T19:07:17.026Z</time>
      </trkpt>
      <trkpt lat="47.97699" lon="-4.12477">
        <ele>25.84</ele>
        <time>2026-05-02T19:07:18.456Z</time>
      </trkpt>
      <trkpt lat="47.97714" lon="-4.12451">
        <ele>24.6</ele>
        <time>2026-05-02T19:07:21.015Z</time>
      </trkpt>
      <trkpt lat="47.97729" lon="-4.12425">
        <ele>24.23</ele>
        <time>2026-05-02T19:07:24.420Z</time>
      </trkpt>
      <trkpt lat="47.97738" lon="-4.12406">
        <ele>23.07</ele>
        <time>2026-05-02T19:07:26.022Z</time>
      </trkpt>
      <trkpt lat="47.97754" lon="-4.12373">
        <ele>20.98</ele>
        <time>2026-05-02T19:07:28.826Z</time>
      </trkpt>
      <trkpt lat="47.9777" lon="-4.12341">
        <ele>20.67</ele>
        <time>2026-05-02T19:07:32.946Z</time>
      </trkpt>
      <trkpt lat="47.97786" lon="-4.12301">
        <ele>18.53</ele>
        <time>2026-05-02T19:07:36.153Z</time>
      </trkpt>
      <trkpt lat="47.97802" lon="-4.12261">
        <ele>17.26</ele>
        <time>2026-05-02T19:07:39.960Z</time>
      </trkpt>
      <trkpt lat="47.97817" lon="-4.12221">
        <ele>15.89</ele>
        <time>2026-05-02T19:07:43.604Z</time>
      </trkpt>
      <trkpt lat="47.97828" lon="-4.12193">
        <ele>14.93</ele>
        <time>2026-05-02T19:07:46.192Z</time>
      </trkpt>
      <trkpt lat="47.97835" lon="-4.1218">
        <ele>13.84</ele>
        <time>2026-05-02T19:07:47.340Z</time>
      </trkpt>
      <trkpt lat="47.97843" lon="-4.12172">
        <ele>12.77</ele>
        <time>2026-05-02T19:07:48.330Z</time>
      </trkpt>
      <trkpt lat="47.97863" lon="-4.1216">
        <ele>11.68</ele>
        <time>2026-05-02T19:07:50.786Z</time>
      </trkpt>
      <trkpt lat="47.97882" lon="-4.12148">
        <ele>10.68</ele>
        <time>2026-05-02T19:07:53.170Z</time>
      </trkpt>
      <trkpt lat="47.97882" lon="-4.12148">
        <ele>9.81</ele>
        <time>2026-05-02T19:07:53.170Z</time>
      </trkpt>
      <trkpt lat="47.97901" lon="-4.12142">
        <ele>8.94</ele>
        <time>2026-05-02T19:07:55.472Z</time>
      </trkpt>
      <trkpt lat="47.97901" lon="-4.12142">
        <ele>8.19</ele>
        <time>2026-05-02T19:07:55.472Z</time>
      </trkpt>
      <trkpt lat="47.97912" lon="-4.1214">
        <ele>7.5</ele>
        <time>2026-05-02T19:07:56.643Z</time>
      </trkpt>
      <trkpt lat="47.97925" lon="-4.12142">
        <ele>6.87</ele>
        <time>2026-05-02T19:07:58.156Z</time>
      </trkpt>
      <trkpt lat="47.97925" lon="-4.12142">
        <ele>6.34</ele>
        <time>2026-05-02T19:07:58.156Z</time>
      </trkpt>
      <trkpt lat="47.97938" lon="-4.12146">
        <ele>5.84</ele>
        <time>2026-05-02T19:07:59.813Z</time>
      </trkpt>
      <trkpt lat="47.97953" lon="-4.12157">
        <ele>5.44</ele>
        <time>2026-05-02T19:08:02.132Z</time>
      </trkpt>
      <trkpt lat="47.97968" lon="-4.12168">
        <ele>5.1</ele>
        <time>2026-05-02T19:08:04.521Z</time>
      </trkpt>
      <trkpt lat="47.97974" lon="-4.12163">
        <ele>4.84</ele>
        <time>2026-05-02T19:08:05.378Z</time>
      </trkpt>
      <trkpt lat="47.97989" lon="-4.12163">
        <ele>4.68</ele>
        <time>2026-05-02T19:08:07.708Z</time>
      </trkpt>
      <trkpt lat="47.98" lon="-4.12172">
        <ele>4.62</ele>
        <time>2026-05-02T19:08:09.763Z</time>
      </trkpt>
      <trkpt lat="47.98004" lon="-4.12176">
        <ele>4.62</ele>
        <time>2026-05-02T19:08:10.588Z</time>
      </trkpt>
      <trkpt lat="47.98021" lon="-4.12172">
        <ele>4.65</ele>
        <time>2026-05-02T19:08:13.586Z</time>
      </trkpt>
      <trkpt lat="47.98043" lon="-4.1215">
        <ele>4.7</ele>
        <time>2026-05-02T19:08:18.205Z</time>
      </trkpt>
      <trkpt lat="47.98056" lon="-4.12144">
        <ele>4.94</ele>
        <time>2026-05-02T19:08:20.990Z</time>
      </trkpt>
      <trkpt lat="47.9806" lon="-4.12142">
        <ele>5.34</ele>
        <time>2026-05-02T19:08:23.280Z</time>
      </trkpt>
      <trkpt lat="47.98062" lon="-4.1214">
        <ele>5.77</ele>
        <time>2026-05-02T19:08:25.047Z</time>
      </trkpt>
      <trkpt lat="47.98086" lon="-4.12129">
        <ele>5.8</ele>
        <time>2026-05-02T19:08:29.398Z</time>
      </trkpt>
      <trkpt lat="47.98109" lon="-4.12118">
        <ele>6.79</ele>
        <time>2026-05-02T19:08:35.850Z</time>
      </trkpt>
      <trkpt lat="47.98109" lon="-4.12118">
        <ele>7.32</ele>
        <time>2026-05-02T19:08:35.850Z</time>
      </trkpt>
      <trkpt lat="47.98133" lon="-4.1211">
        <ele>7.88</ele>
        <time>2026-05-02T19:08:41.170Z</time>
      </trkpt>
      <trkpt lat="47.98159" lon="-4.12099">
        <ele>8.44</ele>
        <time>2026-05-02T19:08:46.886Z</time>
      </trkpt>
      <trkpt lat="47.98159" lon="-4.12099">
        <ele>9.03</ele>
        <time>2026-05-02T19:08:46.886Z</time>
      </trkpt>
      <trkpt lat="47.98184" lon="-4.12089">
        <ele>8.79</ele>
        <time>2026-05-02T19:08:50.957Z</time>
      </trkpt>
      <trkpt lat="47.98209" lon="-4.12078">
        <ele>9.45</ele>
        <time>2026-05-02T19:08:56.756Z</time>
      </trkpt>
      <trkpt lat="47.98234" lon="-4.12068">
        <ele>10.13</ele>
        <time>2026-05-02T19:09:02.576Z</time>
      </trkpt>
      <trkpt lat="47.9826" lon="-4.12058">
        <ele>11.67</ele>
        <time>2026-05-02T19:09:11.403Z</time>
      </trkpt>
      <trkpt lat="47.98276" lon="-4.12053">
        <ele>11.36</ele>
        <time>2026-05-02T19:09:13.767Z</time>
      </trkpt>
      <trkpt lat="47.98292" lon="-4.12047">
        <ele>12.83</ele>
        <time>2026-05-02T19:09:22.086Z</time>
      </trkpt>
      <trkpt lat="47.98315" lon="-4.12045">
        <ele>13.37</ele>
        <time>2026-05-02T19:09:27.106Z</time>
      </trkpt>
      <trkpt lat="47.98341" lon="-4.12053">
        <ele>13.09</ele>
        <time>2026-05-02T19:09:31.235Z</time>
      </trkpt>
      <trkpt lat="47.98367" lon="-4.12061">
        <ele>13.67</ele>
        <time>2026-05-02T19:09:36.919Z</time>
      </trkpt>
      <trkpt lat="47.98393" lon="-4.12069">
        <ele>14.92</ele>
        <time>2026-05-02T19:09:44.567Z</time>
      </trkpt>
      <trkpt lat="47.98423" lon="-4.12077">
        <ele>15.24</ele>
        <time>2026-05-02T19:09:50.357Z</time>
      </trkpt>
      <trkpt lat="47.9845" lon="-4.12077">
        <ele>15.47</ele>
        <time>2026-05-02T19:09:55.385Z</time>
      </trkpt>
      <trkpt lat="47.9845" lon="-4.12077">
        <ele>15.73</ele>
        <time>2026-05-02T19:09:55.385Z</time>
      </trkpt>
      <trkpt lat="47.98481" lon="-4.1207">
        <ele>15.25</ele>
        <time>2026-05-02T19:10:00.062Z</time>
      </trkpt>
      <trkpt lat="47.98511" lon="-4.12062">
        <ele>15.97</ele>
        <time>2026-05-02T19:10:06.717Z</time>
      </trkpt>
      <trkpt lat="47.98526" lon="-4.12055">
        <ele>15.55</ele>
        <time>2026-05-02T19:10:08.850Z</time>
      </trkpt>
      <trkpt lat="47.98541" lon="-4.12047">
        <ele>15.64</ele>
        <time>2026-05-02T19:10:11.733Z</time>
      </trkpt>
      <trkpt lat="47.98571" lon="-4.12045">
        <ele>16.21</ele>
        <time>2026-05-02T19:10:17.967Z</time>
      </trkpt>
      <trkpt lat="47.98574" lon="-4.12044">
        <ele>15.85</ele>
        <time>2026-05-02T19:10:18.283Z</time>
      </trkpt>
      <trkpt lat="47.98604" lon="-4.12034">
        <ele>15.84</ele>
        <time>2026-05-02T19:10:23.533Z</time>
      </trkpt>
      <trkpt lat="47.98633" lon="-4.12024">
        <ele>15.88</ele>
        <time>2026-05-02T19:10:28.699Z</time>
      </trkpt>
      <trkpt lat="47.98663" lon="-4.12015">
        <ele>15.89</ele>
        <time>2026-05-02T19:10:33.958Z</time>
      </trkpt>
      <trkpt lat="47.98692" lon="-4.12005">
        <ele>15.8</ele>
        <time>2026-05-02T19:10:38.915Z</time>
      </trkpt>
      <trkpt lat="47.98721" lon="-4.11995">
        <ele>15.53</ele>
        <time>2026-05-02T19:10:43.605Z</time>
      </trkpt>
      <trkpt lat="47.98751" lon="-4.11985">
        <ele>15.11</ele>
        <time>2026-05-02T19:10:48.256Z</time>
      </trkpt>
      <trkpt lat="47.98751" lon="-4.11985">
        <ele>14.8</ele>
        <time>2026-05-02T19:10:48.256Z</time>
      </trkpt>
      <trkpt lat="47.98764" lon="-4.11981">
        <ele>14.41</ele>
        <time>2026-05-02T19:10:50.020Z</time>
      </trkpt>
      <trkpt lat="47.98782" lon="-4.11974">
        <ele>14.34</ele>
        <time>2026-05-02T19:10:53.097Z</time>
      </trkpt>
      <trkpt lat="47.988" lon="-4.11968">
        <ele>13.66</ele>
        <time>2026-05-02T19:10:55.412Z</time>
      </trkpt>
      <trkpt lat="47.98829" lon="-4.11957">
        <ele>13.72</ele>
        <time>2026-05-02T19:11:00.638Z</time>
      </trkpt>
      <trkpt lat="47.98857" lon="-4.11947">
        <ele>13.38</ele>
        <time>2026-05-02T19:11:05.066Z</time>
      </trkpt>
      <trkpt lat="47.98886" lon="-4.11936">
        <ele>12.45</ele>
        <time>2026-05-02T19:11:08.991Z</time>
      </trkpt>
      <trkpt lat="47.98913" lon="-4.11918">
        <ele>12.52</ele>
        <time>2026-05-02T19:11:14.173Z</time>
      </trkpt>
      <trkpt lat="47.9894" lon="-4.11899">
        <ele>11.31</ele>
        <time>2026-05-02T19:11:17.821Z</time>
      </trkpt>
      <trkpt lat="47.98957" lon="-4.11884">
        <ele>10.82</ele>
        <time>2026-05-02T19:11:20.542Z</time>
      </trkpt>
      <trkpt lat="47.98978" lon="-4.11869">
        <ele>10.39</ele>
        <time>2026-05-02T19:11:23.922Z</time>
      </trkpt>
      <trkpt lat="47.99" lon="-4.11841">
        <ele>9.27</ele>
        <time>2026-05-02T19:11:27.500Z</time>
      </trkpt>
      <trkpt lat="47.9902" lon="-4.11813">
        <ele>10.46</ele>
        <time>2026-05-02T19:11:35.044Z</time>
      </trkpt>
      <trkpt lat="47.9904" lon="-4.11786">
        <ele>10.12</ele>
        <time>2026-05-02T19:11:39.160Z</time>
      </trkpt>
      <trkpt lat="47.9906" lon="-4.11758">
        <ele>9.76</ele>
        <time>2026-05-02T19:11:43.326Z</time>
      </trkpt>
      <trkpt lat="47.99038" lon="-4.1173">
        <ele>9.48</ele>
        <time>2026-05-02T19:11:47.855Z</time>
      </trkpt>
      <trkpt lat="47.99038" lon="-4.1173">
        <ele>9.21</ele>
        <time>2026-05-02T19:11:47.855Z</time>
      </trkpt>
      <trkpt lat="47.9906" lon="-4.11758">
        <ele>8.34</ele>
        <time>2026-05-02T19:11:51.675Z</time>
      </trkpt>
      <trkpt lat="47.99075" lon="-4.11747">
        <ele>8.09</ele>
        <time>2026-05-02T19:11:54.175Z</time>
      </trkpt>
      <trkpt lat="47.99092" lon="-4.11739">
        <ele>8.51</ele>
        <time>2026-05-02T19:11:58.065Z</time>
      </trkpt>
      <trkpt lat="47.99109" lon="-4.11732">
        <ele>7.81</ele>
        <time>2026-05-02T19:12:00.233Z</time>
      </trkpt>
      <trkpt lat="47.99129" lon="-4.11715">
        <ele>8.16</ele>
        <time>2026-05-02T19:12:04.823Z</time>
      </trkpt>
      <trkpt lat="47.99131" lon="-4.11706">
        <ele>7.98</ele>
        <time>2026-05-02T19:12:05.673Z</time>
      </trkpt>
      <trkpt lat="47.99135" lon="-4.11702">
        <ele>7.83</ele>
        <time>2026-05-02T19:12:06.304Z</time>
      </trkpt>
      <trkpt lat="47.99137" lon="-4.11691">
        <ele>7.67</ele>
        <time>2026-05-02T19:12:07.389Z</time>
      </trkpt>
      <trkpt lat="47.99139" lon="-4.11676">
        <ele>7.65</ele>
        <time>2026-05-02T19:12:09.111Z</time>
      </trkpt>
      <trkpt lat="47.99135" lon="-4.11648">
        <ele>7.78</ele>
        <time>2026-05-02T19:12:12.618Z</time>
      </trkpt>
      <trkpt lat="47.99131" lon="-4.11612">
        <ele>7.97</ele>
        <time>2026-05-02T19:12:17.133Z</time>
      </trkpt>
      <trkpt lat="47.99127" lon="-4.11584">
        <ele>7.19</ele>
        <time>2026-05-02T19:12:19.472Z</time>
      </trkpt>
      <trkpt lat="47.99124" lon="-4.11556">
        <ele>8.35</ele>
        <time>2026-05-02T19:12:26.029Z</time>
      </trkpt>
      <trkpt lat="47.99122" lon="-4.11531">
        <ele>6.89</ele>
        <time>2026-05-02T19:12:27.761Z</time>
      </trkpt>
      <trkpt lat="47.9912" lon="-4.11507">
        <ele>8.77</ele>
        <time>2026-05-02T19:12:38.783Z</time>
      </trkpt>
      <trkpt lat="47.99118" lon="-4.11479">
        <ele>9.68</ele>
        <time>2026-05-02T19:12:44.295Z</time>
      </trkpt>
      <trkpt lat="47.99111" lon="-4.11459">
        <ele>6.4</ele>
        <time>2026-05-02T19:12:45.848Z</time>
      </trkpt>
      <trkpt lat="47.99105" lon="-4.11442">
        <ele>6.26</ele>
        <time>2026-05-02T19:12:47.842Z</time>
      </trkpt>
      <trkpt lat="47.99105" lon="-4.11442">
        <ele>6.13</ele>
        <time>2026-05-02T19:12:47.842Z</time>
      </trkpt>
      <trkpt lat="47.99093" lon="-4.11412">
        <ele>6.03</ele>
        <time>2026-05-02T19:12:51.693Z</time>
      </trkpt>
      <trkpt lat="47.99081" lon="-4.11382">
        <ele>5.89</ele>
        <time>2026-05-02T19:12:55.483Z</time>
      </trkpt>
      <trkpt lat="47.99067" lon="-4.11343">
        <ele>5.73</ele>
        <time>2026-05-02T19:13:00.308Z</time>
      </trkpt>
      <trkpt lat="47.99053" lon="-4.11305">
        <ele>5.63</ele>
        <time>2026-05-02T19:13:05.124Z</time>
      </trkpt>
      <trkpt lat="47.99053" lon="-4.11305">
        <ele>5.54</ele>
        <time>2026-05-02T19:13:05.124Z</time>
      </trkpt>
      <trkpt lat="47.99042" lon="-4.11266">
        <ele>5.47</ele>
        <time>2026-05-02T19:13:09.865Z</time>
      </trkpt>
      <trkpt lat="47.9903" lon="-4.11228">
        <ele>5.33</ele>
        <time>2026-05-02T19:13:14.464Z</time>
      </trkpt>
      <trkpt lat="47.99051" lon="-4.11195">
        <ele>5.23</ele>
        <time>2026-05-02T19:13:19.527Z</time>
      </trkpt>
      <trkpt lat="47.99073" lon="-4.11163">
        <ele>5.19</ele>
        <time>2026-05-02T19:13:24.724Z</time>
      </trkpt>
      <trkpt lat="47.99077" lon="-4.11159">
        <ele>5.19</ele>
        <time>2026-05-02T19:13:25.548Z</time>
      </trkpt>
      <trkpt lat="47.99077" lon="-4.11159">
        <ele>5.2</ele>
        <time>2026-05-02T19:13:25.548Z</time>
      </trkpt>
      <trkpt lat="47.99094" lon="-4.11133">
        <ele>5.28</ele>
        <time>2026-05-02T19:13:29.850Z</time>
      </trkpt>
      <trkpt lat="47.99111" lon="-4.11107">
        <ele>5.32</ele>
        <time>2026-05-02T19:13:34.085Z</time>
      </trkpt>
      <trkpt lat="47.99129" lon="-4.11082">
        <ele>5.37</ele>
        <time>2026-05-02T19:13:38.378Z</time>
      </trkpt>
      <trkpt lat="47.99146" lon="-4.11056">
        <ele>5.49</ele>
        <time>2026-05-02T19:13:42.750Z</time>
      </trkpt>
      <trkpt lat="47.99156" lon="-4.11038">
        <ele>5.61</ele>
        <time>2026-05-02T19:13:45.641Z</time>
      </trkpt>
      <trkpt lat="47.99167" lon="-4.1102">
        <ele>5.77</ele>
        <time>2026-05-02T19:13:48.718Z</time>
      </trkpt>
      <trkpt lat="47.9918" lon="-4.11">
        <ele>5.87</ele>
        <time>2026-05-02T19:13:52.086Z</time>
      </trkpt>
      <trkpt lat="47.99184" lon="-4.10992">
        <ele>5.94</ele>
        <time>2026-05-02T19:13:53.355Z</time>
      </trkpt>
      <trkpt lat="47.99201" lon="-4.10964">
        <ele>5.98</ele>
        <time>2026-05-02T19:13:57.756Z</time>
      </trkpt>
      <trkpt lat="47.9921" lon="-4.10951">
        <ele>6.03</ele>
        <time>2026-05-02T19:13:59.985Z</time>
      </trkpt>
      <trkpt lat="47.99217" lon="-4.1094">
        <ele>6.08</ele>
        <time>2026-05-02T19:14:01.811Z</time>
      </trkpt>
      <trkpt lat="47.99225" lon="-4.10929">
        <ele>6.13</ele>
        <time>2026-05-02T19:14:03.758Z</time>
      </trkpt>
      <trkpt lat="47.99238" lon="-4.10904">
        <ele>6.21</ele>
        <time>2026-05-02T19:14:07.523Z</time>
      </trkpt>
      <trkpt lat="47.99242" lon="-4.10893">
        <ele>6.33</ele>
        <time>2026-05-02T19:14:09.178Z</time>
      </trkpt>
      <trkpt lat="47.99257" lon="-4.10867">
        <ele>6.42</ele>
        <time>2026-05-02T19:14:13.266Z</time>
      </trkpt>
      <trkpt lat="47.99264" lon="-4.10872">
        <ele>6.58</ele>
        <time>2026-05-02T19:14:14.906Z</time>
      </trkpt>
      <trkpt lat="47.99246" lon="-4.10898">
        <ele>6.8</ele>
        <time>2026-05-02T19:14:19.580Z</time>
      </trkpt>
      <trkpt lat="47.99229" lon="-4.10924">
        <ele>7.04</ele>
        <time>2026-05-02T19:14:24.173Z</time>
      </trkpt>
      <trkpt lat="47.99225" lon="-4.10929">
        <ele>6.13</ele>
        <time>2026-05-02T19:14:24.709Z</time>
      </trkpt>
      <trkpt lat="47.99238" lon="-4.10904">
        <ele>6.21</ele>
        <time>2026-05-02T19:14:28.474Z</time>
      </trkpt>
      <trkpt lat="47.99242" lon="-4.10893">
        <ele>6.33</ele>
        <time>2026-05-02T19:14:30.129Z</time>
      </trkpt>
      <trkpt lat="47.99257" lon="-4.10867">
        <ele>6.42</ele>
        <time>2026-05-02T19:14:34.217Z</time>
      </trkpt>
      <trkpt lat="47.99264" lon="-4.10872">
        <ele>6.58</ele>
        <time>2026-05-02T19:14:35.856Z</time>
      </trkpt>
      <trkpt lat="47.99287" lon="-4.10895">
        <ele>8.41</ele>
        <time>2026-05-02T19:14:46.082Z</time>
      </trkpt>
      <trkpt lat="47.9931" lon="-4.10918">
        <ele>8.72</ele>
        <time>2026-05-02T19:14:51.377Z</time>
      </trkpt>
      <trkpt lat="47.99333" lon="-4.10941">
        <ele>9.09</ele>
        <time>2026-05-02T19:14:56.793Z</time>
      </trkpt>
      <trkpt lat="47.99356" lon="-4.10964">
        <ele>9.52</ele>
        <time>2026-05-02T19:15:02.332Z</time>
      </trkpt>
      <trkpt lat="47.99372" lon="-4.1098">
        <ele>9.84</ele>
        <time>2026-05-02T19:15:06.229Z</time>
      </trkpt>
      <trkpt lat="47.99388" lon="-4.10996">
        <ele>10.16</ele>
        <time>2026-05-02T19:15:10.127Z</time>
      </trkpt>
      <trkpt lat="47.99388" lon="-4.10996">
        <ele>10.39</ele>
        <time>2026-05-02T19:15:10.127Z</time>
      </trkpt>
      <trkpt lat="47.99388" lon="-4.10996">
        <ele>10.16</ele>
        <time>2026-05-02T19:15:10.127Z</time>
      </trkpt>
      <trkpt lat="47.99388" lon="-4.10996">
        <ele>10.39</ele>
        <time>2026-05-02T19:15:10.127Z</time>
      </trkpt>
      <trkpt lat="47.99405" lon="-4.11013">
        <ele>10.97</ele>
        <time>2026-05-02T19:15:14.837Z</time>
      </trkpt>
      <trkpt lat="47.99423" lon="-4.1103">
        <ele>11.13</ele>
        <time>2026-05-02T19:15:18.762Z</time>
      </trkpt>
      <trkpt lat="47.99442" lon="-4.11015">
        <ele>11.19</ele>
        <time>2026-05-02T19:15:22.544Z</time>
      </trkpt>
      <trkpt lat="47.99442" lon="-4.11015">
        <ele>11.26</ele>
        <time>2026-05-02T19:15:22.544Z</time>
      </trkpt>
      <trkpt lat="47.99465" lon="-4.10997">
        <ele>11.21</ele>
        <time>2026-05-02T19:15:26.913Z</time>
      </trkpt>
      <trkpt lat="47.99489" lon="-4.10979">
        <ele>11.2</ele>
        <time>2026-05-02T19:15:31.498Z</time>
      </trkpt>
      <trkpt lat="47.995" lon="-4.10951">
        <ele>11.24</ele>
        <time>2026-05-02T19:15:35.287Z</time>
      </trkpt>
      <trkpt lat="47.99501" lon="-4.10919">
        <ele>11.22</ele>
        <time>2026-05-02T19:15:38.928Z</time>
      </trkpt>
      <trkpt lat="47.99502" lon="-4.10887">
        <ele>11.22</ele>
        <time>2026-05-02T19:15:42.601Z</time>
      </trkpt>
      <trkpt lat="47.99502" lon="-4.10874">
        <ele>11.21</ele>
        <time>2026-05-02T19:15:44.075Z</time>
      </trkpt>
      <trkpt lat="47.99505" lon="-4.10845">
        <ele>11.15</ele>
        <time>2026-05-02T19:15:47.345Z</time>
      </trkpt>
      <trkpt lat="47.99508" lon="-4.10816">
        <ele>11.1</ele>
        <time>2026-05-02T19:15:50.630Z</time>
      </trkpt>
      <trkpt lat="47.99503" lon="-4.10813">
        <ele>11.08</ele>
        <time>2026-05-02T19:15:51.521Z</time>
      </trkpt>
      <trkpt lat="47.99508" lon="-4.10816">
        <ele>11.1</ele>
        <time>2026-05-02T19:15:52.478Z</time>
      </trkpt>
      <trkpt lat="47.99524" lon="-4.10821">
        <ele>10.93</ele>
        <time>2026-05-02T19:15:55.023Z</time>
      </trkpt>
      <trkpt lat="47.99541" lon="-4.10826">
        <ele>10.84</ele>
        <time>2026-05-02T19:15:57.852Z</time>
      </trkpt>
      <trkpt lat="47.99557" lon="-4.10832">
        <ele>10.82</ele>
        <time>2026-05-02T19:16:00.646Z</time>
      </trkpt>
      <trkpt lat="47.99573" lon="-4.10837">
        <ele>10.8</ele>
        <time>2026-05-02T19:16:03.414Z</time>
      </trkpt>
      <trkpt lat="47.99573" lon="-4.10837">
        <ele>10.74</ele>
        <time>2026-05-02T19:16:03.414Z</time>
      </trkpt>
      <trkpt lat="47.9959" lon="-4.10843">
        <ele>10.74</ele>
        <time>2026-05-02T19:16:06.407Z</time>
      </trkpt>
      <trkpt lat="47.99607" lon="-4.10848">
        <ele>10.71</ele>
        <time>2026-05-02T19:16:09.328Z</time>
      </trkpt>
      <trkpt lat="47.99626" lon="-4.10852">
        <ele>10.66</ele>
        <time>2026-05-02T19:16:12.536Z</time>
      </trkpt>
      <trkpt lat="47.99646" lon="-4.10861">
        <ele>12.14</ele>
        <time>2026-05-02T19:16:20.764Z</time>
      </trkpt>
      <trkpt lat="47.99666" lon="-4.10878">
        <ele>10.41</ele>
        <time>2026-05-02T19:16:23.130Z</time>
      </trkpt>
      <trkpt lat="47.99686" lon="-4.10895">
        <ele>10.32</ele>
        <time>2026-05-02T19:16:26.930Z</time>
      </trkpt>
      <trkpt lat="47.99706" lon="-4.10912">
        <ele>11.22</ele>
        <time>2026-05-02T19:16:32.939Z</time>
      </trkpt>
      <trkpt lat="47.99725" lon="-4.10928">
        <ele>10.12</ele>
        <time>2026-05-02T19:16:35.426Z</time>
      </trkpt>
      <trkpt lat="47.99744" lon="-4.10944">
        <ele>10.69</ele>
        <time>2026-05-02T19:16:40.323Z</time>
      </trkpt>
      <trkpt lat="47.99747" lon="-4.10912">
        <ele>10.34</ele>
        <time>2026-05-02T19:16:43.525Z</time>
      </trkpt>
      <trkpt lat="47.99751" lon="-4.10887">
        <ele>10.03</ele>
        <time>2026-05-02T19:16:46.032Z</time>
      </trkpt>
      <trkpt lat="47.99754" lon="-4.10851">
        <ele>9.53</ele>
        <time>2026-05-02T19:16:49.496Z</time>
      </trkpt>
      <trkpt lat="47.99757" lon="-4.10816">
        <ele>9.46</ele>
        <time>2026-05-02T19:16:53.430Z</time>
      </trkpt>
      <trkpt lat="47.9978" lon="-4.10814">
        <ele>9.39</ele>
        <time>2026-05-02T19:16:57.266Z</time>
      </trkpt>
      <trkpt lat="47.99802" lon="-4.10811">
        <ele>9.3</ele>
        <time>2026-05-02T19:17:00.910Z</time>
      </trkpt>
      <trkpt lat="47.99825" lon="-4.10826">
        <ele>9.24</ele>
        <time>2026-05-02T19:17:05.114Z</time>
      </trkpt>
      <trkpt lat="47.99847" lon="-4.10841">
        <ele>9.23</ele>
        <time>2026-05-02T19:17:09.241Z</time>
      </trkpt>
      <trkpt lat="47.99872" lon="-4.10861">
        <ele>8.88</ele>
        <time>2026-05-02T19:17:13.582Z</time>
      </trkpt>
      <trkpt lat="47.99897" lon="-4.1088">
        <ele>8.69</ele>
        <time>2026-05-02T19:17:18.094Z</time>
      </trkpt>
      <trkpt lat="47.99922" lon="-4.10899">
        <ele>8.46</ele>
        <time>2026-05-02T19:17:22.548Z</time>
      </trkpt>
      <trkpt lat="47.99922" lon="-4.10899">
        <ele>8.32</ele>
        <time>2026-05-02T19:17:22.548Z</time>
      </trkpt>
      <trkpt lat="47.99925" lon="-4.10902">
        <ele>8.18</ele>
        <time>2026-05-02T19:17:22.995Z</time>
      </trkpt>
      <trkpt lat="47.99942" lon="-4.10914">
        <ele>8.1</ele>
        <time>2026-05-02T19:17:26.091Z</time>
      </trkpt>
      <trkpt lat="47.99965" lon="-4.10932">
        <ele>8.36</ele>
        <time>2026-05-02T19:17:30.999Z</time>
      </trkpt>
      <trkpt lat="47.99989" lon="-4.1095">
        <ele>8.27</ele>
        <time>2026-05-02T19:17:35.458Z</time>
      </trkpt>
      <trkpt lat="48.00013" lon="-4.10968">
        <ele>8.24</ele>
        <time>2026-05-02T19:17:40.010Z</time>
      </trkpt>
      <trkpt lat="48.00023" lon="-4.10936">
        <ele>7.93</ele>
        <time>2026-05-02T19:17:43.603Z</time>
      </trkpt>
      <trkpt lat="48.00032" lon="-4.10936">
        <ele>7.82</ele>
        <time>2026-05-02T19:17:44.982Z</time>
      </trkpt>
      <trkpt lat="48.00023" lon="-4.10936">
        <ele>7.93</ele>
        <time>2026-05-02T19:17:46.723Z</time>
      </trkpt>
      <trkpt lat="48.00013" lon="-4.10968">
        <ele>7.85</ele>
        <time>2026-05-02T19:17:50.645Z</time>
      </trkpt>
      <trkpt lat="48.00019" lon="-4.10972">
        <ele>7.65</ele>
        <time>2026-05-02T19:17:51.511Z</time>
      </trkpt>
      <trkpt lat="48.00034" lon="-4.10984">
        <ele>7.69</ele>
        <time>2026-05-02T19:17:54.493Z</time>
      </trkpt>
      <trkpt lat="48.00049" lon="-4.10996">
        <ele>7.36</ele>
        <time>2026-05-02T19:17:56.945Z</time>
      </trkpt>
      <trkpt lat="48.00049" lon="-4.10996">
        <ele>7.25</ele>
        <time>2026-05-02T19:17:56.945Z</time>
      </trkpt>
      <trkpt lat="48.00064" lon="-4.11007">
        <ele>7.09</ele>
        <time>2026-05-02T19:17:59.566Z</time>
      </trkpt>
      <trkpt lat="48.00064" lon="-4.11007">
        <ele>6.98</ele>
        <time>2026-05-02T19:17:59.566Z</time>
      </trkpt>
      <trkpt lat="48.00077" lon="-4.11024">
        <ele>7.11</ele>
        <time>2026-05-02T19:18:02.751Z</time>
      </trkpt>
      <trkpt lat="48.0009" lon="-4.11041">
        <ele>6.76</ele>
        <time>2026-05-02T19:18:05.222Z</time>
      </trkpt>
      <trkpt lat="48.00109" lon="-4.11071">
        <ele>6.66</ele>
        <time>2026-05-02T19:18:09.800Z</time>
      </trkpt>
      <trkpt lat="48.0012" lon="-4.11075">
        <ele>6.78</ele>
        <time>2026-05-02T19:18:11.953Z</time>
      </trkpt>
      <trkpt lat="48.00124" lon="-4.11071">
        <ele>6.64</ele>
        <time>2026-05-02T19:18:12.594Z</time>
      </trkpt>
      <trkpt lat="48.00131" lon="-4.11077">
        <ele>6.5</ele>
        <time>2026-05-02T19:18:13.777Z</time>
      </trkpt>
      <trkpt lat="48.00131" lon="-4.1108">
        <ele>6.37</ele>
        <time>2026-05-02T19:18:13.986Z</time>
      </trkpt>
      <trkpt lat="48.00131" lon="-4.11088">
        <ele>6.24</ele>
        <time>2026-05-02T19:18:14.727Z</time>
      </trkpt>
      <trkpt lat="48.00131" lon="-4.11097">
        <ele>6.1</ele>
        <time>2026-05-02T19:18:15.568Z</time>
      </trkpt>
      <trkpt lat="48.00135" lon="-4.1111">
        <ele>5.93</ele>
        <time>2026-05-02T19:18:16.967Z</time>
      </trkpt>
      <trkpt lat="48.00143" lon="-4.11123">
        <ele>5.76</ele>
        <time>2026-05-02T19:18:18.744Z</time>
      </trkpt>
      <trkpt lat="48.0016" lon="-4.11145">
        <ele>5.54</ele>
        <time>2026-05-02T19:18:22.265Z</time>
      </trkpt>
      <trkpt lat="48.00176" lon="-4.11168">
        <ele>5.46</ele>
        <time>2026-05-02T19:18:25.942Z</time>
      </trkpt>
      <trkpt lat="48.00193" lon="-4.11196">
        <ele>5.37</ele>
        <time>2026-05-02T19:18:30.134Z</time>
      </trkpt>
      <trkpt lat="48.00206" lon="-4.11232">
        <ele>5.33</ele>
        <time>2026-05-02T19:18:34.760Z</time>
      </trkpt>
      <trkpt lat="48.0021" lon="-4.11271">
        <ele>5.26</ele>
        <time>2026-05-02T19:18:39.172Z</time>
      </trkpt>
      <trkpt lat="48.00212" lon="-4.11314">
        <ele>5.03</ele>
        <time>2026-05-02T19:18:43.762Z</time>
      </trkpt>
      <trkpt lat="48.00218" lon="-4.11343">
        <ele>5</ele>
        <time>2026-05-02T19:18:47.193Z</time>
      </trkpt>
      <trkpt lat="48.00223" lon="-4.11371">
        <ele>4.86</ele>
        <time>2026-05-02T19:18:50.300Z</time>
      </trkpt>
      <trkpt lat="48.00231" lon="-4.11389">
        <ele>4.79</ele>
        <time>2026-05-02T19:18:52.668Z</time>
      </trkpt>
      <trkpt lat="48.00234" lon="-4.11391">
        <ele>4.7</ele>
        <time>2026-05-02T19:18:53.112Z</time>
      </trkpt>
      <trkpt lat="48.00238" lon="-4.11393">
        <ele>4.62</ele>
        <time>2026-05-02T19:18:53.722Z</time>
      </trkpt>
      <trkpt lat="48.0024" lon="-4.11404">
        <ele>4.55</ele>
        <time>2026-05-02T19:18:54.922Z</time>
      </trkpt>
      <trkpt lat="48.00246" lon="-4.11417">
        <ele>4.52</ele>
        <time>2026-05-02T19:18:56.685Z</time>
      </trkpt>
      <trkpt lat="48.0027" lon="-4.11438">
        <ele>4.49</ele>
        <time>2026-05-02T19:19:01.402Z</time>
      </trkpt>
      <trkpt lat="48.0027" lon="-4.11438">
        <ele>4.48</ele>
        <time>2026-05-02T19:19:01.402Z</time>
      </trkpt>
      <trkpt lat="48.00294" lon="-4.11459">
        <ele>4.49</ele>
        <time>2026-05-02T19:19:06.184Z</time>
      </trkpt>
      <trkpt lat="48.003" lon="-4.1147">
        <ele>4.46</ele>
        <time>2026-05-02T19:19:07.763Z</time>
      </trkpt>
      <trkpt lat="48.00304" lon="-4.11477">
        <ele>4.54</ele>
        <time>2026-05-02T19:19:08.963Z</time>
      </trkpt>
      <trkpt lat="48.00317" lon="-4.11508">
        <ele>4.65</ele>
        <time>2026-05-02T19:19:13.344Z</time>
      </trkpt>
      <trkpt lat="48.0033" lon="-4.1154">
        <ele>4.78</ele>
        <time>2026-05-02T19:19:17.857Z</time>
      </trkpt>
      <trkpt lat="48.00343" lon="-4.11571">
        <ele>4.94</ele>
        <time>2026-05-02T19:19:22.326Z</time>
      </trkpt>
      <trkpt lat="48.00343" lon="-4.11571">
        <ele>5.18</ele>
        <time>2026-05-02T19:19:22.326Z</time>
      </trkpt>
      <trkpt lat="48.00343" lon="-4.11573">
        <ele>5.47</ele>
        <time>2026-05-02T19:19:23.308Z</time>
      </trkpt>
      <trkpt lat="48.00347" lon="-4.1158">
        <ele>5.8</ele>
        <time>2026-05-02T19:19:25.236Z</time>
      </trkpt>
      <trkpt lat="48.00354" lon="-4.11595">
        <ele>6.18</ele>
        <time>2026-05-02T19:19:28.142Z</time>
      </trkpt>
      <trkpt lat="48.00358" lon="-4.11608">
        <ele>6.49</ele>
        <time>2026-05-02T19:19:30.450Z</time>
      </trkpt>
      <trkpt lat="48.0036" lon="-4.11614">
        <ele>6.92</ele>
        <time>2026-05-02T19:19:32.918Z</time>
      </trkpt>
      <trkpt lat="48.00362" lon="-4.11616">
        <ele>7.28</ele>
        <time>2026-05-02T19:19:34.685Z</time>
      </trkpt>
      <trkpt lat="48.00377" lon="-4.11653">
        <ele>7.45</ele>
        <time>2026-05-02T19:19:39.935Z</time>
      </trkpt>
      <trkpt lat="48.00392" lon="-4.11689">
        <ele>8.03</ele>
        <time>2026-05-02T19:19:45.919Z</time>
      </trkpt>
      <trkpt lat="48.00405" lon="-4.11705">
        <ele>7.91</ele>
        <time>2026-05-02T19:19:48.620Z</time>
      </trkpt>
      <trkpt lat="48.00418" lon="-4.11721">
        <ele>8.17</ele>
        <time>2026-05-02T19:19:51.987Z</time>
      </trkpt>
      <trkpt lat="48.00422" lon="-4.11726">
        <ele>8.3</ele>
        <time>2026-05-02T19:19:53.142Z</time>
      </trkpt>
      <trkpt lat="48.00422" lon="-4.11728">
        <ele>8.36</ele>
        <time>2026-05-02T19:19:53.517Z</time>
      </trkpt>
      <trkpt lat="48.00441" lon="-4.11743">
        <ele>8.4</ele>
        <time>2026-05-02T19:19:57.265Z</time>
      </trkpt>
      <trkpt lat="48.00459" lon="-4.11758">
        <ele>9.2</ele>
        <time>2026-05-02T19:20:02.628Z</time>
      </trkpt>
      <trkpt lat="48.0047" lon="-4.1173">
        <ele>8.72</ele>
        <time>2026-05-02T19:20:05.689Z</time>
      </trkpt>
      <trkpt lat="48.00478" lon="-4.11721">
        <ele>8.49</ele>
        <time>2026-05-02T19:20:07.090Z</time>
      </trkpt>
      <trkpt lat="48.00485" lon="-4.11719">
        <ele>8.25</ele>
        <time>2026-05-02T19:20:08.007Z</time>
      </trkpt>
      <trkpt lat="48.0051" lon="-4.11709">
        <ele>7.48</ele>
        <time>2026-05-02T19:20:11.437Z</time>
      </trkpt>
      <trkpt lat="48.00536" lon="-4.117">
        <ele>7.64</ele>
        <time>2026-05-02T19:20:16.284Z</time>
      </trkpt>
      <trkpt lat="48.00562" lon="-4.11683">
        <ele>6.94</ele>
        <time>2026-05-02T19:20:20.200Z</time>
      </trkpt>
      <trkpt lat="48.00588" lon="-4.11665">
        <ele>6.74</ele>
        <time>2026-05-02T19:20:24.801Z</time>
      </trkpt>
      <trkpt lat="48.00613" lon="-4.11648">
        <ele>6.84</ele>
        <time>2026-05-02T19:20:29.675Z</time>
      </trkpt>
      <trkpt lat="48.00618" lon="-4.11646">
        <ele>6.67</ele>
        <time>2026-05-02T19:20:30.345Z</time>
      </trkpt>
      <trkpt lat="48.00631" lon="-4.11633">
        <ele>6.32</ele>
        <time>2026-05-02T19:20:32.544Z</time>
      </trkpt>
      <trkpt lat="48.00643" lon="-4.11635">
        <ele>6.37</ele>
        <time>2026-05-02T19:20:34.697Z</time>
      </trkpt>
      <trkpt lat="48.00648" lon="-4.11631">
        <ele>6.25</ele>
        <time>2026-05-02T19:20:35.502Z</time>
      </trkpt>
      <trkpt lat="48.00656" lon="-4.11625">
        <ele>6.15</ele>
        <time>2026-05-02T19:20:36.887Z</time>
      </trkpt>
      <trkpt lat="48.00682" lon="-4.11605">
        <ele>6.09</ele>
        <time>2026-05-02T19:20:41.801Z</time>
      </trkpt>
      <trkpt lat="48.00697" lon="-4.11599">
        <ele>6.06</ele>
        <time>2026-05-02T19:20:44.413Z</time>
      </trkpt>
      <trkpt lat="48.0071" lon="-4.11595">
        <ele>6.01</ele>
        <time>2026-05-02T19:20:46.609Z</time>
      </trkpt>
      <trkpt lat="48.00708" lon="-4.11582">
        <ele>6.06</ele>
        <time>2026-05-02T19:20:48.223Z</time>
      </trkpt>
      <trkpt lat="48.00708" lon="-4.11573">
        <ele>6.1</ele>
        <time>2026-05-02T19:20:49.324Z</time>
      </trkpt>
      <trkpt lat="48.00706" lon="-4.11537">
        <ele>6.11</ele>
        <time>2026-05-02T19:20:53.481Z</time>
      </trkpt>
      <trkpt lat="48.0071" lon="-4.11524">
        <ele>6.15</ele>
        <time>2026-05-02T19:20:55.189Z</time>
      </trkpt>
      <trkpt lat="48.00716" lon="-4.11516">
        <ele>6.2</ele>
        <time>2026-05-02T19:20:56.652Z</time>
      </trkpt>
    </trkseg>
  </trk>
</gpx>